<?xml version="1.0" encoding="UTF-8" standalone="no" ?>
<gpx xmlns="http://www.topografix.com/GPX/1/1" xmlns:xsi="http://www.w3.org/2001/XMLSchema-instance" xsi:schemaLocation="http://www.topografix.com/GPX/1/1 http://www.topografix.com/GPX/1/1/gpx.xsd" version="1.1" creator="VisuGPX - https://www.visugpx.com">
  <metadata>
    <name>pic de Tracens</name>
    <desc><![CDATA[pic de tracens par le lac dets Coubous]]></desc>
  </metadata>
  <trk>
    <name><![CDATA[16-MARS-24 02:23:22 PM]]></name>
    <trkseg>
      <trkpt lat="42.90435" lon="0.10316">
        <ele>1460.1</ele>
        <time>2024-03-16T07:17:56Z</time>
      </trkpt>
      <trkpt lat="42.90432" lon="0.10316">
        <ele>1459.9</ele>
        <time>2024-03-16T07:17:57Z</time>
      </trkpt>
      <trkpt lat="42.90427" lon="0.10321">
        <ele>1459.8</ele>
        <time>2024-03-16T07:18:12Z</time>
      </trkpt>
      <trkpt lat="42.90425" lon="0.10324">
        <ele>1460</ele>
        <time>2024-03-16T07:18:34Z</time>
      </trkpt>
      <trkpt lat="42.90424" lon="0.10324">
        <ele>1459.8</ele>
        <time>2024-03-16T07:18:55Z</time>
      </trkpt>
      <trkpt lat="42.90426" lon="0.10321">
        <ele>1459.7</ele>
        <time>2024-03-16T07:19:14Z</time>
      </trkpt>
      <trkpt lat="42.90426" lon="0.1032">
        <ele>1459.6</ele>
        <time>2024-03-16T07:19:40Z</time>
      </trkpt>
      <trkpt lat="42.90427" lon="0.10319">
        <ele>1459.5</ele>
        <time>2024-03-16T07:19:46Z</time>
      </trkpt>
      <trkpt lat="42.90428" lon="0.10318">
        <ele>1459.6</ele>
        <time>2024-03-16T07:19:47Z</time>
      </trkpt>
      <trkpt lat="42.90426" lon="0.10322">
        <ele>1459.8</ele>
        <time>2024-03-16T07:19:54Z</time>
      </trkpt>
      <trkpt lat="42.90427" lon="0.10323">
        <ele>1460.1</ele>
        <time>2024-03-16T07:20:06Z</time>
      </trkpt>
      <trkpt lat="42.90428" lon="0.10322">
        <ele>1459.9</ele>
        <time>2024-03-16T07:20:09Z</time>
      </trkpt>
      <trkpt lat="42.90428" lon="0.10321">
        <ele>1459.9</ele>
        <time>2024-03-16T07:20:10Z</time>
      </trkpt>
      <trkpt lat="42.90427" lon="0.10321">
        <ele>1459.8</ele>
        <time>2024-03-16T07:20:11Z</time>
      </trkpt>
      <trkpt lat="42.90426" lon="0.10326">
        <ele>1460.2</ele>
        <time>2024-03-16T07:20:25Z</time>
      </trkpt>
      <trkpt lat="42.90427" lon="0.10325">
        <ele>1460.3</ele>
        <time>2024-03-16T07:20:40Z</time>
      </trkpt>
      <trkpt lat="42.90428" lon="0.10324">
        <ele>1460.2</ele>
        <time>2024-03-16T07:20:52Z</time>
      </trkpt>
      <trkpt lat="42.90427" lon="0.10325">
        <ele>1460.2</ele>
        <time>2024-03-16T07:20:55Z</time>
      </trkpt>
      <trkpt lat="42.90412" lon="0.10325">
        <ele>1459.1</ele>
        <time>2024-03-16T07:21:06Z</time>
      </trkpt>
      <trkpt lat="42.90397" lon="0.1033">
        <ele>1459.6</ele>
        <time>2024-03-16T07:21:18Z</time>
      </trkpt>
      <trkpt lat="42.90383" lon="0.10334">
        <ele>1460.1</ele>
        <time>2024-03-16T07:21:30Z</time>
      </trkpt>
      <trkpt lat="42.90373" lon="0.10335">
        <ele>1460.2</ele>
        <time>2024-03-16T07:21:40Z</time>
      </trkpt>
      <trkpt lat="42.90359" lon="0.10335">
        <ele>1460.1</ele>
        <time>2024-03-16T07:21:51Z</time>
      </trkpt>
      <trkpt lat="42.90354" lon="0.10336">
        <ele>1460.2</ele>
        <time>2024-03-16T07:22:03Z</time>
      </trkpt>
      <trkpt lat="42.90355" lon="0.10337">
        <ele>1460.3</ele>
        <time>2024-03-16T07:22:15Z</time>
      </trkpt>
      <trkpt lat="42.90353" lon="0.10339">
        <ele>1460.4</ele>
        <time>2024-03-16T07:22:30Z</time>
      </trkpt>
      <trkpt lat="42.90353" lon="0.10336">
        <ele>1460.2</ele>
        <time>2024-03-16T07:22:40Z</time>
      </trkpt>
      <trkpt lat="42.9035" lon="0.10342">
        <ele>1460.7</ele>
        <time>2024-03-16T07:22:41Z</time>
      </trkpt>
      <trkpt lat="42.9035" lon="0.10343">
        <ele>1460.7</ele>
        <time>2024-03-16T07:22:42Z</time>
      </trkpt>
      <trkpt lat="42.9035" lon="0.10343">
        <ele>1460.7</ele>
        <time>2024-03-16T07:22:43Z</time>
      </trkpt>
      <trkpt lat="42.9035" lon="0.10343">
        <ele>1460.7</ele>
        <time>2024-03-16T07:22:44Z</time>
      </trkpt>
      <trkpt lat="42.9035" lon="0.10343">
        <ele>1460.7</ele>
        <time>2024-03-16T07:22:45Z</time>
      </trkpt>
      <trkpt lat="42.9035" lon="0.10343">
        <ele>1460.7</ele>
        <time>2024-03-16T07:22:46Z</time>
      </trkpt>
      <trkpt lat="42.9035" lon="0.10343">
        <ele>1460.7</ele>
        <time>2024-03-16T07:22:47Z</time>
      </trkpt>
      <trkpt lat="42.9035" lon="0.10342">
        <ele>1460.6</ele>
        <time>2024-03-16T07:22:48Z</time>
      </trkpt>
      <trkpt lat="42.90351" lon="0.10341">
        <ele>1460.6</ele>
        <time>2024-03-16T07:22:50Z</time>
      </trkpt>
      <trkpt lat="42.90351" lon="0.1034">
        <ele>1460.5</ele>
        <time>2024-03-16T07:22:51Z</time>
      </trkpt>
      <trkpt lat="42.90353" lon="0.10339">
        <ele>1460.4</ele>
        <time>2024-03-16T07:22:53Z</time>
      </trkpt>
      <trkpt lat="42.90353" lon="0.10339">
        <ele>1460.4</ele>
        <time>2024-03-16T07:22:55Z</time>
      </trkpt>
      <trkpt lat="42.90354" lon="0.10339">
        <ele>1460.4</ele>
        <time>2024-03-16T07:22:57Z</time>
      </trkpt>
      <trkpt lat="42.90354" lon="0.10339">
        <ele>1460.4</ele>
        <time>2024-03-16T07:22:59Z</time>
      </trkpt>
      <trkpt lat="42.90354" lon="0.1034">
        <ele>1460.5</ele>
        <time>2024-03-16T07:23:01Z</time>
      </trkpt>
      <trkpt lat="42.90355" lon="0.10341">
        <ele>1460.5</ele>
        <time>2024-03-16T07:23:03Z</time>
      </trkpt>
      <trkpt lat="42.90355" lon="0.10342">
        <ele>1460.6</ele>
        <time>2024-03-16T07:23:05Z</time>
      </trkpt>
      <trkpt lat="42.90355" lon="0.10341">
        <ele>1460.6</ele>
        <time>2024-03-16T07:23:07Z</time>
      </trkpt>
      <trkpt lat="42.90355" lon="0.10341">
        <ele>1460.5</ele>
        <time>2024-03-16T07:23:09Z</time>
      </trkpt>
      <trkpt lat="42.90356" lon="0.10341">
        <ele>1460.5</ele>
        <time>2024-03-16T07:23:11Z</time>
      </trkpt>
      <trkpt lat="42.90356" lon="0.10341">
        <ele>1460.5</ele>
        <time>2024-03-16T07:23:12Z</time>
      </trkpt>
      <trkpt lat="42.90357" lon="0.1034">
        <ele>1460.5</ele>
        <time>2024-03-16T07:23:14Z</time>
      </trkpt>
      <trkpt lat="42.90357" lon="0.10339">
        <ele>1460.4</ele>
        <time>2024-03-16T07:23:17Z</time>
      </trkpt>
      <trkpt lat="42.90357" lon="0.1034">
        <ele>1460.5</ele>
        <time>2024-03-16T07:23:20Z</time>
      </trkpt>
      <trkpt lat="42.90357" lon="0.10339">
        <ele>1460.4</ele>
        <time>2024-03-16T07:23:23Z</time>
      </trkpt>
      <trkpt lat="42.90359" lon="0.10338">
        <ele>1460.3</ele>
        <time>2024-03-16T07:23:26Z</time>
      </trkpt>
      <trkpt lat="42.9036" lon="0.10335">
        <ele>1460.1</ele>
        <time>2024-03-16T07:23:31Z</time>
      </trkpt>
      <trkpt lat="42.9036" lon="0.10334">
        <ele>1460.1</ele>
        <time>2024-03-16T07:23:35Z</time>
      </trkpt>
      <trkpt lat="42.9036" lon="0.10334">
        <ele>1460.1</ele>
        <time>2024-03-16T07:23:40Z</time>
      </trkpt>
      <trkpt lat="42.9036" lon="0.10334">
        <ele>1460</ele>
        <time>2024-03-16T07:23:43Z</time>
      </trkpt>
      <trkpt lat="42.9035" lon="0.10334">
        <ele>1460</ele>
        <time>2024-03-16T07:23:50Z</time>
      </trkpt>
      <trkpt lat="42.90348" lon="0.10334">
        <ele>1460.1</ele>
        <time>2024-03-16T07:23:52Z</time>
      </trkpt>
      <trkpt lat="42.90346" lon="0.10335">
        <ele>1460.1</ele>
        <time>2024-03-16T07:23:54Z</time>
      </trkpt>
      <trkpt lat="42.90334" lon="0.10333">
        <ele>1460</ele>
        <time>2024-03-16T07:24:04Z</time>
      </trkpt>
      <trkpt lat="42.90319" lon="0.10335">
        <ele>1460.7</ele>
        <time>2024-03-16T07:24:17Z</time>
      </trkpt>
      <trkpt lat="42.90302" lon="0.10339">
        <ele>1461.7</ele>
        <time>2024-03-16T07:24:31Z</time>
      </trkpt>
      <trkpt lat="42.90285" lon="0.10341">
        <ele>1462.8</ele>
        <time>2024-03-16T07:24:46Z</time>
      </trkpt>
      <trkpt lat="42.90273" lon="0.1035">
        <ele>1463.8</ele>
        <time>2024-03-16T07:25:00Z</time>
      </trkpt>
      <trkpt lat="42.90257" lon="0.10351">
        <ele>1464.4</ele>
        <time>2024-03-16T07:25:13Z</time>
      </trkpt>
      <trkpt lat="42.90256" lon="0.10351">
        <ele>1464.4</ele>
        <time>2024-03-16T07:25:15Z</time>
      </trkpt>
      <trkpt lat="42.90255" lon="0.10351">
        <ele>1464.5</ele>
        <time>2024-03-16T07:25:16Z</time>
      </trkpt>
      <trkpt lat="42.90254" lon="0.10351">
        <ele>1464.5</ele>
        <time>2024-03-16T07:25:17Z</time>
      </trkpt>
      <trkpt lat="42.90253" lon="0.10351">
        <ele>1464.5</ele>
        <time>2024-03-16T07:25:18Z</time>
      </trkpt>
      <trkpt lat="42.90247" lon="0.10347">
        <ele>1464.6</ele>
        <time>2024-03-16T07:25:27Z</time>
      </trkpt>
      <trkpt lat="42.90246" lon="0.10347">
        <ele>1464.7</ele>
        <time>2024-03-16T07:25:28Z</time>
      </trkpt>
      <trkpt lat="42.90245" lon="0.10347">
        <ele>1464.7</ele>
        <time>2024-03-16T07:25:30Z</time>
      </trkpt>
      <trkpt lat="42.90235" lon="0.1035">
        <ele>1465.5</ele>
        <time>2024-03-16T07:25:42Z</time>
      </trkpt>
      <trkpt lat="42.90227" lon="0.10352">
        <ele>1466.1</ele>
        <time>2024-03-16T07:25:50Z</time>
      </trkpt>
      <trkpt lat="42.90214" lon="0.10354">
        <ele>1467.1</ele>
        <time>2024-03-16T07:26:03Z</time>
      </trkpt>
      <trkpt lat="42.90202" lon="0.10359">
        <ele>1468.3</ele>
        <time>2024-03-16T07:26:16Z</time>
      </trkpt>
      <trkpt lat="42.90191" lon="0.10362">
        <ele>1469.4</ele>
        <time>2024-03-16T07:26:28Z</time>
      </trkpt>
      <trkpt lat="42.90188" lon="0.10363">
        <ele>1469.8</ele>
        <time>2024-03-16T07:26:32Z</time>
      </trkpt>
      <trkpt lat="42.90187" lon="0.10363">
        <ele>1470</ele>
        <time>2024-03-16T07:26:33Z</time>
      </trkpt>
      <trkpt lat="42.90186" lon="0.10364">
        <ele>1470.1</ele>
        <time>2024-03-16T07:26:34Z</time>
      </trkpt>
      <trkpt lat="42.90185" lon="0.10365">
        <ele>1470.3</ele>
        <time>2024-03-16T07:26:35Z</time>
      </trkpt>
      <trkpt lat="42.90184" lon="0.10365">
        <ele>1470.5</ele>
        <time>2024-03-16T07:26:37Z</time>
      </trkpt>
      <trkpt lat="42.90183" lon="0.10366">
        <ele>1470.6</ele>
        <time>2024-03-16T07:26:38Z</time>
      </trkpt>
      <trkpt lat="42.9018" lon="0.10366">
        <ele>1470.7</ele>
        <time>2024-03-16T07:26:42Z</time>
      </trkpt>
      <trkpt lat="42.90174" lon="0.10368">
        <ele>1471.4</ele>
        <time>2024-03-16T07:26:50Z</time>
      </trkpt>
      <trkpt lat="42.90173" lon="0.10368">
        <ele>1471.5</ele>
        <time>2024-03-16T07:26:51Z</time>
      </trkpt>
      <trkpt lat="42.90168" lon="0.1037">
        <ele>1471.9</ele>
        <time>2024-03-16T07:26:57Z</time>
      </trkpt>
      <trkpt lat="42.90157" lon="0.10375">
        <ele>1473</ele>
        <time>2024-03-16T07:27:09Z</time>
      </trkpt>
      <trkpt lat="42.90155" lon="0.10376">
        <ele>1473.2</ele>
        <time>2024-03-16T07:27:11Z</time>
      </trkpt>
      <trkpt lat="42.90154" lon="0.10376">
        <ele>1473.3</ele>
        <time>2024-03-16T07:27:12Z</time>
      </trkpt>
      <trkpt lat="42.90141" lon="0.10381">
        <ele>1474.3</ele>
        <time>2024-03-16T07:27:26Z</time>
      </trkpt>
      <trkpt lat="42.90139" lon="0.10382">
        <ele>1474.5</ele>
        <time>2024-03-16T07:27:29Z</time>
      </trkpt>
      <trkpt lat="42.90124" lon="0.10386">
        <ele>1475.3</ele>
        <time>2024-03-16T07:27:44Z</time>
      </trkpt>
      <trkpt lat="42.90123" lon="0.10387">
        <ele>1475.4</ele>
        <time>2024-03-16T07:27:45Z</time>
      </trkpt>
      <trkpt lat="42.90123" lon="0.10387">
        <ele>1475.4</ele>
        <time>2024-03-16T07:27:46Z</time>
      </trkpt>
      <trkpt lat="42.90122" lon="0.10387">
        <ele>1475.5</ele>
        <time>2024-03-16T07:27:47Z</time>
      </trkpt>
      <trkpt lat="42.90117" lon="0.10389">
        <ele>1475.8</ele>
        <time>2024-03-16T07:27:52Z</time>
      </trkpt>
      <trkpt lat="42.90116" lon="0.1039">
        <ele>1475.9</ele>
        <time>2024-03-16T07:27:53Z</time>
      </trkpt>
      <trkpt lat="42.90115" lon="0.1039">
        <ele>1476</ele>
        <time>2024-03-16T07:27:55Z</time>
      </trkpt>
      <trkpt lat="42.90114" lon="0.1039">
        <ele>1476</ele>
        <time>2024-03-16T07:27:56Z</time>
      </trkpt>
      <trkpt lat="42.90111" lon="0.10391">
        <ele>1476.2</ele>
        <time>2024-03-16T07:27:59Z</time>
      </trkpt>
      <trkpt lat="42.90107" lon="0.10392">
        <ele>1476.6</ele>
        <time>2024-03-16T07:28:05Z</time>
      </trkpt>
      <trkpt lat="42.90093" lon="0.10394">
        <ele>1477.7</ele>
        <time>2024-03-16T07:28:21Z</time>
      </trkpt>
      <trkpt lat="42.90093" lon="0.10394">
        <ele>1477.8</ele>
        <time>2024-03-16T07:28:22Z</time>
      </trkpt>
      <trkpt lat="42.9008" lon="0.10398">
        <ele>1479</ele>
        <time>2024-03-16T07:28:39Z</time>
      </trkpt>
      <trkpt lat="42.90077" lon="0.10399">
        <ele>1479.3</ele>
        <time>2024-03-16T07:28:41Z</time>
      </trkpt>
      <trkpt lat="42.90071" lon="0.10401">
        <ele>1480.1</ele>
        <time>2024-03-16T07:28:48Z</time>
      </trkpt>
      <trkpt lat="42.90056" lon="0.10406">
        <ele>1482.5</ele>
        <time>2024-03-16T07:29:03Z</time>
      </trkpt>
      <trkpt lat="42.90044" lon="0.1041">
        <ele>1484.3</ele>
        <time>2024-03-16T07:29:17Z</time>
      </trkpt>
      <trkpt lat="42.90043" lon="0.1041">
        <ele>1484.4</ele>
        <time>2024-03-16T07:29:18Z</time>
      </trkpt>
      <trkpt lat="42.90042" lon="0.1041">
        <ele>1484.4</ele>
        <time>2024-03-16T07:29:19Z</time>
      </trkpt>
      <trkpt lat="42.9003" lon="0.10413">
        <ele>1486.2</ele>
        <time>2024-03-16T07:29:33Z</time>
      </trkpt>
      <trkpt lat="42.90027" lon="0.10413">
        <ele>1486.4</ele>
        <time>2024-03-16T07:29:36Z</time>
      </trkpt>
      <trkpt lat="42.90027" lon="0.10413">
        <ele>1486.3</ele>
        <time>2024-03-16T07:29:37Z</time>
      </trkpt>
      <trkpt lat="42.90017" lon="0.10416">
        <ele>1487.3</ele>
        <time>2024-03-16T07:29:49Z</time>
      </trkpt>
      <trkpt lat="42.90006" lon="0.10418">
        <ele>1488</ele>
        <time>2024-03-16T07:30:03Z</time>
      </trkpt>
      <trkpt lat="42.89996" lon="0.10422">
        <ele>1489.1</ele>
        <time>2024-03-16T07:30:13Z</time>
      </trkpt>
      <trkpt lat="42.89984" lon="0.10425">
        <ele>1490.3</ele>
        <time>2024-03-16T07:30:23Z</time>
      </trkpt>
      <trkpt lat="42.89971" lon="0.10426">
        <ele>1491.1</ele>
        <time>2024-03-16T07:30:38Z</time>
      </trkpt>
      <trkpt lat="42.89968" lon="0.10427">
        <ele>1491.2</ele>
        <time>2024-03-16T07:30:41Z</time>
      </trkpt>
      <trkpt lat="42.89967" lon="0.10427">
        <ele>1491.3</ele>
        <time>2024-03-16T07:30:42Z</time>
      </trkpt>
      <trkpt lat="42.89951" lon="0.10429">
        <ele>1491.8</ele>
        <time>2024-03-16T07:31:00Z</time>
      </trkpt>
      <trkpt lat="42.89931" lon="0.10434">
        <ele>1492.5</ele>
        <time>2024-03-16T07:31:18Z</time>
      </trkpt>
      <trkpt lat="42.89923" lon="0.10434">
        <ele>1492.6</ele>
        <time>2024-03-16T07:31:29Z</time>
      </trkpt>
      <trkpt lat="42.89922" lon="0.10434">
        <ele>1492.6</ele>
        <time>2024-03-16T07:31:30Z</time>
      </trkpt>
      <trkpt lat="42.89921" lon="0.10434">
        <ele>1492.6</ele>
        <time>2024-03-16T07:31:31Z</time>
      </trkpt>
      <trkpt lat="42.89904" lon="0.10439">
        <ele>1494</ele>
        <time>2024-03-16T07:31:47Z</time>
      </trkpt>
      <trkpt lat="42.89895" lon="0.10439">
        <ele>1494.9</ele>
        <time>2024-03-16T07:32:00Z</time>
      </trkpt>
      <trkpt lat="42.89894" lon="0.1044">
        <ele>1495</ele>
        <time>2024-03-16T07:32:01Z</time>
      </trkpt>
      <trkpt lat="42.89878" lon="0.10447">
        <ele>1496.9</ele>
        <time>2024-03-16T07:32:18Z</time>
      </trkpt>
      <trkpt lat="42.89877" lon="0.10447">
        <ele>1497.1</ele>
        <time>2024-03-16T07:32:19Z</time>
      </trkpt>
      <trkpt lat="42.89867" lon="0.10448">
        <ele>1498.6</ele>
        <time>2024-03-16T07:32:30Z</time>
      </trkpt>
      <trkpt lat="42.89854" lon="0.10455">
        <ele>1500.4</ele>
        <time>2024-03-16T07:32:45Z</time>
      </trkpt>
      <trkpt lat="42.89842" lon="0.10462">
        <ele>1501.8</ele>
        <time>2024-03-16T07:32:58Z</time>
      </trkpt>
      <trkpt lat="42.89838" lon="0.10466">
        <ele>1502</ele>
        <time>2024-03-16T07:33:11Z</time>
      </trkpt>
      <trkpt lat="42.89833" lon="0.10468">
        <ele>1502.6</ele>
        <time>2024-03-16T07:33:16Z</time>
      </trkpt>
      <trkpt lat="42.8982" lon="0.10475">
        <ele>1504.2</ele>
        <time>2024-03-16T07:33:28Z</time>
      </trkpt>
      <trkpt lat="42.89808" lon="0.10485">
        <ele>1505.3</ele>
        <time>2024-03-16T07:33:42Z</time>
      </trkpt>
      <trkpt lat="42.89801" lon="0.10488">
        <ele>1506</ele>
        <time>2024-03-16T07:33:51Z</time>
      </trkpt>
      <trkpt lat="42.89798" lon="0.10489">
        <ele>1506.5</ele>
        <time>2024-03-16T07:33:55Z</time>
      </trkpt>
      <trkpt lat="42.89786" lon="0.10499">
        <ele>1507.7</ele>
        <time>2024-03-16T07:34:09Z</time>
      </trkpt>
      <trkpt lat="42.89774" lon="0.10503">
        <ele>1509.5</ele>
        <time>2024-03-16T07:34:22Z</time>
      </trkpt>
      <trkpt lat="42.89762" lon="0.10506">
        <ele>1511.3</ele>
        <time>2024-03-16T07:34:36Z</time>
      </trkpt>
      <trkpt lat="42.89749" lon="0.10501">
        <ele>1513.1</ele>
        <time>2024-03-16T07:34:49Z</time>
      </trkpt>
      <trkpt lat="42.89737" lon="0.10496">
        <ele>1514.8</ele>
        <time>2024-03-16T07:35:02Z</time>
      </trkpt>
      <trkpt lat="42.89724" lon="0.1049">
        <ele>1517</ele>
        <time>2024-03-16T07:35:17Z</time>
      </trkpt>
      <trkpt lat="42.8971" lon="0.10487">
        <ele>1519.3</ele>
        <time>2024-03-16T07:35:31Z</time>
      </trkpt>
      <trkpt lat="42.89701" lon="0.10487">
        <ele>1520.7</ele>
        <time>2024-03-16T07:35:43Z</time>
      </trkpt>
      <trkpt lat="42.89697" lon="0.10488">
        <ele>1521.4</ele>
        <time>2024-03-16T07:35:48Z</time>
      </trkpt>
      <trkpt lat="42.89683" lon="0.10487">
        <ele>1523.8</ele>
        <time>2024-03-16T07:36:04Z</time>
      </trkpt>
      <trkpt lat="42.8967" lon="0.10488">
        <ele>1526</ele>
        <time>2024-03-16T07:36:21Z</time>
      </trkpt>
      <trkpt lat="42.89665" lon="0.10487">
        <ele>1527.1</ele>
        <time>2024-03-16T07:36:33Z</time>
      </trkpt>
      <trkpt lat="42.89665" lon="0.10487">
        <ele>1527</ele>
        <time>2024-03-16T07:36:35Z</time>
      </trkpt>
      <trkpt lat="42.89657" lon="0.10491">
        <ele>1526.9</ele>
        <time>2024-03-16T07:36:46Z</time>
      </trkpt>
      <trkpt lat="42.8965" lon="0.10492">
        <ele>1527.4</ele>
        <time>2024-03-16T07:36:56Z</time>
      </trkpt>
      <trkpt lat="42.89649" lon="0.10492">
        <ele>1527.5</ele>
        <time>2024-03-16T07:36:57Z</time>
      </trkpt>
      <trkpt lat="42.89648" lon="0.10491">
        <ele>1527.8</ele>
        <time>2024-03-16T07:36:59Z</time>
      </trkpt>
      <trkpt lat="42.89643" lon="0.10492">
        <ele>1528.2</ele>
        <time>2024-03-16T07:37:07Z</time>
      </trkpt>
      <trkpt lat="42.89642" lon="0.10491">
        <ele>1528.5</ele>
        <time>2024-03-16T07:37:09Z</time>
      </trkpt>
      <trkpt lat="42.89641" lon="0.10491">
        <ele>1528.7</ele>
        <time>2024-03-16T07:37:10Z</time>
      </trkpt>
      <trkpt lat="42.8964" lon="0.10491">
        <ele>1528.8</ele>
        <time>2024-03-16T07:37:11Z</time>
      </trkpt>
      <trkpt lat="42.8964" lon="0.1049">
        <ele>1529</ele>
        <time>2024-03-16T07:37:12Z</time>
      </trkpt>
      <trkpt lat="42.89638" lon="0.1049">
        <ele>1529.3</ele>
        <time>2024-03-16T07:37:14Z</time>
      </trkpt>
      <trkpt lat="42.89634" lon="0.10488">
        <ele>1529.9</ele>
        <time>2024-03-16T07:37:19Z</time>
      </trkpt>
      <trkpt lat="42.89624" lon="0.10485">
        <ele>1530.6</ele>
        <time>2024-03-16T07:37:31Z</time>
      </trkpt>
      <trkpt lat="42.8961" lon="0.10474">
        <ele>1533.4</ele>
        <time>2024-03-16T07:37:50Z</time>
      </trkpt>
      <trkpt lat="42.89602" lon="0.10472">
        <ele>1533.6</ele>
        <time>2024-03-16T07:37:59Z</time>
      </trkpt>
      <trkpt lat="42.8959" lon="0.10468">
        <ele>1534</ele>
        <time>2024-03-16T07:38:13Z</time>
      </trkpt>
      <trkpt lat="42.89579" lon="0.10462">
        <ele>1535.2</ele>
        <time>2024-03-16T07:38:27Z</time>
      </trkpt>
      <trkpt lat="42.89577" lon="0.10462">
        <ele>1535.3</ele>
        <time>2024-03-16T07:38:30Z</time>
      </trkpt>
      <trkpt lat="42.89565" lon="0.10454">
        <ele>1537.4</ele>
        <time>2024-03-16T07:38:45Z</time>
      </trkpt>
      <trkpt lat="42.89558" lon="0.10453">
        <ele>1537.7</ele>
        <time>2024-03-16T07:38:55Z</time>
      </trkpt>
      <trkpt lat="42.89552" lon="0.10458">
        <ele>1536.3</ele>
        <time>2024-03-16T07:39:03Z</time>
      </trkpt>
      <trkpt lat="42.89547" lon="0.10467">
        <ele>1534</ele>
        <time>2024-03-16T07:39:12Z</time>
      </trkpt>
      <trkpt lat="42.89544" lon="0.10477">
        <ele>1533.1</ele>
        <time>2024-03-16T07:39:21Z</time>
      </trkpt>
      <trkpt lat="42.89541" lon="0.10486">
        <ele>1534</ele>
        <time>2024-03-16T07:39:30Z</time>
      </trkpt>
      <trkpt lat="42.89538" lon="0.10498">
        <ele>1535.3</ele>
        <time>2024-03-16T07:39:40Z</time>
      </trkpt>
      <trkpt lat="42.89535" lon="0.10506">
        <ele>1536.2</ele>
        <time>2024-03-16T07:39:49Z</time>
      </trkpt>
      <trkpt lat="42.8953" lon="0.10511">
        <ele>1537.4</ele>
        <time>2024-03-16T07:39:58Z</time>
      </trkpt>
      <trkpt lat="42.89526" lon="0.10516">
        <ele>1538.3</ele>
        <time>2024-03-16T07:40:06Z</time>
      </trkpt>
      <trkpt lat="42.89522" lon="0.10519">
        <ele>1539.3</ele>
        <time>2024-03-16T07:40:13Z</time>
      </trkpt>
      <trkpt lat="42.89517" lon="0.10522">
        <ele>1540.5</ele>
        <time>2024-03-16T07:40:20Z</time>
      </trkpt>
      <trkpt lat="42.89513" lon="0.10525">
        <ele>1541.5</ele>
        <time>2024-03-16T07:40:26Z</time>
      </trkpt>
      <trkpt lat="42.89507" lon="0.10527">
        <ele>1542.7</ele>
        <time>2024-03-16T07:40:33Z</time>
      </trkpt>
      <trkpt lat="42.89502" lon="0.10531">
        <ele>1543.9</ele>
        <time>2024-03-16T07:40:41Z</time>
      </trkpt>
      <trkpt lat="42.89499" lon="0.10537">
        <ele>1544.8</ele>
        <time>2024-03-16T07:40:48Z</time>
      </trkpt>
      <trkpt lat="42.89493" lon="0.1054">
        <ele>1545.6</ele>
        <time>2024-03-16T07:40:54Z</time>
      </trkpt>
      <trkpt lat="42.89491" lon="0.10542">
        <ele>1546</ele>
        <time>2024-03-16T07:40:57Z</time>
      </trkpt>
      <trkpt lat="42.89483" lon="0.10546">
        <ele>1547.3</ele>
        <time>2024-03-16T07:41:06Z</time>
      </trkpt>
      <trkpt lat="42.89483" lon="0.10542">
        <ele>1546.8</ele>
        <time>2024-03-16T07:41:13Z</time>
      </trkpt>
      <trkpt lat="42.89479" lon="0.10541">
        <ele>1547.1</ele>
        <time>2024-03-16T07:41:19Z</time>
      </trkpt>
      <trkpt lat="42.89476" lon="0.10544">
        <ele>1547.9</ele>
        <time>2024-03-16T07:41:25Z</time>
      </trkpt>
      <trkpt lat="42.89473" lon="0.10551">
        <ele>1549.3</ele>
        <time>2024-03-16T07:41:32Z</time>
      </trkpt>
      <trkpt lat="42.89466" lon="0.10552">
        <ele>1549.9</ele>
        <time>2024-03-16T07:41:39Z</time>
      </trkpt>
      <trkpt lat="42.8946" lon="0.10555">
        <ele>1550.7</ele>
        <time>2024-03-16T07:41:47Z</time>
      </trkpt>
      <trkpt lat="42.89458" lon="0.10557">
        <ele>1551.3</ele>
        <time>2024-03-16T07:41:53Z</time>
      </trkpt>
      <trkpt lat="42.89454" lon="0.10564">
        <ele>1552.5</ele>
        <time>2024-03-16T07:42:03Z</time>
      </trkpt>
      <trkpt lat="42.89452" lon="0.10567">
        <ele>1553.2</ele>
        <time>2024-03-16T07:42:07Z</time>
      </trkpt>
      <trkpt lat="42.89449" lon="0.10574">
        <ele>1554.6</ele>
        <time>2024-03-16T07:42:16Z</time>
      </trkpt>
      <trkpt lat="42.89445" lon="0.10577">
        <ele>1555.8</ele>
        <time>2024-03-16T07:42:23Z</time>
      </trkpt>
      <trkpt lat="42.89442" lon="0.10582">
        <ele>1557.2</ele>
        <time>2024-03-16T07:42:30Z</time>
      </trkpt>
      <trkpt lat="42.89441" lon="0.10589">
        <ele>1558.2</ele>
        <time>2024-03-16T07:42:37Z</time>
      </trkpt>
      <trkpt lat="42.89441" lon="0.10586">
        <ele>1557.8</ele>
        <time>2024-03-16T07:42:44Z</time>
      </trkpt>
      <trkpt lat="42.89449" lon="0.10585">
        <ele>1556.4</ele>
        <time>2024-03-16T07:43:01Z</time>
      </trkpt>
      <trkpt lat="42.89443" lon="0.10588">
        <ele>1557.8</ele>
        <time>2024-03-16T07:43:15Z</time>
      </trkpt>
      <trkpt lat="42.89441" lon="0.10592">
        <ele>1558.5</ele>
        <time>2024-03-16T07:43:20Z</time>
      </trkpt>
      <trkpt lat="42.89436" lon="0.10597">
        <ele>1560</ele>
        <time>2024-03-16T07:43:28Z</time>
      </trkpt>
      <trkpt lat="42.89432" lon="0.10601">
        <ele>1561.3</ele>
        <time>2024-03-16T07:43:35Z</time>
      </trkpt>
      <trkpt lat="42.8943" lon="0.10609">
        <ele>1562.9</ele>
        <time>2024-03-16T07:43:45Z</time>
      </trkpt>
      <trkpt lat="42.89423" lon="0.10614">
        <ele>1565</ele>
        <time>2024-03-16T07:43:53Z</time>
      </trkpt>
      <trkpt lat="42.8942" lon="0.10621">
        <ele>1566.8</ele>
        <time>2024-03-16T07:44:00Z</time>
      </trkpt>
      <trkpt lat="42.89417" lon="0.10628">
        <ele>1568.4</ele>
        <time>2024-03-16T07:44:07Z</time>
      </trkpt>
      <trkpt lat="42.89414" lon="0.10636">
        <ele>1570.2</ele>
        <time>2024-03-16T07:44:15Z</time>
      </trkpt>
      <trkpt lat="42.8941" lon="0.1064">
        <ele>1571.7</ele>
        <time>2024-03-16T07:44:23Z</time>
      </trkpt>
      <trkpt lat="42.89407" lon="0.10641">
        <ele>1572.3</ele>
        <time>2024-03-16T07:44:25Z</time>
      </trkpt>
      <trkpt lat="42.89401" lon="0.10639">
        <ele>1573.5</ele>
        <time>2024-03-16T07:44:33Z</time>
      </trkpt>
      <trkpt lat="42.89394" lon="0.10638">
        <ele>1574.7</ele>
        <time>2024-03-16T07:44:42Z</time>
      </trkpt>
      <trkpt lat="42.89388" lon="0.10639">
        <ele>1576.2</ele>
        <time>2024-03-16T07:44:50Z</time>
      </trkpt>
      <trkpt lat="42.89383" lon="0.10639">
        <ele>1577.4</ele>
        <time>2024-03-16T07:44:59Z</time>
      </trkpt>
      <trkpt lat="42.89375" lon="0.10639">
        <ele>1579</ele>
        <time>2024-03-16T07:45:08Z</time>
      </trkpt>
      <trkpt lat="42.89369" lon="0.10638">
        <ele>1580.1</ele>
        <time>2024-03-16T07:45:16Z</time>
      </trkpt>
      <trkpt lat="42.89362" lon="0.10638">
        <ele>1581.7</ele>
        <time>2024-03-16T07:45:25Z</time>
      </trkpt>
      <trkpt lat="42.89355" lon="0.10641">
        <ele>1583.6</ele>
        <time>2024-03-16T07:45:35Z</time>
      </trkpt>
      <trkpt lat="42.8935" lon="0.10643">
        <ele>1585.3</ele>
        <time>2024-03-16T07:45:43Z</time>
      </trkpt>
      <trkpt lat="42.89344" lon="0.10643">
        <ele>1586.4</ele>
        <time>2024-03-16T07:45:51Z</time>
      </trkpt>
      <trkpt lat="42.89339" lon="0.10642">
        <ele>1587.4</ele>
        <time>2024-03-16T07:45:59Z</time>
      </trkpt>
      <trkpt lat="42.89337" lon="0.10644">
        <ele>1588.2</ele>
        <time>2024-03-16T07:46:06Z</time>
      </trkpt>
      <trkpt lat="42.89335" lon="0.10644">
        <ele>1588.7</ele>
        <time>2024-03-16T07:46:14Z</time>
      </trkpt>
      <trkpt lat="42.89329" lon="0.10645">
        <ele>1589.8</ele>
        <time>2024-03-16T07:46:23Z</time>
      </trkpt>
      <trkpt lat="42.89327" lon="0.10646">
        <ele>1590.5</ele>
        <time>2024-03-16T07:46:26Z</time>
      </trkpt>
      <trkpt lat="42.89321" lon="0.10647">
        <ele>1591.7</ele>
        <time>2024-03-16T07:46:35Z</time>
      </trkpt>
      <trkpt lat="42.89317" lon="0.10649">
        <ele>1592.9</ele>
        <time>2024-03-16T07:46:43Z</time>
      </trkpt>
      <trkpt lat="42.89311" lon="0.1065">
        <ele>1593.8</ele>
        <time>2024-03-16T07:46:48Z</time>
      </trkpt>
      <trkpt lat="42.89304" lon="0.1065">
        <ele>1595.2</ele>
        <time>2024-03-16T07:46:56Z</time>
      </trkpt>
      <trkpt lat="42.89299" lon="0.1065">
        <ele>1596.1</ele>
        <time>2024-03-16T07:47:04Z</time>
      </trkpt>
      <trkpt lat="42.89292" lon="0.10651">
        <ele>1597.6</ele>
        <time>2024-03-16T07:47:13Z</time>
      </trkpt>
      <trkpt lat="42.89286" lon="0.10651">
        <ele>1598.8</ele>
        <time>2024-03-16T07:47:23Z</time>
      </trkpt>
      <trkpt lat="42.8928" lon="0.1065">
        <ele>1599.6</ele>
        <time>2024-03-16T07:47:33Z</time>
      </trkpt>
      <trkpt lat="42.89274" lon="0.1065">
        <ele>1600.6</ele>
        <time>2024-03-16T07:47:41Z</time>
      </trkpt>
      <trkpt lat="42.89268" lon="0.1065">
        <ele>1601.6</ele>
        <time>2024-03-16T07:47:51Z</time>
      </trkpt>
      <trkpt lat="42.89263" lon="0.10652">
        <ele>1602.7</ele>
        <time>2024-03-16T07:47:58Z</time>
      </trkpt>
      <trkpt lat="42.89257" lon="0.10654">
        <ele>1604.1</ele>
        <time>2024-03-16T07:48:07Z</time>
      </trkpt>
      <trkpt lat="42.89253" lon="0.10655">
        <ele>1605.1</ele>
        <time>2024-03-16T07:48:15Z</time>
      </trkpt>
      <trkpt lat="42.89248" lon="0.10658">
        <ele>1606.4</ele>
        <time>2024-03-16T07:48:23Z</time>
      </trkpt>
      <trkpt lat="42.89243" lon="0.10662">
        <ele>1608</ele>
        <time>2024-03-16T07:48:33Z</time>
      </trkpt>
      <trkpt lat="42.89236" lon="0.10664">
        <ele>1609.4</ele>
        <time>2024-03-16T07:48:44Z</time>
      </trkpt>
      <trkpt lat="42.89228" lon="0.10664">
        <ele>1610.5</ele>
        <time>2024-03-16T07:48:54Z</time>
      </trkpt>
      <trkpt lat="42.89223" lon="0.10664">
        <ele>1611.3</ele>
        <time>2024-03-16T07:49:01Z</time>
      </trkpt>
      <trkpt lat="42.89215" lon="0.10664">
        <ele>1612.6</ele>
        <time>2024-03-16T07:49:11Z</time>
      </trkpt>
      <trkpt lat="42.89209" lon="0.10663">
        <ele>1613.4</ele>
        <time>2024-03-16T07:49:20Z</time>
      </trkpt>
      <trkpt lat="42.89205" lon="0.10663">
        <ele>1614.2</ele>
        <time>2024-03-16T07:49:29Z</time>
      </trkpt>
      <trkpt lat="42.89199" lon="0.10665">
        <ele>1615.8</ele>
        <time>2024-03-16T07:49:39Z</time>
      </trkpt>
      <trkpt lat="42.89194" lon="0.10665">
        <ele>1616.6</ele>
        <time>2024-03-16T07:49:47Z</time>
      </trkpt>
      <trkpt lat="42.89189" lon="0.10665">
        <ele>1617.4</ele>
        <time>2024-03-16T07:49:55Z</time>
      </trkpt>
      <trkpt lat="42.89183" lon="0.10665">
        <ele>1618.1</ele>
        <time>2024-03-16T07:50:02Z</time>
      </trkpt>
      <trkpt lat="42.89178" lon="0.10666">
        <ele>1619.1</ele>
        <time>2024-03-16T07:50:11Z</time>
      </trkpt>
      <trkpt lat="42.89171" lon="0.10669">
        <ele>1621.2</ele>
        <time>2024-03-16T07:50:21Z</time>
      </trkpt>
      <trkpt lat="42.89168" lon="0.10671">
        <ele>1622.3</ele>
        <time>2024-03-16T07:50:28Z</time>
      </trkpt>
      <trkpt lat="42.89162" lon="0.10675">
        <ele>1623.9</ele>
        <time>2024-03-16T07:50:37Z</time>
      </trkpt>
      <trkpt lat="42.89157" lon="0.10677">
        <ele>1625.1</ele>
        <time>2024-03-16T07:50:45Z</time>
      </trkpt>
      <trkpt lat="42.89155" lon="0.10679">
        <ele>1626</ele>
        <time>2024-03-16T07:50:54Z</time>
      </trkpt>
      <trkpt lat="42.89149" lon="0.10683">
        <ele>1627.4</ele>
        <time>2024-03-16T07:51:02Z</time>
      </trkpt>
      <trkpt lat="42.89146" lon="0.10685">
        <ele>1628.4</ele>
        <time>2024-03-16T07:51:10Z</time>
      </trkpt>
      <trkpt lat="42.89141" lon="0.10688">
        <ele>1629.9</ele>
        <time>2024-03-16T07:51:19Z</time>
      </trkpt>
      <trkpt lat="42.89136" lon="0.10694">
        <ele>1631.8</ele>
        <time>2024-03-16T07:51:27Z</time>
      </trkpt>
      <trkpt lat="42.89129" lon="0.107">
        <ele>1633.9</ele>
        <time>2024-03-16T07:51:39Z</time>
      </trkpt>
      <trkpt lat="42.89125" lon="0.10702">
        <ele>1635</ele>
        <time>2024-03-16T07:51:46Z</time>
      </trkpt>
      <trkpt lat="42.89121" lon="0.10705">
        <ele>1636.2</ele>
        <time>2024-03-16T07:51:53Z</time>
      </trkpt>
      <trkpt lat="42.89119" lon="0.10709">
        <ele>1637.4</ele>
        <time>2024-03-16T07:52:01Z</time>
      </trkpt>
      <trkpt lat="42.89115" lon="0.1071">
        <ele>1638.1</ele>
        <time>2024-03-16T07:52:10Z</time>
      </trkpt>
      <trkpt lat="42.89111" lon="0.10715">
        <ele>1640</ele>
        <time>2024-03-16T07:52:17Z</time>
      </trkpt>
      <trkpt lat="42.89105" lon="0.10717">
        <ele>1641.2</ele>
        <time>2024-03-16T07:52:27Z</time>
      </trkpt>
      <trkpt lat="42.89098" lon="0.1072">
        <ele>1642.6</ele>
        <time>2024-03-16T07:52:36Z</time>
      </trkpt>
      <trkpt lat="42.89093" lon="0.1072">
        <ele>1643</ele>
        <time>2024-03-16T07:52:44Z</time>
      </trkpt>
      <trkpt lat="42.8909" lon="0.10721">
        <ele>1643.3</ele>
        <time>2024-03-16T07:52:51Z</time>
      </trkpt>
      <trkpt lat="42.89085" lon="0.10721">
        <ele>1643.4</ele>
        <time>2024-03-16T07:52:59Z</time>
      </trkpt>
      <trkpt lat="42.8908" lon="0.10721">
        <ele>1643.5</ele>
        <time>2024-03-16T07:53:06Z</time>
      </trkpt>
      <trkpt lat="42.89078" lon="0.10721">
        <ele>1643.6</ele>
        <time>2024-03-16T07:53:12Z</time>
      </trkpt>
      <trkpt lat="42.89077" lon="0.10724">
        <ele>1644.8</ele>
        <time>2024-03-16T07:53:18Z</time>
      </trkpt>
      <trkpt lat="42.89073" lon="0.10729">
        <ele>1646.8</ele>
        <time>2024-03-16T07:53:25Z</time>
      </trkpt>
      <trkpt lat="42.8907" lon="0.10733">
        <ele>1648.2</ele>
        <time>2024-03-16T07:53:32Z</time>
      </trkpt>
      <trkpt lat="42.89066" lon="0.10737">
        <ele>1649.7</ele>
        <time>2024-03-16T07:53:38Z</time>
      </trkpt>
      <trkpt lat="42.89065" lon="0.10737">
        <ele>1649.9</ele>
        <time>2024-03-16T07:53:39Z</time>
      </trkpt>
      <trkpt lat="42.89059" lon="0.10741">
        <ele>1651.1</ele>
        <time>2024-03-16T07:53:47Z</time>
      </trkpt>
      <trkpt lat="42.89056" lon="0.10743">
        <ele>1651.6</ele>
        <time>2024-03-16T07:53:50Z</time>
      </trkpt>
      <trkpt lat="42.89048" lon="0.10746">
        <ele>1652.8</ele>
        <time>2024-03-16T07:53:59Z</time>
      </trkpt>
      <trkpt lat="42.8904" lon="0.10749">
        <ele>1653.7</ele>
        <time>2024-03-16T07:54:07Z</time>
      </trkpt>
      <trkpt lat="42.89034" lon="0.10748">
        <ele>1653.4</ele>
        <time>2024-03-16T07:54:15Z</time>
      </trkpt>
      <trkpt lat="42.89027" lon="0.1075">
        <ele>1654.1</ele>
        <time>2024-03-16T07:54:24Z</time>
      </trkpt>
      <trkpt lat="42.89021" lon="0.10753">
        <ele>1656.2</ele>
        <time>2024-03-16T07:54:31Z</time>
      </trkpt>
      <trkpt lat="42.89016" lon="0.10754">
        <ele>1657</ele>
        <time>2024-03-16T07:54:38Z</time>
      </trkpt>
      <trkpt lat="42.89008" lon="0.10755">
        <ele>1658</ele>
        <time>2024-03-16T07:54:46Z</time>
      </trkpt>
      <trkpt lat="42.89002" lon="0.10755">
        <ele>1658.8</ele>
        <time>2024-03-16T07:54:53Z</time>
      </trkpt>
      <trkpt lat="42.88992" lon="0.10753">
        <ele>1659.1</ele>
        <time>2024-03-16T07:55:04Z</time>
      </trkpt>
      <trkpt lat="42.88986" lon="0.10751">
        <ele>1659.4</ele>
        <time>2024-03-16T07:55:12Z</time>
      </trkpt>
      <trkpt lat="42.88981" lon="0.1075">
        <ele>1659.8</ele>
        <time>2024-03-16T07:55:18Z</time>
      </trkpt>
      <trkpt lat="42.88973" lon="0.10749">
        <ele>1660.5</ele>
        <time>2024-03-16T07:55:28Z</time>
      </trkpt>
      <trkpt lat="42.88968" lon="0.10749">
        <ele>1660.8</ele>
        <time>2024-03-16T07:55:35Z</time>
      </trkpt>
      <trkpt lat="42.88965" lon="0.10749">
        <ele>1660.9</ele>
        <time>2024-03-16T07:55:38Z</time>
      </trkpt>
      <trkpt lat="42.88957" lon="0.1075">
        <ele>1661.5</ele>
        <time>2024-03-16T07:55:48Z</time>
      </trkpt>
      <trkpt lat="42.8895" lon="0.10751">
        <ele>1662.3</ele>
        <time>2024-03-16T07:55:56Z</time>
      </trkpt>
      <trkpt lat="42.88944" lon="0.10753">
        <ele>1662.9</ele>
        <time>2024-03-16T07:56:04Z</time>
      </trkpt>
      <trkpt lat="42.88937" lon="0.10755">
        <ele>1662.8</ele>
        <time>2024-03-16T07:56:13Z</time>
      </trkpt>
      <trkpt lat="42.88932" lon="0.1076">
        <ele>1664.2</ele>
        <time>2024-03-16T07:56:21Z</time>
      </trkpt>
      <trkpt lat="42.88926" lon="0.10765">
        <ele>1665.3</ele>
        <time>2024-03-16T07:56:30Z</time>
      </trkpt>
      <trkpt lat="42.88925" lon="0.10765">
        <ele>1665.1</ele>
        <time>2024-03-16T07:56:32Z</time>
      </trkpt>
      <trkpt lat="42.88919" lon="0.10773">
        <ele>1667.4</ele>
        <time>2024-03-16T07:56:41Z</time>
      </trkpt>
      <trkpt lat="42.88912" lon="0.10776">
        <ele>1667.3</ele>
        <time>2024-03-16T07:56:49Z</time>
      </trkpt>
      <trkpt lat="42.88907" lon="0.10783">
        <ele>1669.5</ele>
        <time>2024-03-16T07:56:57Z</time>
      </trkpt>
      <trkpt lat="42.88902" lon="0.10788">
        <ele>1670.7</ele>
        <time>2024-03-16T07:57:04Z</time>
      </trkpt>
      <trkpt lat="42.88896" lon="0.10793">
        <ele>1671.6</ele>
        <time>2024-03-16T07:57:11Z</time>
      </trkpt>
      <trkpt lat="42.88889" lon="0.10797">
        <ele>1671.9</ele>
        <time>2024-03-16T07:57:19Z</time>
      </trkpt>
      <trkpt lat="42.88884" lon="0.10799">
        <ele>1673.1</ele>
        <time>2024-03-16T07:57:26Z</time>
      </trkpt>
      <trkpt lat="42.88879" lon="0.10802">
        <ele>1674.8</ele>
        <time>2024-03-16T07:57:33Z</time>
      </trkpt>
      <trkpt lat="42.88873" lon="0.10803">
        <ele>1675.3</ele>
        <time>2024-03-16T07:57:42Z</time>
      </trkpt>
      <trkpt lat="42.88869" lon="0.10803">
        <ele>1675.4</ele>
        <time>2024-03-16T07:57:50Z</time>
      </trkpt>
      <trkpt lat="42.88863" lon="0.10803">
        <ele>1675.6</ele>
        <time>2024-03-16T07:57:59Z</time>
      </trkpt>
      <trkpt lat="42.88857" lon="0.10806">
        <ele>1676.3</ele>
        <time>2024-03-16T07:58:07Z</time>
      </trkpt>
      <trkpt lat="42.88852" lon="0.10809">
        <ele>1677.1</ele>
        <time>2024-03-16T07:58:14Z</time>
      </trkpt>
      <trkpt lat="42.88844" lon="0.10812">
        <ele>1677.9</ele>
        <time>2024-03-16T07:58:22Z</time>
      </trkpt>
      <trkpt lat="42.88839" lon="0.10814">
        <ele>1678.3</ele>
        <time>2024-03-16T07:58:29Z</time>
      </trkpt>
      <trkpt lat="42.88832" lon="0.10816">
        <ele>1678.5</ele>
        <time>2024-03-16T07:58:37Z</time>
      </trkpt>
      <trkpt lat="42.88826" lon="0.10818">
        <ele>1679.9</ele>
        <time>2024-03-16T07:58:44Z</time>
      </trkpt>
      <trkpt lat="42.88819" lon="0.10821">
        <ele>1680.9</ele>
        <time>2024-03-16T07:58:52Z</time>
      </trkpt>
      <trkpt lat="42.88814" lon="0.10823">
        <ele>1682.2</ele>
        <time>2024-03-16T07:58:58Z</time>
      </trkpt>
      <trkpt lat="42.88807" lon="0.10826">
        <ele>1683.1</ele>
        <time>2024-03-16T07:59:05Z</time>
      </trkpt>
      <trkpt lat="42.888" lon="0.10828">
        <ele>1683.7</ele>
        <time>2024-03-16T07:59:13Z</time>
      </trkpt>
      <trkpt lat="42.88794" lon="0.10832">
        <ele>1685.3</ele>
        <time>2024-03-16T07:59:22Z</time>
      </trkpt>
      <trkpt lat="42.88789" lon="0.10833">
        <ele>1685.5</ele>
        <time>2024-03-16T07:59:30Z</time>
      </trkpt>
      <trkpt lat="42.88788" lon="0.10833">
        <ele>1685.7</ele>
        <time>2024-03-16T07:59:31Z</time>
      </trkpt>
      <trkpt lat="42.88781" lon="0.10835">
        <ele>1686.2</ele>
        <time>2024-03-16T07:59:39Z</time>
      </trkpt>
      <trkpt lat="42.88775" lon="0.10838">
        <ele>1687.5</ele>
        <time>2024-03-16T07:59:47Z</time>
      </trkpt>
      <trkpt lat="42.88768" lon="0.10837">
        <ele>1687.2</ele>
        <time>2024-03-16T07:59:55Z</time>
      </trkpt>
      <trkpt lat="42.88763" lon="0.10839">
        <ele>1688</ele>
        <time>2024-03-16T08:00:02Z</time>
      </trkpt>
      <trkpt lat="42.88759" lon="0.1084">
        <ele>1688.3</ele>
        <time>2024-03-16T08:00:09Z</time>
      </trkpt>
      <trkpt lat="42.88754" lon="0.10843">
        <ele>1690.1</ele>
        <time>2024-03-16T08:00:18Z</time>
      </trkpt>
      <trkpt lat="42.88752" lon="0.10847">
        <ele>1691.8</ele>
        <time>2024-03-16T08:00:27Z</time>
      </trkpt>
      <trkpt lat="42.88756" lon="0.10846">
        <ele>1691.6</ele>
        <time>2024-03-16T08:00:37Z</time>
      </trkpt>
      <trkpt lat="42.88761" lon="0.10849">
        <ele>1693</ele>
        <time>2024-03-16T08:00:46Z</time>
      </trkpt>
      <trkpt lat="42.88761" lon="0.10851">
        <ele>1694.3</ele>
        <time>2024-03-16T08:00:53Z</time>
      </trkpt>
      <trkpt lat="42.88763" lon="0.10857">
        <ele>1697.2</ele>
        <time>2024-03-16T08:01:02Z</time>
      </trkpt>
      <trkpt lat="42.8876" lon="0.10858">
        <ele>1697.8</ele>
        <time>2024-03-16T08:01:10Z</time>
      </trkpt>
      <trkpt lat="42.88755" lon="0.10857">
        <ele>1697.2</ele>
        <time>2024-03-16T08:01:20Z</time>
      </trkpt>
      <trkpt lat="42.88751" lon="0.10858">
        <ele>1697.5</ele>
        <time>2024-03-16T08:01:28Z</time>
      </trkpt>
      <trkpt lat="42.88745" lon="0.1086">
        <ele>1698.3</ele>
        <time>2024-03-16T08:01:35Z</time>
      </trkpt>
      <trkpt lat="42.88741" lon="0.10859">
        <ele>1697.8</ele>
        <time>2024-03-16T08:01:43Z</time>
      </trkpt>
      <trkpt lat="42.88739" lon="0.10859">
        <ele>1697.8</ele>
        <time>2024-03-16T08:01:46Z</time>
      </trkpt>
      <trkpt lat="42.88732" lon="0.1086">
        <ele>1698.3</ele>
        <time>2024-03-16T08:01:54Z</time>
      </trkpt>
      <trkpt lat="42.88728" lon="0.1086">
        <ele>1698.4</ele>
        <time>2024-03-16T08:02:02Z</time>
      </trkpt>
      <trkpt lat="42.88724" lon="0.1086">
        <ele>1698.7</ele>
        <time>2024-03-16T08:02:08Z</time>
      </trkpt>
      <trkpt lat="42.88719" lon="0.10861">
        <ele>1699</ele>
        <time>2024-03-16T08:02:15Z</time>
      </trkpt>
      <trkpt lat="42.88712" lon="0.10862">
        <ele>1698.9</ele>
        <time>2024-03-16T08:02:23Z</time>
      </trkpt>
      <trkpt lat="42.88706" lon="0.10865">
        <ele>1700</ele>
        <time>2024-03-16T08:02:31Z</time>
      </trkpt>
      <trkpt lat="42.88701" lon="0.10867">
        <ele>1700.4</ele>
        <time>2024-03-16T08:02:39Z</time>
      </trkpt>
      <trkpt lat="42.88694" lon="0.10869">
        <ele>1701</ele>
        <time>2024-03-16T08:02:47Z</time>
      </trkpt>
      <trkpt lat="42.88688" lon="0.1087">
        <ele>1701.4</ele>
        <time>2024-03-16T08:02:55Z</time>
      </trkpt>
      <trkpt lat="42.88683" lon="0.10874">
        <ele>1702.8</ele>
        <time>2024-03-16T08:03:03Z</time>
      </trkpt>
      <trkpt lat="42.88679" lon="0.10879">
        <ele>1704.4</ele>
        <time>2024-03-16T08:03:11Z</time>
      </trkpt>
      <trkpt lat="42.88675" lon="0.1088">
        <ele>1704.7</ele>
        <time>2024-03-16T08:03:17Z</time>
      </trkpt>
      <trkpt lat="42.8867" lon="0.10879">
        <ele>1704.5</ele>
        <time>2024-03-16T08:03:25Z</time>
      </trkpt>
      <trkpt lat="42.88669" lon="0.10877">
        <ele>1704.1</ele>
        <time>2024-03-16T08:03:39Z</time>
      </trkpt>
      <trkpt lat="42.88663" lon="0.10878">
        <ele>1704.7</ele>
        <time>2024-03-16T08:03:47Z</time>
      </trkpt>
      <trkpt lat="42.88657" lon="0.10877">
        <ele>1705.2</ele>
        <time>2024-03-16T08:03:55Z</time>
      </trkpt>
      <trkpt lat="42.88651" lon="0.10877">
        <ele>1705.8</ele>
        <time>2024-03-16T08:04:03Z</time>
      </trkpt>
      <trkpt lat="42.88644" lon="0.10876">
        <ele>1706.6</ele>
        <time>2024-03-16T08:04:12Z</time>
      </trkpt>
      <trkpt lat="42.88639" lon="0.10875">
        <ele>1707</ele>
        <time>2024-03-16T08:04:20Z</time>
      </trkpt>
      <trkpt lat="42.88634" lon="0.10874">
        <ele>1707.5</ele>
        <time>2024-03-16T08:04:28Z</time>
      </trkpt>
      <trkpt lat="42.88629" lon="0.10873">
        <ele>1707.8</ele>
        <time>2024-03-16T08:04:34Z</time>
      </trkpt>
      <trkpt lat="42.88624" lon="0.10873">
        <ele>1708.7</ele>
        <time>2024-03-16T08:04:41Z</time>
      </trkpt>
      <trkpt lat="42.88619" lon="0.10877">
        <ele>1709.7</ele>
        <time>2024-03-16T08:04:49Z</time>
      </trkpt>
      <trkpt lat="42.88615" lon="0.10878">
        <ele>1710.4</ele>
        <time>2024-03-16T08:04:56Z</time>
      </trkpt>
      <trkpt lat="42.8861" lon="0.10884">
        <ele>1711.6</ele>
        <time>2024-03-16T08:05:03Z</time>
      </trkpt>
      <trkpt lat="42.88604" lon="0.10888">
        <ele>1712.7</ele>
        <time>2024-03-16T08:05:13Z</time>
      </trkpt>
      <trkpt lat="42.88598" lon="0.10893">
        <ele>1714.4</ele>
        <time>2024-03-16T08:05:21Z</time>
      </trkpt>
      <trkpt lat="42.88593" lon="0.10899">
        <ele>1715.9</ele>
        <time>2024-03-16T08:05:29Z</time>
      </trkpt>
      <trkpt lat="42.88588" lon="0.10901">
        <ele>1716.7</ele>
        <time>2024-03-16T08:05:37Z</time>
      </trkpt>
      <trkpt lat="42.88585" lon="0.10904">
        <ele>1717.6</ele>
        <time>2024-03-16T08:05:44Z</time>
      </trkpt>
      <trkpt lat="42.88582" lon="0.10911">
        <ele>1719.1</ele>
        <time>2024-03-16T08:05:54Z</time>
      </trkpt>
      <trkpt lat="42.88577" lon="0.10916">
        <ele>1720.1</ele>
        <time>2024-03-16T08:06:01Z</time>
      </trkpt>
      <trkpt lat="42.88572" lon="0.10921">
        <ele>1721.4</ele>
        <time>2024-03-16T08:06:09Z</time>
      </trkpt>
      <trkpt lat="42.88566" lon="0.10925">
        <ele>1722.2</ele>
        <time>2024-03-16T08:06:17Z</time>
      </trkpt>
      <trkpt lat="42.88562" lon="0.10928">
        <ele>1722.7</ele>
        <time>2024-03-16T08:06:23Z</time>
      </trkpt>
      <trkpt lat="42.88556" lon="0.10934">
        <ele>1723.5</ele>
        <time>2024-03-16T08:06:32Z</time>
      </trkpt>
      <trkpt lat="42.88551" lon="0.10938">
        <ele>1724</ele>
        <time>2024-03-16T08:06:39Z</time>
      </trkpt>
      <trkpt lat="42.88546" lon="0.10944">
        <ele>1724.6</ele>
        <time>2024-03-16T08:06:47Z</time>
      </trkpt>
      <trkpt lat="42.88542" lon="0.10951">
        <ele>1726</ele>
        <time>2024-03-16T08:06:55Z</time>
      </trkpt>
      <trkpt lat="42.88537" lon="0.10956">
        <ele>1726.6</ele>
        <time>2024-03-16T08:07:03Z</time>
      </trkpt>
      <trkpt lat="42.88531" lon="0.10961">
        <ele>1726.8</ele>
        <time>2024-03-16T08:07:11Z</time>
      </trkpt>
      <trkpt lat="42.88529" lon="0.10963">
        <ele>1726.8</ele>
        <time>2024-03-16T08:07:15Z</time>
      </trkpt>
      <trkpt lat="42.88523" lon="0.10968">
        <ele>1727.3</ele>
        <time>2024-03-16T08:07:23Z</time>
      </trkpt>
      <trkpt lat="42.88519" lon="0.10971">
        <ele>1727.6</ele>
        <time>2024-03-16T08:07:30Z</time>
      </trkpt>
      <trkpt lat="42.88518" lon="0.10974">
        <ele>1727.9</ele>
        <time>2024-03-16T08:07:33Z</time>
      </trkpt>
      <trkpt lat="42.88512" lon="0.10979">
        <ele>1728.9</ele>
        <time>2024-03-16T08:07:41Z</time>
      </trkpt>
      <trkpt lat="42.88506" lon="0.10985">
        <ele>1729.4</ele>
        <time>2024-03-16T08:07:50Z</time>
      </trkpt>
      <trkpt lat="42.885" lon="0.10992">
        <ele>1729.8</ele>
        <time>2024-03-16T08:07:58Z</time>
      </trkpt>
      <trkpt lat="42.88495" lon="0.10999">
        <ele>1730.9</ele>
        <time>2024-03-16T08:08:07Z</time>
      </trkpt>
      <trkpt lat="42.8849" lon="0.11005">
        <ele>1732.1</ele>
        <time>2024-03-16T08:08:17Z</time>
      </trkpt>
      <trkpt lat="42.88484" lon="0.11012">
        <ele>1733.2</ele>
        <time>2024-03-16T08:08:26Z</time>
      </trkpt>
      <trkpt lat="42.88477" lon="0.11018">
        <ele>1733.6</ele>
        <time>2024-03-16T08:08:35Z</time>
      </trkpt>
      <trkpt lat="42.88471" lon="0.11022">
        <ele>1733.4</ele>
        <time>2024-03-16T08:08:43Z</time>
      </trkpt>
      <trkpt lat="42.8847" lon="0.11023">
        <ele>1733.4</ele>
        <time>2024-03-16T08:08:45Z</time>
      </trkpt>
      <trkpt lat="42.88464" lon="0.11034">
        <ele>1734.5</ele>
        <time>2024-03-16T08:08:55Z</time>
      </trkpt>
      <trkpt lat="42.88457" lon="0.11043">
        <ele>1735</ele>
        <time>2024-03-16T08:09:06Z</time>
      </trkpt>
      <trkpt lat="42.88452" lon="0.11052">
        <ele>1735.4</ele>
        <time>2024-03-16T08:09:15Z</time>
      </trkpt>
      <trkpt lat="42.88445" lon="0.11059">
        <ele>1735.6</ele>
        <time>2024-03-16T08:09:24Z</time>
      </trkpt>
      <trkpt lat="42.88439" lon="0.11066">
        <ele>1736.1</ele>
        <time>2024-03-16T08:09:32Z</time>
      </trkpt>
      <trkpt lat="42.88435" lon="0.11074">
        <ele>1736.8</ele>
        <time>2024-03-16T08:09:40Z</time>
      </trkpt>
      <trkpt lat="42.88427" lon="0.11083">
        <ele>1737</ele>
        <time>2024-03-16T08:09:48Z</time>
      </trkpt>
      <trkpt lat="42.88424" lon="0.11091">
        <ele>1737.9</ele>
        <time>2024-03-16T08:09:57Z</time>
      </trkpt>
      <trkpt lat="42.88423" lon="0.11092">
        <ele>1737.9</ele>
        <time>2024-03-16T08:09:58Z</time>
      </trkpt>
      <trkpt lat="42.88413" lon="0.111">
        <ele>1737.9</ele>
        <time>2024-03-16T08:10:09Z</time>
      </trkpt>
      <trkpt lat="42.88408" lon="0.11107">
        <ele>1738.3</ele>
        <time>2024-03-16T08:10:18Z</time>
      </trkpt>
      <trkpt lat="42.88401" lon="0.11115">
        <ele>1738.3</ele>
        <time>2024-03-16T08:10:27Z</time>
      </trkpt>
      <trkpt lat="42.88392" lon="0.11124">
        <ele>1738.4</ele>
        <time>2024-03-16T08:10:37Z</time>
      </trkpt>
      <trkpt lat="42.88389" lon="0.1113">
        <ele>1738.8</ele>
        <time>2024-03-16T08:10:45Z</time>
      </trkpt>
      <trkpt lat="42.88385" lon="0.11138">
        <ele>1740.1</ele>
        <time>2024-03-16T08:10:54Z</time>
      </trkpt>
      <trkpt lat="42.88381" lon="0.11143">
        <ele>1741.1</ele>
        <time>2024-03-16T08:11:04Z</time>
      </trkpt>
      <trkpt lat="42.88382" lon="0.11148">
        <ele>1742.1</ele>
        <time>2024-03-16T08:11:11Z</time>
      </trkpt>
      <trkpt lat="42.88383" lon="0.1115">
        <ele>1742.5</ele>
        <time>2024-03-16T08:11:13Z</time>
      </trkpt>
      <trkpt lat="42.8838" lon="0.11157">
        <ele>1743.7</ele>
        <time>2024-03-16T08:11:21Z</time>
      </trkpt>
      <trkpt lat="42.88378" lon="0.11161">
        <ele>1744.4</ele>
        <time>2024-03-16T08:11:30Z</time>
      </trkpt>
      <trkpt lat="42.8837" lon="0.11162">
        <ele>1743.7</ele>
        <time>2024-03-16T08:11:40Z</time>
      </trkpt>
      <trkpt lat="42.88367" lon="0.11168">
        <ele>1743.9</ele>
        <time>2024-03-16T08:11:49Z</time>
      </trkpt>
      <trkpt lat="42.88363" lon="0.11173">
        <ele>1743.7</ele>
        <time>2024-03-16T08:11:58Z</time>
      </trkpt>
      <trkpt lat="42.88356" lon="0.11179">
        <ele>1744.2</ele>
        <time>2024-03-16T08:12:08Z</time>
      </trkpt>
      <trkpt lat="42.88347" lon="0.11184">
        <ele>1745</ele>
        <time>2024-03-16T08:12:18Z</time>
      </trkpt>
      <trkpt lat="42.88338" lon="0.11187">
        <ele>1745.5</ele>
        <time>2024-03-16T08:12:27Z</time>
      </trkpt>
      <trkpt lat="42.88332" lon="0.11188">
        <ele>1745.9</ele>
        <time>2024-03-16T08:12:36Z</time>
      </trkpt>
      <trkpt lat="42.88329" lon="0.11192">
        <ele>1746.4</ele>
        <time>2024-03-16T08:12:46Z</time>
      </trkpt>
      <trkpt lat="42.88324" lon="0.11198">
        <ele>1747.2</ele>
        <time>2024-03-16T08:12:56Z</time>
      </trkpt>
      <trkpt lat="42.88316" lon="0.11199">
        <ele>1748.2</ele>
        <time>2024-03-16T08:13:04Z</time>
      </trkpt>
      <trkpt lat="42.88319" lon="0.11202">
        <ele>1748.1</ele>
        <time>2024-03-16T08:13:16Z</time>
      </trkpt>
      <trkpt lat="42.88318" lon="0.11199">
        <ele>1748</ele>
        <time>2024-03-16T08:13:27Z</time>
      </trkpt>
      <trkpt lat="42.88309" lon="0.112">
        <ele>1749.1</ele>
        <time>2024-03-16T08:13:44Z</time>
      </trkpt>
      <trkpt lat="42.88306" lon="0.11205">
        <ele>1749.7</ele>
        <time>2024-03-16T08:13:54Z</time>
      </trkpt>
      <trkpt lat="42.88294" lon="0.11206">
        <ele>1751.5</ele>
        <time>2024-03-16T08:14:12Z</time>
      </trkpt>
      <trkpt lat="42.8828" lon="0.11209">
        <ele>1753.7</ele>
        <time>2024-03-16T08:14:28Z</time>
      </trkpt>
      <trkpt lat="42.88287" lon="0.11205">
        <ele>1752.4</ele>
        <time>2024-03-16T08:14:39Z</time>
      </trkpt>
      <trkpt lat="42.88302" lon="0.11203">
        <ele>1750.2</ele>
        <time>2024-03-16T08:14:51Z</time>
      </trkpt>
      <trkpt lat="42.88308" lon="0.11205">
        <ele>1749.6</ele>
        <time>2024-03-16T08:15:00Z</time>
      </trkpt>
      <trkpt lat="42.88312" lon="0.11205">
        <ele>1749</ele>
        <time>2024-03-16T08:15:08Z</time>
      </trkpt>
      <trkpt lat="42.88315" lon="0.11203">
        <ele>1748.6</ele>
        <time>2024-03-16T08:15:10Z</time>
      </trkpt>
      <trkpt lat="42.88316" lon="0.11208">
        <ele>1748.8</ele>
        <time>2024-03-16T08:15:17Z</time>
      </trkpt>
      <trkpt lat="42.88335" lon="0.11212">
        <ele>1747.4</ele>
        <time>2024-03-16T08:15:32Z</time>
      </trkpt>
      <trkpt lat="42.88331" lon="0.11205">
        <ele>1747</ele>
        <time>2024-03-16T08:15:44Z</time>
      </trkpt>
      <trkpt lat="42.88329" lon="0.11204">
        <ele>1747.2</ele>
        <time>2024-03-16T08:15:54Z</time>
      </trkpt>
      <trkpt lat="42.88324" lon="0.11203">
        <ele>1747.6</ele>
        <time>2024-03-16T08:16:02Z</time>
      </trkpt>
      <trkpt lat="42.88321" lon="0.11205">
        <ele>1748.1</ele>
        <time>2024-03-16T08:16:08Z</time>
      </trkpt>
      <trkpt lat="42.88323" lon="0.11207">
        <ele>1748</ele>
        <time>2024-03-16T08:16:20Z</time>
      </trkpt>
      <trkpt lat="42.88329" lon="0.11211">
        <ele>1747.7</ele>
        <time>2024-03-16T08:16:33Z</time>
      </trkpt>
      <trkpt lat="42.88333" lon="0.11214">
        <ele>1747.5</ele>
        <time>2024-03-16T08:16:46Z</time>
      </trkpt>
      <trkpt lat="42.88318" lon="0.11207">
        <ele>1748.6</ele>
        <time>2024-03-16T08:16:56Z</time>
      </trkpt>
      <trkpt lat="42.88317" lon="0.11207">
        <ele>1748.7</ele>
        <time>2024-03-16T08:17:05Z</time>
      </trkpt>
      <trkpt lat="42.88311" lon="0.11209">
        <ele>1749.5</ele>
        <time>2024-03-16T08:17:17Z</time>
      </trkpt>
      <trkpt lat="42.88299" lon="0.11207">
        <ele>1750.9</ele>
        <time>2024-03-16T08:17:28Z</time>
      </trkpt>
      <trkpt lat="42.88291" lon="0.11208">
        <ele>1752.1</ele>
        <time>2024-03-16T08:17:36Z</time>
      </trkpt>
      <trkpt lat="42.88298" lon="0.11206">
        <ele>1750.9</ele>
        <time>2024-03-16T08:17:47Z</time>
      </trkpt>
      <trkpt lat="42.88305" lon="0.11203">
        <ele>1749.6</ele>
        <time>2024-03-16T08:17:54Z</time>
      </trkpt>
      <trkpt lat="42.88313" lon="0.112">
        <ele>1748.6</ele>
        <time>2024-03-16T08:18:09Z</time>
      </trkpt>
      <trkpt lat="42.88314" lon="0.11205">
        <ele>1748.8</ele>
        <time>2024-03-16T08:18:24Z</time>
      </trkpt>
      <trkpt lat="42.88313" lon="0.11203">
        <ele>1748.7</ele>
        <time>2024-03-16T08:18:41Z</time>
      </trkpt>
      <trkpt lat="42.88314" lon="0.11203">
        <ele>1748.7</ele>
        <time>2024-03-16T08:18:50Z</time>
      </trkpt>
      <trkpt lat="42.88316" lon="0.11202">
        <ele>1748.5</ele>
        <time>2024-03-16T08:19:01Z</time>
      </trkpt>
      <trkpt lat="42.88315" lon="0.11204">
        <ele>1748.7</ele>
        <time>2024-03-16T08:19:07Z</time>
      </trkpt>
      <trkpt lat="42.88312" lon="0.11206">
        <ele>1749.2</ele>
        <time>2024-03-16T08:19:18Z</time>
      </trkpt>
      <trkpt lat="42.88309" lon="0.11204">
        <ele>1749.3</ele>
        <time>2024-03-16T08:19:27Z</time>
      </trkpt>
      <trkpt lat="42.88306" lon="0.11208">
        <ele>1749.9</ele>
        <time>2024-03-16T08:19:35Z</time>
      </trkpt>
      <trkpt lat="42.88302" lon="0.11212">
        <ele>1750.7</ele>
        <time>2024-03-16T08:19:43Z</time>
      </trkpt>
      <trkpt lat="42.88297" lon="0.11218">
        <ele>1752</ele>
        <time>2024-03-16T08:19:51Z</time>
      </trkpt>
      <trkpt lat="42.88293" lon="0.11223">
        <ele>1752.9</ele>
        <time>2024-03-16T08:19:59Z</time>
      </trkpt>
      <trkpt lat="42.88286" lon="0.11229">
        <ele>1754.1</ele>
        <time>2024-03-16T08:20:10Z</time>
      </trkpt>
      <trkpt lat="42.8828" lon="0.11222">
        <ele>1754.7</ele>
        <time>2024-03-16T08:20:17Z</time>
      </trkpt>
      <trkpt lat="42.88273" lon="0.11217">
        <ele>1755.4</ele>
        <time>2024-03-16T08:20:24Z</time>
      </trkpt>
      <trkpt lat="42.88268" lon="0.11215">
        <ele>1756.3</ele>
        <time>2024-03-16T08:20:32Z</time>
      </trkpt>
      <trkpt lat="42.88264" lon="0.1122">
        <ele>1757.3</ele>
        <time>2024-03-16T08:20:40Z</time>
      </trkpt>
      <trkpt lat="42.88267" lon="0.11224">
        <ele>1757</ele>
        <time>2024-03-16T08:20:50Z</time>
      </trkpt>
      <trkpt lat="42.88263" lon="0.11227">
        <ele>1757.7</ele>
        <time>2024-03-16T08:20:58Z</time>
      </trkpt>
      <trkpt lat="42.88257" lon="0.11231">
        <ele>1758.8</ele>
        <time>2024-03-16T08:21:07Z</time>
      </trkpt>
      <trkpt lat="42.8825" lon="0.11238">
        <ele>1759.9</ele>
        <time>2024-03-16T08:21:16Z</time>
      </trkpt>
      <trkpt lat="42.88244" lon="0.11241">
        <ele>1761.8</ele>
        <time>2024-03-16T08:21:26Z</time>
      </trkpt>
      <trkpt lat="42.88236" lon="0.11242">
        <ele>1764.2</ele>
        <time>2024-03-16T08:21:35Z</time>
      </trkpt>
      <trkpt lat="42.88225" lon="0.11238">
        <ele>1766.8</ele>
        <time>2024-03-16T08:21:44Z</time>
      </trkpt>
      <trkpt lat="42.8822" lon="0.11234">
        <ele>1767.8</ele>
        <time>2024-03-16T08:21:52Z</time>
      </trkpt>
      <trkpt lat="42.88214" lon="0.11236">
        <ele>1769.8</ele>
        <time>2024-03-16T08:22:01Z</time>
      </trkpt>
      <trkpt lat="42.88206" lon="0.11235">
        <ele>1772.1</ele>
        <time>2024-03-16T08:22:13Z</time>
      </trkpt>
      <trkpt lat="42.88202" lon="0.11232">
        <ele>1772.9</ele>
        <time>2024-03-16T08:22:21Z</time>
      </trkpt>
      <trkpt lat="42.88193" lon="0.11228">
        <ele>1774.9</ele>
        <time>2024-03-16T08:22:31Z</time>
      </trkpt>
      <trkpt lat="42.88185" lon="0.1122">
        <ele>1776.3</ele>
        <time>2024-03-16T08:22:39Z</time>
      </trkpt>
      <trkpt lat="42.88184" lon="0.11215">
        <ele>1776.6</ele>
        <time>2024-03-16T08:22:46Z</time>
      </trkpt>
      <trkpt lat="42.88182" lon="0.11207">
        <ele>1777.1</ele>
        <time>2024-03-16T08:22:57Z</time>
      </trkpt>
      <trkpt lat="42.88183" lon="0.11205">
        <ele>1776.8</ele>
        <time>2024-03-16T08:23:05Z</time>
      </trkpt>
      <trkpt lat="42.88181" lon="0.11201">
        <ele>1777.4</ele>
        <time>2024-03-16T08:23:13Z</time>
      </trkpt>
      <trkpt lat="42.8818" lon="0.112">
        <ele>1777.9</ele>
        <time>2024-03-16T08:23:16Z</time>
      </trkpt>
      <trkpt lat="42.88181" lon="0.11191">
        <ele>1777.8</ele>
        <time>2024-03-16T08:23:24Z</time>
      </trkpt>
      <trkpt lat="42.88184" lon="0.11189">
        <ele>1776.7</ele>
        <time>2024-03-16T08:23:26Z</time>
      </trkpt>
      <trkpt lat="42.88189" lon="0.11184">
        <ele>1775.4</ele>
        <time>2024-03-16T08:23:33Z</time>
      </trkpt>
      <trkpt lat="42.88188" lon="0.11179">
        <ele>1776.7</ele>
        <time>2024-03-16T08:23:40Z</time>
      </trkpt>
      <trkpt lat="42.88183" lon="0.11181">
        <ele>1778.1</ele>
        <time>2024-03-16T08:23:48Z</time>
      </trkpt>
      <trkpt lat="42.88179" lon="0.11182">
        <ele>1779.8</ele>
        <time>2024-03-16T08:23:58Z</time>
      </trkpt>
      <trkpt lat="42.88176" lon="0.11186">
        <ele>1780.4</ele>
        <time>2024-03-16T08:24:07Z</time>
      </trkpt>
      <trkpt lat="42.8817" lon="0.11176">
        <ele>1783.8</ele>
        <time>2024-03-16T08:24:17Z</time>
      </trkpt>
      <trkpt lat="42.88169" lon="0.11165">
        <ele>1785.6</ele>
        <time>2024-03-16T08:24:25Z</time>
      </trkpt>
      <trkpt lat="42.88173" lon="0.11159">
        <ele>1785.8</ele>
        <time>2024-03-16T08:24:31Z</time>
      </trkpt>
      <trkpt lat="42.88175" lon="0.11154">
        <ele>1786.3</ele>
        <time>2024-03-16T08:24:40Z</time>
      </trkpt>
      <trkpt lat="42.88178" lon="0.11147">
        <ele>1787.3</ele>
        <time>2024-03-16T08:24:48Z</time>
      </trkpt>
      <trkpt lat="42.88178" lon="0.11144">
        <ele>1787.7</ele>
        <time>2024-03-16T08:24:55Z</time>
      </trkpt>
      <trkpt lat="42.8818" lon="0.1114">
        <ele>1787.9</ele>
        <time>2024-03-16T08:25:01Z</time>
      </trkpt>
      <trkpt lat="42.8818" lon="0.11133">
        <ele>1789.5</ele>
        <time>2024-03-16T08:25:09Z</time>
      </trkpt>
      <trkpt lat="42.88181" lon="0.11126">
        <ele>1791</ele>
        <time>2024-03-16T08:25:16Z</time>
      </trkpt>
      <trkpt lat="42.88182" lon="0.1112">
        <ele>1792.1</ele>
        <time>2024-03-16T08:25:22Z</time>
      </trkpt>
      <trkpt lat="42.88183" lon="0.11116">
        <ele>1792.5</ele>
        <time>2024-03-16T08:25:29Z</time>
      </trkpt>
      <trkpt lat="42.88183" lon="0.11112">
        <ele>1793.6</ele>
        <time>2024-03-16T08:25:38Z</time>
      </trkpt>
      <trkpt lat="42.88182" lon="0.1111">
        <ele>1794.7</ele>
        <time>2024-03-16T08:25:44Z</time>
      </trkpt>
      <trkpt lat="42.88181" lon="0.11106">
        <ele>1795.5</ele>
        <time>2024-03-16T08:25:52Z</time>
      </trkpt>
      <trkpt lat="42.88182" lon="0.11099">
        <ele>1796</ele>
        <time>2024-03-16T08:26:02Z</time>
      </trkpt>
      <trkpt lat="42.88179" lon="0.11102">
        <ele>1797.3</ele>
        <time>2024-03-16T08:26:11Z</time>
      </trkpt>
      <trkpt lat="42.88177" lon="0.11108">
        <ele>1797.5</ele>
        <time>2024-03-16T08:26:21Z</time>
      </trkpt>
      <trkpt lat="42.88174" lon="0.11112">
        <ele>1798.2</ele>
        <time>2024-03-16T08:26:31Z</time>
      </trkpt>
      <trkpt lat="42.88169" lon="0.11116">
        <ele>1799.3</ele>
        <time>2024-03-16T08:26:43Z</time>
      </trkpt>
      <trkpt lat="42.88164" lon="0.11114">
        <ele>1802.7</ele>
        <time>2024-03-16T08:26:53Z</time>
      </trkpt>
      <trkpt lat="42.8816" lon="0.11107">
        <ele>1806.4</ele>
        <time>2024-03-16T08:27:00Z</time>
      </trkpt>
      <trkpt lat="42.8816" lon="0.11105">
        <ele>1806.6</ele>
        <time>2024-03-16T08:27:17Z</time>
      </trkpt>
      <trkpt lat="42.8816" lon="0.11102">
        <ele>1807.3</ele>
        <time>2024-03-16T08:27:25Z</time>
      </trkpt>
      <trkpt lat="42.88158" lon="0.11096">
        <ele>1809.1</ele>
        <time>2024-03-16T08:27:33Z</time>
      </trkpt>
      <trkpt lat="42.88156" lon="0.11092">
        <ele>1810.7</ele>
        <time>2024-03-16T08:27:40Z</time>
      </trkpt>
      <trkpt lat="42.88155" lon="0.11088">
        <ele>1812.1</ele>
        <time>2024-03-16T08:27:47Z</time>
      </trkpt>
      <trkpt lat="42.88153" lon="0.11082">
        <ele>1814</ele>
        <time>2024-03-16T08:27:56Z</time>
      </trkpt>
      <trkpt lat="42.88153" lon="0.11076">
        <ele>1815</ele>
        <time>2024-03-16T08:28:05Z</time>
      </trkpt>
      <trkpt lat="42.88153" lon="0.11068">
        <ele>1816.5</ele>
        <time>2024-03-16T08:28:14Z</time>
      </trkpt>
      <trkpt lat="42.88153" lon="0.11063">
        <ele>1817.2</ele>
        <time>2024-03-16T08:28:24Z</time>
      </trkpt>
      <trkpt lat="42.88153" lon="0.11058">
        <ele>1817.8</ele>
        <time>2024-03-16T08:28:32Z</time>
      </trkpt>
      <trkpt lat="42.88152" lon="0.11057">
        <ele>1818.5</ele>
        <time>2024-03-16T08:28:43Z</time>
      </trkpt>
      <trkpt lat="42.88152" lon="0.11058">
        <ele>1818.5</ele>
        <time>2024-03-16T08:28:51Z</time>
      </trkpt>
      <trkpt lat="42.88149" lon="0.11064">
        <ele>1818.9</ele>
        <time>2024-03-16T08:29:02Z</time>
      </trkpt>
      <trkpt lat="42.88141" lon="0.11071">
        <ele>1822.2</ele>
        <time>2024-03-16T08:29:15Z</time>
      </trkpt>
      <trkpt lat="42.88133" lon="0.11076">
        <ele>1825.4</ele>
        <time>2024-03-16T08:29:28Z</time>
      </trkpt>
      <trkpt lat="42.88131" lon="0.11081">
        <ele>1825.2</ele>
        <time>2024-03-16T08:29:37Z</time>
      </trkpt>
      <trkpt lat="42.88125" lon="0.11085">
        <ele>1827.9</ele>
        <time>2024-03-16T08:29:50Z</time>
      </trkpt>
      <trkpt lat="42.8812" lon="0.11089">
        <ele>1829.6</ele>
        <time>2024-03-16T08:30:00Z</time>
      </trkpt>
      <trkpt lat="42.88116" lon="0.11093">
        <ele>1831.3</ele>
        <time>2024-03-16T08:30:10Z</time>
      </trkpt>
      <trkpt lat="42.88113" lon="0.11097">
        <ele>1832.1</ele>
        <time>2024-03-16T08:30:17Z</time>
      </trkpt>
      <trkpt lat="42.88108" lon="0.11102">
        <ele>1833.4</ele>
        <time>2024-03-16T08:30:27Z</time>
      </trkpt>
      <trkpt lat="42.88105" lon="0.11104">
        <ele>1834.7</ele>
        <time>2024-03-16T08:30:31Z</time>
      </trkpt>
      <trkpt lat="42.88099" lon="0.11105">
        <ele>1837</ele>
        <time>2024-03-16T08:30:40Z</time>
      </trkpt>
      <trkpt lat="42.88096" lon="0.11102">
        <ele>1838.6</ele>
        <time>2024-03-16T08:30:48Z</time>
      </trkpt>
      <trkpt lat="42.88096" lon="0.11095">
        <ele>1839.8</ele>
        <time>2024-03-16T08:30:56Z</time>
      </trkpt>
      <trkpt lat="42.88096" lon="0.1109">
        <ele>1841.1</ele>
        <time>2024-03-16T08:31:04Z</time>
      </trkpt>
      <trkpt lat="42.88096" lon="0.11084">
        <ele>1842</ele>
        <time>2024-03-16T08:31:14Z</time>
      </trkpt>
      <trkpt lat="42.88095" lon="0.1108">
        <ele>1843.2</ele>
        <time>2024-03-16T08:31:21Z</time>
      </trkpt>
      <trkpt lat="42.88095" lon="0.11077">
        <ele>1843.8</ele>
        <time>2024-03-16T08:31:24Z</time>
      </trkpt>
      <trkpt lat="42.88097" lon="0.11071">
        <ele>1844.3</ele>
        <time>2024-03-16T08:31:30Z</time>
      </trkpt>
      <trkpt lat="42.88097" lon="0.11068">
        <ele>1844.8</ele>
        <time>2024-03-16T08:31:45Z</time>
      </trkpt>
      <trkpt lat="42.88096" lon="0.11068">
        <ele>1845.4</ele>
        <time>2024-03-16T08:31:50Z</time>
      </trkpt>
      <trkpt lat="42.88093" lon="0.11073">
        <ele>1845.6</ele>
        <time>2024-03-16T08:31:58Z</time>
      </trkpt>
      <trkpt lat="42.88089" lon="0.11076">
        <ele>1846.9</ele>
        <time>2024-03-16T08:32:10Z</time>
      </trkpt>
      <trkpt lat="42.88083" lon="0.11081">
        <ele>1848.5</ele>
        <time>2024-03-16T08:32:20Z</time>
      </trkpt>
      <trkpt lat="42.88074" lon="0.11087">
        <ele>1851.2</ele>
        <time>2024-03-16T08:32:31Z</time>
      </trkpt>
      <trkpt lat="42.88067" lon="0.11091">
        <ele>1853.4</ele>
        <time>2024-03-16T08:32:39Z</time>
      </trkpt>
      <trkpt lat="42.88063" lon="0.11097">
        <ele>1854.3</ele>
        <time>2024-03-16T08:32:50Z</time>
      </trkpt>
      <trkpt lat="42.88058" lon="0.11098">
        <ele>1856.3</ele>
        <time>2024-03-16T08:33:00Z</time>
      </trkpt>
      <trkpt lat="42.88057" lon="0.11093">
        <ele>1857.7</ele>
        <time>2024-03-16T08:33:07Z</time>
      </trkpt>
      <trkpt lat="42.88055" lon="0.11089">
        <ele>1859.2</ele>
        <time>2024-03-16T08:33:16Z</time>
      </trkpt>
      <trkpt lat="42.88051" lon="0.11093">
        <ele>1859.9</ele>
        <time>2024-03-16T08:33:23Z</time>
      </trkpt>
      <trkpt lat="42.88047" lon="0.11093">
        <ele>1861.3</ele>
        <time>2024-03-16T08:33:31Z</time>
      </trkpt>
      <trkpt lat="42.88046" lon="0.11096">
        <ele>1861.4</ele>
        <time>2024-03-16T08:33:44Z</time>
      </trkpt>
      <trkpt lat="42.88042" lon="0.11097">
        <ele>1862.8</ele>
        <time>2024-03-16T08:33:53Z</time>
      </trkpt>
      <trkpt lat="42.88038" lon="0.111">
        <ele>1864</ele>
        <time>2024-03-16T08:34:00Z</time>
      </trkpt>
      <trkpt lat="42.88031" lon="0.11103">
        <ele>1866.1</ele>
        <time>2024-03-16T08:34:09Z</time>
      </trkpt>
      <trkpt lat="42.88026" lon="0.11106">
        <ele>1868</ele>
        <time>2024-03-16T08:34:18Z</time>
      </trkpt>
      <trkpt lat="42.88023" lon="0.11108">
        <ele>1869.2</ele>
        <time>2024-03-16T08:34:25Z</time>
      </trkpt>
      <trkpt lat="42.88019" lon="0.11109">
        <ele>1870.8</ele>
        <time>2024-03-16T08:34:34Z</time>
      </trkpt>
      <trkpt lat="42.88013" lon="0.11111">
        <ele>1873.6</ele>
        <time>2024-03-16T08:34:44Z</time>
      </trkpt>
      <trkpt lat="42.88009" lon="0.11105">
        <ele>1875.3</ele>
        <time>2024-03-16T08:34:54Z</time>
      </trkpt>
      <trkpt lat="42.88007" lon="0.11099">
        <ele>1876</ele>
        <time>2024-03-16T08:35:04Z</time>
      </trkpt>
      <trkpt lat="42.88008" lon="0.11095">
        <ele>1875.8</ele>
        <time>2024-03-16T08:35:12Z</time>
      </trkpt>
      <trkpt lat="42.88007" lon="0.11091">
        <ele>1876.3</ele>
        <time>2024-03-16T08:35:19Z</time>
      </trkpt>
      <trkpt lat="42.88004" lon="0.11088">
        <ele>1877.3</ele>
        <time>2024-03-16T08:35:30Z</time>
      </trkpt>
      <trkpt lat="42.88003" lon="0.11085">
        <ele>1877.8</ele>
        <time>2024-03-16T08:35:39Z</time>
      </trkpt>
      <trkpt lat="42.88" lon="0.11085">
        <ele>1879.2</ele>
        <time>2024-03-16T08:35:49Z</time>
      </trkpt>
      <trkpt lat="42.87994" lon="0.11087">
        <ele>1881.6</ele>
        <time>2024-03-16T08:35:57Z</time>
      </trkpt>
      <trkpt lat="42.87995" lon="0.11086">
        <ele>1881.2</ele>
        <time>2024-03-16T08:36:05Z</time>
      </trkpt>
      <trkpt lat="42.87995" lon="0.11086">
        <ele>1881.2</ele>
        <time>2024-03-16T08:36:13Z</time>
      </trkpt>
      <trkpt lat="42.87989" lon="0.11089">
        <ele>1884.1</ele>
        <time>2024-03-16T08:36:20Z</time>
      </trkpt>
      <trkpt lat="42.87984" lon="0.11091">
        <ele>1886.5</ele>
        <time>2024-03-16T08:36:28Z</time>
      </trkpt>
      <trkpt lat="42.87981" lon="0.11092">
        <ele>1887.9</ele>
        <time>2024-03-16T08:36:36Z</time>
      </trkpt>
      <trkpt lat="42.87979" lon="0.11085">
        <ele>1888.1</ele>
        <time>2024-03-16T08:36:42Z</time>
      </trkpt>
      <trkpt lat="42.87979" lon="0.11078">
        <ele>1889.5</ele>
        <time>2024-03-16T08:36:51Z</time>
      </trkpt>
      <trkpt lat="42.8798" lon="0.11071">
        <ele>1890.2</ele>
        <time>2024-03-16T08:37:01Z</time>
      </trkpt>
      <trkpt lat="42.87982" lon="0.11066">
        <ele>1890.6</ele>
        <time>2024-03-16T08:37:09Z</time>
      </trkpt>
      <trkpt lat="42.87982" lon="0.11064">
        <ele>1891.3</ele>
        <time>2024-03-16T08:37:17Z</time>
      </trkpt>
      <trkpt lat="42.87977" lon="0.11066">
        <ele>1892.9</ele>
        <time>2024-03-16T08:37:25Z</time>
      </trkpt>
      <trkpt lat="42.8797" lon="0.11067">
        <ele>1895.8</ele>
        <time>2024-03-16T08:37:34Z</time>
      </trkpt>
      <trkpt lat="42.87967" lon="0.11069">
        <ele>1896.9</ele>
        <time>2024-03-16T08:37:42Z</time>
      </trkpt>
      <trkpt lat="42.87964" lon="0.1107">
        <ele>1898.3</ele>
        <time>2024-03-16T08:37:51Z</time>
      </trkpt>
      <trkpt lat="42.87961" lon="0.11073">
        <ele>1900</ele>
        <time>2024-03-16T08:38:01Z</time>
      </trkpt>
      <trkpt lat="42.87955" lon="0.11077">
        <ele>1902.3</ele>
        <time>2024-03-16T08:38:12Z</time>
      </trkpt>
      <trkpt lat="42.87955" lon="0.11078">
        <ele>1902.4</ele>
        <time>2024-03-16T08:38:21Z</time>
      </trkpt>
      <trkpt lat="42.87954" lon="0.11075">
        <ele>1903.8</ele>
        <time>2024-03-16T08:38:31Z</time>
      </trkpt>
      <trkpt lat="42.87954" lon="0.11077">
        <ele>1903.4</ele>
        <time>2024-03-16T08:38:46Z</time>
      </trkpt>
      <trkpt lat="42.87954" lon="0.11073">
        <ele>1903.7</ele>
        <time>2024-03-16T08:38:55Z</time>
      </trkpt>
      <trkpt lat="42.87955" lon="0.11067">
        <ele>1904.4</ele>
        <time>2024-03-16T08:39:02Z</time>
      </trkpt>
      <trkpt lat="42.87957" lon="0.11062">
        <ele>1904.3</ele>
        <time>2024-03-16T08:39:09Z</time>
      </trkpt>
      <trkpt lat="42.87958" lon="0.11057">
        <ele>1904.4</ele>
        <time>2024-03-16T08:39:15Z</time>
      </trkpt>
      <trkpt lat="42.87957" lon="0.11051">
        <ele>1906.7</ele>
        <time>2024-03-16T08:39:23Z</time>
      </trkpt>
      <trkpt lat="42.87959" lon="0.11044">
        <ele>1907.5</ele>
        <time>2024-03-16T08:39:32Z</time>
      </trkpt>
      <trkpt lat="42.87961" lon="0.11041">
        <ele>1907.3</ele>
        <time>2024-03-16T08:39:38Z</time>
      </trkpt>
      <trkpt lat="42.87964" lon="0.11035">
        <ele>1908</ele>
        <time>2024-03-16T08:39:44Z</time>
      </trkpt>
      <trkpt lat="42.87962" lon="0.11036">
        <ele>1908.5</ele>
        <time>2024-03-16T08:39:50Z</time>
      </trkpt>
      <trkpt lat="42.87958" lon="0.11043">
        <ele>1908.5</ele>
        <time>2024-03-16T08:40:03Z</time>
      </trkpt>
      <trkpt lat="42.87954" lon="0.11047">
        <ele>1909.7</ele>
        <time>2024-03-16T08:40:13Z</time>
      </trkpt>
      <trkpt lat="42.87951" lon="0.11051">
        <ele>1909.8</ele>
        <time>2024-03-16T08:40:23Z</time>
      </trkpt>
      <trkpt lat="42.87946" lon="0.11053">
        <ele>1911.8</ele>
        <time>2024-03-16T08:40:32Z</time>
      </trkpt>
      <trkpt lat="42.87942" lon="0.11056">
        <ele>1913.3</ele>
        <time>2024-03-16T08:40:42Z</time>
      </trkpt>
      <trkpt lat="42.87937" lon="0.1106">
        <ele>1915.5</ele>
        <time>2024-03-16T08:40:52Z</time>
      </trkpt>
      <trkpt lat="42.87932" lon="0.11067">
        <ele>1917.1</ele>
        <time>2024-03-16T08:41:02Z</time>
      </trkpt>
      <trkpt lat="42.87929" lon="0.11071">
        <ele>1918.3</ele>
        <time>2024-03-16T08:41:10Z</time>
      </trkpt>
      <trkpt lat="42.87926" lon="0.11075">
        <ele>1919.7</ele>
        <time>2024-03-16T08:41:19Z</time>
      </trkpt>
      <trkpt lat="42.87919" lon="0.11081">
        <ele>1922.1</ele>
        <time>2024-03-16T08:41:31Z</time>
      </trkpt>
      <trkpt lat="42.87916" lon="0.11079">
        <ele>1924</ele>
        <time>2024-03-16T08:41:40Z</time>
      </trkpt>
      <trkpt lat="42.87914" lon="0.11081">
        <ele>1925.2</ele>
        <time>2024-03-16T08:41:50Z</time>
      </trkpt>
      <trkpt lat="42.87913" lon="0.11078">
        <ele>1926.2</ele>
        <time>2024-03-16T08:41:58Z</time>
      </trkpt>
      <trkpt lat="42.87919" lon="0.11075">
        <ele>1923.4</ele>
        <time>2024-03-16T08:42:09Z</time>
      </trkpt>
      <trkpt lat="42.87915" lon="0.11073">
        <ele>1926.1</ele>
        <time>2024-03-16T08:42:17Z</time>
      </trkpt>
      <trkpt lat="42.87915" lon="0.11067">
        <ele>1927.1</ele>
        <time>2024-03-16T08:42:24Z</time>
      </trkpt>
      <trkpt lat="42.87912" lon="0.1106">
        <ele>1930.4</ele>
        <time>2024-03-16T08:42:34Z</time>
      </trkpt>
      <trkpt lat="42.87912" lon="0.11054">
        <ele>1931.1</ele>
        <time>2024-03-16T08:42:41Z</time>
      </trkpt>
      <trkpt lat="42.87911" lon="0.1105">
        <ele>1932.7</ele>
        <time>2024-03-16T08:42:48Z</time>
      </trkpt>
      <trkpt lat="42.87915" lon="0.11045">
        <ele>1931</ele>
        <time>2024-03-16T08:42:57Z</time>
      </trkpt>
      <trkpt lat="42.87913" lon="0.11038">
        <ele>1933.5</ele>
        <time>2024-03-16T08:43:04Z</time>
      </trkpt>
      <trkpt lat="42.87913" lon="0.11032">
        <ele>1935.1</ele>
        <time>2024-03-16T08:43:11Z</time>
      </trkpt>
      <trkpt lat="42.87913" lon="0.11026">
        <ele>1935.9</ele>
        <time>2024-03-16T08:43:20Z</time>
      </trkpt>
      <trkpt lat="42.87913" lon="0.11022">
        <ele>1937.2</ele>
        <time>2024-03-16T08:43:27Z</time>
      </trkpt>
      <trkpt lat="42.87911" lon="0.11017">
        <ele>1939.4</ele>
        <time>2024-03-16T08:43:38Z</time>
      </trkpt>
      <trkpt lat="42.87913" lon="0.11015">
        <ele>1938.1</ele>
        <time>2024-03-16T08:43:46Z</time>
      </trkpt>
      <trkpt lat="42.87914" lon="0.11012">
        <ele>1938.6</ele>
        <time>2024-03-16T08:43:52Z</time>
      </trkpt>
      <trkpt lat="42.87916" lon="0.11007">
        <ele>1938</ele>
        <time>2024-03-16T08:44:00Z</time>
      </trkpt>
      <trkpt lat="42.87916" lon="0.11002">
        <ele>1939.1</ele>
        <time>2024-03-16T08:44:10Z</time>
      </trkpt>
      <trkpt lat="42.87916" lon="0.10995">
        <ele>1941.1</ele>
        <time>2024-03-16T08:44:19Z</time>
      </trkpt>
      <trkpt lat="42.87912" lon="0.10993">
        <ele>1944.1</ele>
        <time>2024-03-16T08:44:29Z</time>
      </trkpt>
      <trkpt lat="42.87917" lon="0.1099">
        <ele>1942.2</ele>
        <time>2024-03-16T08:44:42Z</time>
      </trkpt>
      <trkpt lat="42.87917" lon="0.10989">
        <ele>1942.2</ele>
        <time>2024-03-16T08:44:51Z</time>
      </trkpt>
      <trkpt lat="42.87918" lon="0.10986">
        <ele>1942.9</ele>
        <time>2024-03-16T08:44:58Z</time>
      </trkpt>
      <trkpt lat="42.87919" lon="0.10985">
        <ele>1943.2</ele>
        <time>2024-03-16T08:45:05Z</time>
      </trkpt>
      <trkpt lat="42.87918" lon="0.10982">
        <ele>1944.4</ele>
        <time>2024-03-16T08:45:15Z</time>
      </trkpt>
      <trkpt lat="42.87917" lon="0.10978">
        <ele>1945.9</ele>
        <time>2024-03-16T08:45:23Z</time>
      </trkpt>
      <trkpt lat="42.87916" lon="0.10978">
        <ele>1946.7</ele>
        <time>2024-03-16T08:45:35Z</time>
      </trkpt>
      <trkpt lat="42.87917" lon="0.10976">
        <ele>1946.7</ele>
        <time>2024-03-16T08:45:41Z</time>
      </trkpt>
      <trkpt lat="42.87919" lon="0.10976">
        <ele>1946.1</ele>
        <time>2024-03-16T08:45:51Z</time>
      </trkpt>
      <trkpt lat="42.87919" lon="0.10972">
        <ele>1947.2</ele>
        <time>2024-03-16T08:45:59Z</time>
      </trkpt>
      <trkpt lat="42.87922" lon="0.10969">
        <ele>1947.4</ele>
        <time>2024-03-16T08:46:05Z</time>
      </trkpt>
      <trkpt lat="42.8792" lon="0.10971">
        <ele>1947.5</ele>
        <time>2024-03-16T08:46:13Z</time>
      </trkpt>
      <trkpt lat="42.87917" lon="0.10971">
        <ele>1948.3</ele>
        <time>2024-03-16T08:46:16Z</time>
      </trkpt>
      <trkpt lat="42.8791" lon="0.10975">
        <ele>1950.1</ele>
        <time>2024-03-16T08:46:25Z</time>
      </trkpt>
      <trkpt lat="42.87906" lon="0.10978">
        <ele>1951.6</ele>
        <time>2024-03-16T08:46:32Z</time>
      </trkpt>
      <trkpt lat="42.87902" lon="0.10981">
        <ele>1953</ele>
        <time>2024-03-16T08:46:39Z</time>
      </trkpt>
      <trkpt lat="42.87898" lon="0.10983">
        <ele>1954.8</ele>
        <time>2024-03-16T08:46:49Z</time>
      </trkpt>
      <trkpt lat="42.87897" lon="0.10985">
        <ele>1955.3</ele>
        <time>2024-03-16T08:46:59Z</time>
      </trkpt>
      <trkpt lat="42.87896" lon="0.10985">
        <ele>1955.7</ele>
        <time>2024-03-16T08:47:11Z</time>
      </trkpt>
      <trkpt lat="42.87895" lon="0.10983">
        <ele>1956.3</ele>
        <time>2024-03-16T08:47:20Z</time>
      </trkpt>
      <trkpt lat="42.87895" lon="0.10978">
        <ele>1957.5</ele>
        <time>2024-03-16T08:47:33Z</time>
      </trkpt>
      <trkpt lat="42.87896" lon="0.10973">
        <ele>1957.4</ele>
        <time>2024-03-16T08:47:39Z</time>
      </trkpt>
      <trkpt lat="42.87897" lon="0.10969">
        <ele>1958.2</ele>
        <time>2024-03-16T08:47:46Z</time>
      </trkpt>
      <trkpt lat="42.87898" lon="0.10964">
        <ele>1959.2</ele>
        <time>2024-03-16T08:47:53Z</time>
      </trkpt>
      <trkpt lat="42.87899" lon="0.10958">
        <ele>1960.3</ele>
        <time>2024-03-16T08:47:59Z</time>
      </trkpt>
      <trkpt lat="42.87899" lon="0.10955">
        <ele>1961.1</ele>
        <time>2024-03-16T08:48:03Z</time>
      </trkpt>
      <trkpt lat="42.87902" lon="0.10951">
        <ele>1961.5</ele>
        <time>2024-03-16T08:48:09Z</time>
      </trkpt>
      <trkpt lat="42.87903" lon="0.10946">
        <ele>1962.5</ele>
        <time>2024-03-16T08:48:15Z</time>
      </trkpt>
      <trkpt lat="42.87903" lon="0.10944">
        <ele>1962.8</ele>
        <time>2024-03-16T08:48:17Z</time>
      </trkpt>
      <trkpt lat="42.87906" lon="0.1094">
        <ele>1963.9</ele>
        <time>2024-03-16T08:48:24Z</time>
      </trkpt>
      <trkpt lat="42.87907" lon="0.10938">
        <ele>1964.4</ele>
        <time>2024-03-16T08:48:30Z</time>
      </trkpt>
      <trkpt lat="42.87905" lon="0.10939">
        <ele>1965</ele>
        <time>2024-03-16T08:48:37Z</time>
      </trkpt>
      <trkpt lat="42.87905" lon="0.10937">
        <ele>1965.6</ele>
        <time>2024-03-16T08:48:44Z</time>
      </trkpt>
      <trkpt lat="42.87901" lon="0.1094">
        <ele>1965.5</ele>
        <time>2024-03-16T08:48:51Z</time>
      </trkpt>
      <trkpt lat="42.87895" lon="0.10941">
        <ele>1967.1</ele>
        <time>2024-03-16T08:48:58Z</time>
      </trkpt>
      <trkpt lat="42.87892" lon="0.10944">
        <ele>1967.3</ele>
        <time>2024-03-16T08:49:07Z</time>
      </trkpt>
      <trkpt lat="42.87888" lon="0.10946">
        <ele>1968.4</ele>
        <time>2024-03-16T08:49:15Z</time>
      </trkpt>
      <trkpt lat="42.87882" lon="0.10947">
        <ele>1971.3</ele>
        <time>2024-03-16T08:49:24Z</time>
      </trkpt>
      <trkpt lat="42.87877" lon="0.10949">
        <ele>1974</ele>
        <time>2024-03-16T08:49:35Z</time>
      </trkpt>
      <trkpt lat="42.87873" lon="0.10949">
        <ele>1976.1</ele>
        <time>2024-03-16T08:49:45Z</time>
      </trkpt>
      <trkpt lat="42.87874" lon="0.10945">
        <ele>1976.7</ele>
        <time>2024-03-16T08:49:54Z</time>
      </trkpt>
      <trkpt lat="42.87875" lon="0.10939">
        <ele>1978.1</ele>
        <time>2024-03-16T08:50:00Z</time>
      </trkpt>
      <trkpt lat="42.87878" lon="0.10934">
        <ele>1978.3</ele>
        <time>2024-03-16T08:50:08Z</time>
      </trkpt>
      <trkpt lat="42.87875" lon="0.10934">
        <ele>1979.9</ele>
        <time>2024-03-16T08:50:16Z</time>
      </trkpt>
      <trkpt lat="42.87875" lon="0.10935">
        <ele>1979.7</ele>
        <time>2024-03-16T08:50:17Z</time>
      </trkpt>
      <trkpt lat="42.87868" lon="0.10938">
        <ele>1981.9</ele>
        <time>2024-03-16T08:50:28Z</time>
      </trkpt>
      <trkpt lat="42.87864" lon="0.1094">
        <ele>1983.6</ele>
        <time>2024-03-16T08:50:38Z</time>
      </trkpt>
      <trkpt lat="42.87862" lon="0.10943">
        <ele>1984.1</ele>
        <time>2024-03-16T08:50:47Z</time>
      </trkpt>
      <trkpt lat="42.87862" lon="0.10937">
        <ele>1985.7</ele>
        <time>2024-03-16T08:50:55Z</time>
      </trkpt>
      <trkpt lat="42.87864" lon="0.10932">
        <ele>1986.3</ele>
        <time>2024-03-16T08:51:02Z</time>
      </trkpt>
      <trkpt lat="42.87865" lon="0.10927">
        <ele>1986.9</ele>
        <time>2024-03-16T08:51:11Z</time>
      </trkpt>
      <trkpt lat="42.87866" lon="0.10923">
        <ele>1987.9</ele>
        <time>2024-03-16T08:51:18Z</time>
      </trkpt>
      <trkpt lat="42.87866" lon="0.10919">
        <ele>1988.9</ele>
        <time>2024-03-16T08:51:24Z</time>
      </trkpt>
      <trkpt lat="42.87864" lon="0.10921">
        <ele>1989.4</ele>
        <time>2024-03-16T08:51:33Z</time>
      </trkpt>
      <trkpt lat="42.87861" lon="0.10925">
        <ele>1989.9</ele>
        <time>2024-03-16T08:51:42Z</time>
      </trkpt>
      <trkpt lat="42.87856" lon="0.1093">
        <ele>1991.1</ele>
        <time>2024-03-16T08:51:51Z</time>
      </trkpt>
      <trkpt lat="42.87852" lon="0.10932">
        <ele>1993.3</ele>
        <time>2024-03-16T08:51:58Z</time>
      </trkpt>
      <trkpt lat="42.87848" lon="0.10935">
        <ele>1995</ele>
        <time>2024-03-16T08:52:08Z</time>
      </trkpt>
      <trkpt lat="42.87846" lon="0.10936">
        <ele>1996.1</ele>
        <time>2024-03-16T08:52:18Z</time>
      </trkpt>
      <trkpt lat="42.87846" lon="0.10933">
        <ele>1996.5</ele>
        <time>2024-03-16T08:52:27Z</time>
      </trkpt>
      <trkpt lat="42.87848" lon="0.10927">
        <ele>1996.7</ele>
        <time>2024-03-16T08:52:33Z</time>
      </trkpt>
      <trkpt lat="42.87847" lon="0.10923">
        <ele>1997.7</ele>
        <time>2024-03-16T08:52:39Z</time>
      </trkpt>
      <trkpt lat="42.87845" lon="0.10916">
        <ele>2000.4</ele>
        <time>2024-03-16T08:52:48Z</time>
      </trkpt>
      <trkpt lat="42.87845" lon="0.10912">
        <ele>2002.1</ele>
        <time>2024-03-16T08:52:54Z</time>
      </trkpt>
      <trkpt lat="42.87848" lon="0.10905">
        <ele>2003</ele>
        <time>2024-03-16T08:53:02Z</time>
      </trkpt>
      <trkpt lat="42.87848" lon="0.10906">
        <ele>2002.7</ele>
        <time>2024-03-16T08:53:08Z</time>
      </trkpt>
      <trkpt lat="42.87847" lon="0.10909">
        <ele>2001.9</ele>
        <time>2024-03-16T08:53:19Z</time>
      </trkpt>
      <trkpt lat="42.87844" lon="0.10911">
        <ele>2002.8</ele>
        <time>2024-03-16T08:53:28Z</time>
      </trkpt>
      <trkpt lat="42.87839" lon="0.10914">
        <ele>2004.2</ele>
        <time>2024-03-16T08:53:40Z</time>
      </trkpt>
      <trkpt lat="42.87836" lon="0.10917">
        <ele>2004.8</ele>
        <time>2024-03-16T08:53:50Z</time>
      </trkpt>
      <trkpt lat="42.87835" lon="0.10914">
        <ele>2006</ele>
        <time>2024-03-16T08:54:00Z</time>
      </trkpt>
      <trkpt lat="42.87836" lon="0.10908">
        <ele>2007.8</ele>
        <time>2024-03-16T08:54:07Z</time>
      </trkpt>
      <trkpt lat="42.87836" lon="0.10905">
        <ele>2008.6</ele>
        <time>2024-03-16T08:54:13Z</time>
      </trkpt>
      <trkpt lat="42.87835" lon="0.10905">
        <ele>2008.9</ele>
        <time>2024-03-16T08:54:23Z</time>
      </trkpt>
      <trkpt lat="42.87835" lon="0.109">
        <ele>2011</ele>
        <time>2024-03-16T08:54:30Z</time>
      </trkpt>
      <trkpt lat="42.87834" lon="0.10895">
        <ele>2012.9</ele>
        <time>2024-03-16T08:54:38Z</time>
      </trkpt>
      <trkpt lat="42.87835" lon="0.1089">
        <ele>2014.1</ele>
        <time>2024-03-16T08:54:44Z</time>
      </trkpt>
      <trkpt lat="42.87838" lon="0.10886">
        <ele>2014.7</ele>
        <time>2024-03-16T08:54:53Z</time>
      </trkpt>
      <trkpt lat="42.87838" lon="0.10891">
        <ele>2012.5</ele>
        <time>2024-03-16T08:55:03Z</time>
      </trkpt>
      <trkpt lat="42.87836" lon="0.10893">
        <ele>2012.7</ele>
        <time>2024-03-16T08:55:12Z</time>
      </trkpt>
      <trkpt lat="42.87831" lon="0.10894">
        <ele>2015</ele>
        <time>2024-03-16T08:55:21Z</time>
      </trkpt>
      <trkpt lat="42.87827" lon="0.10898">
        <ele>2017.1</ele>
        <time>2024-03-16T08:55:31Z</time>
      </trkpt>
      <trkpt lat="42.87825" lon="0.10902">
        <ele>2017.6</ele>
        <time>2024-03-16T08:55:39Z</time>
      </trkpt>
      <trkpt lat="42.87824" lon="0.10897">
        <ele>2019.3</ele>
        <time>2024-03-16T08:55:47Z</time>
      </trkpt>
      <trkpt lat="42.87824" lon="0.10897">
        <ele>2019.1</ele>
        <time>2024-03-16T08:55:48Z</time>
      </trkpt>
      <trkpt lat="42.87824" lon="0.10897">
        <ele>2019.2</ele>
        <time>2024-03-16T08:55:50Z</time>
      </trkpt>
      <trkpt lat="42.87826" lon="0.10896">
        <ele>2018.3</ele>
        <time>2024-03-16T08:56:05Z</time>
      </trkpt>
      <trkpt lat="42.87826" lon="0.10897">
        <ele>2017.7</ele>
        <time>2024-03-16T08:56:14Z</time>
      </trkpt>
      <trkpt lat="42.87827" lon="0.10895">
        <ele>2017.8</ele>
        <time>2024-03-16T08:56:25Z</time>
      </trkpt>
      <trkpt lat="42.87827" lon="0.10893">
        <ele>2018.1</ele>
        <time>2024-03-16T08:56:35Z</time>
      </trkpt>
      <trkpt lat="42.87824" lon="0.10893">
        <ele>2020.2</ele>
        <time>2024-03-16T08:56:40Z</time>
      </trkpt>
      <trkpt lat="42.87825" lon="0.10896">
        <ele>2018.6</ele>
        <time>2024-03-16T08:56:50Z</time>
      </trkpt>
      <trkpt lat="42.87821" lon="0.10902">
        <ele>2020</ele>
        <time>2024-03-16T08:56:58Z</time>
      </trkpt>
      <trkpt lat="42.87816" lon="0.10906">
        <ele>2022.5</ele>
        <time>2024-03-16T08:57:06Z</time>
      </trkpt>
      <trkpt lat="42.8781" lon="0.10912">
        <ele>2024.7</ele>
        <time>2024-03-16T08:57:17Z</time>
      </trkpt>
      <trkpt lat="42.87809" lon="0.10922">
        <ele>2024.4</ele>
        <time>2024-03-16T08:57:27Z</time>
      </trkpt>
      <trkpt lat="42.87808" lon="0.10928">
        <ele>2025.1</ele>
        <time>2024-03-16T08:57:35Z</time>
      </trkpt>
      <trkpt lat="42.87806" lon="0.10936">
        <ele>2025.7</ele>
        <time>2024-03-16T08:57:43Z</time>
      </trkpt>
      <trkpt lat="42.87805" lon="0.10942">
        <ele>2026.4</ele>
        <time>2024-03-16T08:57:53Z</time>
      </trkpt>
      <trkpt lat="42.87803" lon="0.10951">
        <ele>2026.7</ele>
        <time>2024-03-16T08:58:02Z</time>
      </trkpt>
      <trkpt lat="42.87799" lon="0.10956">
        <ele>2027.5</ele>
        <time>2024-03-16T08:58:10Z</time>
      </trkpt>
      <trkpt lat="42.87796" lon="0.10961">
        <ele>2027.8</ele>
        <time>2024-03-16T08:58:17Z</time>
      </trkpt>
      <trkpt lat="42.87797" lon="0.10964">
        <ele>2027.2</ele>
        <time>2024-03-16T08:58:26Z</time>
      </trkpt>
      <trkpt lat="42.87796" lon="0.10964">
        <ele>2027.5</ele>
        <time>2024-03-16T08:58:37Z</time>
      </trkpt>
      <trkpt lat="42.87793" lon="0.10964">
        <ele>2028.4</ele>
        <time>2024-03-16T08:58:44Z</time>
      </trkpt>
      <trkpt lat="42.87796" lon="0.1096">
        <ele>2028</ele>
        <time>2024-03-16T08:58:54Z</time>
      </trkpt>
      <trkpt lat="42.87796" lon="0.10962">
        <ele>2027.8</ele>
        <time>2024-03-16T08:59:05Z</time>
      </trkpt>
      <trkpt lat="42.8779" lon="0.10959">
        <ele>2030.2</ele>
        <time>2024-03-16T08:59:15Z</time>
      </trkpt>
      <trkpt lat="42.87787" lon="0.10961">
        <ele>2031</ele>
        <time>2024-03-16T08:59:28Z</time>
      </trkpt>
      <trkpt lat="42.87784" lon="0.10961">
        <ele>2031.7</ele>
        <time>2024-03-16T08:59:40Z</time>
      </trkpt>
      <trkpt lat="42.87782" lon="0.10966">
        <ele>2031.2</ele>
        <time>2024-03-16T08:59:50Z</time>
      </trkpt>
      <trkpt lat="42.8778" lon="0.10971">
        <ele>2030.5</ele>
        <time>2024-03-16T09:00:00Z</time>
      </trkpt>
      <trkpt lat="42.87774" lon="0.10975">
        <ele>2031.5</ele>
        <time>2024-03-16T09:00:11Z</time>
      </trkpt>
      <trkpt lat="42.8777" lon="0.10976">
        <ele>2032.4</ele>
        <time>2024-03-16T09:00:16Z</time>
      </trkpt>
      <trkpt lat="42.87764" lon="0.10982">
        <ele>2033.3</ele>
        <time>2024-03-16T09:00:25Z</time>
      </trkpt>
      <trkpt lat="42.87757" lon="0.10987">
        <ele>2034.2</ele>
        <time>2024-03-16T09:00:35Z</time>
      </trkpt>
      <trkpt lat="42.87751" lon="0.10989">
        <ele>2035.5</ele>
        <time>2024-03-16T09:00:44Z</time>
      </trkpt>
      <trkpt lat="42.87744" lon="0.10993">
        <ele>2037</ele>
        <time>2024-03-16T09:00:56Z</time>
      </trkpt>
      <trkpt lat="42.87745" lon="0.10994">
        <ele>2036.7</ele>
        <time>2024-03-16T09:01:09Z</time>
      </trkpt>
      <trkpt lat="42.87744" lon="0.10993">
        <ele>2037.1</ele>
        <time>2024-03-16T09:01:24Z</time>
      </trkpt>
      <trkpt lat="42.87742" lon="0.10987">
        <ele>2038.8</ele>
        <time>2024-03-16T09:01:35Z</time>
      </trkpt>
      <trkpt lat="42.87743" lon="0.10991">
        <ele>2037.6</ele>
        <time>2024-03-16T09:01:50Z</time>
      </trkpt>
      <trkpt lat="42.87743" lon="0.10991">
        <ele>2037.7</ele>
        <time>2024-03-16T09:02:04Z</time>
      </trkpt>
      <trkpt lat="42.87741" lon="0.10988">
        <ele>2038.8</ele>
        <time>2024-03-16T09:02:16Z</time>
      </trkpt>
      <trkpt lat="42.87741" lon="0.1099">
        <ele>2038.5</ele>
        <time>2024-03-16T09:02:22Z</time>
      </trkpt>
      <trkpt lat="42.87738" lon="0.10992">
        <ele>2038.9</ele>
        <time>2024-03-16T09:02:29Z</time>
      </trkpt>
      <trkpt lat="42.87736" lon="0.1099">
        <ele>2040.1</ele>
        <time>2024-03-16T09:02:39Z</time>
      </trkpt>
      <trkpt lat="42.87731" lon="0.10994">
        <ele>2040.6</ele>
        <time>2024-03-16T09:02:47Z</time>
      </trkpt>
      <trkpt lat="42.87728" lon="0.11">
        <ele>2040.3</ele>
        <time>2024-03-16T09:02:54Z</time>
      </trkpt>
      <trkpt lat="42.87727" lon="0.11004">
        <ele>2040.8</ele>
        <time>2024-03-16T09:03:00Z</time>
      </trkpt>
      <trkpt lat="42.87724" lon="0.11014">
        <ele>2041.4</ele>
        <time>2024-03-16T09:03:09Z</time>
      </trkpt>
      <trkpt lat="42.87722" lon="0.1102">
        <ele>2042.1</ele>
        <time>2024-03-16T09:03:16Z</time>
      </trkpt>
      <trkpt lat="42.87719" lon="0.11025">
        <ele>2043</ele>
        <time>2024-03-16T09:03:22Z</time>
      </trkpt>
      <trkpt lat="42.87715" lon="0.11031">
        <ele>2043.9</ele>
        <time>2024-03-16T09:03:30Z</time>
      </trkpt>
      <trkpt lat="42.8771" lon="0.11036">
        <ele>2045.3</ele>
        <time>2024-03-16T09:03:38Z</time>
      </trkpt>
      <trkpt lat="42.87705" lon="0.11043">
        <ele>2046.7</ele>
        <time>2024-03-16T09:03:47Z</time>
      </trkpt>
      <trkpt lat="42.87699" lon="0.11048">
        <ele>2048.1</ele>
        <time>2024-03-16T09:03:56Z</time>
      </trkpt>
      <trkpt lat="42.87699" lon="0.11049">
        <ele>2048.2</ele>
        <time>2024-03-16T09:03:57Z</time>
      </trkpt>
      <trkpt lat="42.87694" lon="0.11053">
        <ele>2049.2</ele>
        <time>2024-03-16T09:04:04Z</time>
      </trkpt>
      <trkpt lat="42.87687" lon="0.11056">
        <ele>2050.6</ele>
        <time>2024-03-16T09:04:13Z</time>
      </trkpt>
      <trkpt lat="42.87683" lon="0.11062">
        <ele>2052.3</ele>
        <time>2024-03-16T09:04:25Z</time>
      </trkpt>
      <trkpt lat="42.87676" lon="0.11067">
        <ele>2053.6</ele>
        <time>2024-03-16T09:04:34Z</time>
      </trkpt>
      <trkpt lat="42.8767" lon="0.11071">
        <ele>2054.2</ele>
        <time>2024-03-16T09:04:42Z</time>
      </trkpt>
      <trkpt lat="42.87666" lon="0.11075">
        <ele>2054.6</ele>
        <time>2024-03-16T09:04:50Z</time>
      </trkpt>
      <trkpt lat="42.8766" lon="0.1108">
        <ele>2056</ele>
        <time>2024-03-16T09:04:58Z</time>
      </trkpt>
      <trkpt lat="42.87656" lon="0.11084">
        <ele>2057.1</ele>
        <time>2024-03-16T09:05:04Z</time>
      </trkpt>
      <trkpt lat="42.87651" lon="0.11089">
        <ele>2058.4</ele>
        <time>2024-03-16T09:05:13Z</time>
      </trkpt>
      <trkpt lat="42.87649" lon="0.11095">
        <ele>2059</ele>
        <time>2024-03-16T09:05:20Z</time>
      </trkpt>
      <trkpt lat="42.87649" lon="0.11102">
        <ele>2058.9</ele>
        <time>2024-03-16T09:05:26Z</time>
      </trkpt>
      <trkpt lat="42.87648" lon="0.11112">
        <ele>2059.2</ele>
        <time>2024-03-16T09:05:33Z</time>
      </trkpt>
      <trkpt lat="42.87648" lon="0.11116">
        <ele>2059.6</ele>
        <time>2024-03-16T09:05:37Z</time>
      </trkpt>
      <trkpt lat="42.87649" lon="0.11128">
        <ele>2060.6</ele>
        <time>2024-03-16T09:05:47Z</time>
      </trkpt>
      <trkpt lat="42.87654" lon="0.1113">
        <ele>2060.5</ele>
        <time>2024-03-16T09:05:57Z</time>
      </trkpt>
      <trkpt lat="42.87658" lon="0.11136">
        <ele>2060.9</ele>
        <time>2024-03-16T09:06:04Z</time>
      </trkpt>
      <trkpt lat="42.87661" lon="0.11135">
        <ele>2060.7</ele>
        <time>2024-03-16T09:06:11Z</time>
      </trkpt>
      <trkpt lat="42.87664" lon="0.11137">
        <ele>2060.8</ele>
        <time>2024-03-16T09:06:15Z</time>
      </trkpt>
      <trkpt lat="42.87669" lon="0.1114">
        <ele>2060.6</ele>
        <time>2024-03-16T09:06:20Z</time>
      </trkpt>
      <trkpt lat="42.87669" lon="0.11151">
        <ele>2059.7</ele>
        <time>2024-03-16T09:06:29Z</time>
      </trkpt>
      <trkpt lat="42.87669" lon="0.11159">
        <ele>2059</ele>
        <time>2024-03-16T09:06:37Z</time>
      </trkpt>
      <trkpt lat="42.87667" lon="0.11162">
        <ele>2059.1</ele>
        <time>2024-03-16T09:06:43Z</time>
      </trkpt>
      <trkpt lat="42.87667" lon="0.11167">
        <ele>2058.9</ele>
        <time>2024-03-16T09:06:49Z</time>
      </trkpt>
      <trkpt lat="42.87665" lon="0.11172">
        <ele>2057.3</ele>
        <time>2024-03-16T09:06:56Z</time>
      </trkpt>
      <trkpt lat="42.87663" lon="0.11176">
        <ele>2056.3</ele>
        <time>2024-03-16T09:07:02Z</time>
      </trkpt>
      <trkpt lat="42.8766" lon="0.11177">
        <ele>2056</ele>
        <time>2024-03-16T09:07:09Z</time>
      </trkpt>
      <trkpt lat="42.87659" lon="0.11175">
        <ele>2056.7</ele>
        <time>2024-03-16T09:07:21Z</time>
      </trkpt>
      <trkpt lat="42.87658" lon="0.11175">
        <ele>2056.7</ele>
        <time>2024-03-16T09:07:34Z</time>
      </trkpt>
      <trkpt lat="42.87656" lon="0.11173">
        <ele>2057.5</ele>
        <time>2024-03-16T09:07:45Z</time>
      </trkpt>
      <trkpt lat="42.87653" lon="0.11178">
        <ele>2056.2</ele>
        <time>2024-03-16T09:07:50Z</time>
      </trkpt>
      <trkpt lat="42.87652" lon="0.1118">
        <ele>2055.4</ele>
        <time>2024-03-16T09:07:52Z</time>
      </trkpt>
      <trkpt lat="42.87646" lon="0.1119">
        <ele>2052.4</ele>
        <time>2024-03-16T09:07:57Z</time>
      </trkpt>
      <trkpt lat="42.87641" lon="0.11198">
        <ele>2050.1</ele>
        <time>2024-03-16T09:08:01Z</time>
      </trkpt>
      <trkpt lat="42.87639" lon="0.11199">
        <ele>2050</ele>
        <time>2024-03-16T09:08:03Z</time>
      </trkpt>
      <trkpt lat="42.87643" lon="0.11198">
        <ele>2050.2</ele>
        <time>2024-03-16T09:08:10Z</time>
      </trkpt>
      <trkpt lat="42.87646" lon="0.11194">
        <ele>2050.8</ele>
        <time>2024-03-16T09:08:22Z</time>
      </trkpt>
      <trkpt lat="42.87646" lon="0.11194">
        <ele>2050.9</ele>
        <time>2024-03-16T09:08:34Z</time>
      </trkpt>
      <trkpt lat="42.87642" lon="0.11199">
        <ele>2050</ele>
        <time>2024-03-16T09:08:43Z</time>
      </trkpt>
      <trkpt lat="42.87644" lon="0.11196">
        <ele>2050.5</ele>
        <time>2024-03-16T09:08:52Z</time>
      </trkpt>
      <trkpt lat="42.87658" lon="0.11202">
        <ele>2048.6</ele>
        <time>2024-03-16T09:08:58Z</time>
      </trkpt>
      <trkpt lat="42.87661" lon="0.11204">
        <ele>2048.1</ele>
        <time>2024-03-16T09:08:59Z</time>
      </trkpt>
      <trkpt lat="42.87667" lon="0.11208">
        <ele>2047.1</ele>
        <time>2024-03-16T09:09:04Z</time>
      </trkpt>
      <trkpt lat="42.87666" lon="0.11214">
        <ele>2045.7</ele>
        <time>2024-03-16T09:09:11Z</time>
      </trkpt>
      <trkpt lat="42.87664" lon="0.11214">
        <ele>2046</ele>
        <time>2024-03-16T09:09:18Z</time>
      </trkpt>
      <trkpt lat="42.87666" lon="0.11213">
        <ele>2046.1</ele>
        <time>2024-03-16T09:09:31Z</time>
      </trkpt>
      <trkpt lat="42.87667" lon="0.1121">
        <ele>2046.5</ele>
        <time>2024-03-16T09:09:44Z</time>
      </trkpt>
      <trkpt lat="42.87672" lon="0.11214">
        <ele>2044.8</ele>
        <time>2024-03-16T09:10:00Z</time>
      </trkpt>
      <trkpt lat="42.87666" lon="0.11215">
        <ele>2045.6</ele>
        <time>2024-03-16T09:10:13Z</time>
      </trkpt>
      <trkpt lat="42.87665" lon="0.11215">
        <ele>2045.7</ele>
        <time>2024-03-16T09:10:27Z</time>
      </trkpt>
      <trkpt lat="42.87664" lon="0.11212">
        <ele>2046.3</ele>
        <time>2024-03-16T09:10:38Z</time>
      </trkpt>
      <trkpt lat="42.87664" lon="0.11212">
        <ele>2046.2</ele>
        <time>2024-03-16T09:10:49Z</time>
      </trkpt>
      <trkpt lat="42.87666" lon="0.11212">
        <ele>2046.2</ele>
        <time>2024-03-16T09:11:00Z</time>
      </trkpt>
      <trkpt lat="42.87665" lon="0.11212">
        <ele>2046.3</ele>
        <time>2024-03-16T09:11:07Z</time>
      </trkpt>
      <trkpt lat="42.87667" lon="0.11211">
        <ele>2046.3</ele>
        <time>2024-03-16T09:11:17Z</time>
      </trkpt>
      <trkpt lat="42.87668" lon="0.11211">
        <ele>2046.2</ele>
        <time>2024-03-16T09:11:23Z</time>
      </trkpt>
      <trkpt lat="42.87669" lon="0.11211">
        <ele>2045.9</ele>
        <time>2024-03-16T09:11:32Z</time>
      </trkpt>
      <trkpt lat="42.87668" lon="0.11211">
        <ele>2046</ele>
        <time>2024-03-16T09:11:42Z</time>
      </trkpt>
      <trkpt lat="42.87668" lon="0.11211">
        <ele>2046.1</ele>
        <time>2024-03-16T09:11:50Z</time>
      </trkpt>
      <trkpt lat="42.87667" lon="0.11211">
        <ele>2046.3</ele>
        <time>2024-03-16T09:11:57Z</time>
      </trkpt>
      <trkpt lat="42.87668" lon="0.11211">
        <ele>2046.1</ele>
        <time>2024-03-16T09:12:06Z</time>
      </trkpt>
      <trkpt lat="42.87666" lon="0.11213">
        <ele>2046.1</ele>
        <time>2024-03-16T09:12:16Z</time>
      </trkpt>
      <trkpt lat="42.87667" lon="0.11214">
        <ele>2045.8</ele>
        <time>2024-03-16T09:12:28Z</time>
      </trkpt>
      <trkpt lat="42.87664" lon="0.11213">
        <ele>2046</ele>
        <time>2024-03-16T09:12:37Z</time>
      </trkpt>
      <trkpt lat="42.87666" lon="0.11212">
        <ele>2046.3</ele>
        <time>2024-03-16T09:12:49Z</time>
      </trkpt>
      <trkpt lat="42.87667" lon="0.11213">
        <ele>2046</ele>
        <time>2024-03-16T09:13:03Z</time>
      </trkpt>
      <trkpt lat="42.87666" lon="0.11212">
        <ele>2046.3</ele>
        <time>2024-03-16T09:13:13Z</time>
      </trkpt>
      <trkpt lat="42.87666" lon="0.11209">
        <ele>2046.8</ele>
        <time>2024-03-16T09:13:25Z</time>
      </trkpt>
      <trkpt lat="42.87668" lon="0.11213">
        <ele>2045.9</ele>
        <time>2024-03-16T09:13:34Z</time>
      </trkpt>
      <trkpt lat="42.87669" lon="0.11214">
        <ele>2045.4</ele>
        <time>2024-03-16T09:13:43Z</time>
      </trkpt>
      <trkpt lat="42.87667" lon="0.11212">
        <ele>2046.2</ele>
        <time>2024-03-16T09:13:55Z</time>
      </trkpt>
      <trkpt lat="42.87667" lon="0.11215">
        <ele>2045.6</ele>
        <time>2024-03-16T09:14:01Z</time>
      </trkpt>
      <trkpt lat="42.87668" lon="0.11217">
        <ele>2044.9</ele>
        <time>2024-03-16T09:14:20Z</time>
      </trkpt>
      <trkpt lat="42.87666" lon="0.11217">
        <ele>2045.1</ele>
        <time>2024-03-16T09:14:39Z</time>
      </trkpt>
      <trkpt lat="42.87666" lon="0.11217">
        <ele>2045.2</ele>
        <time>2024-03-16T09:15:08Z</time>
      </trkpt>
      <trkpt lat="42.87666" lon="0.11217">
        <ele>2045.1</ele>
        <time>2024-03-16T09:15:28Z</time>
      </trkpt>
      <trkpt lat="42.87666" lon="0.11217">
        <ele>2045.1</ele>
        <time>2024-03-16T09:15:52Z</time>
      </trkpt>
      <trkpt lat="42.87666" lon="0.11216">
        <ele>2045.3</ele>
        <time>2024-03-16T09:16:11Z</time>
      </trkpt>
      <trkpt lat="42.87666" lon="0.11218">
        <ele>2045</ele>
        <time>2024-03-16T09:16:36Z</time>
      </trkpt>
      <trkpt lat="42.87668" lon="0.11217">
        <ele>2044.8</ele>
        <time>2024-03-16T09:17:06Z</time>
      </trkpt>
      <trkpt lat="42.87667" lon="0.11217">
        <ele>2045.1</ele>
        <time>2024-03-16T09:17:34Z</time>
      </trkpt>
      <trkpt lat="42.87666" lon="0.11217">
        <ele>2045.1</ele>
        <time>2024-03-16T09:18:01Z</time>
      </trkpt>
      <trkpt lat="42.87667" lon="0.11215">
        <ele>2045.6</ele>
        <time>2024-03-16T09:18:10Z</time>
      </trkpt>
      <trkpt lat="42.87668" lon="0.11214">
        <ele>2045.7</ele>
        <time>2024-03-16T09:18:19Z</time>
      </trkpt>
      <trkpt lat="42.87667" lon="0.11215">
        <ele>2045.4</ele>
        <time>2024-03-16T09:18:31Z</time>
      </trkpt>
      <trkpt lat="42.87668" lon="0.11217">
        <ele>2044.9</ele>
        <time>2024-03-16T09:18:48Z</time>
      </trkpt>
      <trkpt lat="42.87668" lon="0.11217">
        <ele>2044.9</ele>
        <time>2024-03-16T09:18:58Z</time>
      </trkpt>
      <trkpt lat="42.87668" lon="0.11215">
        <ele>2045.4</ele>
        <time>2024-03-16T09:19:07Z</time>
      </trkpt>
      <trkpt lat="42.87668" lon="0.11214">
        <ele>2045.5</ele>
        <time>2024-03-16T09:19:18Z</time>
      </trkpt>
      <trkpt lat="42.87668" lon="0.11214">
        <ele>2045.6</ele>
        <time>2024-03-16T09:19:30Z</time>
      </trkpt>
      <trkpt lat="42.87668" lon="0.11215">
        <ele>2045.4</ele>
        <time>2024-03-16T09:19:43Z</time>
      </trkpt>
      <trkpt lat="42.87667" lon="0.11213">
        <ele>2045.8</ele>
        <time>2024-03-16T09:19:53Z</time>
      </trkpt>
      <trkpt lat="42.87666" lon="0.11213">
        <ele>2046</ele>
        <time>2024-03-16T09:20:12Z</time>
      </trkpt>
      <trkpt lat="42.87667" lon="0.11212">
        <ele>2046.1</ele>
        <time>2024-03-16T09:20:25Z</time>
      </trkpt>
      <trkpt lat="42.87666" lon="0.11211">
        <ele>2046.5</ele>
        <time>2024-03-16T09:20:41Z</time>
      </trkpt>
      <trkpt lat="42.87667" lon="0.11213">
        <ele>2045.9</ele>
        <time>2024-03-16T09:20:52Z</time>
      </trkpt>
      <trkpt lat="42.87669" lon="0.11214">
        <ele>2045.3</ele>
        <time>2024-03-16T09:21:03Z</time>
      </trkpt>
      <trkpt lat="42.87668" lon="0.11217">
        <ele>2044.9</ele>
        <time>2024-03-16T09:21:16Z</time>
      </trkpt>
      <trkpt lat="42.87671" lon="0.11214">
        <ele>2044.8</ele>
        <time>2024-03-16T09:21:28Z</time>
      </trkpt>
      <trkpt lat="42.87673" lon="0.11214">
        <ele>2044.6</ele>
        <time>2024-03-16T09:21:35Z</time>
      </trkpt>
      <trkpt lat="42.87674" lon="0.11213">
        <ele>2044.6</ele>
        <time>2024-03-16T09:21:36Z</time>
      </trkpt>
      <trkpt lat="42.87675" lon="0.11213">
        <ele>2044.5</ele>
        <time>2024-03-16T09:21:37Z</time>
      </trkpt>
      <trkpt lat="42.87678" lon="0.11212">
        <ele>2044.2</ele>
        <time>2024-03-16T09:21:41Z</time>
      </trkpt>
      <trkpt lat="42.87679" lon="0.11213">
        <ele>2043.8</ele>
        <time>2024-03-16T09:21:42Z</time>
      </trkpt>
      <trkpt lat="42.8768" lon="0.11214">
        <ele>2043.4</ele>
        <time>2024-03-16T09:21:43Z</time>
      </trkpt>
      <trkpt lat="42.87681" lon="0.11216">
        <ele>2042.9</ele>
        <time>2024-03-16T09:21:44Z</time>
      </trkpt>
      <trkpt lat="42.87683" lon="0.11218">
        <ele>2042.4</ele>
        <time>2024-03-16T09:21:45Z</time>
      </trkpt>
      <trkpt lat="42.87684" lon="0.11228">
        <ele>2040.7</ele>
        <time>2024-03-16T09:21:51Z</time>
      </trkpt>
      <trkpt lat="42.87687" lon="0.11237">
        <ele>2039.3</ele>
        <time>2024-03-16T09:21:58Z</time>
      </trkpt>
      <trkpt lat="42.87695" lon="0.11252">
        <ele>2037.9</ele>
        <time>2024-03-16T09:22:04Z</time>
      </trkpt>
      <trkpt lat="42.877" lon="0.11263">
        <ele>2037.5</ele>
        <time>2024-03-16T09:22:11Z</time>
      </trkpt>
      <trkpt lat="42.87705" lon="0.11275">
        <ele>2038.1</ele>
        <time>2024-03-16T09:22:19Z</time>
      </trkpt>
      <trkpt lat="42.87705" lon="0.11276">
        <ele>2038.2</ele>
        <time>2024-03-16T09:22:20Z</time>
      </trkpt>
      <trkpt lat="42.87706" lon="0.11277">
        <ele>2038.3</ele>
        <time>2024-03-16T09:22:21Z</time>
      </trkpt>
      <trkpt lat="42.87706" lon="0.11278">
        <ele>2038.4</ele>
        <time>2024-03-16T09:22:22Z</time>
      </trkpt>
      <trkpt lat="42.87707" lon="0.11279">
        <ele>2038.4</ele>
        <time>2024-03-16T09:22:23Z</time>
      </trkpt>
      <trkpt lat="42.87713" lon="0.1129">
        <ele>2038.6</ele>
        <time>2024-03-16T09:22:31Z</time>
      </trkpt>
      <trkpt lat="42.87719" lon="0.11304">
        <ele>2038.5</ele>
        <time>2024-03-16T09:22:40Z</time>
      </trkpt>
      <trkpt lat="42.87724" lon="0.11314">
        <ele>2038.8</ele>
        <time>2024-03-16T09:22:48Z</time>
      </trkpt>
      <trkpt lat="42.87728" lon="0.11323">
        <ele>2039.8</ele>
        <time>2024-03-16T09:22:54Z</time>
      </trkpt>
      <trkpt lat="42.87734" lon="0.11334">
        <ele>2040.4</ele>
        <time>2024-03-16T09:23:02Z</time>
      </trkpt>
      <trkpt lat="42.87738" lon="0.11341">
        <ele>2040.7</ele>
        <time>2024-03-16T09:23:07Z</time>
      </trkpt>
      <trkpt lat="42.87738" lon="0.11343">
        <ele>2040.7</ele>
        <time>2024-03-16T09:23:08Z</time>
      </trkpt>
      <trkpt lat="42.87739" lon="0.11345">
        <ele>2040.6</ele>
        <time>2024-03-16T09:23:09Z</time>
      </trkpt>
      <trkpt lat="42.87742" lon="0.11355">
        <ele>2039.5</ele>
        <time>2024-03-16T09:23:16Z</time>
      </trkpt>
      <trkpt lat="42.87744" lon="0.11365">
        <ele>2038.5</ele>
        <time>2024-03-16T09:23:23Z</time>
      </trkpt>
      <trkpt lat="42.87748" lon="0.11375">
        <ele>2038.6</ele>
        <time>2024-03-16T09:23:30Z</time>
      </trkpt>
      <trkpt lat="42.87751" lon="0.11386">
        <ele>2038.4</ele>
        <time>2024-03-16T09:23:38Z</time>
      </trkpt>
      <trkpt lat="42.87753" lon="0.11394">
        <ele>2038.1</ele>
        <time>2024-03-16T09:23:45Z</time>
      </trkpt>
      <trkpt lat="42.87753" lon="0.114">
        <ele>2037.8</ele>
        <time>2024-03-16T09:23:51Z</time>
      </trkpt>
      <trkpt lat="42.87754" lon="0.11411">
        <ele>2037.2</ele>
        <time>2024-03-16T09:23:58Z</time>
      </trkpt>
      <trkpt lat="42.87753" lon="0.1142">
        <ele>2036.7</ele>
        <time>2024-03-16T09:24:04Z</time>
      </trkpt>
      <trkpt lat="42.87751" lon="0.11429">
        <ele>2036.4</ele>
        <time>2024-03-16T09:24:13Z</time>
      </trkpt>
      <trkpt lat="42.8775" lon="0.11442">
        <ele>2036.1</ele>
        <time>2024-03-16T09:24:22Z</time>
      </trkpt>
      <trkpt lat="42.87749" lon="0.11448">
        <ele>2035.3</ele>
        <time>2024-03-16T09:24:26Z</time>
      </trkpt>
      <trkpt lat="42.87748" lon="0.11449">
        <ele>2035</ele>
        <time>2024-03-16T09:24:27Z</time>
      </trkpt>
      <trkpt lat="42.87744" lon="0.11461">
        <ele>2033.1</ele>
        <time>2024-03-16T09:24:36Z</time>
      </trkpt>
      <trkpt lat="42.87743" lon="0.11462">
        <ele>2033</ele>
        <time>2024-03-16T09:24:37Z</time>
      </trkpt>
      <trkpt lat="42.87737" lon="0.11466">
        <ele>2032.9</ele>
        <time>2024-03-16T09:24:44Z</time>
      </trkpt>
      <trkpt lat="42.87738" lon="0.11468">
        <ele>2032.7</ele>
        <time>2024-03-16T09:24:46Z</time>
      </trkpt>
      <trkpt lat="42.8774" lon="0.11481">
        <ele>2031.4</ele>
        <time>2024-03-16T09:24:55Z</time>
      </trkpt>
      <trkpt lat="42.87744" lon="0.11492">
        <ele>2030.2</ele>
        <time>2024-03-16T09:25:03Z</time>
      </trkpt>
      <trkpt lat="42.87747" lon="0.11502">
        <ele>2029.4</ele>
        <time>2024-03-16T09:25:10Z</time>
      </trkpt>
      <trkpt lat="42.87751" lon="0.11516">
        <ele>2029.3</ele>
        <time>2024-03-16T09:25:20Z</time>
      </trkpt>
      <trkpt lat="42.87753" lon="0.11524">
        <ele>2029.3</ele>
        <time>2024-03-16T09:25:26Z</time>
      </trkpt>
      <trkpt lat="42.87753" lon="0.11525">
        <ele>2029.4</ele>
        <time>2024-03-16T09:25:27Z</time>
      </trkpt>
      <trkpt lat="42.87753" lon="0.11527">
        <ele>2029.4</ele>
        <time>2024-03-16T09:25:28Z</time>
      </trkpt>
      <trkpt lat="42.87754" lon="0.11539">
        <ele>2030.2</ele>
        <time>2024-03-16T09:25:36Z</time>
      </trkpt>
      <trkpt lat="42.87754" lon="0.11552">
        <ele>2031.3</ele>
        <time>2024-03-16T09:25:45Z</time>
      </trkpt>
      <trkpt lat="42.87757" lon="0.11563">
        <ele>2032</ele>
        <time>2024-03-16T09:25:53Z</time>
      </trkpt>
      <trkpt lat="42.8776" lon="0.11575">
        <ele>2032.9</ele>
        <time>2024-03-16T09:26:02Z</time>
      </trkpt>
      <trkpt lat="42.87763" lon="0.11587">
        <ele>2033.7</ele>
        <time>2024-03-16T09:26:10Z</time>
      </trkpt>
      <trkpt lat="42.87763" lon="0.11596">
        <ele>2035</ele>
        <time>2024-03-16T09:26:17Z</time>
      </trkpt>
      <trkpt lat="42.87764" lon="0.11598">
        <ele>2035.2</ele>
        <time>2024-03-16T09:26:18Z</time>
      </trkpt>
      <trkpt lat="42.87767" lon="0.11607">
        <ele>2036</ele>
        <time>2024-03-16T09:26:26Z</time>
      </trkpt>
      <trkpt lat="42.87761" lon="0.11616">
        <ele>2038.4</ele>
        <time>2024-03-16T09:26:34Z</time>
      </trkpt>
      <trkpt lat="42.87756" lon="0.11622">
        <ele>2040.6</ele>
        <time>2024-03-16T09:26:42Z</time>
      </trkpt>
      <trkpt lat="42.87754" lon="0.11625">
        <ele>2041.3</ele>
        <time>2024-03-16T09:26:50Z</time>
      </trkpt>
      <trkpt lat="42.87753" lon="0.11626">
        <ele>2041.7</ele>
        <time>2024-03-16T09:26:52Z</time>
      </trkpt>
      <trkpt lat="42.87753" lon="0.11626">
        <ele>2041.9</ele>
        <time>2024-03-16T09:26:53Z</time>
      </trkpt>
      <trkpt lat="42.87749" lon="0.11635">
        <ele>2044.1</ele>
        <time>2024-03-16T09:27:01Z</time>
      </trkpt>
      <trkpt lat="42.87747" lon="0.11642">
        <ele>2045.9</ele>
        <time>2024-03-16T09:27:08Z</time>
      </trkpt>
      <trkpt lat="42.87742" lon="0.11648">
        <ele>2047.7</ele>
        <time>2024-03-16T09:27:17Z</time>
      </trkpt>
      <trkpt lat="42.87736" lon="0.1165">
        <ele>2048.3</ele>
        <time>2024-03-16T09:27:26Z</time>
      </trkpt>
      <trkpt lat="42.87735" lon="0.11656">
        <ele>2049.8</ele>
        <time>2024-03-16T09:27:34Z</time>
      </trkpt>
      <trkpt lat="42.87733" lon="0.11661">
        <ele>2051.3</ele>
        <time>2024-03-16T09:27:41Z</time>
      </trkpt>
      <trkpt lat="42.87728" lon="0.11666">
        <ele>2052.5</ele>
        <time>2024-03-16T09:27:50Z</time>
      </trkpt>
      <trkpt lat="42.87724" lon="0.11673">
        <ele>2054.3</ele>
        <time>2024-03-16T09:28:00Z</time>
      </trkpt>
      <trkpt lat="42.87718" lon="0.11675">
        <ele>2053.4</ele>
        <time>2024-03-16T09:28:08Z</time>
      </trkpt>
      <trkpt lat="42.87718" lon="0.11676">
        <ele>2053.6</ele>
        <time>2024-03-16T09:28:20Z</time>
      </trkpt>
      <trkpt lat="42.87718" lon="0.11683">
        <ele>2055.7</ele>
        <time>2024-03-16T09:28:27Z</time>
      </trkpt>
      <trkpt lat="42.87716" lon="0.1169">
        <ele>2057.8</ele>
        <time>2024-03-16T09:28:36Z</time>
      </trkpt>
      <trkpt lat="42.87712" lon="0.11695">
        <ele>2058.6</ele>
        <time>2024-03-16T09:28:44Z</time>
      </trkpt>
      <trkpt lat="42.87707" lon="0.117">
        <ele>2059</ele>
        <time>2024-03-16T09:28:52Z</time>
      </trkpt>
      <trkpt lat="42.87704" lon="0.11706">
        <ele>2060.2</ele>
        <time>2024-03-16T09:28:59Z</time>
      </trkpt>
      <trkpt lat="42.87701" lon="0.11712">
        <ele>2061.3</ele>
        <time>2024-03-16T09:29:08Z</time>
      </trkpt>
      <trkpt lat="42.87699" lon="0.11717">
        <ele>2062.5</ele>
        <time>2024-03-16T09:29:16Z</time>
      </trkpt>
      <trkpt lat="42.87695" lon="0.11725">
        <ele>2063.7</ele>
        <time>2024-03-16T09:29:25Z</time>
      </trkpt>
      <trkpt lat="42.87691" lon="0.11735">
        <ele>2064.2</ele>
        <time>2024-03-16T09:29:33Z</time>
      </trkpt>
      <trkpt lat="42.8769" lon="0.11736">
        <ele>2064</ele>
        <time>2024-03-16T09:29:34Z</time>
      </trkpt>
      <trkpt lat="42.87688" lon="0.11743">
        <ele>2064.6</ele>
        <time>2024-03-16T09:29:41Z</time>
      </trkpt>
      <trkpt lat="42.87687" lon="0.11751">
        <ele>2065.6</ele>
        <time>2024-03-16T09:29:49Z</time>
      </trkpt>
      <trkpt lat="42.87685" lon="0.11756">
        <ele>2065.6</ele>
        <time>2024-03-16T09:29:56Z</time>
      </trkpt>
      <trkpt lat="42.87682" lon="0.11764">
        <ele>2065.5</ele>
        <time>2024-03-16T09:30:02Z</time>
      </trkpt>
      <trkpt lat="42.87681" lon="0.11771">
        <ele>2065.8</ele>
        <time>2024-03-16T09:30:09Z</time>
      </trkpt>
      <trkpt lat="42.87679" lon="0.11778">
        <ele>2066.3</ele>
        <time>2024-03-16T09:30:15Z</time>
      </trkpt>
      <trkpt lat="42.87679" lon="0.11783">
        <ele>2067.1</ele>
        <time>2024-03-16T09:30:21Z</time>
      </trkpt>
      <trkpt lat="42.87677" lon="0.11792">
        <ele>2067.5</ele>
        <time>2024-03-16T09:30:28Z</time>
      </trkpt>
      <trkpt lat="42.87675" lon="0.11802">
        <ele>2068</ele>
        <time>2024-03-16T09:30:35Z</time>
      </trkpt>
      <trkpt lat="42.87672" lon="0.11811">
        <ele>2068.1</ele>
        <time>2024-03-16T09:30:43Z</time>
      </trkpt>
      <trkpt lat="42.87671" lon="0.11817">
        <ele>2068.4</ele>
        <time>2024-03-16T09:30:50Z</time>
      </trkpt>
      <trkpt lat="42.87668" lon="0.11824">
        <ele>2068</ele>
        <time>2024-03-16T09:30:57Z</time>
      </trkpt>
      <trkpt lat="42.87666" lon="0.11835">
        <ele>2069.5</ele>
        <time>2024-03-16T09:31:05Z</time>
      </trkpt>
      <trkpt lat="42.87664" lon="0.11844">
        <ele>2071.3</ele>
        <time>2024-03-16T09:31:12Z</time>
      </trkpt>
      <trkpt lat="42.8766" lon="0.1185">
        <ele>2071.3</ele>
        <time>2024-03-16T09:31:21Z</time>
      </trkpt>
      <trkpt lat="42.87657" lon="0.11858">
        <ele>2072.5</ele>
        <time>2024-03-16T09:31:28Z</time>
      </trkpt>
      <trkpt lat="42.87656" lon="0.11859">
        <ele>2072.6</ele>
        <time>2024-03-16T09:31:30Z</time>
      </trkpt>
      <trkpt lat="42.87652" lon="0.11865">
        <ele>2073</ele>
        <time>2024-03-16T09:31:38Z</time>
      </trkpt>
      <trkpt lat="42.87649" lon="0.11871">
        <ele>2073.9</ele>
        <time>2024-03-16T09:31:44Z</time>
      </trkpt>
      <trkpt lat="42.87646" lon="0.11876">
        <ele>2074.5</ele>
        <time>2024-03-16T09:31:52Z</time>
      </trkpt>
      <trkpt lat="42.87643" lon="0.11881">
        <ele>2075</ele>
        <time>2024-03-16T09:32:00Z</time>
      </trkpt>
      <trkpt lat="42.8764" lon="0.11889">
        <ele>2076.4</ele>
        <time>2024-03-16T09:32:08Z</time>
      </trkpt>
      <trkpt lat="42.87638" lon="0.11894">
        <ele>2077.9</ele>
        <time>2024-03-16T09:32:15Z</time>
      </trkpt>
      <trkpt lat="42.87636" lon="0.11903">
        <ele>2080.1</ele>
        <time>2024-03-16T09:32:22Z</time>
      </trkpt>
      <trkpt lat="42.87634" lon="0.11907">
        <ele>2080.9</ele>
        <time>2024-03-16T09:32:29Z</time>
      </trkpt>
      <trkpt lat="42.8763" lon="0.11915">
        <ele>2081.7</ele>
        <time>2024-03-16T09:32:37Z</time>
      </trkpt>
      <trkpt lat="42.87626" lon="0.11922">
        <ele>2082.3</ele>
        <time>2024-03-16T09:32:44Z</time>
      </trkpt>
      <trkpt lat="42.87623" lon="0.11929">
        <ele>2083.2</ele>
        <time>2024-03-16T09:32:52Z</time>
      </trkpt>
      <trkpt lat="42.87619" lon="0.11935">
        <ele>2083.4</ele>
        <time>2024-03-16T09:32:59Z</time>
      </trkpt>
      <trkpt lat="42.87616" lon="0.11942">
        <ele>2084.2</ele>
        <time>2024-03-16T09:33:06Z</time>
      </trkpt>
      <trkpt lat="42.87613" lon="0.11949">
        <ele>2084.5</ele>
        <time>2024-03-16T09:33:15Z</time>
      </trkpt>
      <trkpt lat="42.87611" lon="0.11956">
        <ele>2085.6</ele>
        <time>2024-03-16T09:33:24Z</time>
      </trkpt>
      <trkpt lat="42.87606" lon="0.11965">
        <ele>2086.5</ele>
        <time>2024-03-16T09:33:34Z</time>
      </trkpt>
      <trkpt lat="42.87604" lon="0.11971">
        <ele>2087.3</ele>
        <time>2024-03-16T09:33:41Z</time>
      </trkpt>
      <trkpt lat="42.87601" lon="0.11976">
        <ele>2087.8</ele>
        <time>2024-03-16T09:33:48Z</time>
      </trkpt>
      <trkpt lat="42.87599" lon="0.1198">
        <ele>2087.9</ele>
        <time>2024-03-16T09:33:57Z</time>
      </trkpt>
      <trkpt lat="42.87594" lon="0.11987">
        <ele>2088.6</ele>
        <time>2024-03-16T09:34:06Z</time>
      </trkpt>
      <trkpt lat="42.87592" lon="0.11995">
        <ele>2090</ele>
        <time>2024-03-16T09:34:15Z</time>
      </trkpt>
      <trkpt lat="42.87587" lon="0.12002">
        <ele>2090.5</ele>
        <time>2024-03-16T09:34:25Z</time>
      </trkpt>
      <trkpt lat="42.87582" lon="0.12006">
        <ele>2090.7</ele>
        <time>2024-03-16T09:34:35Z</time>
      </trkpt>
      <trkpt lat="42.87577" lon="0.1201">
        <ele>2092.1</ele>
        <time>2024-03-16T09:34:43Z</time>
      </trkpt>
      <trkpt lat="42.87573" lon="0.12013">
        <ele>2092.5</ele>
        <time>2024-03-16T09:34:52Z</time>
      </trkpt>
      <trkpt lat="42.87565" lon="0.12016">
        <ele>2093</ele>
        <time>2024-03-16T09:35:01Z</time>
      </trkpt>
      <trkpt lat="42.87559" lon="0.12016">
        <ele>2092.5</ele>
        <time>2024-03-16T09:35:09Z</time>
      </trkpt>
      <trkpt lat="42.87552" lon="0.12019">
        <ele>2093.1</ele>
        <time>2024-03-16T09:35:17Z</time>
      </trkpt>
      <trkpt lat="42.87546" lon="0.12023">
        <ele>2094.8</ele>
        <time>2024-03-16T09:35:26Z</time>
      </trkpt>
      <trkpt lat="42.87538" lon="0.12025">
        <ele>2095.9</ele>
        <time>2024-03-16T09:35:37Z</time>
      </trkpt>
      <trkpt lat="42.87533" lon="0.12028">
        <ele>2097.2</ele>
        <time>2024-03-16T09:35:46Z</time>
      </trkpt>
      <trkpt lat="42.87528" lon="0.1203">
        <ele>2097.7</ele>
        <time>2024-03-16T09:35:54Z</time>
      </trkpt>
      <trkpt lat="42.87523" lon="0.12032">
        <ele>2099.3</ele>
        <time>2024-03-16T09:36:03Z</time>
      </trkpt>
      <trkpt lat="42.87516" lon="0.12035">
        <ele>2101.4</ele>
        <time>2024-03-16T09:36:14Z</time>
      </trkpt>
      <trkpt lat="42.87512" lon="0.12038">
        <ele>2103.2</ele>
        <time>2024-03-16T09:36:23Z</time>
      </trkpt>
      <trkpt lat="42.8751" lon="0.12037">
        <ele>2103.4</ele>
        <time>2024-03-16T09:36:29Z</time>
      </trkpt>
      <trkpt lat="42.87515" lon="0.1204">
        <ele>2103.5</ele>
        <time>2024-03-16T09:36:44Z</time>
      </trkpt>
      <trkpt lat="42.87516" lon="0.12043">
        <ele>2104.4</ele>
        <time>2024-03-16T09:36:55Z</time>
      </trkpt>
      <trkpt lat="42.8752" lon="0.12047">
        <ele>2105</ele>
        <time>2024-03-16T09:37:02Z</time>
      </trkpt>
      <trkpt lat="42.87522" lon="0.1205">
        <ele>2106</ele>
        <time>2024-03-16T09:37:09Z</time>
      </trkpt>
      <trkpt lat="42.87524" lon="0.12054">
        <ele>2107.1</ele>
        <time>2024-03-16T09:37:19Z</time>
      </trkpt>
      <trkpt lat="42.87521" lon="0.12056">
        <ele>2108.1</ele>
        <time>2024-03-16T09:37:26Z</time>
      </trkpt>
      <trkpt lat="42.87518" lon="0.12054">
        <ele>2108</ele>
        <time>2024-03-16T09:37:41Z</time>
      </trkpt>
      <trkpt lat="42.87511" lon="0.12055">
        <ele>2109.4</ele>
        <time>2024-03-16T09:37:51Z</time>
      </trkpt>
      <trkpt lat="42.87507" lon="0.12058">
        <ele>2110.9</ele>
        <time>2024-03-16T09:37:58Z</time>
      </trkpt>
      <trkpt lat="42.875" lon="0.12058">
        <ele>2111.8</ele>
        <time>2024-03-16T09:38:08Z</time>
      </trkpt>
      <trkpt lat="42.87495" lon="0.12056">
        <ele>2113</ele>
        <time>2024-03-16T09:38:16Z</time>
      </trkpt>
      <trkpt lat="42.8749" lon="0.12056">
        <ele>2114.4</ele>
        <time>2024-03-16T09:38:24Z</time>
      </trkpt>
      <trkpt lat="42.87488" lon="0.1206">
        <ele>2116</ele>
        <time>2024-03-16T09:38:33Z</time>
      </trkpt>
      <trkpt lat="42.87492" lon="0.12069">
        <ele>2117.3</ele>
        <time>2024-03-16T09:38:41Z</time>
      </trkpt>
      <trkpt lat="42.87493" lon="0.12073">
        <ele>2118.1</ele>
        <time>2024-03-16T09:38:46Z</time>
      </trkpt>
      <trkpt lat="42.87497" lon="0.1208">
        <ele>2119.6</ele>
        <time>2024-03-16T09:38:55Z</time>
      </trkpt>
      <trkpt lat="42.87491" lon="0.12082">
        <ele>2120.8</ele>
        <time>2024-03-16T09:39:02Z</time>
      </trkpt>
      <trkpt lat="42.87488" lon="0.12079">
        <ele>2120.6</ele>
        <time>2024-03-16T09:39:08Z</time>
      </trkpt>
      <trkpt lat="42.87483" lon="0.12075">
        <ele>2120.7</ele>
        <time>2024-03-16T09:39:15Z</time>
      </trkpt>
      <trkpt lat="42.87478" lon="0.1207">
        <ele>2120.7</ele>
        <time>2024-03-16T09:39:26Z</time>
      </trkpt>
      <trkpt lat="42.87473" lon="0.12071">
        <ele>2122</ele>
        <time>2024-03-16T09:39:36Z</time>
      </trkpt>
      <trkpt lat="42.87472" lon="0.1208">
        <ele>2123.5</ele>
        <time>2024-03-16T09:39:46Z</time>
      </trkpt>
      <trkpt lat="42.87474" lon="0.12088">
        <ele>2125.1</ele>
        <time>2024-03-16T09:39:55Z</time>
      </trkpt>
      <trkpt lat="42.87466" lon="0.1209">
        <ele>2126.3</ele>
        <time>2024-03-16T09:40:04Z</time>
      </trkpt>
      <trkpt lat="42.87456" lon="0.12084">
        <ele>2125.9</ele>
        <time>2024-03-16T09:40:15Z</time>
      </trkpt>
      <trkpt lat="42.87456" lon="0.12088">
        <ele>2126.7</ele>
        <time>2024-03-16T09:40:25Z</time>
      </trkpt>
      <trkpt lat="42.87456" lon="0.12085">
        <ele>2126.1</ele>
        <time>2024-03-16T09:40:37Z</time>
      </trkpt>
      <trkpt lat="42.87455" lon="0.12083">
        <ele>2125.8</ele>
        <time>2024-03-16T09:40:46Z</time>
      </trkpt>
      <trkpt lat="42.87455" lon="0.12077">
        <ele>2125.2</ele>
        <time>2024-03-16T09:41:00Z</time>
      </trkpt>
      <trkpt lat="42.87456" lon="0.12077">
        <ele>2125.1</ele>
        <time>2024-03-16T09:41:19Z</time>
      </trkpt>
      <trkpt lat="42.87459" lon="0.12077">
        <ele>2124.8</ele>
        <time>2024-03-16T09:41:26Z</time>
      </trkpt>
      <trkpt lat="42.87456" lon="0.12076">
        <ele>2125</ele>
        <time>2024-03-16T09:41:35Z</time>
      </trkpt>
      <trkpt lat="42.87455" lon="0.12081">
        <ele>2125.7</ele>
        <time>2024-03-16T09:41:46Z</time>
      </trkpt>
      <trkpt lat="42.87454" lon="0.1208">
        <ele>2125.7</ele>
        <time>2024-03-16T09:41:56Z</time>
      </trkpt>
      <trkpt lat="42.87457" lon="0.12078">
        <ele>2125.2</ele>
        <time>2024-03-16T09:42:04Z</time>
      </trkpt>
      <trkpt lat="42.87456" lon="0.12079">
        <ele>2125.2</ele>
        <time>2024-03-16T09:42:13Z</time>
      </trkpt>
      <trkpt lat="42.87454" lon="0.12079">
        <ele>2125.6</ele>
        <time>2024-03-16T09:42:23Z</time>
      </trkpt>
      <trkpt lat="42.87455" lon="0.12079">
        <ele>2125.4</ele>
        <time>2024-03-16T09:42:34Z</time>
      </trkpt>
      <trkpt lat="42.87456" lon="0.12081">
        <ele>2125.5</ele>
        <time>2024-03-16T09:42:48Z</time>
      </trkpt>
      <trkpt lat="42.87453" lon="0.12087">
        <ele>2126.8</ele>
        <time>2024-03-16T09:42:59Z</time>
      </trkpt>
      <trkpt lat="42.87455" lon="0.12089">
        <ele>2127</ele>
        <time>2024-03-16T09:43:08Z</time>
      </trkpt>
      <trkpt lat="42.87457" lon="0.12092">
        <ele>2127.5</ele>
        <time>2024-03-16T09:43:15Z</time>
      </trkpt>
      <trkpt lat="42.87458" lon="0.12096">
        <ele>2128.3</ele>
        <time>2024-03-16T09:43:23Z</time>
      </trkpt>
      <trkpt lat="42.87461" lon="0.12101">
        <ele>2129.3</ele>
        <time>2024-03-16T09:43:31Z</time>
      </trkpt>
      <trkpt lat="42.87464" lon="0.12106">
        <ele>2130.5</ele>
        <time>2024-03-16T09:43:39Z</time>
      </trkpt>
      <trkpt lat="42.87469" lon="0.12109">
        <ele>2131.4</ele>
        <time>2024-03-16T09:43:48Z</time>
      </trkpt>
      <trkpt lat="42.87479" lon="0.12113">
        <ele>2132.9</ele>
        <time>2024-03-16T09:44:01Z</time>
      </trkpt>
      <trkpt lat="42.87487" lon="0.12116">
        <ele>2134.2</ele>
        <time>2024-03-16T09:44:10Z</time>
      </trkpt>
      <trkpt lat="42.87492" lon="0.12119">
        <ele>2136</ele>
        <time>2024-03-16T09:44:21Z</time>
      </trkpt>
      <trkpt lat="42.87495" lon="0.12125">
        <ele>2139</ele>
        <time>2024-03-16T09:44:31Z</time>
      </trkpt>
      <trkpt lat="42.87503" lon="0.12131">
        <ele>2141.9</ele>
        <time>2024-03-16T09:44:45Z</time>
      </trkpt>
      <trkpt lat="42.87509" lon="0.12131">
        <ele>2142.4</ele>
        <time>2024-03-16T09:44:53Z</time>
      </trkpt>
      <trkpt lat="42.87514" lon="0.12132">
        <ele>2142.7</ele>
        <time>2024-03-16T09:45:00Z</time>
      </trkpt>
      <trkpt lat="42.87515" lon="0.12132">
        <ele>2142.9</ele>
        <time>2024-03-16T09:45:01Z</time>
      </trkpt>
      <trkpt lat="42.87522" lon="0.12133">
        <ele>2143.7</ele>
        <time>2024-03-16T09:45:09Z</time>
      </trkpt>
      <trkpt lat="42.87526" lon="0.12134">
        <ele>2144.5</ele>
        <time>2024-03-16T09:45:17Z</time>
      </trkpt>
      <trkpt lat="42.87531" lon="0.12136">
        <ele>2145.4</ele>
        <time>2024-03-16T09:45:25Z</time>
      </trkpt>
      <trkpt lat="42.87536" lon="0.12139">
        <ele>2147</ele>
        <time>2024-03-16T09:45:33Z</time>
      </trkpt>
      <trkpt lat="42.87539" lon="0.12142">
        <ele>2148.1</ele>
        <time>2024-03-16T09:45:41Z</time>
      </trkpt>
      <trkpt lat="42.87544" lon="0.12147">
        <ele>2150.3</ele>
        <time>2024-03-16T09:45:51Z</time>
      </trkpt>
      <trkpt lat="42.87547" lon="0.1215">
        <ele>2151.8</ele>
        <time>2024-03-16T09:46:06Z</time>
      </trkpt>
      <trkpt lat="42.8755" lon="0.12149">
        <ele>2151.2</ele>
        <time>2024-03-16T09:46:13Z</time>
      </trkpt>
      <trkpt lat="42.87556" lon="0.12149">
        <ele>2151.1</ele>
        <time>2024-03-16T09:46:21Z</time>
      </trkpt>
      <trkpt lat="42.87562" lon="0.12156">
        <ele>2154.8</ele>
        <time>2024-03-16T09:46:35Z</time>
      </trkpt>
      <trkpt lat="42.87564" lon="0.12156">
        <ele>2155.3</ele>
        <time>2024-03-16T09:46:44Z</time>
      </trkpt>
      <trkpt lat="42.8756" lon="0.12158">
        <ele>2155.8</ele>
        <time>2024-03-16T09:46:53Z</time>
      </trkpt>
      <trkpt lat="42.87553" lon="0.1216">
        <ele>2156.5</ele>
        <time>2024-03-16T09:47:01Z</time>
      </trkpt>
      <trkpt lat="42.87547" lon="0.12163">
        <ele>2158.3</ele>
        <time>2024-03-16T09:47:10Z</time>
      </trkpt>
      <trkpt lat="42.87542" lon="0.12167">
        <ele>2160.9</ele>
        <time>2024-03-16T09:47:20Z</time>
      </trkpt>
      <trkpt lat="42.87545" lon="0.12168">
        <ele>2160.9</ele>
        <time>2024-03-16T09:47:28Z</time>
      </trkpt>
      <trkpt lat="42.8755" lon="0.12167">
        <ele>2160.4</ele>
        <time>2024-03-16T09:47:37Z</time>
      </trkpt>
      <trkpt lat="42.87556" lon="0.12168">
        <ele>2160.8</ele>
        <time>2024-03-16T09:47:45Z</time>
      </trkpt>
      <trkpt lat="42.87561" lon="0.12171">
        <ele>2162.6</ele>
        <time>2024-03-16T09:47:53Z</time>
      </trkpt>
      <trkpt lat="42.87565" lon="0.12174">
        <ele>2164.9</ele>
        <time>2024-03-16T09:48:02Z</time>
      </trkpt>
      <trkpt lat="42.87567" lon="0.12175">
        <ele>2165.5</ele>
        <time>2024-03-16T09:48:10Z</time>
      </trkpt>
      <trkpt lat="42.87564" lon="0.12178">
        <ele>2166.8</ele>
        <time>2024-03-16T09:48:21Z</time>
      </trkpt>
      <trkpt lat="42.87561" lon="0.12178">
        <ele>2166.8</ele>
        <time>2024-03-16T09:48:29Z</time>
      </trkpt>
      <trkpt lat="42.8756" lon="0.12182">
        <ele>2168.6</ele>
        <time>2024-03-16T09:48:41Z</time>
      </trkpt>
      <trkpt lat="42.87561" lon="0.12179">
        <ele>2167.3</ele>
        <time>2024-03-16T09:48:54Z</time>
      </trkpt>
      <trkpt lat="42.87556" lon="0.1218">
        <ele>2167.1</ele>
        <time>2024-03-16T09:49:03Z</time>
      </trkpt>
      <trkpt lat="42.87551" lon="0.12183">
        <ele>2168.9</ele>
        <time>2024-03-16T09:49:13Z</time>
      </trkpt>
      <trkpt lat="42.87546" lon="0.12185">
        <ele>2170.1</ele>
        <time>2024-03-16T09:49:20Z</time>
      </trkpt>
      <trkpt lat="42.87542" lon="0.12187">
        <ele>2171.4</ele>
        <time>2024-03-16T09:49:28Z</time>
      </trkpt>
      <trkpt lat="42.87545" lon="0.12187">
        <ele>2171.5</ele>
        <time>2024-03-16T09:49:38Z</time>
      </trkpt>
      <trkpt lat="42.87551" lon="0.12186">
        <ele>2170.8</ele>
        <time>2024-03-16T09:49:49Z</time>
      </trkpt>
      <trkpt lat="42.87554" lon="0.12189">
        <ele>2172.1</ele>
        <time>2024-03-16T09:49:57Z</time>
      </trkpt>
      <trkpt lat="42.87558" lon="0.12191">
        <ele>2173.7</ele>
        <time>2024-03-16T09:50:07Z</time>
      </trkpt>
      <trkpt lat="42.87562" lon="0.12194">
        <ele>2175.4</ele>
        <time>2024-03-16T09:50:15Z</time>
      </trkpt>
      <trkpt lat="42.87564" lon="0.12195">
        <ele>2176.5</ele>
        <time>2024-03-16T09:50:23Z</time>
      </trkpt>
      <trkpt lat="42.87564" lon="0.12196">
        <ele>2177.2</ele>
        <time>2024-03-16T09:50:32Z</time>
      </trkpt>
      <trkpt lat="42.8756" lon="0.12198">
        <ele>2177.9</ele>
        <time>2024-03-16T09:50:42Z</time>
      </trkpt>
      <trkpt lat="42.87556" lon="0.12199">
        <ele>2177.7</ele>
        <time>2024-03-16T09:50:48Z</time>
      </trkpt>
      <trkpt lat="42.87554" lon="0.122">
        <ele>2178.5</ele>
        <time>2024-03-16T09:50:57Z</time>
      </trkpt>
      <trkpt lat="42.87556" lon="0.122">
        <ele>2178.1</ele>
        <time>2024-03-16T09:51:09Z</time>
      </trkpt>
      <trkpt lat="42.8756" lon="0.122">
        <ele>2178.7</ele>
        <time>2024-03-16T09:51:18Z</time>
      </trkpt>
      <trkpt lat="42.87564" lon="0.12202">
        <ele>2180.5</ele>
        <time>2024-03-16T09:51:26Z</time>
      </trkpt>
      <trkpt lat="42.87567" lon="0.12203">
        <ele>2181.4</ele>
        <time>2024-03-16T09:51:34Z</time>
      </trkpt>
      <trkpt lat="42.87567" lon="0.12205">
        <ele>2182.9</ele>
        <time>2024-03-16T09:51:44Z</time>
      </trkpt>
      <trkpt lat="42.87559" lon="0.12207">
        <ele>2182.8</ele>
        <time>2024-03-16T09:51:54Z</time>
      </trkpt>
      <trkpt lat="42.87554" lon="0.12209">
        <ele>2183.2</ele>
        <time>2024-03-16T09:52:01Z</time>
      </trkpt>
      <trkpt lat="42.87549" lon="0.12212">
        <ele>2185.2</ele>
        <time>2024-03-16T09:52:13Z</time>
      </trkpt>
      <trkpt lat="42.87544" lon="0.12214">
        <ele>2186.5</ele>
        <time>2024-03-16T09:52:21Z</time>
      </trkpt>
      <trkpt lat="42.8754" lon="0.12215">
        <ele>2186.9</ele>
        <time>2024-03-16T09:52:30Z</time>
      </trkpt>
      <trkpt lat="42.87535" lon="0.12217">
        <ele>2188.1</ele>
        <time>2024-03-16T09:52:38Z</time>
      </trkpt>
      <trkpt lat="42.87534" lon="0.12219">
        <ele>2189.5</ele>
        <time>2024-03-16T09:52:47Z</time>
      </trkpt>
      <trkpt lat="42.87537" lon="0.12216">
        <ele>2187.7</ele>
        <time>2024-03-16T09:53:01Z</time>
      </trkpt>
      <trkpt lat="42.87543" lon="0.12216">
        <ele>2187.4</ele>
        <time>2024-03-16T09:53:15Z</time>
      </trkpt>
      <trkpt lat="42.87549" lon="0.1222">
        <ele>2189.5</ele>
        <time>2024-03-16T09:53:24Z</time>
      </trkpt>
      <trkpt lat="42.87556" lon="0.12225">
        <ele>2192.7</ele>
        <time>2024-03-16T09:53:35Z</time>
      </trkpt>
      <trkpt lat="42.87559" lon="0.12227">
        <ele>2194.2</ele>
        <time>2024-03-16T09:53:45Z</time>
      </trkpt>
      <trkpt lat="42.87563" lon="0.12229">
        <ele>2195.4</ele>
        <time>2024-03-16T09:53:55Z</time>
      </trkpt>
      <trkpt lat="42.87564" lon="0.1223">
        <ele>2196</ele>
        <time>2024-03-16T09:54:05Z</time>
      </trkpt>
      <trkpt lat="42.87561" lon="0.12233">
        <ele>2196.9</ele>
        <time>2024-03-16T09:54:13Z</time>
      </trkpt>
      <trkpt lat="42.87557" lon="0.12235">
        <ele>2197.9</ele>
        <time>2024-03-16T09:54:24Z</time>
      </trkpt>
      <trkpt lat="42.87552" lon="0.12236">
        <ele>2197.8</ele>
        <time>2024-03-16T09:54:34Z</time>
      </trkpt>
      <trkpt lat="42.87546" lon="0.12234">
        <ele>2197.4</ele>
        <time>2024-03-16T09:54:45Z</time>
      </trkpt>
      <trkpt lat="42.87541" lon="0.12236">
        <ele>2198.5</ele>
        <time>2024-03-16T09:54:55Z</time>
      </trkpt>
      <trkpt lat="42.87534" lon="0.12239">
        <ele>2200.1</ele>
        <time>2024-03-16T09:55:05Z</time>
      </trkpt>
      <trkpt lat="42.8753" lon="0.12241">
        <ele>2201.8</ele>
        <time>2024-03-16T09:55:15Z</time>
      </trkpt>
      <trkpt lat="42.87526" lon="0.12245">
        <ele>2204.3</ele>
        <time>2024-03-16T09:55:23Z</time>
      </trkpt>
      <trkpt lat="42.87519" lon="0.12248">
        <ele>2206</ele>
        <time>2024-03-16T09:55:32Z</time>
      </trkpt>
      <trkpt lat="42.87513" lon="0.12251">
        <ele>2207.8</ele>
        <time>2024-03-16T09:55:42Z</time>
      </trkpt>
      <trkpt lat="42.87508" lon="0.12256">
        <ele>2210.4</ele>
        <time>2024-03-16T09:55:53Z</time>
      </trkpt>
      <trkpt lat="42.875" lon="0.1226">
        <ele>2212.7</ele>
        <time>2024-03-16T09:56:01Z</time>
      </trkpt>
      <trkpt lat="42.87498" lon="0.12261">
        <ele>2213.3</ele>
        <time>2024-03-16T09:56:11Z</time>
      </trkpt>
      <trkpt lat="42.87504" lon="0.12261">
        <ele>2213.2</ele>
        <time>2024-03-16T09:56:31Z</time>
      </trkpt>
      <trkpt lat="42.87494" lon="0.12262">
        <ele>2213.8</ele>
        <time>2024-03-16T09:56:40Z</time>
      </trkpt>
      <trkpt lat="42.8749" lon="0.12261">
        <ele>2213.2</ele>
        <time>2024-03-16T09:56:51Z</time>
      </trkpt>
      <trkpt lat="42.87486" lon="0.12262">
        <ele>2213.7</ele>
        <time>2024-03-16T09:57:00Z</time>
      </trkpt>
      <trkpt lat="42.87481" lon="0.12269">
        <ele>2216.8</ele>
        <time>2024-03-16T09:57:13Z</time>
      </trkpt>
      <trkpt lat="42.87477" lon="0.12272">
        <ele>2218.1</ele>
        <time>2024-03-16T09:57:23Z</time>
      </trkpt>
      <trkpt lat="42.87476" lon="0.12272">
        <ele>2218.2</ele>
        <time>2024-03-16T09:57:25Z</time>
      </trkpt>
      <trkpt lat="42.87472" lon="0.12276">
        <ele>2220.2</ele>
        <time>2024-03-16T09:57:35Z</time>
      </trkpt>
      <trkpt lat="42.87464" lon="0.12279">
        <ele>2221.7</ele>
        <time>2024-03-16T09:57:45Z</time>
      </trkpt>
      <trkpt lat="42.87455" lon="0.12278">
        <ele>2221.8</ele>
        <time>2024-03-16T09:57:53Z</time>
      </trkpt>
      <trkpt lat="42.87449" lon="0.12278">
        <ele>2221.8</ele>
        <time>2024-03-16T09:58:03Z</time>
      </trkpt>
      <trkpt lat="42.87457" lon="0.12275">
        <ele>2220.4</ele>
        <time>2024-03-16T09:58:13Z</time>
      </trkpt>
      <trkpt lat="42.87459" lon="0.12276">
        <ele>2220.5</ele>
        <time>2024-03-16T09:58:26Z</time>
      </trkpt>
      <trkpt lat="42.87455" lon="0.12278">
        <ele>2221.5</ele>
        <time>2024-03-16T09:58:46Z</time>
      </trkpt>
      <trkpt lat="42.87451" lon="0.12279">
        <ele>2222.1</ele>
        <time>2024-03-16T09:59:02Z</time>
      </trkpt>
      <trkpt lat="42.8745" lon="0.12281">
        <ele>2223.2</ele>
        <time>2024-03-16T09:59:13Z</time>
      </trkpt>
      <trkpt lat="42.87443" lon="0.12279">
        <ele>2222.7</ele>
        <time>2024-03-16T09:59:21Z</time>
      </trkpt>
      <trkpt lat="42.87439" lon="0.1228">
        <ele>2222.9</ele>
        <time>2024-03-16T09:59:31Z</time>
      </trkpt>
      <trkpt lat="42.87438" lon="0.12278">
        <ele>2221.8</ele>
        <time>2024-03-16T09:59:43Z</time>
      </trkpt>
      <trkpt lat="42.87439" lon="0.12276">
        <ele>2221.1</ele>
        <time>2024-03-16T09:59:56Z</time>
      </trkpt>
      <trkpt lat="42.87439" lon="0.12278">
        <ele>2222</ele>
        <time>2024-03-16T10:00:13Z</time>
      </trkpt>
      <trkpt lat="42.87438" lon="0.12278">
        <ele>2221.8</ele>
        <time>2024-03-16T10:00:31Z</time>
      </trkpt>
      <trkpt lat="42.87431" lon="0.12285">
        <ele>2224.9</ele>
        <time>2024-03-16T10:00:50Z</time>
      </trkpt>
      <trkpt lat="42.87439" lon="0.12282">
        <ele>2223.7</ele>
        <time>2024-03-16T10:01:02Z</time>
      </trkpt>
      <trkpt lat="42.87441" lon="0.12277">
        <ele>2221.6</ele>
        <time>2024-03-16T10:01:20Z</time>
      </trkpt>
      <trkpt lat="42.87437" lon="0.12274">
        <ele>2220</ele>
        <time>2024-03-16T10:01:32Z</time>
      </trkpt>
      <trkpt lat="42.87432" lon="0.12276">
        <ele>2220.7</ele>
        <time>2024-03-16T10:01:51Z</time>
      </trkpt>
      <trkpt lat="42.87439" lon="0.12279">
        <ele>2222.3</ele>
        <time>2024-03-16T10:02:14Z</time>
      </trkpt>
      <trkpt lat="42.87439" lon="0.12277">
        <ele>2221.4</ele>
        <time>2024-03-16T10:02:34Z</time>
      </trkpt>
      <trkpt lat="42.8744" lon="0.12279">
        <ele>2222.6</ele>
        <time>2024-03-16T10:02:52Z</time>
      </trkpt>
      <trkpt lat="42.87435" lon="0.12284">
        <ele>2224.9</ele>
        <time>2024-03-16T10:03:10Z</time>
      </trkpt>
      <trkpt lat="42.87424" lon="0.12287">
        <ele>2225.9</ele>
        <time>2024-03-16T10:03:29Z</time>
      </trkpt>
      <trkpt lat="42.87426" lon="0.12281">
        <ele>2222.8</ele>
        <time>2024-03-16T10:03:48Z</time>
      </trkpt>
      <trkpt lat="42.87427" lon="0.12281">
        <ele>2223.3</ele>
        <time>2024-03-16T10:04:06Z</time>
      </trkpt>
      <trkpt lat="42.87427" lon="0.12283">
        <ele>2224.1</ele>
        <time>2024-03-16T10:04:26Z</time>
      </trkpt>
      <trkpt lat="42.87428" lon="0.1228">
        <ele>2222.5</ele>
        <time>2024-03-16T10:04:50Z</time>
      </trkpt>
      <trkpt lat="42.8743" lon="0.1228">
        <ele>2222.7</ele>
        <time>2024-03-16T10:05:09Z</time>
      </trkpt>
      <trkpt lat="42.87438" lon="0.12278">
        <ele>2222.1</ele>
        <time>2024-03-16T10:05:30Z</time>
      </trkpt>
      <trkpt lat="42.87437" lon="0.1228">
        <ele>2223.1</ele>
        <time>2024-03-16T10:05:44Z</time>
      </trkpt>
      <trkpt lat="42.87439" lon="0.1228">
        <ele>2223</ele>
        <time>2024-03-16T10:05:59Z</time>
      </trkpt>
      <trkpt lat="42.87448" lon="0.12279">
        <ele>2222.6</ele>
        <time>2024-03-16T10:06:11Z</time>
      </trkpt>
      <trkpt lat="42.87448" lon="0.12278">
        <ele>2221.9</ele>
        <time>2024-03-16T10:06:19Z</time>
      </trkpt>
      <trkpt lat="42.87445" lon="0.12278">
        <ele>2222.1</ele>
        <time>2024-03-16T10:06:28Z</time>
      </trkpt>
      <trkpt lat="42.87447" lon="0.12277">
        <ele>2221.5</ele>
        <time>2024-03-16T10:06:48Z</time>
      </trkpt>
      <trkpt lat="42.87446" lon="0.1228">
        <ele>2222.9</ele>
        <time>2024-03-16T10:06:59Z</time>
      </trkpt>
      <trkpt lat="42.87446" lon="0.12283">
        <ele>2224.5</ele>
        <time>2024-03-16T10:07:10Z</time>
      </trkpt>
      <trkpt lat="42.87435" lon="0.12281">
        <ele>2223.2</ele>
        <time>2024-03-16T10:07:27Z</time>
      </trkpt>
      <trkpt lat="42.87432" lon="0.12283">
        <ele>2224</ele>
        <time>2024-03-16T10:07:35Z</time>
      </trkpt>
      <trkpt lat="42.8743" lon="0.12283">
        <ele>2223.9</ele>
        <time>2024-03-16T10:07:49Z</time>
      </trkpt>
      <trkpt lat="42.87427" lon="0.12285">
        <ele>2225.2</ele>
        <time>2024-03-16T10:08:09Z</time>
      </trkpt>
      <trkpt lat="42.8743" lon="0.12281">
        <ele>2223.3</ele>
        <time>2024-03-16T10:08:23Z</time>
      </trkpt>
      <trkpt lat="42.87426" lon="0.1228">
        <ele>2222.7</ele>
        <time>2024-03-16T10:08:49Z</time>
      </trkpt>
      <trkpt lat="42.8743" lon="0.12281">
        <ele>2223.1</ele>
        <time>2024-03-16T10:09:07Z</time>
      </trkpt>
      <trkpt lat="42.87435" lon="0.12276">
        <ele>2220.8</ele>
        <time>2024-03-16T10:09:25Z</time>
      </trkpt>
      <trkpt lat="42.87438" lon="0.12277">
        <ele>2221.4</ele>
        <time>2024-03-16T10:09:38Z</time>
      </trkpt>
      <trkpt lat="42.87443" lon="0.12282">
        <ele>2224.2</ele>
        <time>2024-03-16T10:09:50Z</time>
      </trkpt>
      <trkpt lat="42.87445" lon="0.12287">
        <ele>2226.6</ele>
        <time>2024-03-16T10:10:09Z</time>
      </trkpt>
      <trkpt lat="42.87444" lon="0.12291">
        <ele>2228.8</ele>
        <time>2024-03-16T10:10:27Z</time>
      </trkpt>
      <trkpt lat="42.87438" lon="0.12281">
        <ele>2223.6</ele>
        <time>2024-03-16T10:10:44Z</time>
      </trkpt>
      <trkpt lat="42.87441" lon="0.12277">
        <ele>2221.6</ele>
        <time>2024-03-16T10:11:03Z</time>
      </trkpt>
      <trkpt lat="42.87439" lon="0.12284">
        <ele>2225</ele>
        <time>2024-03-16T10:11:16Z</time>
      </trkpt>
      <trkpt lat="42.87438" lon="0.12284">
        <ele>2224.8</ele>
        <time>2024-03-16T10:11:31Z</time>
      </trkpt>
      <trkpt lat="42.87436" lon="0.12283">
        <ele>2224.5</ele>
        <time>2024-03-16T10:11:52Z</time>
      </trkpt>
      <trkpt lat="42.87443" lon="0.12284">
        <ele>2225.1</ele>
        <time>2024-03-16T10:12:14Z</time>
      </trkpt>
      <trkpt lat="42.87443" lon="0.12282">
        <ele>2224.1</ele>
        <time>2024-03-16T10:12:35Z</time>
      </trkpt>
      <trkpt lat="42.87448" lon="0.12283">
        <ele>2224.4</ele>
        <time>2024-03-16T10:12:53Z</time>
      </trkpt>
      <trkpt lat="42.8746" lon="0.1228">
        <ele>2222.4</ele>
        <time>2024-03-16T10:13:10Z</time>
      </trkpt>
      <trkpt lat="42.8746" lon="0.12284">
        <ele>2224.1</ele>
        <time>2024-03-16T10:13:29Z</time>
      </trkpt>
      <trkpt lat="42.87455" lon="0.12284">
        <ele>2224.4</ele>
        <time>2024-03-16T10:13:48Z</time>
      </trkpt>
      <trkpt lat="42.87452" lon="0.12284">
        <ele>2224.9</ele>
        <time>2024-03-16T10:14:04Z</time>
      </trkpt>
      <trkpt lat="42.87453" lon="0.12281">
        <ele>2223.3</ele>
        <time>2024-03-16T10:14:13Z</time>
      </trkpt>
      <trkpt lat="42.87445" lon="0.12274">
        <ele>2220.4</ele>
        <time>2024-03-16T10:14:30Z</time>
      </trkpt>
      <trkpt lat="42.87441" lon="0.12271">
        <ele>2218.9</ele>
        <time>2024-03-16T10:14:43Z</time>
      </trkpt>
      <trkpt lat="42.87441" lon="0.12271">
        <ele>2218.7</ele>
        <time>2024-03-16T10:15:00Z</time>
      </trkpt>
      <trkpt lat="42.87442" lon="0.12274">
        <ele>2220.3</ele>
        <time>2024-03-16T10:15:14Z</time>
      </trkpt>
      <trkpt lat="42.87441" lon="0.12278">
        <ele>2222</ele>
        <time>2024-03-16T10:15:29Z</time>
      </trkpt>
      <trkpt lat="42.87438" lon="0.12274">
        <ele>2220.2</ele>
        <time>2024-03-16T10:15:50Z</time>
      </trkpt>
      <trkpt lat="42.87442" lon="0.12272">
        <ele>2219.4</ele>
        <time>2024-03-16T10:16:03Z</time>
      </trkpt>
      <trkpt lat="42.87443" lon="0.12271">
        <ele>2219</ele>
        <time>2024-03-16T10:16:17Z</time>
      </trkpt>
      <trkpt lat="42.87444" lon="0.1227">
        <ele>2218.4</ele>
        <time>2024-03-16T10:16:37Z</time>
      </trkpt>
      <trkpt lat="42.87445" lon="0.12271">
        <ele>2219.3</ele>
        <time>2024-03-16T10:16:50Z</time>
      </trkpt>
      <trkpt lat="42.87441" lon="0.12272">
        <ele>2219.5</ele>
        <time>2024-03-16T10:17:09Z</time>
      </trkpt>
      <trkpt lat="42.87439" lon="0.1227">
        <ele>2218.4</ele>
        <time>2024-03-16T10:17:24Z</time>
      </trkpt>
      <trkpt lat="42.87442" lon="0.12269">
        <ele>2217.9</ele>
        <time>2024-03-16T10:17:33Z</time>
      </trkpt>
      <trkpt lat="42.87443" lon="0.12269">
        <ele>2218.3</ele>
        <time>2024-03-16T10:17:39Z</time>
      </trkpt>
      <trkpt lat="42.87447" lon="0.12269">
        <ele>2218.1</ele>
        <time>2024-03-16T10:17:47Z</time>
      </trkpt>
      <trkpt lat="42.87447" lon="0.12268">
        <ele>2217.7</ele>
        <time>2024-03-16T10:17:59Z</time>
      </trkpt>
      <trkpt lat="42.87447" lon="0.12267">
        <ele>2217.4</ele>
        <time>2024-03-16T10:18:06Z</time>
      </trkpt>
      <trkpt lat="42.87448" lon="0.12268">
        <ele>2217.7</ele>
        <time>2024-03-16T10:18:13Z</time>
      </trkpt>
      <trkpt lat="42.87448" lon="0.12271">
        <ele>2218.8</ele>
        <time>2024-03-16T10:18:30Z</time>
      </trkpt>
      <trkpt lat="42.8745" lon="0.12265">
        <ele>2216</ele>
        <time>2024-03-16T10:18:45Z</time>
      </trkpt>
      <trkpt lat="42.8745" lon="0.12267">
        <ele>2216.9</ele>
        <time>2024-03-16T10:18:58Z</time>
      </trkpt>
      <trkpt lat="42.8745" lon="0.12266">
        <ele>2216.6</ele>
        <time>2024-03-16T10:19:07Z</time>
      </trkpt>
      <trkpt lat="42.87448" lon="0.12266">
        <ele>2216.9</ele>
        <time>2024-03-16T10:19:16Z</time>
      </trkpt>
      <trkpt lat="42.87447" lon="0.12266">
        <ele>2216.9</ele>
        <time>2024-03-16T10:19:30Z</time>
      </trkpt>
      <trkpt lat="42.87447" lon="0.12261">
        <ele>2214.7</ele>
        <time>2024-03-16T10:19:48Z</time>
      </trkpt>
      <trkpt lat="42.87448" lon="0.12262">
        <ele>2215</ele>
        <time>2024-03-16T10:20:05Z</time>
      </trkpt>
      <trkpt lat="42.87447" lon="0.12275">
        <ele>2220.6</ele>
        <time>2024-03-16T10:20:21Z</time>
      </trkpt>
      <trkpt lat="42.8745" lon="0.12272">
        <ele>2219.2</ele>
        <time>2024-03-16T10:20:37Z</time>
      </trkpt>
      <trkpt lat="42.8745" lon="0.12273">
        <ele>2219.6</ele>
        <time>2024-03-16T10:20:58Z</time>
      </trkpt>
      <trkpt lat="42.87448" lon="0.12272">
        <ele>2219.4</ele>
        <time>2024-03-16T10:21:12Z</time>
      </trkpt>
      <trkpt lat="42.87445" lon="0.1227">
        <ele>2218.6</ele>
        <time>2024-03-16T10:21:31Z</time>
      </trkpt>
      <trkpt lat="42.87447" lon="0.12272">
        <ele>2219.2</ele>
        <time>2024-03-16T10:21:43Z</time>
      </trkpt>
      <trkpt lat="42.87449" lon="0.12275">
        <ele>2220.4</ele>
        <time>2024-03-16T10:22:05Z</time>
      </trkpt>
      <trkpt lat="42.8745" lon="0.12276">
        <ele>2220.9</ele>
        <time>2024-03-16T10:22:15Z</time>
      </trkpt>
      <trkpt lat="42.8745" lon="0.12275">
        <ele>2220.6</ele>
        <time>2024-03-16T10:22:32Z</time>
      </trkpt>
      <trkpt lat="42.87455" lon="0.12279">
        <ele>2222</ele>
        <time>2024-03-16T10:22:43Z</time>
      </trkpt>
      <trkpt lat="42.87456" lon="0.12276">
        <ele>2220.7</ele>
        <time>2024-03-16T10:22:59Z</time>
      </trkpt>
      <trkpt lat="42.87457" lon="0.12277">
        <ele>2221.3</ele>
        <time>2024-03-16T10:23:17Z</time>
      </trkpt>
      <trkpt lat="42.87455" lon="0.12281">
        <ele>2223.2</ele>
        <time>2024-03-16T10:23:33Z</time>
      </trkpt>
      <trkpt lat="42.87449" lon="0.12282">
        <ele>2224</ele>
        <time>2024-03-16T10:23:46Z</time>
      </trkpt>
      <trkpt lat="42.87443" lon="0.12285">
        <ele>2225.6</ele>
        <time>2024-03-16T10:23:55Z</time>
      </trkpt>
      <trkpt lat="42.87439" lon="0.12284">
        <ele>2225.1</ele>
        <time>2024-03-16T10:24:04Z</time>
      </trkpt>
      <trkpt lat="42.87436" lon="0.12286">
        <ele>2225.7</ele>
        <time>2024-03-16T10:24:21Z</time>
      </trkpt>
      <trkpt lat="42.87441" lon="0.12284">
        <ele>2224.8</ele>
        <time>2024-03-16T10:24:46Z</time>
      </trkpt>
      <trkpt lat="42.87441" lon="0.12284">
        <ele>2225.2</ele>
        <time>2024-03-16T10:25:07Z</time>
      </trkpt>
      <trkpt lat="42.87436" lon="0.12286">
        <ele>2225.9</ele>
        <time>2024-03-16T10:25:32Z</time>
      </trkpt>
      <trkpt lat="42.87433" lon="0.12294">
        <ele>2229.6</ele>
        <time>2024-03-16T10:26:01Z</time>
      </trkpt>
      <trkpt lat="42.87439" lon="0.12289">
        <ele>2227.3</ele>
        <time>2024-03-16T10:26:25Z</time>
      </trkpt>
      <trkpt lat="42.87432" lon="0.12299">
        <ele>2232.4</ele>
        <time>2024-03-16T10:26:50Z</time>
      </trkpt>
      <trkpt lat="42.87438" lon="0.12291">
        <ele>2228.4</ele>
        <time>2024-03-16T10:27:08Z</time>
      </trkpt>
      <trkpt lat="42.87439" lon="0.12285">
        <ele>2225.6</ele>
        <time>2024-03-16T10:27:17Z</time>
      </trkpt>
      <trkpt lat="42.87435" lon="0.12281">
        <ele>2223</ele>
        <time>2024-03-16T10:27:35Z</time>
      </trkpt>
      <trkpt lat="42.87435" lon="0.12282">
        <ele>2223.8</ele>
        <time>2024-03-16T10:27:50Z</time>
      </trkpt>
      <trkpt lat="42.87436" lon="0.12284">
        <ele>2224.6</ele>
        <time>2024-03-16T10:28:07Z</time>
      </trkpt>
      <trkpt lat="42.87435" lon="0.12283">
        <ele>2224.1</ele>
        <time>2024-03-16T10:28:20Z</time>
      </trkpt>
      <trkpt lat="42.87437" lon="0.12281">
        <ele>2223.5</ele>
        <time>2024-03-16T10:28:34Z</time>
      </trkpt>
      <trkpt lat="42.87436" lon="0.12282">
        <ele>2223.7</ele>
        <time>2024-03-16T10:28:51Z</time>
      </trkpt>
      <trkpt lat="42.87435" lon="0.12286">
        <ele>2226</ele>
        <time>2024-03-16T10:29:03Z</time>
      </trkpt>
      <trkpt lat="42.87438" lon="0.12286">
        <ele>2226</ele>
        <time>2024-03-16T10:29:20Z</time>
      </trkpt>
      <trkpt lat="42.8744" lon="0.12285">
        <ele>2225.4</ele>
        <time>2024-03-16T10:29:34Z</time>
      </trkpt>
      <trkpt lat="42.87438" lon="0.12283">
        <ele>2224.4</ele>
        <time>2024-03-16T10:29:53Z</time>
      </trkpt>
      <trkpt lat="42.87437" lon="0.12285">
        <ele>2225.2</ele>
        <time>2024-03-16T10:30:05Z</time>
      </trkpt>
      <trkpt lat="42.87437" lon="0.12284">
        <ele>2224.6</ele>
        <time>2024-03-16T10:30:25Z</time>
      </trkpt>
      <trkpt lat="42.87438" lon="0.12286">
        <ele>2225.8</ele>
        <time>2024-03-16T10:30:42Z</time>
      </trkpt>
      <trkpt lat="42.87434" lon="0.12284">
        <ele>2224.6</ele>
        <time>2024-03-16T10:30:59Z</time>
      </trkpt>
      <trkpt lat="42.87437" lon="0.12286">
        <ele>2225.7</ele>
        <time>2024-03-16T10:31:15Z</time>
      </trkpt>
      <trkpt lat="42.87437" lon="0.12283">
        <ele>2224.3</ele>
        <time>2024-03-16T10:31:29Z</time>
      </trkpt>
      <trkpt lat="42.87436" lon="0.12287">
        <ele>2226.4</ele>
        <time>2024-03-16T10:31:46Z</time>
      </trkpt>
      <trkpt lat="42.87432" lon="0.12286">
        <ele>2225.5</ele>
        <time>2024-03-16T10:31:59Z</time>
      </trkpt>
      <trkpt lat="42.87435" lon="0.12287">
        <ele>2226.2</ele>
        <time>2024-03-16T10:32:18Z</time>
      </trkpt>
      <trkpt lat="42.87437" lon="0.12288">
        <ele>2226.8</ele>
        <time>2024-03-16T10:32:32Z</time>
      </trkpt>
      <trkpt lat="42.87434" lon="0.12288">
        <ele>2226.6</ele>
        <time>2024-03-16T10:32:45Z</time>
      </trkpt>
      <trkpt lat="42.8743" lon="0.12288">
        <ele>2226.5</ele>
        <time>2024-03-16T10:32:57Z</time>
      </trkpt>
      <trkpt lat="42.87427" lon="0.12289">
        <ele>2227.1</ele>
        <time>2024-03-16T10:33:05Z</time>
      </trkpt>
      <trkpt lat="42.87423" lon="0.12289">
        <ele>2226.7</ele>
        <time>2024-03-16T10:33:13Z</time>
      </trkpt>
      <trkpt lat="42.87418" lon="0.12289">
        <ele>2226.5</ele>
        <time>2024-03-16T10:33:21Z</time>
      </trkpt>
      <trkpt lat="42.87411" lon="0.12294">
        <ele>2229.5</ele>
        <time>2024-03-16T10:33:31Z</time>
      </trkpt>
      <trkpt lat="42.87406" lon="0.12295">
        <ele>2230.6</ele>
        <time>2024-03-16T10:33:40Z</time>
      </trkpt>
      <trkpt lat="42.87399" lon="0.12297">
        <ele>2231.9</ele>
        <time>2024-03-16T10:33:51Z</time>
      </trkpt>
      <trkpt lat="42.87394" lon="0.12297">
        <ele>2232</ele>
        <time>2024-03-16T10:34:01Z</time>
      </trkpt>
      <trkpt lat="42.87389" lon="0.12301">
        <ele>2233.9</ele>
        <time>2024-03-16T10:34:09Z</time>
      </trkpt>
      <trkpt lat="42.87385" lon="0.12302">
        <ele>2234.7</ele>
        <time>2024-03-16T10:34:19Z</time>
      </trkpt>
      <trkpt lat="42.87383" lon="0.12303">
        <ele>2235.3</ele>
        <time>2024-03-16T10:34:35Z</time>
      </trkpt>
      <trkpt lat="42.87379" lon="0.12303">
        <ele>2235.3</ele>
        <time>2024-03-16T10:34:43Z</time>
      </trkpt>
      <trkpt lat="42.87376" lon="0.12302">
        <ele>2235.2</ele>
        <time>2024-03-16T10:34:56Z</time>
      </trkpt>
      <trkpt lat="42.87375" lon="0.123">
        <ele>2234.4</ele>
        <time>2024-03-16T10:35:10Z</time>
      </trkpt>
      <trkpt lat="42.87376" lon="0.12297">
        <ele>2233.4</ele>
        <time>2024-03-16T10:35:22Z</time>
      </trkpt>
      <trkpt lat="42.87374" lon="0.12305">
        <ele>2236.3</ele>
        <time>2024-03-16T10:35:30Z</time>
      </trkpt>
      <trkpt lat="42.87366" lon="0.1231">
        <ele>2238.6</ele>
        <time>2024-03-16T10:35:38Z</time>
      </trkpt>
      <trkpt lat="42.87361" lon="0.12316">
        <ele>2241.5</ele>
        <time>2024-03-16T10:35:47Z</time>
      </trkpt>
      <trkpt lat="42.87362" lon="0.12318">
        <ele>2242.2</ele>
        <time>2024-03-16T10:35:56Z</time>
      </trkpt>
      <trkpt lat="42.87363" lon="0.12314">
        <ele>2240.4</ele>
        <time>2024-03-16T10:36:08Z</time>
      </trkpt>
      <trkpt lat="42.87367" lon="0.12312">
        <ele>2239.4</ele>
        <time>2024-03-16T10:36:22Z</time>
      </trkpt>
      <trkpt lat="42.87366" lon="0.12312">
        <ele>2239.5</ele>
        <time>2024-03-16T10:36:33Z</time>
      </trkpt>
      <trkpt lat="42.87365" lon="0.12306">
        <ele>2237.2</ele>
        <time>2024-03-16T10:36:45Z</time>
      </trkpt>
      <trkpt lat="42.87365" lon="0.12312">
        <ele>2239.6</ele>
        <time>2024-03-16T10:36:53Z</time>
      </trkpt>
      <trkpt lat="42.87364" lon="0.12311">
        <ele>2239.3</ele>
        <time>2024-03-16T10:37:05Z</time>
      </trkpt>
      <trkpt lat="42.87363" lon="0.12312">
        <ele>2239.9</ele>
        <time>2024-03-16T10:37:14Z</time>
      </trkpt>
      <trkpt lat="42.87364" lon="0.1232">
        <ele>2243.3</ele>
        <time>2024-03-16T10:37:23Z</time>
      </trkpt>
      <trkpt lat="42.87369" lon="0.1232">
        <ele>2242.9</ele>
        <time>2024-03-16T10:37:32Z</time>
      </trkpt>
      <trkpt lat="42.87377" lon="0.12321">
        <ele>2243.2</ele>
        <time>2024-03-16T10:37:41Z</time>
      </trkpt>
      <trkpt lat="42.87382" lon="0.12323">
        <ele>2243.9</ele>
        <time>2024-03-16T10:37:50Z</time>
      </trkpt>
      <trkpt lat="42.87387" lon="0.12321">
        <ele>2242.9</ele>
        <time>2024-03-16T10:37:59Z</time>
      </trkpt>
      <trkpt lat="42.87392" lon="0.12328">
        <ele>2245.9</ele>
        <time>2024-03-16T10:38:10Z</time>
      </trkpt>
      <trkpt lat="42.87396" lon="0.12332">
        <ele>2247.9</ele>
        <time>2024-03-16T10:38:18Z</time>
      </trkpt>
      <trkpt lat="42.87399" lon="0.12335">
        <ele>2249.7</ele>
        <time>2024-03-16T10:38:28Z</time>
      </trkpt>
      <trkpt lat="42.87397" lon="0.12341">
        <ele>2252</ele>
        <time>2024-03-16T10:38:38Z</time>
      </trkpt>
      <trkpt lat="42.87392" lon="0.12347">
        <ele>2254.1</ele>
        <time>2024-03-16T10:38:49Z</time>
      </trkpt>
      <trkpt lat="42.87391" lon="0.12347">
        <ele>2254.4</ele>
        <time>2024-03-16T10:38:51Z</time>
      </trkpt>
      <trkpt lat="42.87391" lon="0.12354">
        <ele>2257</ele>
        <time>2024-03-16T10:38:59Z</time>
      </trkpt>
      <trkpt lat="42.8739" lon="0.12358">
        <ele>2258.7</ele>
        <time>2024-03-16T10:39:07Z</time>
      </trkpt>
      <trkpt lat="42.87386" lon="0.12363">
        <ele>2260.8</ele>
        <time>2024-03-16T10:39:16Z</time>
      </trkpt>
      <trkpt lat="42.8738" lon="0.12366">
        <ele>2261.8</ele>
        <time>2024-03-16T10:39:24Z</time>
      </trkpt>
      <trkpt lat="42.87377" lon="0.12364">
        <ele>2260.8</ele>
        <time>2024-03-16T10:39:34Z</time>
      </trkpt>
      <trkpt lat="42.87371" lon="0.12367">
        <ele>2261.9</ele>
        <time>2024-03-16T10:39:46Z</time>
      </trkpt>
      <trkpt lat="42.87371" lon="0.12366">
        <ele>2261.4</ele>
        <time>2024-03-16T10:40:00Z</time>
      </trkpt>
      <trkpt lat="42.87373" lon="0.12375">
        <ele>2264.3</ele>
        <time>2024-03-16T10:40:09Z</time>
      </trkpt>
      <trkpt lat="42.8737" lon="0.12381">
        <ele>2265.6</ele>
        <time>2024-03-16T10:40:18Z</time>
      </trkpt>
      <trkpt lat="42.87366" lon="0.12383">
        <ele>2265.6</ele>
        <time>2024-03-16T10:40:26Z</time>
      </trkpt>
      <trkpt lat="42.87363" lon="0.12386">
        <ele>2265.7</ele>
        <time>2024-03-16T10:40:35Z</time>
      </trkpt>
      <trkpt lat="42.87362" lon="0.12386">
        <ele>2265.5</ele>
        <time>2024-03-16T10:40:46Z</time>
      </trkpt>
      <trkpt lat="42.8736" lon="0.12394">
        <ele>2267.8</ele>
        <time>2024-03-16T10:40:55Z</time>
      </trkpt>
      <trkpt lat="42.87356" lon="0.124">
        <ele>2270.2</ele>
        <time>2024-03-16T10:41:02Z</time>
      </trkpt>
      <trkpt lat="42.87349" lon="0.12406">
        <ele>2272.1</ele>
        <time>2024-03-16T10:41:11Z</time>
      </trkpt>
      <trkpt lat="42.87347" lon="0.12411">
        <ele>2273.5</ele>
        <time>2024-03-16T10:41:19Z</time>
      </trkpt>
      <trkpt lat="42.87341" lon="0.12413">
        <ele>2273.8</ele>
        <time>2024-03-16T10:41:27Z</time>
      </trkpt>
      <trkpt lat="42.87338" lon="0.12411">
        <ele>2273.2</ele>
        <time>2024-03-16T10:41:38Z</time>
      </trkpt>
      <trkpt lat="42.87337" lon="0.12409">
        <ele>2272.6</ele>
        <time>2024-03-16T10:41:50Z</time>
      </trkpt>
      <trkpt lat="42.87331" lon="0.12413">
        <ele>2273.2</ele>
        <time>2024-03-16T10:42:05Z</time>
      </trkpt>
      <trkpt lat="42.8733" lon="0.12415">
        <ele>2273.6</ele>
        <time>2024-03-16T10:42:20Z</time>
      </trkpt>
      <trkpt lat="42.87328" lon="0.12408">
        <ele>2272.4</ele>
        <time>2024-03-16T10:42:32Z</time>
      </trkpt>
      <trkpt lat="42.87329" lon="0.12403">
        <ele>2271.5</ele>
        <time>2024-03-16T10:42:47Z</time>
      </trkpt>
      <trkpt lat="42.8733" lon="0.12402">
        <ele>2271.3</ele>
        <time>2024-03-16T10:42:59Z</time>
      </trkpt>
      <trkpt lat="42.87329" lon="0.12406">
        <ele>2272</ele>
        <time>2024-03-16T10:43:11Z</time>
      </trkpt>
      <trkpt lat="42.87323" lon="0.12417">
        <ele>2273.9</ele>
        <time>2024-03-16T10:43:21Z</time>
      </trkpt>
      <trkpt lat="42.87319" lon="0.12425">
        <ele>2276.6</ele>
        <time>2024-03-16T10:43:29Z</time>
      </trkpt>
      <trkpt lat="42.87315" lon="0.12432">
        <ele>2279.4</ele>
        <time>2024-03-16T10:43:39Z</time>
      </trkpt>
      <trkpt lat="42.87306" lon="0.12438">
        <ele>2281.3</ele>
        <time>2024-03-16T10:43:51Z</time>
      </trkpt>
      <trkpt lat="42.87301" lon="0.12441">
        <ele>2282</ele>
        <time>2024-03-16T10:44:00Z</time>
      </trkpt>
      <trkpt lat="42.87296" lon="0.12447">
        <ele>2283.6</ele>
        <time>2024-03-16T10:44:10Z</time>
      </trkpt>
      <trkpt lat="42.87292" lon="0.12452">
        <ele>2284.3</ele>
        <time>2024-03-16T10:44:16Z</time>
      </trkpt>
      <trkpt lat="42.87287" lon="0.12456">
        <ele>2284.6</ele>
        <time>2024-03-16T10:44:24Z</time>
      </trkpt>
      <trkpt lat="42.87279" lon="0.12462">
        <ele>2284</ele>
        <time>2024-03-16T10:44:35Z</time>
      </trkpt>
      <trkpt lat="42.87273" lon="0.12468">
        <ele>2283.6</ele>
        <time>2024-03-16T10:44:44Z</time>
      </trkpt>
      <trkpt lat="42.87274" lon="0.12474">
        <ele>2285.3</ele>
        <time>2024-03-16T10:44:52Z</time>
      </trkpt>
      <trkpt lat="42.87273" lon="0.12482">
        <ele>2286.9</ele>
        <time>2024-03-16T10:45:00Z</time>
      </trkpt>
      <trkpt lat="42.87273" lon="0.12488">
        <ele>2288.7</ele>
        <time>2024-03-16T10:45:09Z</time>
      </trkpt>
      <trkpt lat="42.87273" lon="0.12495">
        <ele>2290.2</ele>
        <time>2024-03-16T10:45:17Z</time>
      </trkpt>
      <trkpt lat="42.87271" lon="0.12504">
        <ele>2292.7</ele>
        <time>2024-03-16T10:45:27Z</time>
      </trkpt>
      <trkpt lat="42.87267" lon="0.12512">
        <ele>2295.5</ele>
        <time>2024-03-16T10:45:37Z</time>
      </trkpt>
      <trkpt lat="42.87264" lon="0.12518">
        <ele>2297.7</ele>
        <time>2024-03-16T10:45:46Z</time>
      </trkpt>
      <trkpt lat="42.87261" lon="0.12524">
        <ele>2299.2</ele>
        <time>2024-03-16T10:45:55Z</time>
      </trkpt>
      <trkpt lat="42.87257" lon="0.12529">
        <ele>2300</ele>
        <time>2024-03-16T10:46:03Z</time>
      </trkpt>
      <trkpt lat="42.87253" lon="0.12534">
        <ele>2300.6</ele>
        <time>2024-03-16T10:46:11Z</time>
      </trkpt>
      <trkpt lat="42.8725" lon="0.12537">
        <ele>2300.5</ele>
        <time>2024-03-16T10:46:20Z</time>
      </trkpt>
      <trkpt lat="42.87248" lon="0.12542">
        <ele>2302.1</ele>
        <time>2024-03-16T10:46:29Z</time>
      </trkpt>
      <trkpt lat="42.87245" lon="0.12546">
        <ele>2303.1</ele>
        <time>2024-03-16T10:46:37Z</time>
      </trkpt>
      <trkpt lat="42.87242" lon="0.12552">
        <ele>2304.7</ele>
        <time>2024-03-16T10:46:47Z</time>
      </trkpt>
      <trkpt lat="42.8724" lon="0.12556">
        <ele>2305.6</ele>
        <time>2024-03-16T10:46:55Z</time>
      </trkpt>
      <trkpt lat="42.87237" lon="0.12562">
        <ele>2307</ele>
        <time>2024-03-16T10:47:03Z</time>
      </trkpt>
      <trkpt lat="42.87236" lon="0.12568">
        <ele>2308.3</ele>
        <time>2024-03-16T10:47:12Z</time>
      </trkpt>
      <trkpt lat="42.87235" lon="0.12567">
        <ele>2307.8</ele>
        <time>2024-03-16T10:47:19Z</time>
      </trkpt>
      <trkpt lat="42.87232" lon="0.12568">
        <ele>2307.4</ele>
        <time>2024-03-16T10:47:29Z</time>
      </trkpt>
      <trkpt lat="42.87233" lon="0.12568">
        <ele>2307.5</ele>
        <time>2024-03-16T10:47:38Z</time>
      </trkpt>
      <trkpt lat="42.87232" lon="0.12568">
        <ele>2307.2</ele>
        <time>2024-03-16T10:47:50Z</time>
      </trkpt>
      <trkpt lat="42.87231" lon="0.12569">
        <ele>2307.5</ele>
        <time>2024-03-16T10:48:01Z</time>
      </trkpt>
      <trkpt lat="42.87232" lon="0.12572">
        <ele>2308.7</ele>
        <time>2024-03-16T10:48:10Z</time>
      </trkpt>
      <trkpt lat="42.87235" lon="0.12577">
        <ele>2310.9</ele>
        <time>2024-03-16T10:48:17Z</time>
      </trkpt>
      <trkpt lat="42.87237" lon="0.12578">
        <ele>2312.1</ele>
        <time>2024-03-16T10:48:26Z</time>
      </trkpt>
      <trkpt lat="42.87235" lon="0.12584">
        <ele>2313.6</ele>
        <time>2024-03-16T10:48:34Z</time>
      </trkpt>
      <trkpt lat="42.87234" lon="0.12589">
        <ele>2314.5</ele>
        <time>2024-03-16T10:48:41Z</time>
      </trkpt>
      <trkpt lat="42.87232" lon="0.12597">
        <ele>2316.7</ele>
        <time>2024-03-16T10:48:51Z</time>
      </trkpt>
      <trkpt lat="42.8723" lon="0.12603">
        <ele>2318.2</ele>
        <time>2024-03-16T10:49:01Z</time>
      </trkpt>
      <trkpt lat="42.87228" lon="0.1261">
        <ele>2319.9</ele>
        <time>2024-03-16T10:49:10Z</time>
      </trkpt>
      <trkpt lat="42.87224" lon="0.12618">
        <ele>2321</ele>
        <time>2024-03-16T10:49:20Z</time>
      </trkpt>
      <trkpt lat="42.87221" lon="0.12624">
        <ele>2322.1</ele>
        <time>2024-03-16T10:49:29Z</time>
      </trkpt>
      <trkpt lat="42.87217" lon="0.1263">
        <ele>2323.3</ele>
        <time>2024-03-16T10:49:38Z</time>
      </trkpt>
      <trkpt lat="42.87216" lon="0.12635">
        <ele>2324.8</ele>
        <time>2024-03-16T10:49:46Z</time>
      </trkpt>
      <trkpt lat="42.87214" lon="0.12643">
        <ele>2327.1</ele>
        <time>2024-03-16T10:49:58Z</time>
      </trkpt>
      <trkpt lat="42.87214" lon="0.12646">
        <ele>2328.5</ele>
        <time>2024-03-16T10:50:07Z</time>
      </trkpt>
      <trkpt lat="42.87213" lon="0.12644">
        <ele>2327.5</ele>
        <time>2024-03-16T10:50:14Z</time>
      </trkpt>
      <trkpt lat="42.87214" lon="0.12644">
        <ele>2327.5</ele>
        <time>2024-03-16T10:50:22Z</time>
      </trkpt>
      <trkpt lat="42.87214" lon="0.12644">
        <ele>2327.4</ele>
        <time>2024-03-16T10:50:37Z</time>
      </trkpt>
      <trkpt lat="42.87213" lon="0.12643">
        <ele>2327</ele>
        <time>2024-03-16T10:50:47Z</time>
      </trkpt>
      <trkpt lat="42.87212" lon="0.12642">
        <ele>2326.5</ele>
        <time>2024-03-16T10:50:57Z</time>
      </trkpt>
      <trkpt lat="42.8721" lon="0.12642">
        <ele>2326.2</ele>
        <time>2024-03-16T10:51:14Z</time>
      </trkpt>
      <trkpt lat="42.87209" lon="0.12641">
        <ele>2325.3</ele>
        <time>2024-03-16T10:51:31Z</time>
      </trkpt>
      <trkpt lat="42.87212" lon="0.12642">
        <ele>2326.4</ele>
        <time>2024-03-16T10:51:45Z</time>
      </trkpt>
      <trkpt lat="42.87213" lon="0.12644">
        <ele>2327.2</ele>
        <time>2024-03-16T10:51:57Z</time>
      </trkpt>
      <trkpt lat="42.87214" lon="0.12641">
        <ele>2326.5</ele>
        <time>2024-03-16T10:52:04Z</time>
      </trkpt>
      <trkpt lat="42.8722" lon="0.12641">
        <ele>2327.2</ele>
        <time>2024-03-16T10:52:12Z</time>
      </trkpt>
      <trkpt lat="42.87224" lon="0.12643">
        <ele>2329.2</ele>
        <time>2024-03-16T10:52:20Z</time>
      </trkpt>
      <trkpt lat="42.87223" lon="0.1265">
        <ele>2331.1</ele>
        <time>2024-03-16T10:52:27Z</time>
      </trkpt>
      <trkpt lat="42.8722" lon="0.12656">
        <ele>2332.9</ele>
        <time>2024-03-16T10:52:36Z</time>
      </trkpt>
      <trkpt lat="42.8722" lon="0.12662">
        <ele>2335.2</ele>
        <time>2024-03-16T10:52:46Z</time>
      </trkpt>
      <trkpt lat="42.87228" lon="0.12661">
        <ele>2337.4</ele>
        <time>2024-03-16T10:52:57Z</time>
      </trkpt>
      <trkpt lat="42.87232" lon="0.12662">
        <ele>2339.9</ele>
        <time>2024-03-16T10:53:06Z</time>
      </trkpt>
      <trkpt lat="42.87233" lon="0.12662">
        <ele>2340.3</ele>
        <time>2024-03-16T10:53:16Z</time>
      </trkpt>
      <trkpt lat="42.87233" lon="0.12666">
        <ele>2341.7</ele>
        <time>2024-03-16T10:53:23Z</time>
      </trkpt>
      <trkpt lat="42.87231" lon="0.12671">
        <ele>2343</ele>
        <time>2024-03-16T10:53:31Z</time>
      </trkpt>
      <trkpt lat="42.87229" lon="0.12679">
        <ele>2344.7</ele>
        <time>2024-03-16T10:53:42Z</time>
      </trkpt>
      <trkpt lat="42.87226" lon="0.12686">
        <ele>2346.1</ele>
        <time>2024-03-16T10:53:52Z</time>
      </trkpt>
      <trkpt lat="42.87223" lon="0.12691">
        <ele>2347.3</ele>
        <time>2024-03-16T10:54:02Z</time>
      </trkpt>
      <trkpt lat="42.87218" lon="0.12696">
        <ele>2348.3</ele>
        <time>2024-03-16T10:54:11Z</time>
      </trkpt>
      <trkpt lat="42.87213" lon="0.127">
        <ele>2349.5</ele>
        <time>2024-03-16T10:54:20Z</time>
      </trkpt>
      <trkpt lat="42.87209" lon="0.12703">
        <ele>2350.4</ele>
        <time>2024-03-16T10:54:29Z</time>
      </trkpt>
      <trkpt lat="42.87203" lon="0.12708">
        <ele>2351.5</ele>
        <time>2024-03-16T10:54:37Z</time>
      </trkpt>
      <trkpt lat="42.87199" lon="0.12712">
        <ele>2352.5</ele>
        <time>2024-03-16T10:54:45Z</time>
      </trkpt>
      <trkpt lat="42.87197" lon="0.12716">
        <ele>2353.3</ele>
        <time>2024-03-16T10:54:54Z</time>
      </trkpt>
      <trkpt lat="42.87193" lon="0.12719">
        <ele>2354</ele>
        <time>2024-03-16T10:55:01Z</time>
      </trkpt>
      <trkpt lat="42.87191" lon="0.12723">
        <ele>2355.3</ele>
        <time>2024-03-16T10:55:10Z</time>
      </trkpt>
      <trkpt lat="42.87193" lon="0.12726">
        <ele>2356.3</ele>
        <time>2024-03-16T10:55:20Z</time>
      </trkpt>
      <trkpt lat="42.87194" lon="0.12726">
        <ele>2356.1</ele>
        <time>2024-03-16T10:55:32Z</time>
      </trkpt>
      <trkpt lat="42.87194" lon="0.12725">
        <ele>2355.9</ele>
        <time>2024-03-16T10:55:42Z</time>
      </trkpt>
      <trkpt lat="42.87199" lon="0.12728">
        <ele>2357.3</ele>
        <time>2024-03-16T10:55:53Z</time>
      </trkpt>
      <trkpt lat="42.87203" lon="0.12734">
        <ele>2359.7</ele>
        <time>2024-03-16T10:56:01Z</time>
      </trkpt>
      <trkpt lat="42.87207" lon="0.12739">
        <ele>2361.9</ele>
        <time>2024-03-16T10:56:10Z</time>
      </trkpt>
      <trkpt lat="42.8721" lon="0.12745">
        <ele>2364.2</ele>
        <time>2024-03-16T10:56:21Z</time>
      </trkpt>
      <trkpt lat="42.87207" lon="0.12753">
        <ele>2365.9</ele>
        <time>2024-03-16T10:56:31Z</time>
      </trkpt>
      <trkpt lat="42.87208" lon="0.12754">
        <ele>2366.1</ele>
        <time>2024-03-16T10:56:41Z</time>
      </trkpt>
      <trkpt lat="42.87208" lon="0.12757">
        <ele>2366.7</ele>
        <time>2024-03-16T10:56:54Z</time>
      </trkpt>
      <trkpt lat="42.87209" lon="0.12766">
        <ele>2368.2</ele>
        <time>2024-03-16T10:57:06Z</time>
      </trkpt>
      <trkpt lat="42.87208" lon="0.12776">
        <ele>2369.7</ele>
        <time>2024-03-16T10:57:18Z</time>
      </trkpt>
      <trkpt lat="42.87207" lon="0.12782">
        <ele>2371.2</ele>
        <time>2024-03-16T10:57:28Z</time>
      </trkpt>
      <trkpt lat="42.87209" lon="0.12791">
        <ele>2373.7</ele>
        <time>2024-03-16T10:57:36Z</time>
      </trkpt>
      <trkpt lat="42.8721" lon="0.12797">
        <ele>2375.7</ele>
        <time>2024-03-16T10:57:44Z</time>
      </trkpt>
      <trkpt lat="42.87206" lon="0.12799">
        <ele>2376.2</ele>
        <time>2024-03-16T10:57:52Z</time>
      </trkpt>
      <trkpt lat="42.872" lon="0.12797">
        <ele>2375.4</ele>
        <time>2024-03-16T10:58:00Z</time>
      </trkpt>
      <trkpt lat="42.87192" lon="0.12796">
        <ele>2375.9</ele>
        <time>2024-03-16T10:58:12Z</time>
      </trkpt>
      <trkpt lat="42.87188" lon="0.12795">
        <ele>2376.8</ele>
        <time>2024-03-16T10:58:19Z</time>
      </trkpt>
      <trkpt lat="42.8718" lon="0.1279">
        <ele>2378.3</ele>
        <time>2024-03-16T10:58:31Z</time>
      </trkpt>
      <trkpt lat="42.87176" lon="0.12787">
        <ele>2378.9</ele>
        <time>2024-03-16T10:58:38Z</time>
      </trkpt>
      <trkpt lat="42.87171" lon="0.12783">
        <ele>2379.5</ele>
        <time>2024-03-16T10:58:46Z</time>
      </trkpt>
      <trkpt lat="42.87171" lon="0.12786">
        <ele>2380.2</ele>
        <time>2024-03-16T10:58:55Z</time>
      </trkpt>
      <trkpt lat="42.87177" lon="0.12789">
        <ele>2379.1</ele>
        <time>2024-03-16T10:59:05Z</time>
      </trkpt>
      <trkpt lat="42.8718" lon="0.12794">
        <ele>2379.3</ele>
        <time>2024-03-16T10:59:15Z</time>
      </trkpt>
      <trkpt lat="42.87184" lon="0.12802">
        <ele>2380.4</ele>
        <time>2024-03-16T10:59:26Z</time>
      </trkpt>
      <trkpt lat="42.87186" lon="0.1281">
        <ele>2382</ele>
        <time>2024-03-16T10:59:36Z</time>
      </trkpt>
      <trkpt lat="42.87187" lon="0.12817">
        <ele>2383.6</ele>
        <time>2024-03-16T10:59:44Z</time>
      </trkpt>
      <trkpt lat="42.8719" lon="0.12825">
        <ele>2385.3</ele>
        <time>2024-03-16T10:59:55Z</time>
      </trkpt>
      <trkpt lat="42.87194" lon="0.12831">
        <ele>2386.4</ele>
        <time>2024-03-16T11:00:03Z</time>
      </trkpt>
      <trkpt lat="42.872" lon="0.12838">
        <ele>2389</ele>
        <time>2024-03-16T11:00:15Z</time>
      </trkpt>
      <trkpt lat="42.87204" lon="0.12841">
        <ele>2390.5</ele>
        <time>2024-03-16T11:00:22Z</time>
      </trkpt>
      <trkpt lat="42.87208" lon="0.12844">
        <ele>2391.5</ele>
        <time>2024-03-16T11:00:29Z</time>
      </trkpt>
      <trkpt lat="42.87214" lon="0.12849">
        <ele>2393.4</ele>
        <time>2024-03-16T11:00:38Z</time>
      </trkpt>
      <trkpt lat="42.87217" lon="0.12851">
        <ele>2394.2</ele>
        <time>2024-03-16T11:00:47Z</time>
      </trkpt>
      <trkpt lat="42.87222" lon="0.1285">
        <ele>2394.2</ele>
        <time>2024-03-16T11:00:56Z</time>
      </trkpt>
      <trkpt lat="42.87226" lon="0.12851">
        <ele>2394.7</ele>
        <time>2024-03-16T11:01:05Z</time>
      </trkpt>
      <trkpt lat="42.87232" lon="0.12851">
        <ele>2395.6</ele>
        <time>2024-03-16T11:01:12Z</time>
      </trkpt>
      <trkpt lat="42.87239" lon="0.12853">
        <ele>2396.9</ele>
        <time>2024-03-16T11:01:23Z</time>
      </trkpt>
      <trkpt lat="42.87244" lon="0.1285">
        <ele>2396.6</ele>
        <time>2024-03-16T11:01:32Z</time>
      </trkpt>
      <trkpt lat="42.87251" lon="0.12851">
        <ele>2397.7</ele>
        <time>2024-03-16T11:01:41Z</time>
      </trkpt>
      <trkpt lat="42.87259" lon="0.12852">
        <ele>2399.1</ele>
        <time>2024-03-16T11:01:50Z</time>
      </trkpt>
      <trkpt lat="42.87265" lon="0.12855">
        <ele>2400.4</ele>
        <time>2024-03-16T11:01:59Z</time>
      </trkpt>
      <trkpt lat="42.87267" lon="0.12858">
        <ele>2401.5</ele>
        <time>2024-03-16T11:02:13Z</time>
      </trkpt>
      <trkpt lat="42.87264" lon="0.12859">
        <ele>2401.5</ele>
        <time>2024-03-16T11:02:22Z</time>
      </trkpt>
      <trkpt lat="42.87262" lon="0.12859">
        <ele>2401.2</ele>
        <time>2024-03-16T11:02:37Z</time>
      </trkpt>
      <trkpt lat="42.8726" lon="0.12862">
        <ele>2402.1</ele>
        <time>2024-03-16T11:02:46Z</time>
      </trkpt>
      <trkpt lat="42.87257" lon="0.12868">
        <ele>2403.9</ele>
        <time>2024-03-16T11:02:55Z</time>
      </trkpt>
      <trkpt lat="42.87253" lon="0.12874">
        <ele>2405.5</ele>
        <time>2024-03-16T11:03:03Z</time>
      </trkpt>
      <trkpt lat="42.8725" lon="0.12878">
        <ele>2406.4</ele>
        <time>2024-03-16T11:03:10Z</time>
      </trkpt>
      <trkpt lat="42.87244" lon="0.12881">
        <ele>2407.3</ele>
        <time>2024-03-16T11:03:19Z</time>
      </trkpt>
      <trkpt lat="42.8724" lon="0.12885">
        <ele>2408.6</ele>
        <time>2024-03-16T11:03:26Z</time>
      </trkpt>
      <trkpt lat="42.87235" lon="0.1289">
        <ele>2410.4</ele>
        <time>2024-03-16T11:03:35Z</time>
      </trkpt>
      <trkpt lat="42.8723" lon="0.12894">
        <ele>2412.1</ele>
        <time>2024-03-16T11:03:44Z</time>
      </trkpt>
      <trkpt lat="42.87224" lon="0.12898">
        <ele>2413.8</ele>
        <time>2024-03-16T11:03:55Z</time>
      </trkpt>
      <trkpt lat="42.87221" lon="0.12902">
        <ele>2415.4</ele>
        <time>2024-03-16T11:04:02Z</time>
      </trkpt>
      <trkpt lat="42.87215" lon="0.12907">
        <ele>2417.5</ele>
        <time>2024-03-16T11:04:11Z</time>
      </trkpt>
      <trkpt lat="42.8721" lon="0.12912">
        <ele>2419.3</ele>
        <time>2024-03-16T11:04:21Z</time>
      </trkpt>
      <trkpt lat="42.87205" lon="0.12915">
        <ele>2420.2</ele>
        <time>2024-03-16T11:04:30Z</time>
      </trkpt>
      <trkpt lat="42.87202" lon="0.12919">
        <ele>2421.4</ele>
        <time>2024-03-16T11:04:37Z</time>
      </trkpt>
      <trkpt lat="42.87198" lon="0.12921">
        <ele>2422.2</ele>
        <time>2024-03-16T11:04:45Z</time>
      </trkpt>
      <trkpt lat="42.87194" lon="0.12924">
        <ele>2423.5</ele>
        <time>2024-03-16T11:04:53Z</time>
      </trkpt>
      <trkpt lat="42.87191" lon="0.12927">
        <ele>2424.4</ele>
        <time>2024-03-16T11:05:02Z</time>
      </trkpt>
      <trkpt lat="42.87186" lon="0.12932">
        <ele>2425.8</ele>
        <time>2024-03-16T11:05:10Z</time>
      </trkpt>
      <trkpt lat="42.87185" lon="0.12932">
        <ele>2425.9</ele>
        <time>2024-03-16T11:05:12Z</time>
      </trkpt>
      <trkpt lat="42.8718" lon="0.12934">
        <ele>2425.9</ele>
        <time>2024-03-16T11:05:19Z</time>
      </trkpt>
      <trkpt lat="42.87176" lon="0.12938">
        <ele>2427.1</ele>
        <time>2024-03-16T11:05:28Z</time>
      </trkpt>
      <trkpt lat="42.87172" lon="0.12943">
        <ele>2428.2</ele>
        <time>2024-03-16T11:05:38Z</time>
      </trkpt>
      <trkpt lat="42.87164" lon="0.12949">
        <ele>2429.5</ele>
        <time>2024-03-16T11:05:51Z</time>
      </trkpt>
      <trkpt lat="42.8716" lon="0.12952">
        <ele>2429.8</ele>
        <time>2024-03-16T11:05:59Z</time>
      </trkpt>
      <trkpt lat="42.87156" lon="0.12957">
        <ele>2430.9</ele>
        <time>2024-03-16T11:06:07Z</time>
      </trkpt>
      <trkpt lat="42.87154" lon="0.12959">
        <ele>2431.5</ele>
        <time>2024-03-16T11:06:13Z</time>
      </trkpt>
      <trkpt lat="42.87148" lon="0.12965">
        <ele>2432.1</ele>
        <time>2024-03-16T11:06:24Z</time>
      </trkpt>
      <trkpt lat="42.87146" lon="0.12969">
        <ele>2432.7</ele>
        <time>2024-03-16T11:06:32Z</time>
      </trkpt>
      <trkpt lat="42.87142" lon="0.12974">
        <ele>2433.3</ele>
        <time>2024-03-16T11:06:42Z</time>
      </trkpt>
      <trkpt lat="42.8714" lon="0.12981">
        <ele>2434.7</ele>
        <time>2024-03-16T11:06:51Z</time>
      </trkpt>
      <trkpt lat="42.87137" lon="0.1298">
        <ele>2434.3</ele>
        <time>2024-03-16T11:07:01Z</time>
      </trkpt>
      <trkpt lat="42.87137" lon="0.12983">
        <ele>2435.2</ele>
        <time>2024-03-16T11:07:13Z</time>
      </trkpt>
      <trkpt lat="42.87136" lon="0.12987">
        <ele>2436.1</ele>
        <time>2024-03-16T11:07:21Z</time>
      </trkpt>
      <trkpt lat="42.87132" lon="0.12993">
        <ele>2437.7</ele>
        <time>2024-03-16T11:07:31Z</time>
      </trkpt>
      <trkpt lat="42.8713" lon="0.13001">
        <ele>2439.5</ele>
        <time>2024-03-16T11:07:40Z</time>
      </trkpt>
      <trkpt lat="42.87128" lon="0.13008">
        <ele>2440.6</ele>
        <time>2024-03-16T11:07:49Z</time>
      </trkpt>
      <trkpt lat="42.87124" lon="0.13017">
        <ele>2441.6</ele>
        <time>2024-03-16T11:08:00Z</time>
      </trkpt>
      <trkpt lat="42.87122" lon="0.13022">
        <ele>2442.2</ele>
        <time>2024-03-16T11:08:08Z</time>
      </trkpt>
      <trkpt lat="42.87117" lon="0.13029">
        <ele>2442.9</ele>
        <time>2024-03-16T11:08:18Z</time>
      </trkpt>
      <trkpt lat="42.87115" lon="0.13034">
        <ele>2443.3</ele>
        <time>2024-03-16T11:08:25Z</time>
      </trkpt>
      <trkpt lat="42.87111" lon="0.13042">
        <ele>2444</ele>
        <time>2024-03-16T11:08:34Z</time>
      </trkpt>
      <trkpt lat="42.87108" lon="0.13045">
        <ele>2444.6</ele>
        <time>2024-03-16T11:08:40Z</time>
      </trkpt>
      <trkpt lat="42.87103" lon="0.13052">
        <ele>2445.9</ele>
        <time>2024-03-16T11:08:50Z</time>
      </trkpt>
      <trkpt lat="42.87099" lon="0.13059">
        <ele>2446.7</ele>
        <time>2024-03-16T11:08:58Z</time>
      </trkpt>
      <trkpt lat="42.87094" lon="0.13063">
        <ele>2447.3</ele>
        <time>2024-03-16T11:09:06Z</time>
      </trkpt>
      <trkpt lat="42.87089" lon="0.13069">
        <ele>2447.8</ele>
        <time>2024-03-16T11:09:14Z</time>
      </trkpt>
      <trkpt lat="42.87082" lon="0.13076">
        <ele>2448.8</ele>
        <time>2024-03-16T11:09:25Z</time>
      </trkpt>
      <trkpt lat="42.87078" lon="0.13079">
        <ele>2449.7</ele>
        <time>2024-03-16T11:09:31Z</time>
      </trkpt>
      <trkpt lat="42.87078" lon="0.13078">
        <ele>2449.6</ele>
        <time>2024-03-16T11:09:48Z</time>
      </trkpt>
      <trkpt lat="42.87078" lon="0.13081">
        <ele>2449.8</ele>
        <time>2024-03-16T11:09:55Z</time>
      </trkpt>
      <trkpt lat="42.87073" lon="0.13085">
        <ele>2450.8</ele>
        <time>2024-03-16T11:10:03Z</time>
      </trkpt>
      <trkpt lat="42.8707" lon="0.1309">
        <ele>2451.5</ele>
        <time>2024-03-16T11:10:12Z</time>
      </trkpt>
      <trkpt lat="42.87069" lon="0.13093">
        <ele>2451.8</ele>
        <time>2024-03-16T11:10:14Z</time>
      </trkpt>
      <trkpt lat="42.87063" lon="0.13099">
        <ele>2452.8</ele>
        <time>2024-03-16T11:10:23Z</time>
      </trkpt>
      <trkpt lat="42.87061" lon="0.13101">
        <ele>2453.1</ele>
        <time>2024-03-16T11:10:26Z</time>
      </trkpt>
      <trkpt lat="42.87058" lon="0.13104">
        <ele>2453.6</ele>
        <time>2024-03-16T11:10:30Z</time>
      </trkpt>
      <trkpt lat="42.8705" lon="0.13111">
        <ele>2455.2</ele>
        <time>2024-03-16T11:10:41Z</time>
      </trkpt>
      <trkpt lat="42.87045" lon="0.13118">
        <ele>2455.7</ele>
        <time>2024-03-16T11:10:50Z</time>
      </trkpt>
      <trkpt lat="42.8704" lon="0.13119">
        <ele>2456.6</ele>
        <time>2024-03-16T11:10:57Z</time>
      </trkpt>
      <trkpt lat="42.87037" lon="0.13122">
        <ele>2456.8</ele>
        <time>2024-03-16T11:11:02Z</time>
      </trkpt>
      <trkpt lat="42.87029" lon="0.13126">
        <ele>2457.7</ele>
        <time>2024-03-16T11:11:13Z</time>
      </trkpt>
      <trkpt lat="42.87025" lon="0.1313">
        <ele>2458.1</ele>
        <time>2024-03-16T11:11:23Z</time>
      </trkpt>
      <trkpt lat="42.8702" lon="0.13134">
        <ele>2459.5</ele>
        <time>2024-03-16T11:11:32Z</time>
      </trkpt>
      <trkpt lat="42.87016" lon="0.1314">
        <ele>2460.2</ele>
        <time>2024-03-16T11:11:42Z</time>
      </trkpt>
      <trkpt lat="42.87011" lon="0.13145">
        <ele>2461.7</ele>
        <time>2024-03-16T11:11:50Z</time>
      </trkpt>
      <trkpt lat="42.87006" lon="0.13147">
        <ele>2463.2</ele>
        <time>2024-03-16T11:11:59Z</time>
      </trkpt>
      <trkpt lat="42.87" lon="0.13151">
        <ele>2464.5</ele>
        <time>2024-03-16T11:12:09Z</time>
      </trkpt>
      <trkpt lat="42.86996" lon="0.13158">
        <ele>2465.5</ele>
        <time>2024-03-16T11:12:19Z</time>
      </trkpt>
      <trkpt lat="42.86993" lon="0.13163">
        <ele>2466.1</ele>
        <time>2024-03-16T11:12:27Z</time>
      </trkpt>
      <trkpt lat="42.86988" lon="0.13168">
        <ele>2467.3</ele>
        <time>2024-03-16T11:12:36Z</time>
      </trkpt>
      <trkpt lat="42.86985" lon="0.13169">
        <ele>2468</ele>
        <time>2024-03-16T11:12:43Z</time>
      </trkpt>
      <trkpt lat="42.86982" lon="0.13174">
        <ele>2468.6</ele>
        <time>2024-03-16T11:12:51Z</time>
      </trkpt>
      <trkpt lat="42.86973" lon="0.13177">
        <ele>2471.3</ele>
        <time>2024-03-16T11:13:00Z</time>
      </trkpt>
      <trkpt lat="42.86973" lon="0.13171">
        <ele>2472</ele>
        <time>2024-03-16T11:13:14Z</time>
      </trkpt>
      <trkpt lat="42.86973" lon="0.13168">
        <ele>2472.7</ele>
        <time>2024-03-16T11:13:24Z</time>
      </trkpt>
      <trkpt lat="42.86971" lon="0.13167">
        <ele>2473.4</ele>
        <time>2024-03-16T11:13:38Z</time>
      </trkpt>
      <trkpt lat="42.8697" lon="0.13169">
        <ele>2473.5</ele>
        <time>2024-03-16T11:13:47Z</time>
      </trkpt>
      <trkpt lat="42.86971" lon="0.13167">
        <ele>2473.4</ele>
        <time>2024-03-16T11:13:59Z</time>
      </trkpt>
      <trkpt lat="42.86972" lon="0.13163">
        <ele>2473.6</ele>
        <time>2024-03-16T11:14:07Z</time>
      </trkpt>
      <trkpt lat="42.86974" lon="0.13156">
        <ele>2474.2</ele>
        <time>2024-03-16T11:14:16Z</time>
      </trkpt>
      <trkpt lat="42.86972" lon="0.13157">
        <ele>2474.7</ele>
        <time>2024-03-16T11:14:24Z</time>
      </trkpt>
      <trkpt lat="42.86971" lon="0.13159">
        <ele>2474.7</ele>
        <time>2024-03-16T11:14:34Z</time>
      </trkpt>
      <trkpt lat="42.86969" lon="0.13163">
        <ele>2474.7</ele>
        <time>2024-03-16T11:14:41Z</time>
      </trkpt>
      <trkpt lat="42.86965" lon="0.13165">
        <ele>2476</ele>
        <time>2024-03-16T11:14:51Z</time>
      </trkpt>
      <trkpt lat="42.8696" lon="0.13166">
        <ele>2477.7</ele>
        <time>2024-03-16T11:15:02Z</time>
      </trkpt>
      <trkpt lat="42.86954" lon="0.13168">
        <ele>2479.2</ele>
        <time>2024-03-16T11:15:13Z</time>
      </trkpt>
      <trkpt lat="42.8695" lon="0.13164">
        <ele>2481.3</ele>
        <time>2024-03-16T11:15:23Z</time>
      </trkpt>
      <trkpt lat="42.86945" lon="0.13162">
        <ele>2483.2</ele>
        <time>2024-03-16T11:15:31Z</time>
      </trkpt>
      <trkpt lat="42.86941" lon="0.13158">
        <ele>2484.9</ele>
        <time>2024-03-16T11:15:38Z</time>
      </trkpt>
      <trkpt lat="42.86936" lon="0.13151">
        <ele>2486.5</ele>
        <time>2024-03-16T11:15:47Z</time>
      </trkpt>
      <trkpt lat="42.86937" lon="0.1315">
        <ele>2486.5</ele>
        <time>2024-03-16T11:15:55Z</time>
      </trkpt>
      <trkpt lat="42.86937" lon="0.13149">
        <ele>2486.6</ele>
        <time>2024-03-16T11:16:14Z</time>
      </trkpt>
      <trkpt lat="42.86936" lon="0.13147">
        <ele>2486.9</ele>
        <time>2024-03-16T11:16:21Z</time>
      </trkpt>
      <trkpt lat="42.86932" lon="0.13145">
        <ele>2487.9</ele>
        <time>2024-03-16T11:16:31Z</time>
      </trkpt>
      <trkpt lat="42.86928" lon="0.13141">
        <ele>2488.9</ele>
        <time>2024-03-16T11:16:38Z</time>
      </trkpt>
      <trkpt lat="42.86924" lon="0.13137">
        <ele>2489.5</ele>
        <time>2024-03-16T11:16:46Z</time>
      </trkpt>
      <trkpt lat="42.8692" lon="0.13135">
        <ele>2489.8</ele>
        <time>2024-03-16T11:16:52Z</time>
      </trkpt>
      <trkpt lat="42.86918" lon="0.13134">
        <ele>2490.2</ele>
        <time>2024-03-16T11:16:59Z</time>
      </trkpt>
      <trkpt lat="42.86918" lon="0.13138">
        <ele>2490.8</ele>
        <time>2024-03-16T11:17:06Z</time>
      </trkpt>
      <trkpt lat="42.86916" lon="0.13145">
        <ele>2491.1</ele>
        <time>2024-03-16T11:17:14Z</time>
      </trkpt>
      <trkpt lat="42.86913" lon="0.13152">
        <ele>2491.6</ele>
        <time>2024-03-16T11:17:21Z</time>
      </trkpt>
      <trkpt lat="42.8691" lon="0.13155">
        <ele>2492.3</ele>
        <time>2024-03-16T11:17:29Z</time>
      </trkpt>
      <trkpt lat="42.86907" lon="0.13161">
        <ele>2493.2</ele>
        <time>2024-03-16T11:17:38Z</time>
      </trkpt>
      <trkpt lat="42.86903" lon="0.13168">
        <ele>2494.5</ele>
        <time>2024-03-16T11:17:48Z</time>
      </trkpt>
      <trkpt lat="42.869" lon="0.13172">
        <ele>2495.2</ele>
        <time>2024-03-16T11:17:57Z</time>
      </trkpt>
      <trkpt lat="42.86895" lon="0.13177">
        <ele>2496.5</ele>
        <time>2024-03-16T11:18:08Z</time>
      </trkpt>
      <trkpt lat="42.8689" lon="0.13182">
        <ele>2498.1</ele>
        <time>2024-03-16T11:18:17Z</time>
      </trkpt>
      <trkpt lat="42.86888" lon="0.13176">
        <ele>2498.4</ele>
        <time>2024-03-16T11:18:27Z</time>
      </trkpt>
      <trkpt lat="42.86888" lon="0.13176">
        <ele>2498.4</ele>
        <time>2024-03-16T11:18:40Z</time>
      </trkpt>
      <trkpt lat="42.86886" lon="0.13167">
        <ele>2498.2</ele>
        <time>2024-03-16T11:18:53Z</time>
      </trkpt>
      <trkpt lat="42.86885" lon="0.13161">
        <ele>2497.4</ele>
        <time>2024-03-16T11:19:01Z</time>
      </trkpt>
      <trkpt lat="42.86883" lon="0.13156">
        <ele>2496.5</ele>
        <time>2024-03-16T11:19:09Z</time>
      </trkpt>
      <trkpt lat="42.86882" lon="0.13152">
        <ele>2495.5</ele>
        <time>2024-03-16T11:19:16Z</time>
      </trkpt>
      <trkpt lat="42.8688" lon="0.13148">
        <ele>2494.6</ele>
        <time>2024-03-16T11:19:24Z</time>
      </trkpt>
      <trkpt lat="42.86877" lon="0.13147">
        <ele>2494.3</ele>
        <time>2024-03-16T11:19:32Z</time>
      </trkpt>
      <trkpt lat="42.86875" lon="0.13153">
        <ele>2495.6</ele>
        <time>2024-03-16T11:19:40Z</time>
      </trkpt>
      <trkpt lat="42.86872" lon="0.1316">
        <ele>2497.4</ele>
        <time>2024-03-16T11:19:49Z</time>
      </trkpt>
      <trkpt lat="42.86869" lon="0.13167">
        <ele>2499.5</ele>
        <time>2024-03-16T11:19:57Z</time>
      </trkpt>
      <trkpt lat="42.86868" lon="0.13173">
        <ele>2500.3</ele>
        <time>2024-03-16T11:20:04Z</time>
      </trkpt>
      <trkpt lat="42.86866" lon="0.13178">
        <ele>2501.1</ele>
        <time>2024-03-16T11:20:11Z</time>
      </trkpt>
      <trkpt lat="42.86863" lon="0.13187">
        <ele>2502.6</ele>
        <time>2024-03-16T11:20:21Z</time>
      </trkpt>
      <trkpt lat="42.8686" lon="0.13195">
        <ele>2503.9</ele>
        <time>2024-03-16T11:20:29Z</time>
      </trkpt>
      <trkpt lat="42.86857" lon="0.13202">
        <ele>2504.1</ele>
        <time>2024-03-16T11:20:36Z</time>
      </trkpt>
      <trkpt lat="42.86853" lon="0.13211">
        <ele>2505</ele>
        <time>2024-03-16T11:20:44Z</time>
      </trkpt>
      <trkpt lat="42.8685" lon="0.13215">
        <ele>2505.6</ele>
        <time>2024-03-16T11:20:48Z</time>
      </trkpt>
      <trkpt lat="42.86845" lon="0.13222">
        <ele>2507.1</ele>
        <time>2024-03-16T11:20:57Z</time>
      </trkpt>
      <trkpt lat="42.86841" lon="0.13231">
        <ele>2508.5</ele>
        <time>2024-03-16T11:21:06Z</time>
      </trkpt>
      <trkpt lat="42.86837" lon="0.13237">
        <ele>2510</ele>
        <time>2024-03-16T11:21:13Z</time>
      </trkpt>
      <trkpt lat="42.86834" lon="0.13242">
        <ele>2511.5</ele>
        <time>2024-03-16T11:21:18Z</time>
      </trkpt>
      <trkpt lat="42.86829" lon="0.13249">
        <ele>2513.3</ele>
        <time>2024-03-16T11:21:26Z</time>
      </trkpt>
      <trkpt lat="42.86825" lon="0.13253">
        <ele>2514.2</ele>
        <time>2024-03-16T11:21:34Z</time>
      </trkpt>
      <trkpt lat="42.86821" lon="0.13258">
        <ele>2515.1</ele>
        <time>2024-03-16T11:21:43Z</time>
      </trkpt>
      <trkpt lat="42.86817" lon="0.13263">
        <ele>2516.3</ele>
        <time>2024-03-16T11:21:51Z</time>
      </trkpt>
      <trkpt lat="42.86813" lon="0.13268">
        <ele>2517.7</ele>
        <time>2024-03-16T11:21:59Z</time>
      </trkpt>
      <trkpt lat="42.8681" lon="0.13272">
        <ele>2518.9</ele>
        <time>2024-03-16T11:22:08Z</time>
      </trkpt>
      <trkpt lat="42.86805" lon="0.13278">
        <ele>2521</ele>
        <time>2024-03-16T11:22:17Z</time>
      </trkpt>
      <trkpt lat="42.86801" lon="0.13284">
        <ele>2521.1</ele>
        <time>2024-03-16T11:22:25Z</time>
      </trkpt>
      <trkpt lat="42.86797" lon="0.13289">
        <ele>2521.6</ele>
        <time>2024-03-16T11:22:33Z</time>
      </trkpt>
      <trkpt lat="42.86791" lon="0.13294">
        <ele>2522.7</ele>
        <time>2024-03-16T11:22:41Z</time>
      </trkpt>
      <trkpt lat="42.86786" lon="0.13298">
        <ele>2523.7</ele>
        <time>2024-03-16T11:22:48Z</time>
      </trkpt>
      <trkpt lat="42.86782" lon="0.13304">
        <ele>2524.8</ele>
        <time>2024-03-16T11:22:57Z</time>
      </trkpt>
      <trkpt lat="42.86778" lon="0.13309">
        <ele>2525.9</ele>
        <time>2024-03-16T11:23:05Z</time>
      </trkpt>
      <trkpt lat="42.86775" lon="0.13312">
        <ele>2526.1</ele>
        <time>2024-03-16T11:23:10Z</time>
      </trkpt>
      <trkpt lat="42.86771" lon="0.13317">
        <ele>2526.4</ele>
        <time>2024-03-16T11:23:18Z</time>
      </trkpt>
      <trkpt lat="42.86772" lon="0.13317">
        <ele>2526.3</ele>
        <time>2024-03-16T11:23:29Z</time>
      </trkpt>
      <trkpt lat="42.86768" lon="0.13324">
        <ele>2526.9</ele>
        <time>2024-03-16T11:23:37Z</time>
      </trkpt>
      <trkpt lat="42.86764" lon="0.13328">
        <ele>2527.6</ele>
        <time>2024-03-16T11:23:43Z</time>
      </trkpt>
      <trkpt lat="42.86755" lon="0.1333">
        <ele>2528.9</ele>
        <time>2024-03-16T11:23:53Z</time>
      </trkpt>
      <trkpt lat="42.8675" lon="0.13333">
        <ele>2529.9</ele>
        <time>2024-03-16T11:24:01Z</time>
      </trkpt>
      <trkpt lat="42.86747" lon="0.13336">
        <ele>2529.9</ele>
        <time>2024-03-16T11:24:08Z</time>
      </trkpt>
      <trkpt lat="42.86742" lon="0.13337">
        <ele>2529.7</ele>
        <time>2024-03-16T11:24:17Z</time>
      </trkpt>
      <trkpt lat="42.86738" lon="0.13338">
        <ele>2529.6</ele>
        <time>2024-03-16T11:24:24Z</time>
      </trkpt>
      <trkpt lat="42.86735" lon="0.13339">
        <ele>2529.5</ele>
        <time>2024-03-16T11:24:29Z</time>
      </trkpt>
      <trkpt lat="42.86729" lon="0.1334">
        <ele>2529.2</ele>
        <time>2024-03-16T11:24:37Z</time>
      </trkpt>
      <trkpt lat="42.86726" lon="0.13341">
        <ele>2529</ele>
        <time>2024-03-16T11:24:42Z</time>
      </trkpt>
      <trkpt lat="42.86717" lon="0.1334">
        <ele>2529.1</ele>
        <time>2024-03-16T11:24:51Z</time>
      </trkpt>
      <trkpt lat="42.86712" lon="0.13339">
        <ele>2529.1</ele>
        <time>2024-03-16T11:24:59Z</time>
      </trkpt>
      <trkpt lat="42.86703" lon="0.13337">
        <ele>2529.5</ele>
        <time>2024-03-16T11:25:09Z</time>
      </trkpt>
      <trkpt lat="42.86696" lon="0.13334">
        <ele>2529.8</ele>
        <time>2024-03-16T11:25:18Z</time>
      </trkpt>
      <trkpt lat="42.86689" lon="0.13332">
        <ele>2529.7</ele>
        <time>2024-03-16T11:25:28Z</time>
      </trkpt>
      <trkpt lat="42.86686" lon="0.13329">
        <ele>2529.1</ele>
        <time>2024-03-16T11:25:37Z</time>
      </trkpt>
      <trkpt lat="42.86682" lon="0.13325">
        <ele>2528.7</ele>
        <time>2024-03-16T11:25:47Z</time>
      </trkpt>
      <trkpt lat="42.86678" lon="0.13323">
        <ele>2528.3</ele>
        <time>2024-03-16T11:25:56Z</time>
      </trkpt>
      <trkpt lat="42.86677" lon="0.13322">
        <ele>2528.3</ele>
        <time>2024-03-16T11:26:06Z</time>
      </trkpt>
      <trkpt lat="42.86675" lon="0.13323">
        <ele>2528.4</ele>
        <time>2024-03-16T11:26:13Z</time>
      </trkpt>
      <trkpt lat="42.86673" lon="0.13326">
        <ele>2528.6</ele>
        <time>2024-03-16T11:26:25Z</time>
      </trkpt>
      <trkpt lat="42.86671" lon="0.13326">
        <ele>2528.5</ele>
        <time>2024-03-16T11:26:34Z</time>
      </trkpt>
      <trkpt lat="42.86668" lon="0.13326">
        <ele>2528.5</ele>
        <time>2024-03-16T11:26:42Z</time>
      </trkpt>
      <trkpt lat="42.86669" lon="0.13327">
        <ele>2528.6</ele>
        <time>2024-03-16T11:26:53Z</time>
      </trkpt>
      <trkpt lat="42.86669" lon="0.13326">
        <ele>2528.5</ele>
        <time>2024-03-16T11:27:01Z</time>
      </trkpt>
      <trkpt lat="42.86668" lon="0.13326">
        <ele>2528.5</ele>
        <time>2024-03-16T11:27:13Z</time>
      </trkpt>
      <trkpt lat="42.86668" lon="0.13327">
        <ele>2528.5</ele>
        <time>2024-03-16T11:27:26Z</time>
      </trkpt>
      <trkpt lat="42.86667" lon="0.13326">
        <ele>2528.5</ele>
        <time>2024-03-16T11:27:37Z</time>
      </trkpt>
      <trkpt lat="42.86668" lon="0.13326">
        <ele>2528.5</ele>
        <time>2024-03-16T11:27:50Z</time>
      </trkpt>
      <trkpt lat="42.86668" lon="0.13326">
        <ele>2528.5</ele>
        <time>2024-03-16T11:28:01Z</time>
      </trkpt>
      <trkpt lat="42.86667" lon="0.13325">
        <ele>2528.4</ele>
        <time>2024-03-16T11:28:10Z</time>
      </trkpt>
      <trkpt lat="42.86666" lon="0.13324">
        <ele>2528.2</ele>
        <time>2024-03-16T11:28:16Z</time>
      </trkpt>
      <trkpt lat="42.86666" lon="0.13325">
        <ele>2528.3</ele>
        <time>2024-03-16T11:28:40Z</time>
      </trkpt>
      <trkpt lat="42.86666" lon="0.13324">
        <ele>2528.2</ele>
        <time>2024-03-16T11:29:13Z</time>
      </trkpt>
      <trkpt lat="42.86666" lon="0.13325">
        <ele>2528.3</ele>
        <time>2024-03-16T11:29:32Z</time>
      </trkpt>
      <trkpt lat="42.86666" lon="0.13324">
        <ele>2528.3</ele>
        <time>2024-03-16T11:29:51Z</time>
      </trkpt>
      <trkpt lat="42.86666" lon="0.13325">
        <ele>2528.4</ele>
        <time>2024-03-16T11:30:21Z</time>
      </trkpt>
      <trkpt lat="42.86665" lon="0.13325">
        <ele>2528.2</ele>
        <time>2024-03-16T11:30:48Z</time>
      </trkpt>
      <trkpt lat="42.86665" lon="0.13325">
        <ele>2528.3</ele>
        <time>2024-03-16T11:31:06Z</time>
      </trkpt>
      <trkpt lat="42.86665" lon="0.13323">
        <ele>2528.1</ele>
        <time>2024-03-16T11:31:29Z</time>
      </trkpt>
      <trkpt lat="42.86664" lon="0.13322">
        <ele>2527.9</ele>
        <time>2024-03-16T11:31:47Z</time>
      </trkpt>
      <trkpt lat="42.86664" lon="0.13323">
        <ele>2528</ele>
        <time>2024-03-16T11:32:08Z</time>
      </trkpt>
      <trkpt lat="42.86665" lon="0.13324">
        <ele>2528.1</ele>
        <time>2024-03-16T11:32:34Z</time>
      </trkpt>
      <trkpt lat="42.86664" lon="0.13323">
        <ele>2528</ele>
        <time>2024-03-16T11:32:55Z</time>
      </trkpt>
      <trkpt lat="42.86664" lon="0.13324">
        <ele>2528.1</ele>
        <time>2024-03-16T11:33:20Z</time>
      </trkpt>
      <trkpt lat="42.86664" lon="0.13324">
        <ele>2528.1</ele>
        <time>2024-03-16T11:33:44Z</time>
      </trkpt>
      <trkpt lat="42.86663" lon="0.13325">
        <ele>2528</ele>
        <time>2024-03-16T11:34:02Z</time>
      </trkpt>
      <trkpt lat="42.86663" lon="0.13325">
        <ele>2528</ele>
        <time>2024-03-16T11:34:20Z</time>
      </trkpt>
      <trkpt lat="42.86663" lon="0.13324">
        <ele>2527.9</ele>
        <time>2024-03-16T11:34:40Z</time>
      </trkpt>
      <trkpt lat="42.86664" lon="0.1332">
        <ele>2527.8</ele>
        <time>2024-03-16T11:35:06Z</time>
      </trkpt>
      <trkpt lat="42.86664" lon="0.13317">
        <ele>2527.6</ele>
        <time>2024-03-16T11:35:28Z</time>
      </trkpt>
      <trkpt lat="42.86664" lon="0.13319">
        <ele>2527.6</ele>
        <time>2024-03-16T11:35:48Z</time>
      </trkpt>
      <trkpt lat="42.86663" lon="0.13322">
        <ele>2527.8</ele>
        <time>2024-03-16T11:36:05Z</time>
      </trkpt>
      <trkpt lat="42.86664" lon="0.13323">
        <ele>2528</ele>
        <time>2024-03-16T11:36:21Z</time>
      </trkpt>
      <trkpt lat="42.86664" lon="0.13324">
        <ele>2528.1</ele>
        <time>2024-03-16T11:36:34Z</time>
      </trkpt>
      <trkpt lat="42.86664" lon="0.13325">
        <ele>2528.1</ele>
        <time>2024-03-16T11:36:49Z</time>
      </trkpt>
      <trkpt lat="42.86664" lon="0.13325">
        <ele>2528.1</ele>
        <time>2024-03-16T11:37:09Z</time>
      </trkpt>
      <trkpt lat="42.86664" lon="0.13324">
        <ele>2528.1</ele>
        <time>2024-03-16T11:37:29Z</time>
      </trkpt>
      <trkpt lat="42.86665" lon="0.13324">
        <ele>2528.1</ele>
        <time>2024-03-16T11:37:48Z</time>
      </trkpt>
      <trkpt lat="42.86665" lon="0.13324">
        <ele>2528.2</ele>
        <time>2024-03-16T11:38:07Z</time>
      </trkpt>
      <trkpt lat="42.86666" lon="0.13324">
        <ele>2528.2</ele>
        <time>2024-03-16T11:38:14Z</time>
      </trkpt>
      <trkpt lat="42.86665" lon="0.13324">
        <ele>2528.2</ele>
        <time>2024-03-16T11:38:27Z</time>
      </trkpt>
      <trkpt lat="42.86666" lon="0.13324">
        <ele>2528.2</ele>
        <time>2024-03-16T11:38:40Z</time>
      </trkpt>
      <trkpt lat="42.86665" lon="0.13324">
        <ele>2528.2</ele>
        <time>2024-03-16T11:39:00Z</time>
      </trkpt>
      <trkpt lat="42.86665" lon="0.13324">
        <ele>2528.2</ele>
        <time>2024-03-16T11:39:16Z</time>
      </trkpt>
      <trkpt lat="42.86664" lon="0.13323">
        <ele>2528</ele>
        <time>2024-03-16T11:39:29Z</time>
      </trkpt>
      <trkpt lat="42.86665" lon="0.13323">
        <ele>2528</ele>
        <time>2024-03-16T11:39:44Z</time>
      </trkpt>
      <trkpt lat="42.86666" lon="0.13322">
        <ele>2528.1</ele>
        <time>2024-03-16T11:40:11Z</time>
      </trkpt>
      <trkpt lat="42.86666" lon="0.13321">
        <ele>2528</ele>
        <time>2024-03-16T11:40:39Z</time>
      </trkpt>
      <trkpt lat="42.86667" lon="0.13321">
        <ele>2528.1</ele>
        <time>2024-03-16T11:40:58Z</time>
      </trkpt>
      <trkpt lat="42.8667" lon="0.13322">
        <ele>2528.2</ele>
        <time>2024-03-16T11:41:06Z</time>
      </trkpt>
      <trkpt lat="42.86672" lon="0.13321">
        <ele>2528.1</ele>
        <time>2024-03-16T11:41:14Z</time>
      </trkpt>
      <trkpt lat="42.86671" lon="0.1332">
        <ele>2528</ele>
        <time>2024-03-16T11:41:23Z</time>
      </trkpt>
      <trkpt lat="42.8667" lon="0.13318">
        <ele>2527.9</ele>
        <time>2024-03-16T11:41:45Z</time>
      </trkpt>
      <trkpt lat="42.8667" lon="0.13319">
        <ele>2527.9</ele>
        <time>2024-03-16T11:42:10Z</time>
      </trkpt>
      <trkpt lat="42.8667" lon="0.13319">
        <ele>2528</ele>
        <time>2024-03-16T11:42:29Z</time>
      </trkpt>
      <trkpt lat="42.86669" lon="0.13319">
        <ele>2528</ele>
        <time>2024-03-16T11:42:49Z</time>
      </trkpt>
      <trkpt lat="42.8667" lon="0.13319">
        <ele>2527.9</ele>
        <time>2024-03-16T11:43:12Z</time>
      </trkpt>
      <trkpt lat="42.8667" lon="0.13319">
        <ele>2528</ele>
        <time>2024-03-16T11:43:26Z</time>
      </trkpt>
      <trkpt lat="42.8667" lon="0.13319">
        <ele>2528</ele>
        <time>2024-03-16T11:43:42Z</time>
      </trkpt>
      <trkpt lat="42.8667" lon="0.1332">
        <ele>2528</ele>
        <time>2024-03-16T11:44:00Z</time>
      </trkpt>
      <trkpt lat="42.86671" lon="0.13319">
        <ele>2528</ele>
        <time>2024-03-16T11:44:18Z</time>
      </trkpt>
      <trkpt lat="42.86671" lon="0.13318">
        <ele>2527.9</ele>
        <time>2024-03-16T11:44:42Z</time>
      </trkpt>
      <trkpt lat="42.8667" lon="0.13319">
        <ele>2527.9</ele>
        <time>2024-03-16T11:45:00Z</time>
      </trkpt>
      <trkpt lat="42.8667" lon="0.13319">
        <ele>2528</ele>
        <time>2024-03-16T11:45:19Z</time>
      </trkpt>
      <trkpt lat="42.86669" lon="0.13318">
        <ele>2527.9</ele>
        <time>2024-03-16T11:45:38Z</time>
      </trkpt>
      <trkpt lat="42.86669" lon="0.13319">
        <ele>2527.9</ele>
        <time>2024-03-16T11:45:59Z</time>
      </trkpt>
      <trkpt lat="42.8667" lon="0.13319">
        <ele>2528</ele>
        <time>2024-03-16T11:46:19Z</time>
      </trkpt>
      <trkpt lat="42.8667" lon="0.13319">
        <ele>2528</ele>
        <time>2024-03-16T11:46:39Z</time>
      </trkpt>
      <trkpt lat="42.86671" lon="0.13319">
        <ele>2528</ele>
        <time>2024-03-16T11:46:58Z</time>
      </trkpt>
      <trkpt lat="42.8667" lon="0.13319">
        <ele>2528</ele>
        <time>2024-03-16T11:47:18Z</time>
      </trkpt>
      <trkpt lat="42.8667" lon="0.13319">
        <ele>2528</ele>
        <time>2024-03-16T11:47:38Z</time>
      </trkpt>
      <trkpt lat="42.8667" lon="0.13319">
        <ele>2528</ele>
        <time>2024-03-16T11:47:58Z</time>
      </trkpt>
      <trkpt lat="42.8667" lon="0.13319">
        <ele>2528</ele>
        <time>2024-03-16T11:48:18Z</time>
      </trkpt>
      <trkpt lat="42.8667" lon="0.13319">
        <ele>2528</ele>
        <time>2024-03-16T11:48:34Z</time>
      </trkpt>
      <trkpt lat="42.8667" lon="0.13319">
        <ele>2527.9</ele>
        <time>2024-03-16T11:49:02Z</time>
      </trkpt>
      <trkpt lat="42.8667" lon="0.13319">
        <ele>2528</ele>
        <time>2024-03-16T11:49:25Z</time>
      </trkpt>
      <trkpt lat="42.8667" lon="0.13319">
        <ele>2527.9</ele>
        <time>2024-03-16T11:49:46Z</time>
      </trkpt>
      <trkpt lat="42.8667" lon="0.13319">
        <ele>2528</ele>
        <time>2024-03-16T11:50:09Z</time>
      </trkpt>
      <trkpt lat="42.8667" lon="0.13319">
        <ele>2528</ele>
        <time>2024-03-16T11:50:34Z</time>
      </trkpt>
      <trkpt lat="42.8667" lon="0.13319">
        <ele>2528</ele>
        <time>2024-03-16T11:50:55Z</time>
      </trkpt>
      <trkpt lat="42.8667" lon="0.13319">
        <ele>2528</ele>
        <time>2024-03-16T11:51:17Z</time>
      </trkpt>
      <trkpt lat="42.86671" lon="0.13319">
        <ele>2528</ele>
        <time>2024-03-16T11:51:36Z</time>
      </trkpt>
      <trkpt lat="42.8667" lon="0.13319">
        <ele>2528</ele>
        <time>2024-03-16T11:52:01Z</time>
      </trkpt>
      <trkpt lat="42.86671" lon="0.13318">
        <ele>2527.9</ele>
        <time>2024-03-16T11:52:23Z</time>
      </trkpt>
      <trkpt lat="42.8667" lon="0.13319">
        <ele>2527.9</ele>
        <time>2024-03-16T11:52:46Z</time>
      </trkpt>
      <trkpt lat="42.8667" lon="0.13319">
        <ele>2528</ele>
        <time>2024-03-16T11:53:08Z</time>
      </trkpt>
      <trkpt lat="42.8667" lon="0.13319">
        <ele>2528</ele>
        <time>2024-03-16T11:53:30Z</time>
      </trkpt>
      <trkpt lat="42.8667" lon="0.13319">
        <ele>2528</ele>
        <time>2024-03-16T11:53:53Z</time>
      </trkpt>
      <trkpt lat="42.8667" lon="0.13319">
        <ele>2527.9</ele>
        <time>2024-03-16T11:54:11Z</time>
      </trkpt>
      <trkpt lat="42.8667" lon="0.13318">
        <ele>2527.9</ele>
        <time>2024-03-16T11:54:25Z</time>
      </trkpt>
      <trkpt lat="42.8667" lon="0.13319">
        <ele>2528</ele>
        <time>2024-03-16T11:54:40Z</time>
      </trkpt>
      <trkpt lat="42.8667" lon="0.13319">
        <ele>2527.9</ele>
        <time>2024-03-16T11:55:05Z</time>
      </trkpt>
      <trkpt lat="42.8667" lon="0.13318">
        <ele>2527.9</ele>
        <time>2024-03-16T11:55:19Z</time>
      </trkpt>
      <trkpt lat="42.8667" lon="0.13319">
        <ele>2527.9</ele>
        <time>2024-03-16T11:55:37Z</time>
      </trkpt>
      <trkpt lat="42.8667" lon="0.13319">
        <ele>2528</ele>
        <time>2024-03-16T11:55:59Z</time>
      </trkpt>
      <trkpt lat="42.8667" lon="0.13318">
        <ele>2527.9</ele>
        <time>2024-03-16T11:56:17Z</time>
      </trkpt>
      <trkpt lat="42.8667" lon="0.13318">
        <ele>2527.9</ele>
        <time>2024-03-16T11:56:32Z</time>
      </trkpt>
      <trkpt lat="42.8667" lon="0.13319">
        <ele>2527.9</ele>
        <time>2024-03-16T11:56:52Z</time>
      </trkpt>
      <trkpt lat="42.8667" lon="0.13318">
        <ele>2527.9</ele>
        <time>2024-03-16T11:57:03Z</time>
      </trkpt>
      <trkpt lat="42.8667" lon="0.13318">
        <ele>2527.9</ele>
        <time>2024-03-16T11:57:14Z</time>
      </trkpt>
      <trkpt lat="42.86671" lon="0.13319">
        <ele>2528</ele>
        <time>2024-03-16T11:57:28Z</time>
      </trkpt>
      <trkpt lat="42.8667" lon="0.13319">
        <ele>2528</ele>
        <time>2024-03-16T11:57:47Z</time>
      </trkpt>
      <trkpt lat="42.8667" lon="0.13318">
        <ele>2527.9</ele>
        <time>2024-03-16T11:58:10Z</time>
      </trkpt>
      <trkpt lat="42.8667" lon="0.13318">
        <ele>2527.9</ele>
        <time>2024-03-16T11:58:27Z</time>
      </trkpt>
      <trkpt lat="42.8667" lon="0.13318">
        <ele>2527.9</ele>
        <time>2024-03-16T11:58:43Z</time>
      </trkpt>
      <trkpt lat="42.8667" lon="0.13319">
        <ele>2527.9</ele>
        <time>2024-03-16T11:58:59Z</time>
      </trkpt>
      <trkpt lat="42.8667" lon="0.13319">
        <ele>2527.9</ele>
        <time>2024-03-16T11:59:17Z</time>
      </trkpt>
      <trkpt lat="42.8667" lon="0.13319">
        <ele>2527.9</ele>
        <time>2024-03-16T11:59:35Z</time>
      </trkpt>
      <trkpt lat="42.86671" lon="0.13318">
        <ele>2527.9</ele>
        <time>2024-03-16T11:59:50Z</time>
      </trkpt>
      <trkpt lat="42.8667" lon="0.13319">
        <ele>2528</ele>
        <time>2024-03-16T12:00:09Z</time>
      </trkpt>
      <trkpt lat="42.86671" lon="0.13319">
        <ele>2528</ele>
        <time>2024-03-16T12:00:34Z</time>
      </trkpt>
      <trkpt lat="42.8667" lon="0.13318">
        <ele>2527.9</ele>
        <time>2024-03-16T12:00:57Z</time>
      </trkpt>
      <trkpt lat="42.86671" lon="0.13319">
        <ele>2527.9</ele>
        <time>2024-03-16T12:01:15Z</time>
      </trkpt>
      <trkpt lat="42.86671" lon="0.13319">
        <ele>2528</ele>
        <time>2024-03-16T12:01:41Z</time>
      </trkpt>
      <trkpt lat="42.86671" lon="0.13319">
        <ele>2527.9</ele>
        <time>2024-03-16T12:02:04Z</time>
      </trkpt>
      <trkpt lat="42.8667" lon="0.13319">
        <ele>2527.9</ele>
        <time>2024-03-16T12:02:23Z</time>
      </trkpt>
      <trkpt lat="42.86671" lon="0.13319">
        <ele>2528</ele>
        <time>2024-03-16T12:02:41Z</time>
      </trkpt>
      <trkpt lat="42.86671" lon="0.13319">
        <ele>2527.9</ele>
        <time>2024-03-16T12:03:02Z</time>
      </trkpt>
      <trkpt lat="42.86671" lon="0.13319">
        <ele>2528</ele>
        <time>2024-03-16T12:03:27Z</time>
      </trkpt>
      <trkpt lat="42.8667" lon="0.13319">
        <ele>2527.9</ele>
        <time>2024-03-16T12:03:50Z</time>
      </trkpt>
      <trkpt lat="42.8667" lon="0.13318">
        <ele>2527.9</ele>
        <time>2024-03-16T12:04:06Z</time>
      </trkpt>
      <trkpt lat="42.8667" lon="0.13318">
        <ele>2527.9</ele>
        <time>2024-03-16T12:04:16Z</time>
      </trkpt>
      <trkpt lat="42.8667" lon="0.13319">
        <ele>2527.9</ele>
        <time>2024-03-16T12:04:31Z</time>
      </trkpt>
      <trkpt lat="42.8667" lon="0.13318">
        <ele>2527.9</ele>
        <time>2024-03-16T12:04:53Z</time>
      </trkpt>
      <trkpt lat="42.8667" lon="0.13319">
        <ele>2527.9</ele>
        <time>2024-03-16T12:05:14Z</time>
      </trkpt>
      <trkpt lat="42.8667" lon="0.13318">
        <ele>2527.9</ele>
        <time>2024-03-16T12:05:31Z</time>
      </trkpt>
      <trkpt lat="42.8667" lon="0.13317">
        <ele>2527.8</ele>
        <time>2024-03-16T12:05:55Z</time>
      </trkpt>
      <trkpt lat="42.8667" lon="0.13318">
        <ele>2527.9</ele>
        <time>2024-03-16T12:06:23Z</time>
      </trkpt>
      <trkpt lat="42.86671" lon="0.13318">
        <ele>2527.9</ele>
        <time>2024-03-16T12:06:37Z</time>
      </trkpt>
      <trkpt lat="42.86672" lon="0.1332">
        <ele>2528</ele>
        <time>2024-03-16T12:06:55Z</time>
      </trkpt>
      <trkpt lat="42.86673" lon="0.1332">
        <ele>2528.1</ele>
        <time>2024-03-16T12:07:06Z</time>
      </trkpt>
      <trkpt lat="42.86673" lon="0.1332">
        <ele>2528</ele>
        <time>2024-03-16T12:07:25Z</time>
      </trkpt>
      <trkpt lat="42.86671" lon="0.1332">
        <ele>2528.1</ele>
        <time>2024-03-16T12:07:43Z</time>
      </trkpt>
      <trkpt lat="42.86671" lon="0.13319">
        <ele>2528</ele>
        <time>2024-03-16T12:08:05Z</time>
      </trkpt>
      <trkpt lat="42.86672" lon="0.1332">
        <ele>2528</ele>
        <time>2024-03-16T12:08:24Z</time>
      </trkpt>
      <trkpt lat="42.86672" lon="0.1332">
        <ele>2528.1</ele>
        <time>2024-03-16T12:08:40Z</time>
      </trkpt>
      <trkpt lat="42.86671" lon="0.13321">
        <ele>2528.1</ele>
        <time>2024-03-16T12:08:51Z</time>
      </trkpt>
      <trkpt lat="42.8667" lon="0.13321">
        <ele>2528.1</ele>
        <time>2024-03-16T12:08:55Z</time>
      </trkpt>
      <trkpt lat="42.86671" lon="0.1332">
        <ele>2528.1</ele>
        <time>2024-03-16T12:09:06Z</time>
      </trkpt>
      <trkpt lat="42.86671" lon="0.1332">
        <ele>2528</ele>
        <time>2024-03-16T12:09:19Z</time>
      </trkpt>
      <trkpt lat="42.86671" lon="0.13319">
        <ele>2528</ele>
        <time>2024-03-16T12:09:30Z</time>
      </trkpt>
      <trkpt lat="42.86671" lon="0.1332">
        <ele>2528</ele>
        <time>2024-03-16T12:09:48Z</time>
      </trkpt>
      <trkpt lat="42.86671" lon="0.13319">
        <ele>2528</ele>
        <time>2024-03-16T12:10:05Z</time>
      </trkpt>
      <trkpt lat="42.86671" lon="0.1332">
        <ele>2528</ele>
        <time>2024-03-16T12:10:21Z</time>
      </trkpt>
      <trkpt lat="42.86671" lon="0.1332">
        <ele>2528.1</ele>
        <time>2024-03-16T12:10:39Z</time>
      </trkpt>
      <trkpt lat="42.86671" lon="0.1332">
        <ele>2528</ele>
        <time>2024-03-16T12:10:57Z</time>
      </trkpt>
      <trkpt lat="42.86671" lon="0.13321">
        <ele>2528.1</ele>
        <time>2024-03-16T12:11:13Z</time>
      </trkpt>
      <trkpt lat="42.86672" lon="0.1332">
        <ele>2528.1</ele>
        <time>2024-03-16T12:11:30Z</time>
      </trkpt>
      <trkpt lat="42.86672" lon="0.13321">
        <ele>2528.1</ele>
        <time>2024-03-16T12:11:39Z</time>
      </trkpt>
      <trkpt lat="42.86674" lon="0.13323">
        <ele>2528.4</ele>
        <time>2024-03-16T12:11:53Z</time>
      </trkpt>
      <trkpt lat="42.86674" lon="0.13323">
        <ele>2528.3</ele>
        <time>2024-03-16T12:12:02Z</time>
      </trkpt>
      <trkpt lat="42.86674" lon="0.13323">
        <ele>2528.4</ele>
        <time>2024-03-16T12:12:12Z</time>
      </trkpt>
      <trkpt lat="42.8667" lon="0.13326">
        <ele>2528.5</ele>
        <time>2024-03-16T12:12:21Z</time>
      </trkpt>
      <trkpt lat="42.86668" lon="0.13327">
        <ele>2528.6</ele>
        <time>2024-03-16T12:12:30Z</time>
      </trkpt>
      <trkpt lat="42.86669" lon="0.13326">
        <ele>2528.5</ele>
        <time>2024-03-16T12:12:42Z</time>
      </trkpt>
      <trkpt lat="42.86669" lon="0.13324">
        <ele>2528.4</ele>
        <time>2024-03-16T12:12:50Z</time>
      </trkpt>
      <trkpt lat="42.86669" lon="0.13324">
        <ele>2528.4</ele>
        <time>2024-03-16T12:13:02Z</time>
      </trkpt>
      <trkpt lat="42.86669" lon="0.13326">
        <ele>2528.5</ele>
        <time>2024-03-16T12:13:11Z</time>
      </trkpt>
      <trkpt lat="42.86669" lon="0.13324">
        <ele>2528.3</ele>
        <time>2024-03-16T12:13:22Z</time>
      </trkpt>
      <trkpt lat="42.86672" lon="0.13322">
        <ele>2528.2</ele>
        <time>2024-03-16T12:13:29Z</time>
      </trkpt>
      <trkpt lat="42.86674" lon="0.13324">
        <ele>2528.4</ele>
        <time>2024-03-16T12:13:35Z</time>
      </trkpt>
      <trkpt lat="42.86673" lon="0.13324">
        <ele>2528.4</ele>
        <time>2024-03-16T12:13:45Z</time>
      </trkpt>
      <trkpt lat="42.86673" lon="0.13324">
        <ele>2528.4</ele>
        <time>2024-03-16T12:13:56Z</time>
      </trkpt>
      <trkpt lat="42.86674" lon="0.13325">
        <ele>2528.5</ele>
        <time>2024-03-16T12:14:04Z</time>
      </trkpt>
      <trkpt lat="42.86673" lon="0.13325">
        <ele>2528.5</ele>
        <time>2024-03-16T12:14:16Z</time>
      </trkpt>
      <trkpt lat="42.86673" lon="0.13323">
        <ele>2528.4</ele>
        <time>2024-03-16T12:14:25Z</time>
      </trkpt>
      <trkpt lat="42.86674" lon="0.13323">
        <ele>2528.3</ele>
        <time>2024-03-16T12:14:40Z</time>
      </trkpt>
      <trkpt lat="42.86675" lon="0.13324">
        <ele>2528.4</ele>
        <time>2024-03-16T12:14:51Z</time>
      </trkpt>
      <trkpt lat="42.86676" lon="0.13324">
        <ele>2528.5</ele>
        <time>2024-03-16T12:15:05Z</time>
      </trkpt>
      <trkpt lat="42.86677" lon="0.13323">
        <ele>2528.4</ele>
        <time>2024-03-16T12:15:12Z</time>
      </trkpt>
      <trkpt lat="42.86681" lon="0.13324">
        <ele>2528.5</ele>
        <time>2024-03-16T12:15:19Z</time>
      </trkpt>
      <trkpt lat="42.86688" lon="0.13325">
        <ele>2528.8</ele>
        <time>2024-03-16T12:15:25Z</time>
      </trkpt>
      <trkpt lat="42.86698" lon="0.1333">
        <ele>2529.6</ele>
        <time>2024-03-16T12:15:30Z</time>
      </trkpt>
      <trkpt lat="42.86708" lon="0.13335">
        <ele>2529.7</ele>
        <time>2024-03-16T12:15:32Z</time>
      </trkpt>
      <trkpt lat="42.86732" lon="0.13343">
        <ele>2529</ele>
        <time>2024-03-16T12:15:38Z</time>
      </trkpt>
      <trkpt lat="42.8674" lon="0.1335">
        <ele>2528.8</ele>
        <time>2024-03-16T12:15:44Z</time>
      </trkpt>
      <trkpt lat="42.86743" lon="0.13352">
        <ele>2528.8</ele>
        <time>2024-03-16T12:15:51Z</time>
      </trkpt>
      <trkpt lat="42.86745" lon="0.13354">
        <ele>2528.8</ele>
        <time>2024-03-16T12:15:55Z</time>
      </trkpt>
      <trkpt lat="42.86744" lon="0.13355">
        <ele>2528.7</ele>
        <time>2024-03-16T12:15:56Z</time>
      </trkpt>
      <trkpt lat="42.86739" lon="0.1336">
        <ele>2527.9</ele>
        <time>2024-03-16T12:16:01Z</time>
      </trkpt>
      <trkpt lat="42.8674" lon="0.13357">
        <ele>2528.2</ele>
        <time>2024-03-16T12:16:08Z</time>
      </trkpt>
      <trkpt lat="42.86739" lon="0.13358">
        <ele>2528.1</ele>
        <time>2024-03-16T12:16:18Z</time>
      </trkpt>
      <trkpt lat="42.86739" lon="0.13358">
        <ele>2528.1</ele>
        <time>2024-03-16T12:16:28Z</time>
      </trkpt>
      <trkpt lat="42.86738" lon="0.13359">
        <ele>2527.9</ele>
        <time>2024-03-16T12:16:39Z</time>
      </trkpt>
      <trkpt lat="42.86737" lon="0.13362">
        <ele>2527.5</ele>
        <time>2024-03-16T12:16:46Z</time>
      </trkpt>
      <trkpt lat="42.8674" lon="0.13361">
        <ele>2527.9</ele>
        <time>2024-03-16T12:17:00Z</time>
      </trkpt>
      <trkpt lat="42.86739" lon="0.13359">
        <ele>2528.1</ele>
        <time>2024-03-16T12:17:11Z</time>
      </trkpt>
      <trkpt lat="42.8674" lon="0.13361">
        <ele>2527.9</ele>
        <time>2024-03-16T12:17:16Z</time>
      </trkpt>
      <trkpt lat="42.86745" lon="0.1336">
        <ele>2528.6</ele>
        <time>2024-03-16T12:17:20Z</time>
      </trkpt>
      <trkpt lat="42.86749" lon="0.13357">
        <ele>2529.1</ele>
        <time>2024-03-16T12:17:26Z</time>
      </trkpt>
      <trkpt lat="42.86759" lon="0.13358">
        <ele>2528.7</ele>
        <time>2024-03-16T12:17:28Z</time>
      </trkpt>
      <trkpt lat="42.86775" lon="0.13357">
        <ele>2527.9</ele>
        <time>2024-03-16T12:17:31Z</time>
      </trkpt>
      <trkpt lat="42.86783" lon="0.13355">
        <ele>2526.3</ele>
        <time>2024-03-16T12:17:34Z</time>
      </trkpt>
      <trkpt lat="42.86783" lon="0.13353">
        <ele>2526.1</ele>
        <time>2024-03-16T12:17:35Z</time>
      </trkpt>
      <trkpt lat="42.86781" lon="0.13348">
        <ele>2526.3</ele>
        <time>2024-03-16T12:17:41Z</time>
      </trkpt>
      <trkpt lat="42.86778" lon="0.13349">
        <ele>2526.9</ele>
        <time>2024-03-16T12:17:50Z</time>
      </trkpt>
      <trkpt lat="42.86779" lon="0.13346">
        <ele>2526.5</ele>
        <time>2024-03-16T12:18:01Z</time>
      </trkpt>
      <trkpt lat="42.86782" lon="0.13342">
        <ele>2525.4</ele>
        <time>2024-03-16T12:18:09Z</time>
      </trkpt>
      <trkpt lat="42.86788" lon="0.13334">
        <ele>2523</ele>
        <time>2024-03-16T12:18:15Z</time>
      </trkpt>
      <trkpt lat="42.86791" lon="0.1333">
        <ele>2522.3</ele>
        <time>2024-03-16T12:18:22Z</time>
      </trkpt>
      <trkpt lat="42.868" lon="0.13316">
        <ele>2520</ele>
        <time>2024-03-16T12:18:27Z</time>
      </trkpt>
      <trkpt lat="42.86814" lon="0.13318">
        <ele>2514.7</ele>
        <time>2024-03-16T12:18:30Z</time>
      </trkpt>
      <trkpt lat="42.8682" lon="0.13317">
        <ele>2512.2</ele>
        <time>2024-03-16T12:18:31Z</time>
      </trkpt>
      <trkpt lat="42.86826" lon="0.13315">
        <ele>2510</ele>
        <time>2024-03-16T12:18:32Z</time>
      </trkpt>
      <trkpt lat="42.86841" lon="0.13311">
        <ele>2504.6</ele>
        <time>2024-03-16T12:18:35Z</time>
      </trkpt>
      <trkpt lat="42.86847" lon="0.13314">
        <ele>2502.3</ele>
        <time>2024-03-16T12:18:36Z</time>
      </trkpt>
      <trkpt lat="42.86862" lon="0.13313">
        <ele>2497.4</ele>
        <time>2024-03-16T12:18:38Z</time>
      </trkpt>
      <trkpt lat="42.86868" lon="0.13308">
        <ele>2496.1</ele>
        <time>2024-03-16T12:18:39Z</time>
      </trkpt>
      <trkpt lat="42.86882" lon="0.13296">
        <ele>2494</ele>
        <time>2024-03-16T12:18:41Z</time>
      </trkpt>
      <trkpt lat="42.86898" lon="0.13276">
        <ele>2492.2</ele>
        <time>2024-03-16T12:18:45Z</time>
      </trkpt>
      <trkpt lat="42.86905" lon="0.13264">
        <ele>2491.5</ele>
        <time>2024-03-16T12:18:48Z</time>
      </trkpt>
      <trkpt lat="42.8691" lon="0.13255">
        <ele>2490.9</ele>
        <time>2024-03-16T12:18:50Z</time>
      </trkpt>
      <trkpt lat="42.86912" lon="0.13248">
        <ele>2490.6</ele>
        <time>2024-03-16T12:18:53Z</time>
      </trkpt>
      <trkpt lat="42.86911" lon="0.13244">
        <ele>2490.8</ele>
        <time>2024-03-16T12:19:02Z</time>
      </trkpt>
      <trkpt lat="42.8691" lon="0.13241">
        <ele>2491.1</ele>
        <time>2024-03-16T12:19:13Z</time>
      </trkpt>
      <trkpt lat="42.86908" lon="0.13241">
        <ele>2491.6</ele>
        <time>2024-03-16T12:19:25Z</time>
      </trkpt>
      <trkpt lat="42.86911" lon="0.1324">
        <ele>2490.7</ele>
        <time>2024-03-16T12:19:41Z</time>
      </trkpt>
      <trkpt lat="42.86911" lon="0.13242">
        <ele>2490.7</ele>
        <time>2024-03-16T12:19:52Z</time>
      </trkpt>
      <trkpt lat="42.8691" lon="0.13242">
        <ele>2491</ele>
        <time>2024-03-16T12:20:24Z</time>
      </trkpt>
      <trkpt lat="42.86911" lon="0.13241">
        <ele>2490.8</ele>
        <time>2024-03-16T12:20:36Z</time>
      </trkpt>
      <trkpt lat="42.86908" lon="0.13239">
        <ele>2491.6</ele>
        <time>2024-03-16T12:20:50Z</time>
      </trkpt>
      <trkpt lat="42.86883" lon="0.13225">
        <ele>2500.4</ele>
        <time>2024-03-16T12:21:08Z</time>
      </trkpt>
      <trkpt lat="42.86855" lon="0.13213">
        <ele>2505.3</ele>
        <time>2024-03-16T12:21:23Z</time>
      </trkpt>
      <trkpt lat="42.86862" lon="0.13208">
        <ele>2504.7</ele>
        <time>2024-03-16T12:21:29Z</time>
      </trkpt>
      <trkpt lat="42.8687" lon="0.13207">
        <ele>2503</ele>
        <time>2024-03-16T12:21:31Z</time>
      </trkpt>
      <trkpt lat="42.8688" lon="0.13204">
        <ele>2500.9</ele>
        <time>2024-03-16T12:21:33Z</time>
      </trkpt>
      <trkpt lat="42.86895" lon="0.132">
        <ele>2496.8</ele>
        <time>2024-03-16T12:21:35Z</time>
      </trkpt>
      <trkpt lat="42.86904" lon="0.13195">
        <ele>2493.6</ele>
        <time>2024-03-16T12:21:36Z</time>
      </trkpt>
      <trkpt lat="42.86917" lon="0.13183">
        <ele>2489.6</ele>
        <time>2024-03-16T12:21:38Z</time>
      </trkpt>
      <trkpt lat="42.8694" lon="0.13158">
        <ele>2485.2</ele>
        <time>2024-03-16T12:21:42Z</time>
      </trkpt>
      <trkpt lat="42.86981" lon="0.13115">
        <ele>2476.6</ele>
        <time>2024-03-16T12:21:49Z</time>
      </trkpt>
      <trkpt lat="42.8699" lon="0.13105">
        <ele>2473.3</ele>
        <time>2024-03-16T12:21:50Z</time>
      </trkpt>
      <trkpt lat="42.87003" lon="0.13092">
        <ele>2469.7</ele>
        <time>2024-03-16T12:21:52Z</time>
      </trkpt>
      <trkpt lat="42.87016" lon="0.1308">
        <ele>2465.8</ele>
        <time>2024-03-16T12:21:54Z</time>
      </trkpt>
      <trkpt lat="42.87025" lon="0.13071">
        <ele>2462.3</ele>
        <time>2024-03-16T12:21:56Z</time>
      </trkpt>
      <trkpt lat="42.87035" lon="0.13063">
        <ele>2459</ele>
        <time>2024-03-16T12:21:58Z</time>
      </trkpt>
      <trkpt lat="42.8704" lon="0.13058">
        <ele>2457.6</ele>
        <time>2024-03-16T12:21:59Z</time>
      </trkpt>
      <trkpt lat="42.8705" lon="0.13058">
        <ele>2455.3</ele>
        <time>2024-03-16T12:22:04Z</time>
      </trkpt>
      <trkpt lat="42.87051" lon="0.13054">
        <ele>2454.8</ele>
        <time>2024-03-16T12:22:05Z</time>
      </trkpt>
      <trkpt lat="42.87053" lon="0.13052">
        <ele>2454.1</ele>
        <time>2024-03-16T12:22:06Z</time>
      </trkpt>
      <trkpt lat="42.8706" lon="0.13061">
        <ele>2453</ele>
        <time>2024-03-16T12:22:08Z</time>
      </trkpt>
      <trkpt lat="42.87064" lon="0.13065">
        <ele>2452</ele>
        <time>2024-03-16T12:22:17Z</time>
      </trkpt>
      <trkpt lat="42.87061" lon="0.13065">
        <ele>2452.7</ele>
        <time>2024-03-16T12:22:27Z</time>
      </trkpt>
      <trkpt lat="42.87061" lon="0.13067">
        <ele>2452.7</ele>
        <time>2024-03-16T12:22:37Z</time>
      </trkpt>
      <trkpt lat="42.87073" lon="0.13055">
        <ele>2449.5</ele>
        <time>2024-03-16T12:22:54Z</time>
      </trkpt>
      <trkpt lat="42.87083" lon="0.13042">
        <ele>2445.7</ele>
        <time>2024-03-16T12:23:10Z</time>
      </trkpt>
      <trkpt lat="42.87094" lon="0.13024">
        <ele>2442.6</ele>
        <time>2024-03-16T12:23:21Z</time>
      </trkpt>
      <trkpt lat="42.87117" lon="0.1302">
        <ele>2441.4</ele>
        <time>2024-03-16T12:23:26Z</time>
      </trkpt>
      <trkpt lat="42.87136" lon="0.13014">
        <ele>2442.3</ele>
        <time>2024-03-16T12:23:29Z</time>
      </trkpt>
      <trkpt lat="42.87143" lon="0.13011">
        <ele>2443</ele>
        <time>2024-03-16T12:23:30Z</time>
      </trkpt>
      <trkpt lat="42.87162" lon="0.12999">
        <ele>2446.1</ele>
        <time>2024-03-16T12:23:33Z</time>
      </trkpt>
      <trkpt lat="42.87183" lon="0.12977">
        <ele>2443.4</ele>
        <time>2024-03-16T12:23:39Z</time>
      </trkpt>
      <trkpt lat="42.8719" lon="0.12966">
        <ele>2441.1</ele>
        <time>2024-03-16T12:23:43Z</time>
      </trkpt>
      <trkpt lat="42.87191" lon="0.12963">
        <ele>2440.2</ele>
        <time>2024-03-16T12:23:44Z</time>
      </trkpt>
      <trkpt lat="42.87191" lon="0.12962">
        <ele>2439.7</ele>
        <time>2024-03-16T12:23:45Z</time>
      </trkpt>
      <trkpt lat="42.87185" lon="0.12959">
        <ele>2437.5</ele>
        <time>2024-03-16T12:23:46Z</time>
      </trkpt>
      <trkpt lat="42.87198" lon="0.1294">
        <ele>2430.7</ele>
        <time>2024-03-16T12:23:52Z</time>
      </trkpt>
      <trkpt lat="42.87215" lon="0.12925">
        <ele>2424.5</ele>
        <time>2024-03-16T12:23:42Z</time>
      </trkpt>
      <trkpt lat="42.87219" lon="0.1292">
        <ele>2422.7</ele>
        <time>2024-03-16T12:23:43Z</time>
      </trkpt>
      <trkpt lat="42.87228" lon="0.12912">
        <ele>2419.5</ele>
        <time>2024-03-16T12:23:45Z</time>
      </trkpt>
      <trkpt lat="42.87238" lon="0.12896">
        <ele>2412.7</ele>
        <time>2024-03-16T12:23:47Z</time>
      </trkpt>
      <trkpt lat="42.87247" lon="0.12889">
        <ele>2409.9</ele>
        <time>2024-03-16T12:23:49Z</time>
      </trkpt>
      <trkpt lat="42.87254" lon="0.12877">
        <ele>2406.3</ele>
        <time>2024-03-16T12:23:51Z</time>
      </trkpt>
      <trkpt lat="42.87259" lon="0.12871">
        <ele>2404.7</ele>
        <time>2024-03-16T12:23:53Z</time>
      </trkpt>
      <trkpt lat="42.87265" lon="0.12868">
        <ele>2404.4</ele>
        <time>2024-03-16T12:23:54Z</time>
      </trkpt>
      <trkpt lat="42.87267" lon="0.12866">
        <ele>2403.7</ele>
        <time>2024-03-16T12:23:55Z</time>
      </trkpt>
      <trkpt lat="42.87283" lon="0.12852">
        <ele>2401.6</ele>
        <time>2024-03-16T12:23:58Z</time>
      </trkpt>
      <trkpt lat="42.87291" lon="0.12843">
        <ele>2400.4</ele>
        <time>2024-03-16T12:24:00Z</time>
      </trkpt>
      <trkpt lat="42.87291" lon="0.12839">
        <ele>2399.4</ele>
        <time>2024-03-16T12:24:01Z</time>
      </trkpt>
      <trkpt lat="42.87289" lon="0.12835">
        <ele>2397.9</ele>
        <time>2024-03-16T12:24:03Z</time>
      </trkpt>
      <trkpt lat="42.87281" lon="0.12814">
        <ele>2389.7</ele>
        <time>2024-03-16T12:24:07Z</time>
      </trkpt>
      <trkpt lat="42.87277" lon="0.12809">
        <ele>2387.1</ele>
        <time>2024-03-16T12:24:08Z</time>
      </trkpt>
      <trkpt lat="42.87275" lon="0.12802">
        <ele>2384.8</ele>
        <time>2024-03-16T12:24:09Z</time>
      </trkpt>
      <trkpt lat="42.87272" lon="0.12793">
        <ele>2382.8</ele>
        <time>2024-03-16T12:24:10Z</time>
      </trkpt>
      <trkpt lat="42.87269" lon="0.12787">
        <ele>2380.9</ele>
        <time>2024-03-16T12:24:11Z</time>
      </trkpt>
      <trkpt lat="42.87245" lon="0.12777">
        <ele>2375.8</ele>
        <time>2024-03-16T12:24:15Z</time>
      </trkpt>
      <trkpt lat="42.87229" lon="0.12766">
        <ele>2370.7</ele>
        <time>2024-03-16T12:24:24Z</time>
      </trkpt>
      <trkpt lat="42.87233" lon="0.12768">
        <ele>2371.7</ele>
        <time>2024-03-16T12:24:31Z</time>
      </trkpt>
      <trkpt lat="42.87224" lon="0.12767">
        <ele>2369.9</ele>
        <time>2024-03-16T12:24:42Z</time>
      </trkpt>
      <trkpt lat="42.87222" lon="0.12765">
        <ele>2369.2</ele>
        <time>2024-03-16T12:24:51Z</time>
      </trkpt>
      <trkpt lat="42.87221" lon="0.12765">
        <ele>2369.1</ele>
        <time>2024-03-16T12:25:00Z</time>
      </trkpt>
      <trkpt lat="42.8722" lon="0.12761">
        <ele>2368.4</ele>
        <time>2024-03-16T12:25:11Z</time>
      </trkpt>
      <trkpt lat="42.87218" lon="0.12759">
        <ele>2368</ele>
        <time>2024-03-16T12:25:25Z</time>
      </trkpt>
      <trkpt lat="42.87212" lon="0.1275">
        <ele>2366</ele>
        <time>2024-03-16T12:25:30Z</time>
      </trkpt>
      <trkpt lat="42.87215" lon="0.1274">
        <ele>2362.8</ele>
        <time>2024-03-16T12:25:32Z</time>
      </trkpt>
      <trkpt lat="42.87228" lon="0.12722">
        <ele>2360.1</ele>
        <time>2024-03-16T12:25:35Z</time>
      </trkpt>
      <trkpt lat="42.87228" lon="0.12705">
        <ele>2354.2</ele>
        <time>2024-03-16T12:25:38Z</time>
      </trkpt>
      <trkpt lat="42.8723" lon="0.12698">
        <ele>2352.6</ele>
        <time>2024-03-16T12:25:39Z</time>
      </trkpt>
      <trkpt lat="42.87237" lon="0.12688">
        <ele>2352</ele>
        <time>2024-03-16T12:25:41Z</time>
      </trkpt>
      <trkpt lat="42.8724" lon="0.12679">
        <ele>2350.3</ele>
        <time>2024-03-16T12:25:43Z</time>
      </trkpt>
      <trkpt lat="42.87243" lon="0.12659">
        <ele>2344</ele>
        <time>2024-03-16T12:25:46Z</time>
      </trkpt>
      <trkpt lat="42.87242" lon="0.12645">
        <ele>2338.1</ele>
        <time>2024-03-16T12:25:49Z</time>
      </trkpt>
      <trkpt lat="42.87241" lon="0.12638">
        <ele>2334.9</ele>
        <time>2024-03-16T12:25:51Z</time>
      </trkpt>
      <trkpt lat="42.87242" lon="0.12634">
        <ele>2334.2</ele>
        <time>2024-03-16T12:25:52Z</time>
      </trkpt>
      <trkpt lat="42.87248" lon="0.12618">
        <ele>2330.8</ele>
        <time>2024-03-16T12:25:56Z</time>
      </trkpt>
      <trkpt lat="42.87244" lon="0.12612">
        <ele>2327.2</ele>
        <time>2024-03-16T12:25:58Z</time>
      </trkpt>
      <trkpt lat="42.87243" lon="0.12592">
        <ele>2318.9</ele>
        <time>2024-03-16T12:26:01Z</time>
      </trkpt>
      <trkpt lat="42.8725" lon="0.12577">
        <ele>2315.6</ele>
        <time>2024-03-16T12:26:03Z</time>
      </trkpt>
      <trkpt lat="42.87253" lon="0.12572">
        <ele>2315.4</ele>
        <time>2024-03-16T12:26:04Z</time>
      </trkpt>
      <trkpt lat="42.87254" lon="0.1257">
        <ele>2315.6</ele>
        <time>2024-03-16T12:26:08Z</time>
      </trkpt>
      <trkpt lat="42.87251" lon="0.12571">
        <ele>2314</ele>
        <time>2024-03-16T12:26:15Z</time>
      </trkpt>
      <trkpt lat="42.87249" lon="0.12567">
        <ele>2311.7</ele>
        <time>2024-03-16T12:26:29Z</time>
      </trkpt>
      <trkpt lat="42.87248" lon="0.12563">
        <ele>2310.1</ele>
        <time>2024-03-16T12:26:42Z</time>
      </trkpt>
      <trkpt lat="42.87248" lon="0.12561">
        <ele>2309.6</ele>
        <time>2024-03-16T12:26:46Z</time>
      </trkpt>
      <trkpt lat="42.87257" lon="0.12545">
        <ele>2306.7</ele>
        <time>2024-03-16T12:26:52Z</time>
      </trkpt>
      <trkpt lat="42.87271" lon="0.12525">
        <ele>2303.9</ele>
        <time>2024-03-16T12:26:56Z</time>
      </trkpt>
      <trkpt lat="42.87282" lon="0.12507">
        <ele>2299.3</ele>
        <time>2024-03-16T12:27:00Z</time>
      </trkpt>
      <trkpt lat="42.87289" lon="0.12491">
        <ele>2296</ele>
        <time>2024-03-16T12:27:05Z</time>
      </trkpt>
      <trkpt lat="42.8729" lon="0.12486">
        <ele>2295</ele>
        <time>2024-03-16T12:27:07Z</time>
      </trkpt>
      <trkpt lat="42.87296" lon="0.12471">
        <ele>2291.6</ele>
        <time>2024-03-16T12:27:11Z</time>
      </trkpt>
      <trkpt lat="42.87297" lon="0.12469">
        <ele>2291</ele>
        <time>2024-03-16T12:27:12Z</time>
      </trkpt>
      <trkpt lat="42.87296" lon="0.12465">
        <ele>2289.5</ele>
        <time>2024-03-16T12:27:14Z</time>
      </trkpt>
      <trkpt lat="42.87292" lon="0.12457">
        <ele>2286.1</ele>
        <time>2024-03-16T12:27:17Z</time>
      </trkpt>
      <trkpt lat="42.87294" lon="0.12454">
        <ele>2285.4</ele>
        <time>2024-03-16T12:27:18Z</time>
      </trkpt>
      <trkpt lat="42.87297" lon="0.12449">
        <ele>2284.4</ele>
        <time>2024-03-16T12:27:20Z</time>
      </trkpt>
      <trkpt lat="42.87301" lon="0.12443">
        <ele>2282.8</ele>
        <time>2024-03-16T12:27:22Z</time>
      </trkpt>
      <trkpt lat="42.87308" lon="0.12427">
        <ele>2277.3</ele>
        <time>2024-03-16T12:27:25Z</time>
      </trkpt>
      <trkpt lat="42.87317" lon="0.12422">
        <ele>2275.6</ele>
        <time>2024-03-16T12:27:27Z</time>
      </trkpt>
      <trkpt lat="42.87338" lon="0.12419">
        <ele>2275.2</ele>
        <time>2024-03-16T12:27:31Z</time>
      </trkpt>
      <trkpt lat="42.87342" lon="0.12417">
        <ele>2274.6</ele>
        <time>2024-03-16T12:27:32Z</time>
      </trkpt>
      <trkpt lat="42.87351" lon="0.12409">
        <ele>2272.9</ele>
        <time>2024-03-16T12:27:34Z</time>
      </trkpt>
      <trkpt lat="42.87356" lon="0.12396">
        <ele>2269</ele>
        <time>2024-03-16T12:27:36Z</time>
      </trkpt>
      <trkpt lat="42.87369" lon="0.12382">
        <ele>2265.7</ele>
        <time>2024-03-16T12:27:39Z</time>
      </trkpt>
      <trkpt lat="42.87372" lon="0.12376">
        <ele>2264.5</ele>
        <time>2024-03-16T12:27:40Z</time>
      </trkpt>
      <trkpt lat="42.87383" lon="0.12364">
        <ele>2261.2</ele>
        <time>2024-03-16T12:27:47Z</time>
      </trkpt>
      <trkpt lat="42.87383" lon="0.12371">
        <ele>2263.8</ele>
        <time>2024-03-16T12:27:55Z</time>
      </trkpt>
      <trkpt lat="42.87384" lon="0.1237">
        <ele>2263.6</ele>
        <time>2024-03-16T12:27:57Z</time>
      </trkpt>
      <trkpt lat="42.87377" lon="0.12362">
        <ele>2260.5</ele>
        <time>2024-03-16T12:28:05Z</time>
      </trkpt>
      <trkpt lat="42.87376" lon="0.1236">
        <ele>2259.4</ele>
        <time>2024-03-16T12:28:17Z</time>
      </trkpt>
      <trkpt lat="42.87377" lon="0.12356">
        <ele>2258</ele>
        <time>2024-03-16T12:28:26Z</time>
      </trkpt>
      <trkpt lat="42.87377" lon="0.12354">
        <ele>2257.1</ele>
        <time>2024-03-16T12:28:27Z</time>
      </trkpt>
      <trkpt lat="42.87382" lon="0.12345">
        <ele>2253.4</ele>
        <time>2024-03-16T12:28:29Z</time>
      </trkpt>
      <trkpt lat="42.87385" lon="0.12332">
        <ele>2247.5</ele>
        <time>2024-03-16T12:28:32Z</time>
      </trkpt>
      <trkpt lat="42.87386" lon="0.12321">
        <ele>2243</ele>
        <time>2024-03-16T12:28:35Z</time>
      </trkpt>
      <trkpt lat="42.87379" lon="0.1232">
        <ele>2242.7</ele>
        <time>2024-03-16T12:28:38Z</time>
      </trkpt>
      <trkpt lat="42.8738" lon="0.12314">
        <ele>2239.9</ele>
        <time>2024-03-16T12:28:40Z</time>
      </trkpt>
      <trkpt lat="42.87378" lon="0.12307">
        <ele>2236.9</ele>
        <time>2024-03-16T12:28:43Z</time>
      </trkpt>
      <trkpt lat="42.87371" lon="0.12299">
        <ele>2234.4</ele>
        <time>2024-03-16T12:28:49Z</time>
      </trkpt>
      <trkpt lat="42.87368" lon="0.12297">
        <ele>2234.1</ele>
        <time>2024-03-16T12:28:58Z</time>
      </trkpt>
      <trkpt lat="42.87366" lon="0.12297">
        <ele>2234.2</ele>
        <time>2024-03-16T12:29:06Z</time>
      </trkpt>
      <trkpt lat="42.87365" lon="0.12297">
        <ele>2234.2</ele>
        <time>2024-03-16T12:29:15Z</time>
      </trkpt>
      <trkpt lat="42.87365" lon="0.12297">
        <ele>2234.1</ele>
        <time>2024-03-16T12:29:26Z</time>
      </trkpt>
      <trkpt lat="42.87365" lon="0.12296">
        <ele>2233.9</ele>
        <time>2024-03-16T12:29:39Z</time>
      </trkpt>
      <trkpt lat="42.87366" lon="0.12295">
        <ele>2233.4</ele>
        <time>2024-03-16T12:29:48Z</time>
      </trkpt>
      <trkpt lat="42.87379" lon="0.12295">
        <ele>2232.5</ele>
        <time>2024-03-16T12:29:53Z</time>
      </trkpt>
      <trkpt lat="42.87382" lon="0.12296">
        <ele>2232.3</ele>
        <time>2024-03-16T12:29:54Z</time>
      </trkpt>
      <trkpt lat="42.87389" lon="0.12297">
        <ele>2232.4</ele>
        <time>2024-03-16T12:29:56Z</time>
      </trkpt>
      <trkpt lat="42.8741" lon="0.1229">
        <ele>2227.5</ele>
        <time>2024-03-16T12:30:02Z</time>
      </trkpt>
      <trkpt lat="42.87432" lon="0.12284">
        <ele>2224.8</ele>
        <time>2024-03-16T12:30:08Z</time>
      </trkpt>
      <trkpt lat="42.87437" lon="0.12282">
        <ele>2224</ele>
        <time>2024-03-16T12:30:16Z</time>
      </trkpt>
      <trkpt lat="42.87438" lon="0.1228">
        <ele>2223.1</ele>
        <time>2024-03-16T12:30:21Z</time>
      </trkpt>
      <trkpt lat="42.87452" lon="0.12276">
        <ele>2220.9</ele>
        <time>2024-03-16T12:30:27Z</time>
      </trkpt>
      <trkpt lat="42.87471" lon="0.12273">
        <ele>2218.7</ele>
        <time>2024-03-16T12:30:31Z</time>
      </trkpt>
      <trkpt lat="42.87478" lon="0.12271">
        <ele>2217.8</ele>
        <time>2024-03-16T12:30:35Z</time>
      </trkpt>
      <trkpt lat="42.87482" lon="0.12272">
        <ele>2218.1</ele>
        <time>2024-03-16T12:30:42Z</time>
      </trkpt>
      <trkpt lat="42.87492" lon="0.12271">
        <ele>2217.6</ele>
        <time>2024-03-16T12:30:49Z</time>
      </trkpt>
      <trkpt lat="42.87502" lon="0.1227">
        <ele>2217.5</ele>
        <time>2024-03-16T12:30:56Z</time>
      </trkpt>
      <trkpt lat="42.8751" lon="0.12269">
        <ele>2216.6</ele>
        <time>2024-03-16T12:31:04Z</time>
      </trkpt>
      <trkpt lat="42.87527" lon="0.12266">
        <ele>2214.7</ele>
        <time>2024-03-16T12:31:12Z</time>
      </trkpt>
      <trkpt lat="42.87541" lon="0.12265">
        <ele>2213.3</ele>
        <time>2024-03-16T12:31:16Z</time>
      </trkpt>
      <trkpt lat="42.8756" lon="0.12264">
        <ele>2212.5</ele>
        <time>2024-03-16T12:31:21Z</time>
      </trkpt>
      <trkpt lat="42.87561" lon="0.12263">
        <ele>2212.1</ele>
        <time>2024-03-16T12:31:26Z</time>
      </trkpt>
      <trkpt lat="42.87563" lon="0.12262">
        <ele>2211.5</ele>
        <time>2024-03-16T12:31:36Z</time>
      </trkpt>
      <trkpt lat="42.87562" lon="0.1226">
        <ele>2210.7</ele>
        <time>2024-03-16T12:31:48Z</time>
      </trkpt>
      <trkpt lat="42.87562" lon="0.12259">
        <ele>2210</ele>
        <time>2024-03-16T12:31:54Z</time>
      </trkpt>
      <trkpt lat="42.87559" lon="0.12252">
        <ele>2206.3</ele>
        <time>2024-03-16T12:31:58Z</time>
      </trkpt>
      <trkpt lat="42.87557" lon="0.12238">
        <ele>2199.4</ele>
        <time>2024-03-16T12:32:01Z</time>
      </trkpt>
      <trkpt lat="42.87563" lon="0.12226">
        <ele>2194</ele>
        <time>2024-03-16T12:32:04Z</time>
      </trkpt>
      <trkpt lat="42.87563" lon="0.12221">
        <ele>2191.3</ele>
        <time>2024-03-16T12:32:05Z</time>
      </trkpt>
      <trkpt lat="42.87562" lon="0.12212">
        <ele>2185.7</ele>
        <time>2024-03-16T12:32:07Z</time>
      </trkpt>
      <trkpt lat="42.87563" lon="0.12208">
        <ele>2183.6</ele>
        <time>2024-03-16T12:32:08Z</time>
      </trkpt>
      <trkpt lat="42.87563" lon="0.12193">
        <ele>2175.3</ele>
        <time>2024-03-16T12:32:12Z</time>
      </trkpt>
      <trkpt lat="42.87565" lon="0.12187">
        <ele>2171.9</ele>
        <time>2024-03-16T12:32:14Z</time>
      </trkpt>
      <trkpt lat="42.87575" lon="0.12179">
        <ele>2168.7</ele>
        <time>2024-03-16T12:32:18Z</time>
      </trkpt>
      <trkpt lat="42.87573" lon="0.12175">
        <ele>2166.1</ele>
        <time>2024-03-16T12:32:20Z</time>
      </trkpt>
      <trkpt lat="42.87577" lon="0.12167">
        <ele>2161.5</ele>
        <time>2024-03-16T12:32:22Z</time>
      </trkpt>
      <trkpt lat="42.87578" lon="0.12164">
        <ele>2160.4</ele>
        <time>2024-03-16T12:32:24Z</time>
      </trkpt>
      <trkpt lat="42.87576" lon="0.12164">
        <ele>2159.9</ele>
        <time>2024-03-16T12:32:29Z</time>
      </trkpt>
      <trkpt lat="42.87582" lon="0.12154">
        <ele>2155</ele>
        <time>2024-03-16T12:32:34Z</time>
      </trkpt>
      <trkpt lat="42.87585" lon="0.1215">
        <ele>2153.6</ele>
        <time>2024-03-16T12:32:35Z</time>
      </trkpt>
      <trkpt lat="42.8759" lon="0.12136">
        <ele>2147.3</ele>
        <time>2024-03-16T12:32:38Z</time>
      </trkpt>
      <trkpt lat="42.87587" lon="0.12125">
        <ele>2142.1</ele>
        <time>2024-03-16T12:32:40Z</time>
      </trkpt>
      <trkpt lat="42.87588" lon="0.12119">
        <ele>2139.7</ele>
        <time>2024-03-16T12:32:41Z</time>
      </trkpt>
      <trkpt lat="42.87592" lon="0.12105">
        <ele>2136.2</ele>
        <time>2024-03-16T12:32:43Z</time>
      </trkpt>
      <trkpt lat="42.87592" lon="0.12092">
        <ele>2133</ele>
        <time>2024-03-16T12:32:45Z</time>
      </trkpt>
      <trkpt lat="42.87593" lon="0.12086">
        <ele>2131.6</ele>
        <time>2024-03-16T12:32:46Z</time>
      </trkpt>
      <trkpt lat="42.87597" lon="0.1207">
        <ele>2126.2</ele>
        <time>2024-03-16T12:32:50Z</time>
      </trkpt>
      <trkpt lat="42.87591" lon="0.12075">
        <ele>2126.7</ele>
        <time>2024-03-16T12:33:00Z</time>
      </trkpt>
      <trkpt lat="42.87579" lon="0.12081">
        <ele>2126.1</ele>
        <time>2024-03-16T12:33:04Z</time>
      </trkpt>
      <trkpt lat="42.87562" lon="0.12081">
        <ele>2122.9</ele>
        <time>2024-03-16T12:33:09Z</time>
      </trkpt>
      <trkpt lat="42.87554" lon="0.12078">
        <ele>2120.3</ele>
        <time>2024-03-16T12:33:12Z</time>
      </trkpt>
      <trkpt lat="42.87547" lon="0.12077">
        <ele>2119.2</ele>
        <time>2024-03-16T12:33:14Z</time>
      </trkpt>
      <trkpt lat="42.87535" lon="0.12077">
        <ele>2117.1</ele>
        <time>2024-03-16T12:33:18Z</time>
      </trkpt>
      <trkpt lat="42.87534" lon="0.12072">
        <ele>2115.1</ele>
        <time>2024-03-16T12:33:28Z</time>
      </trkpt>
      <trkpt lat="42.87538" lon="0.12057">
        <ele>2109.2</ele>
        <time>2024-03-16T12:33:32Z</time>
      </trkpt>
      <trkpt lat="42.87542" lon="0.12046">
        <ele>2104.7</ele>
        <time>2024-03-16T12:33:35Z</time>
      </trkpt>
      <trkpt lat="42.87545" lon="0.12041">
        <ele>2103</ele>
        <time>2024-03-16T12:33:36Z</time>
      </trkpt>
      <trkpt lat="42.87554" lon="0.12029">
        <ele>2097.6</ele>
        <time>2024-03-16T12:33:40Z</time>
      </trkpt>
      <trkpt lat="42.87564" lon="0.12011">
        <ele>2090.6</ele>
        <time>2024-03-16T12:33:44Z</time>
      </trkpt>
      <trkpt lat="42.87567" lon="0.11999">
        <ele>2085.9</ele>
        <time>2024-03-16T12:33:46Z</time>
      </trkpt>
      <trkpt lat="42.87567" lon="0.11994">
        <ele>2084</ele>
        <time>2024-03-16T12:33:47Z</time>
      </trkpt>
      <trkpt lat="42.87565" lon="0.11983">
        <ele>2080.2</ele>
        <time>2024-03-16T12:33:49Z</time>
      </trkpt>
      <trkpt lat="42.87567" lon="0.11977">
        <ele>2078.3</ele>
        <time>2024-03-16T12:33:50Z</time>
      </trkpt>
      <trkpt lat="42.87567" lon="0.1197">
        <ele>2076.1</ele>
        <time>2024-03-16T12:33:51Z</time>
      </trkpt>
      <trkpt lat="42.87568" lon="0.11965">
        <ele>2074.4</ele>
        <time>2024-03-16T12:33:52Z</time>
      </trkpt>
      <trkpt lat="42.87569" lon="0.11961">
        <ele>2073.3</ele>
        <time>2024-03-16T12:33:53Z</time>
      </trkpt>
      <trkpt lat="42.87571" lon="0.11958">
        <ele>2072.7</ele>
        <time>2024-03-16T12:33:54Z</time>
      </trkpt>
      <trkpt lat="42.87573" lon="0.11955">
        <ele>2072.1</ele>
        <time>2024-03-16T12:33:55Z</time>
      </trkpt>
      <trkpt lat="42.87578" lon="0.11956">
        <ele>2072.9</ele>
        <time>2024-03-16T12:34:00Z</time>
      </trkpt>
      <trkpt lat="42.87576" lon="0.1196">
        <ele>2074</ele>
        <time>2024-03-16T12:34:08Z</time>
      </trkpt>
      <trkpt lat="42.87575" lon="0.11961">
        <ele>2074.1</ele>
        <time>2024-03-16T12:34:20Z</time>
      </trkpt>
      <trkpt lat="42.87573" lon="0.1196">
        <ele>2073.6</ele>
        <time>2024-03-16T12:34:23Z</time>
      </trkpt>
      <trkpt lat="42.8757" lon="0.1195">
        <ele>2069.7</ele>
        <time>2024-03-16T12:34:27Z</time>
      </trkpt>
      <trkpt lat="42.87564" lon="0.1193">
        <ele>2062.8</ele>
        <time>2024-03-16T12:34:31Z</time>
      </trkpt>
      <trkpt lat="42.87558" lon="0.11913">
        <ele>2057</ele>
        <time>2024-03-16T12:34:34Z</time>
      </trkpt>
      <trkpt lat="42.87559" lon="0.11894">
        <ele>2051</ele>
        <time>2024-03-16T12:34:37Z</time>
      </trkpt>
      <trkpt lat="42.87561" lon="0.11882">
        <ele>2048.6</ele>
        <time>2024-03-16T12:34:39Z</time>
      </trkpt>
      <trkpt lat="42.87569" lon="0.11864">
        <ele>2046.4</ele>
        <time>2024-03-16T12:34:42Z</time>
      </trkpt>
      <trkpt lat="42.87582" lon="0.1184">
        <ele>2044.1</ele>
        <time>2024-03-16T12:34:46Z</time>
      </trkpt>
      <trkpt lat="42.87588" lon="0.11832">
        <ele>2044.1</ele>
        <time>2024-03-16T12:34:48Z</time>
      </trkpt>
      <trkpt lat="42.87598" lon="0.11811">
        <ele>2042.4</ele>
        <time>2024-03-16T12:34:54Z</time>
      </trkpt>
      <trkpt lat="42.87605" lon="0.11801">
        <ele>2041.9</ele>
        <time>2024-03-16T12:34:59Z</time>
      </trkpt>
      <trkpt lat="42.87612" lon="0.11796">
        <ele>2042.5</ele>
        <time>2024-03-16T12:35:04Z</time>
      </trkpt>
      <trkpt lat="42.87626" lon="0.11781">
        <ele>2042.6</ele>
        <time>2024-03-16T12:35:11Z</time>
      </trkpt>
      <trkpt lat="42.87636" lon="0.11768">
        <ele>2042.7</ele>
        <time>2024-03-16T12:35:17Z</time>
      </trkpt>
      <trkpt lat="42.87638" lon="0.11765">
        <ele>2042.5</ele>
        <time>2024-03-16T12:35:18Z</time>
      </trkpt>
      <trkpt lat="42.87646" lon="0.11741">
        <ele>2042.3</ele>
        <time>2024-03-16T12:35:24Z</time>
      </trkpt>
      <trkpt lat="42.87648" lon="0.11729">
        <ele>2041.6</ele>
        <time>2024-03-16T12:35:30Z</time>
      </trkpt>
      <trkpt lat="42.87649" lon="0.11719">
        <ele>2040.7</ele>
        <time>2024-03-16T12:35:39Z</time>
      </trkpt>
      <trkpt lat="42.8766" lon="0.11699">
        <ele>2039.8</ele>
        <time>2024-03-16T12:35:45Z</time>
      </trkpt>
      <trkpt lat="42.8767" lon="0.1168">
        <ele>2037.6</ele>
        <time>2024-03-16T12:35:52Z</time>
      </trkpt>
      <trkpt lat="42.87675" lon="0.11667">
        <ele>2035.7</ele>
        <time>2024-03-16T12:35:58Z</time>
      </trkpt>
      <trkpt lat="42.87683" lon="0.11658">
        <ele>2036.5</ele>
        <time>2024-03-16T12:36:03Z</time>
      </trkpt>
      <trkpt lat="42.87688" lon="0.11658">
        <ele>2037.7</ele>
        <time>2024-03-16T12:36:09Z</time>
      </trkpt>
      <trkpt lat="42.8769" lon="0.11657">
        <ele>2038.3</ele>
        <time>2024-03-16T12:36:12Z</time>
      </trkpt>
      <trkpt lat="42.87697" lon="0.11654">
        <ele>2039.5</ele>
        <time>2024-03-16T12:36:18Z</time>
      </trkpt>
      <trkpt lat="42.87704" lon="0.11645">
        <ele>2039.9</ele>
        <time>2024-03-16T12:36:28Z</time>
      </trkpt>
      <trkpt lat="42.87709" lon="0.1164">
        <ele>2040.5</ele>
        <time>2024-03-16T12:36:34Z</time>
      </trkpt>
      <trkpt lat="42.87717" lon="0.11636">
        <ele>2041.5</ele>
        <time>2024-03-16T12:36:43Z</time>
      </trkpt>
      <trkpt lat="42.87722" lon="0.1163">
        <ele>2041</ele>
        <time>2024-03-16T12:36:50Z</time>
      </trkpt>
      <trkpt lat="42.87726" lon="0.11626">
        <ele>2040.1</ele>
        <time>2024-03-16T12:36:56Z</time>
      </trkpt>
      <trkpt lat="42.87731" lon="0.11621">
        <ele>2039.2</ele>
        <time>2024-03-16T12:37:03Z</time>
      </trkpt>
      <trkpt lat="42.87734" lon="0.11619">
        <ele>2038.9</ele>
        <time>2024-03-16T12:37:08Z</time>
      </trkpt>
      <trkpt lat="42.87737" lon="0.11617">
        <ele>2038.8</ele>
        <time>2024-03-16T12:37:14Z</time>
      </trkpt>
      <trkpt lat="42.87742" lon="0.11616">
        <ele>2039</ele>
        <time>2024-03-16T12:37:22Z</time>
      </trkpt>
      <trkpt lat="42.87744" lon="0.11615">
        <ele>2038.9</ele>
        <time>2024-03-16T12:37:30Z</time>
      </trkpt>
      <trkpt lat="42.87748" lon="0.11611">
        <ele>2038.8</ele>
        <time>2024-03-16T12:37:38Z</time>
      </trkpt>
      <trkpt lat="42.87754" lon="0.11609">
        <ele>2038.1</ele>
        <time>2024-03-16T12:37:44Z</time>
      </trkpt>
      <trkpt lat="42.87757" lon="0.11609">
        <ele>2037.7</ele>
        <time>2024-03-16T12:37:49Z</time>
      </trkpt>
      <trkpt lat="42.87761" lon="0.11615">
        <ele>2038.3</ele>
        <time>2024-03-16T12:37:55Z</time>
      </trkpt>
      <trkpt lat="42.87759" lon="0.11616">
        <ele>2038.7</ele>
        <time>2024-03-16T12:38:04Z</time>
      </trkpt>
      <trkpt lat="42.87758" lon="0.11615">
        <ele>2038.7</ele>
        <time>2024-03-16T12:38:13Z</time>
      </trkpt>
      <trkpt lat="42.87757" lon="0.11614">
        <ele>2038.6</ele>
        <time>2024-03-16T12:38:23Z</time>
      </trkpt>
      <trkpt lat="42.87756" lon="0.11614">
        <ele>2038.8</ele>
        <time>2024-03-16T12:38:32Z</time>
      </trkpt>
      <trkpt lat="42.87757" lon="0.11616">
        <ele>2039.1</ele>
        <time>2024-03-16T12:38:43Z</time>
      </trkpt>
      <trkpt lat="42.87759" lon="0.11616">
        <ele>2038.7</ele>
        <time>2024-03-16T12:38:51Z</time>
      </trkpt>
      <trkpt lat="42.8776" lon="0.11613">
        <ele>2037.9</ele>
        <time>2024-03-16T12:38:55Z</time>
      </trkpt>
      <trkpt lat="42.87764" lon="0.11606">
        <ele>2036.2</ele>
        <time>2024-03-16T12:39:05Z</time>
      </trkpt>
      <trkpt lat="42.87763" lon="0.11605">
        <ele>2036.2</ele>
        <time>2024-03-16T12:39:13Z</time>
      </trkpt>
      <trkpt lat="42.87764" lon="0.11604">
        <ele>2036</ele>
        <time>2024-03-16T12:39:22Z</time>
      </trkpt>
      <trkpt lat="42.87762" lon="0.11605">
        <ele>2036.3</ele>
        <time>2024-03-16T12:39:32Z</time>
      </trkpt>
      <trkpt lat="42.87764" lon="0.11603">
        <ele>2035.8</ele>
        <time>2024-03-16T12:39:39Z</time>
      </trkpt>
      <trkpt lat="42.87765" lon="0.11606">
        <ele>2036.1</ele>
        <time>2024-03-16T12:39:47Z</time>
      </trkpt>
      <trkpt lat="42.87765" lon="0.11602">
        <ele>2035.6</ele>
        <time>2024-03-16T12:39:54Z</time>
      </trkpt>
      <trkpt lat="42.87764" lon="0.11603">
        <ele>2035.8</ele>
        <time>2024-03-16T12:40:12Z</time>
      </trkpt>
      <trkpt lat="42.87764" lon="0.11601">
        <ele>2035.6</ele>
        <time>2024-03-16T12:40:31Z</time>
      </trkpt>
      <trkpt lat="42.87765" lon="0.11601">
        <ele>2035.3</ele>
        <time>2024-03-16T12:40:52Z</time>
      </trkpt>
      <trkpt lat="42.87764" lon="0.11601">
        <ele>2035.5</ele>
        <time>2024-03-16T12:41:09Z</time>
      </trkpt>
      <trkpt lat="42.87764" lon="0.11601">
        <ele>2035.4</ele>
        <time>2024-03-16T12:41:26Z</time>
      </trkpt>
      <trkpt lat="42.87763" lon="0.116">
        <ele>2035.6</ele>
        <time>2024-03-16T12:41:52Z</time>
      </trkpt>
      <trkpt lat="42.87763" lon="0.11599">
        <ele>2035.5</ele>
        <time>2024-03-16T12:42:08Z</time>
      </trkpt>
      <trkpt lat="42.87765" lon="0.11601">
        <ele>2035.5</ele>
        <time>2024-03-16T12:42:22Z</time>
      </trkpt>
      <trkpt lat="42.87765" lon="0.11602">
        <ele>2035.5</ele>
        <time>2024-03-16T12:42:29Z</time>
      </trkpt>
      <trkpt lat="42.87764" lon="0.11603">
        <ele>2035.8</ele>
        <time>2024-03-16T12:42:42Z</time>
      </trkpt>
      <trkpt lat="42.87763" lon="0.11606">
        <ele>2036.3</ele>
        <time>2024-03-16T12:42:51Z</time>
      </trkpt>
      <trkpt lat="42.87763" lon="0.11606">
        <ele>2036.3</ele>
        <time>2024-03-16T12:43:01Z</time>
      </trkpt>
      <trkpt lat="42.87761" lon="0.11605">
        <ele>2036.5</ele>
        <time>2024-03-16T12:43:17Z</time>
      </trkpt>
      <trkpt lat="42.87762" lon="0.11603">
        <ele>2036.1</ele>
        <time>2024-03-16T12:43:30Z</time>
      </trkpt>
      <trkpt lat="42.87761" lon="0.11604">
        <ele>2036.4</ele>
        <time>2024-03-16T12:43:42Z</time>
      </trkpt>
      <trkpt lat="42.87761" lon="0.11602">
        <ele>2036.2</ele>
        <time>2024-03-16T12:43:51Z</time>
      </trkpt>
      <trkpt lat="42.8776" lon="0.11603">
        <ele>2036.4</ele>
        <time>2024-03-16T12:43:59Z</time>
      </trkpt>
      <trkpt lat="42.87759" lon="0.11601">
        <ele>2036.2</ele>
        <time>2024-03-16T12:44:03Z</time>
      </trkpt>
      <trkpt lat="42.87757" lon="0.11585">
        <ele>2034.2</ele>
        <time>2024-03-16T12:44:13Z</time>
      </trkpt>
      <trkpt lat="42.87754" lon="0.11572">
        <ele>2033.3</ele>
        <time>2024-03-16T12:44:21Z</time>
      </trkpt>
      <trkpt lat="42.87752" lon="0.11558">
        <ele>2032.1</ele>
        <time>2024-03-16T12:44:28Z</time>
      </trkpt>
      <trkpt lat="42.8775" lon="0.11544">
        <ele>2031.1</ele>
        <time>2024-03-16T12:44:36Z</time>
      </trkpt>
      <trkpt lat="42.87747" lon="0.11525">
        <ele>2029.8</ele>
        <time>2024-03-16T12:44:46Z</time>
      </trkpt>
      <trkpt lat="42.87747" lon="0.11515">
        <ele>2029.6</ele>
        <time>2024-03-16T12:44:51Z</time>
      </trkpt>
      <trkpt lat="42.87744" lon="0.11499">
        <ele>2029.7</ele>
        <time>2024-03-16T12:45:01Z</time>
      </trkpt>
      <trkpt lat="42.87741" lon="0.11493">
        <ele>2030.5</ele>
        <time>2024-03-16T12:45:10Z</time>
      </trkpt>
      <trkpt lat="42.8774" lon="0.11484">
        <ele>2031.2</ele>
        <time>2024-03-16T12:45:18Z</time>
      </trkpt>
      <trkpt lat="42.87738" lon="0.11473">
        <ele>2032.3</ele>
        <time>2024-03-16T12:45:26Z</time>
      </trkpt>
      <trkpt lat="42.87738" lon="0.11464">
        <ele>2033</ele>
        <time>2024-03-16T12:45:35Z</time>
      </trkpt>
      <trkpt lat="42.87741" lon="0.11462">
        <ele>2033.1</ele>
        <time>2024-03-16T12:45:43Z</time>
      </trkpt>
      <trkpt lat="42.8774" lon="0.11461">
        <ele>2033.2</ele>
        <time>2024-03-16T12:45:52Z</time>
      </trkpt>
      <trkpt lat="42.87745" lon="0.11458">
        <ele>2033.5</ele>
        <time>2024-03-16T12:45:58Z</time>
      </trkpt>
      <trkpt lat="42.87751" lon="0.11444">
        <ele>2035.9</ele>
        <time>2024-03-16T12:46:07Z</time>
      </trkpt>
      <trkpt lat="42.87752" lon="0.11425">
        <ele>2036.5</ele>
        <time>2024-03-16T12:46:14Z</time>
      </trkpt>
      <trkpt lat="42.87753" lon="0.11404">
        <ele>2037.6</ele>
        <time>2024-03-16T12:46:20Z</time>
      </trkpt>
      <trkpt lat="42.87753" lon="0.11392">
        <ele>2038.2</ele>
        <time>2024-03-16T12:46:26Z</time>
      </trkpt>
      <trkpt lat="42.8775" lon="0.11383">
        <ele>2038.4</ele>
        <time>2024-03-16T12:46:33Z</time>
      </trkpt>
      <trkpt lat="42.87747" lon="0.11373">
        <ele>2038.4</ele>
        <time>2024-03-16T12:46:40Z</time>
      </trkpt>
      <trkpt lat="42.87743" lon="0.11367">
        <ele>2038.1</ele>
        <time>2024-03-16T12:46:47Z</time>
      </trkpt>
      <trkpt lat="42.8774" lon="0.11359">
        <ele>2038.3</ele>
        <time>2024-03-16T12:46:55Z</time>
      </trkpt>
      <trkpt lat="42.87737" lon="0.11351">
        <ele>2038.9</ele>
        <time>2024-03-16T12:47:02Z</time>
      </trkpt>
      <trkpt lat="42.87732" lon="0.11341">
        <ele>2038.9</ele>
        <time>2024-03-16T12:47:10Z</time>
      </trkpt>
      <trkpt lat="42.87729" lon="0.11335">
        <ele>2038.3</ele>
        <time>2024-03-16T12:47:17Z</time>
      </trkpt>
      <trkpt lat="42.87727" lon="0.11333">
        <ele>2038</ele>
        <time>2024-03-16T12:47:18Z</time>
      </trkpt>
      <trkpt lat="42.87726" lon="0.11325">
        <ele>2038.4</ele>
        <time>2024-03-16T12:47:26Z</time>
      </trkpt>
      <trkpt lat="42.87725" lon="0.11322">
        <ele>2038.4</ele>
        <time>2024-03-16T12:47:28Z</time>
      </trkpt>
      <trkpt lat="42.87724" lon="0.11321">
        <ele>2038.4</ele>
        <time>2024-03-16T12:47:29Z</time>
      </trkpt>
      <trkpt lat="42.87724" lon="0.11319">
        <ele>2038.3</ele>
        <time>2024-03-16T12:47:30Z</time>
      </trkpt>
      <trkpt lat="42.8772" lon="0.11309">
        <ele>2038</ele>
        <time>2024-03-16T12:47:37Z</time>
      </trkpt>
      <trkpt lat="42.87716" lon="0.11302">
        <ele>2037.8</ele>
        <time>2024-03-16T12:47:41Z</time>
      </trkpt>
      <trkpt lat="42.87716" lon="0.11302">
        <ele>2037.8</ele>
        <time>2024-03-16T12:47:42Z</time>
      </trkpt>
      <trkpt lat="42.87715" lon="0.11301">
        <ele>2037.8</ele>
        <time>2024-03-16T12:47:43Z</time>
      </trkpt>
      <trkpt lat="42.87714" lon="0.11299">
        <ele>2037.8</ele>
        <time>2024-03-16T12:47:44Z</time>
      </trkpt>
      <trkpt lat="42.87713" lon="0.11298">
        <ele>2037.7</ele>
        <time>2024-03-16T12:47:45Z</time>
      </trkpt>
      <trkpt lat="42.87709" lon="0.11288">
        <ele>2037.8</ele>
        <time>2024-03-16T12:47:53Z</time>
      </trkpt>
      <trkpt lat="42.87704" lon="0.11276">
        <ele>2037.8</ele>
        <time>2024-03-16T12:48:00Z</time>
      </trkpt>
      <trkpt lat="42.87701" lon="0.11263">
        <ele>2037.6</ele>
        <time>2024-03-16T12:48:07Z</time>
      </trkpt>
      <trkpt lat="42.87703" lon="0.11257">
        <ele>2038.1</ele>
        <time>2024-03-16T12:48:14Z</time>
      </trkpt>
      <trkpt lat="42.87703" lon="0.11256">
        <ele>2038.2</ele>
        <time>2024-03-16T12:48:21Z</time>
      </trkpt>
      <trkpt lat="42.87702" lon="0.11255">
        <ele>2038.1</ele>
        <time>2024-03-16T12:48:33Z</time>
      </trkpt>
      <trkpt lat="42.87702" lon="0.11256">
        <ele>2038.1</ele>
        <time>2024-03-16T12:48:43Z</time>
      </trkpt>
      <trkpt lat="42.87703" lon="0.11258">
        <ele>2038.1</ele>
        <time>2024-03-16T12:48:50Z</time>
      </trkpt>
      <trkpt lat="42.87705" lon="0.11257">
        <ele>2038.3</ele>
        <time>2024-03-16T12:49:00Z</time>
      </trkpt>
      <trkpt lat="42.87701" lon="0.11255">
        <ele>2038</ele>
        <time>2024-03-16T12:49:13Z</time>
      </trkpt>
      <trkpt lat="42.87702" lon="0.11254">
        <ele>2038.1</ele>
        <time>2024-03-16T12:49:23Z</time>
      </trkpt>
      <trkpt lat="42.87701" lon="0.11254">
        <ele>2038</ele>
        <time>2024-03-16T12:49:32Z</time>
      </trkpt>
      <trkpt lat="42.87702" lon="0.11253">
        <ele>2038.2</ele>
        <time>2024-03-16T12:49:46Z</time>
      </trkpt>
      <trkpt lat="42.87703" lon="0.11255">
        <ele>2038.1</ele>
        <time>2024-03-16T12:49:58Z</time>
      </trkpt>
      <trkpt lat="42.87702" lon="0.11254">
        <ele>2038.1</ele>
        <time>2024-03-16T12:50:08Z</time>
      </trkpt>
      <trkpt lat="42.87702" lon="0.11253">
        <ele>2038.2</ele>
        <time>2024-03-16T12:50:16Z</time>
      </trkpt>
      <trkpt lat="42.87702" lon="0.11254">
        <ele>2038.1</ele>
        <time>2024-03-16T12:50:24Z</time>
      </trkpt>
      <trkpt lat="42.87702" lon="0.11254">
        <ele>2038.1</ele>
        <time>2024-03-16T12:50:34Z</time>
      </trkpt>
      <trkpt lat="42.87701" lon="0.11256">
        <ele>2038</ele>
        <time>2024-03-16T12:50:49Z</time>
      </trkpt>
      <trkpt lat="42.87704" lon="0.11252">
        <ele>2038.3</ele>
        <time>2024-03-16T12:50:55Z</time>
      </trkpt>
      <trkpt lat="42.87705" lon="0.11249">
        <ele>2038.3</ele>
        <time>2024-03-16T12:50:57Z</time>
      </trkpt>
      <trkpt lat="42.87708" lon="0.11231">
        <ele>2036.9</ele>
        <time>2024-03-16T12:51:03Z</time>
      </trkpt>
      <trkpt lat="42.87714" lon="0.11223">
        <ele>2034.5</ele>
        <time>2024-03-16T12:51:06Z</time>
      </trkpt>
      <trkpt lat="42.87717" lon="0.11223">
        <ele>2033.5</ele>
        <time>2024-03-16T12:51:07Z</time>
      </trkpt>
      <trkpt lat="42.8772" lon="0.11222">
        <ele>2032.6</ele>
        <time>2024-03-16T12:51:08Z</time>
      </trkpt>
      <trkpt lat="42.8772" lon="0.1122">
        <ele>2032.6</ele>
        <time>2024-03-16T12:51:09Z</time>
      </trkpt>
      <trkpt lat="42.87721" lon="0.11218">
        <ele>2032.5</ele>
        <time>2024-03-16T12:51:10Z</time>
      </trkpt>
      <trkpt lat="42.87722" lon="0.11216">
        <ele>2032.2</ele>
        <time>2024-03-16T12:51:11Z</time>
      </trkpt>
      <trkpt lat="42.87728" lon="0.11205">
        <ele>2029.7</ele>
        <time>2024-03-16T12:51:15Z</time>
      </trkpt>
      <trkpt lat="42.87734" lon="0.11193">
        <ele>2027.3</ele>
        <time>2024-03-16T12:51:18Z</time>
      </trkpt>
      <trkpt lat="42.87734" lon="0.1119">
        <ele>2027.4</ele>
        <time>2024-03-16T12:51:19Z</time>
      </trkpt>
      <trkpt lat="42.87736" lon="0.11186">
        <ele>2027</ele>
        <time>2024-03-16T12:51:22Z</time>
      </trkpt>
      <trkpt lat="42.87742" lon="0.11177">
        <ele>2024.5</ele>
        <time>2024-03-16T12:51:27Z</time>
      </trkpt>
      <trkpt lat="42.87745" lon="0.11168">
        <ele>2023</ele>
        <time>2024-03-16T12:51:31Z</time>
      </trkpt>
      <trkpt lat="42.87748" lon="0.11158">
        <ele>2020.9</ele>
        <time>2024-03-16T12:51:35Z</time>
      </trkpt>
      <trkpt lat="42.87748" lon="0.11153">
        <ele>2020.7</ele>
        <time>2024-03-16T12:51:42Z</time>
      </trkpt>
      <trkpt lat="42.8775" lon="0.11151">
        <ele>2019.5</ele>
        <time>2024-03-16T12:51:51Z</time>
      </trkpt>
      <trkpt lat="42.87751" lon="0.11148">
        <ele>2018.8</ele>
        <time>2024-03-16T12:52:01Z</time>
      </trkpt>
      <trkpt lat="42.87751" lon="0.11145">
        <ele>2018.4</ele>
        <time>2024-03-16T12:52:09Z</time>
      </trkpt>
      <trkpt lat="42.87757" lon="0.11151">
        <ele>2013.9</ele>
        <time>2024-03-16T12:52:14Z</time>
      </trkpt>
      <trkpt lat="42.87758" lon="0.11148">
        <ele>2013.2</ele>
        <time>2024-03-16T12:52:17Z</time>
      </trkpt>
      <trkpt lat="42.87758" lon="0.11147">
        <ele>2013.6</ele>
        <time>2024-03-16T12:52:18Z</time>
      </trkpt>
      <trkpt lat="42.87757" lon="0.11147">
        <ele>2013.8</ele>
        <time>2024-03-16T12:52:19Z</time>
      </trkpt>
      <trkpt lat="42.87759" lon="0.11138">
        <ele>2012.1</ele>
        <time>2024-03-16T12:52:23Z</time>
      </trkpt>
      <trkpt lat="42.87772" lon="0.11124">
        <ele>2004.8</ele>
        <time>2024-03-16T12:52:31Z</time>
      </trkpt>
      <trkpt lat="42.87778" lon="0.11112">
        <ele>2002</ele>
        <time>2024-03-16T12:52:36Z</time>
      </trkpt>
      <trkpt lat="42.87785" lon="0.11096">
        <ele>2000.3</ele>
        <time>2024-03-16T12:52:40Z</time>
      </trkpt>
      <trkpt lat="42.87788" lon="0.11093">
        <ele>1999.1</ele>
        <time>2024-03-16T12:52:41Z</time>
      </trkpt>
      <trkpt lat="42.87793" lon="0.11089">
        <ele>1997.2</ele>
        <time>2024-03-16T12:52:43Z</time>
      </trkpt>
      <trkpt lat="42.87794" lon="0.11089">
        <ele>1996.5</ele>
        <time>2024-03-16T12:52:45Z</time>
      </trkpt>
      <trkpt lat="42.87794" lon="0.11088">
        <ele>1996.8</ele>
        <time>2024-03-16T12:52:48Z</time>
      </trkpt>
      <trkpt lat="42.87795" lon="0.11087">
        <ele>1996.3</ele>
        <time>2024-03-16T12:52:49Z</time>
      </trkpt>
      <trkpt lat="42.87797" lon="0.11085">
        <ele>1995.9</ele>
        <time>2024-03-16T12:52:50Z</time>
      </trkpt>
      <trkpt lat="42.87798" lon="0.11083">
        <ele>1995.5</ele>
        <time>2024-03-16T12:52:51Z</time>
      </trkpt>
      <trkpt lat="42.87801" lon="0.11083">
        <ele>1994</ele>
        <time>2024-03-16T12:52:52Z</time>
      </trkpt>
      <trkpt lat="42.87803" lon="0.11085">
        <ele>1991.8</ele>
        <time>2024-03-16T12:52:53Z</time>
      </trkpt>
      <trkpt lat="42.87805" lon="0.11088">
        <ele>1990.1</ele>
        <time>2024-03-16T12:52:54Z</time>
      </trkpt>
      <trkpt lat="42.87807" lon="0.11089">
        <ele>1988.6</ele>
        <time>2024-03-16T12:52:55Z</time>
      </trkpt>
      <trkpt lat="42.87809" lon="0.11088">
        <ele>1987.5</ele>
        <time>2024-03-16T12:52:56Z</time>
      </trkpt>
      <trkpt lat="42.87812" lon="0.11085">
        <ele>1986.9</ele>
        <time>2024-03-16T12:52:57Z</time>
      </trkpt>
      <trkpt lat="42.87813" lon="0.11084">
        <ele>1986.3</ele>
        <time>2024-03-16T12:52:58Z</time>
      </trkpt>
      <trkpt lat="42.87816" lon="0.11083">
        <ele>1985.2</ele>
        <time>2024-03-16T12:52:59Z</time>
      </trkpt>
      <trkpt lat="42.87818" lon="0.11085">
        <ele>1983.4</ele>
        <time>2024-03-16T12:53:00Z</time>
      </trkpt>
      <trkpt lat="42.87821" lon="0.11087">
        <ele>1980.9</ele>
        <time>2024-03-16T12:53:01Z</time>
      </trkpt>
      <trkpt lat="42.87826" lon="0.11086">
        <ele>1978.7</ele>
        <time>2024-03-16T12:53:02Z</time>
      </trkpt>
      <trkpt lat="42.87829" lon="0.11083">
        <ele>1977.5</ele>
        <time>2024-03-16T12:53:03Z</time>
      </trkpt>
      <trkpt lat="42.87832" lon="0.1108">
        <ele>1976.8</ele>
        <time>2024-03-16T12:53:04Z</time>
      </trkpt>
      <trkpt lat="42.87834" lon="0.11078">
        <ele>1976.3</ele>
        <time>2024-03-16T12:53:05Z</time>
      </trkpt>
      <trkpt lat="42.87836" lon="0.11076">
        <ele>1975.6</ele>
        <time>2024-03-16T12:53:06Z</time>
      </trkpt>
      <trkpt lat="42.87838" lon="0.11076">
        <ele>1974.2</ele>
        <time>2024-03-16T12:53:07Z</time>
      </trkpt>
      <trkpt lat="42.8784" lon="0.11079">
        <ele>1972.4</ele>
        <time>2024-03-16T12:53:09Z</time>
      </trkpt>
      <trkpt lat="42.8784" lon="0.11079">
        <ele>1972.1</ele>
        <time>2024-03-16T12:53:18Z</time>
      </trkpt>
      <trkpt lat="42.8784" lon="0.11091">
        <ele>1968.8</ele>
        <time>2024-03-16T12:53:25Z</time>
      </trkpt>
      <trkpt lat="42.87838" lon="0.11094">
        <ele>1969</ele>
        <time>2024-03-16T12:53:30Z</time>
      </trkpt>
      <trkpt lat="42.87839" lon="0.11092">
        <ele>1968.7</ele>
        <time>2024-03-16T12:53:41Z</time>
      </trkpt>
      <trkpt lat="42.87842" lon="0.11094">
        <ele>1966.7</ele>
        <time>2024-03-16T12:53:43Z</time>
      </trkpt>
      <trkpt lat="42.87844" lon="0.11093">
        <ele>1965.5</ele>
        <time>2024-03-16T12:53:44Z</time>
      </trkpt>
      <trkpt lat="42.8785" lon="0.1109">
        <ele>1963.2</ele>
        <time>2024-03-16T12:53:46Z</time>
      </trkpt>
      <trkpt lat="42.87859" lon="0.111">
        <ele>1954.7</ele>
        <time>2024-03-16T12:53:49Z</time>
      </trkpt>
      <trkpt lat="42.87863" lon="0.11105">
        <ele>1950.7</ele>
        <time>2024-03-16T12:53:51Z</time>
      </trkpt>
      <trkpt lat="42.87872" lon="0.111">
        <ele>1946.7</ele>
        <time>2024-03-16T12:53:54Z</time>
      </trkpt>
      <trkpt lat="42.87876" lon="0.11105">
        <ele>1942.3</ele>
        <time>2024-03-16T12:53:56Z</time>
      </trkpt>
      <trkpt lat="42.8788" lon="0.11117">
        <ele>1937.1</ele>
        <time>2024-03-16T12:53:59Z</time>
      </trkpt>
      <trkpt lat="42.87885" lon="0.1111">
        <ele>1935.4</ele>
        <time>2024-03-16T12:54:01Z</time>
      </trkpt>
      <trkpt lat="42.87892" lon="0.11101">
        <ele>1933.9</ele>
        <time>2024-03-16T12:54:03Z</time>
      </trkpt>
      <trkpt lat="42.87895" lon="0.11097">
        <ele>1933.2</ele>
        <time>2024-03-16T12:54:04Z</time>
      </trkpt>
      <trkpt lat="42.87898" lon="0.1109">
        <ele>1932.9</ele>
        <time>2024-03-16T12:54:06Z</time>
      </trkpt>
      <trkpt lat="42.87904" lon="0.11092">
        <ele>1928.5</ele>
        <time>2024-03-16T12:54:08Z</time>
      </trkpt>
      <trkpt lat="42.87906" lon="0.11096">
        <ele>1926.6</ele>
        <time>2024-03-16T12:54:09Z</time>
      </trkpt>
      <trkpt lat="42.87906" lon="0.11099">
        <ele>1925.9</ele>
        <time>2024-03-16T12:54:13Z</time>
      </trkpt>
      <trkpt lat="42.87904" lon="0.11102">
        <ele>1926.4</ele>
        <time>2024-03-16T12:54:17Z</time>
      </trkpt>
      <trkpt lat="42.87912" lon="0.11102">
        <ele>1922</ele>
        <time>2024-03-16T12:54:19Z</time>
      </trkpt>
      <trkpt lat="42.87917" lon="0.11098">
        <ele>1919.9</ele>
        <time>2024-03-16T12:54:20Z</time>
      </trkpt>
      <trkpt lat="42.8792" lon="0.11093">
        <ele>1919</ele>
        <time>2024-03-16T12:54:21Z</time>
      </trkpt>
      <trkpt lat="42.87923" lon="0.11089">
        <ele>1918.6</ele>
        <time>2024-03-16T12:54:22Z</time>
      </trkpt>
      <trkpt lat="42.87925" lon="0.11086">
        <ele>1918.2</ele>
        <time>2024-03-16T12:54:25Z</time>
      </trkpt>
      <trkpt lat="42.87926" lon="0.11085">
        <ele>1918</ele>
        <time>2024-03-16T12:54:26Z</time>
      </trkpt>
      <trkpt lat="42.8793" lon="0.11084">
        <ele>1915.7</ele>
        <time>2024-03-16T12:54:28Z</time>
      </trkpt>
      <trkpt lat="42.87933" lon="0.11088">
        <ele>1913.6</ele>
        <time>2024-03-16T12:54:29Z</time>
      </trkpt>
      <trkpt lat="42.87935" lon="0.11093">
        <ele>1911.6</ele>
        <time>2024-03-16T12:54:30Z</time>
      </trkpt>
      <trkpt lat="42.87938" lon="0.11097">
        <ele>1909.7</ele>
        <time>2024-03-16T12:54:31Z</time>
      </trkpt>
      <trkpt lat="42.87941" lon="0.11099">
        <ele>1907.8</ele>
        <time>2024-03-16T12:54:32Z</time>
      </trkpt>
      <trkpt lat="42.87945" lon="0.11102">
        <ele>1905.8</ele>
        <time>2024-03-16T12:54:33Z</time>
      </trkpt>
      <trkpt lat="42.87948" lon="0.11106">
        <ele>1904.1</ele>
        <time>2024-03-16T12:54:34Z</time>
      </trkpt>
      <trkpt lat="42.8795" lon="0.11111">
        <ele>1902.9</ele>
        <time>2024-03-16T12:54:35Z</time>
      </trkpt>
      <trkpt lat="42.87951" lon="0.11116">
        <ele>1901.7</ele>
        <time>2024-03-16T12:54:36Z</time>
      </trkpt>
      <trkpt lat="42.87953" lon="0.1112">
        <ele>1900.8</ele>
        <time>2024-03-16T12:54:37Z</time>
      </trkpt>
      <trkpt lat="42.87955" lon="0.11121">
        <ele>1899.8</ele>
        <time>2024-03-16T12:54:38Z</time>
      </trkpt>
      <trkpt lat="42.87957" lon="0.11125">
        <ele>1898.6</ele>
        <time>2024-03-16T12:54:39Z</time>
      </trkpt>
      <trkpt lat="42.87959" lon="0.11129">
        <ele>1897.7</ele>
        <time>2024-03-16T12:54:40Z</time>
      </trkpt>
      <trkpt lat="42.87958" lon="0.11131">
        <ele>1897.8</ele>
        <time>2024-03-16T12:54:41Z</time>
      </trkpt>
      <trkpt lat="42.87957" lon="0.11131">
        <ele>1898.2</ele>
        <time>2024-03-16T12:54:47Z</time>
      </trkpt>
      <trkpt lat="42.87954" lon="0.1113">
        <ele>1899.1</ele>
        <time>2024-03-16T12:54:56Z</time>
      </trkpt>
      <trkpt lat="42.87951" lon="0.11131">
        <ele>1900</ele>
        <time>2024-03-16T12:55:06Z</time>
      </trkpt>
      <trkpt lat="42.87951" lon="0.11133">
        <ele>1899.9</ele>
        <time>2024-03-16T12:55:18Z</time>
      </trkpt>
      <trkpt lat="42.87954" lon="0.11131">
        <ele>1899.1</ele>
        <time>2024-03-16T12:55:31Z</time>
      </trkpt>
      <trkpt lat="42.87953" lon="0.11131">
        <ele>1899.3</ele>
        <time>2024-03-16T12:55:42Z</time>
      </trkpt>
      <trkpt lat="42.87953" lon="0.11128">
        <ele>1899.8</ele>
        <time>2024-03-16T12:55:54Z</time>
      </trkpt>
      <trkpt lat="42.87955" lon="0.11131">
        <ele>1898.8</ele>
        <time>2024-03-16T12:55:59Z</time>
      </trkpt>
      <trkpt lat="42.87955" lon="0.11134">
        <ele>1898.4</ele>
        <time>2024-03-16T12:56:00Z</time>
      </trkpt>
      <trkpt lat="42.87957" lon="0.11134">
        <ele>1897.7</ele>
        <time>2024-03-16T12:56:01Z</time>
      </trkpt>
      <trkpt lat="42.87961" lon="0.11134">
        <ele>1896.8</ele>
        <time>2024-03-16T12:56:04Z</time>
      </trkpt>
      <trkpt lat="42.8796" lon="0.11133">
        <ele>1896.9</ele>
        <time>2024-03-16T12:56:12Z</time>
      </trkpt>
      <trkpt lat="42.87961" lon="0.11132">
        <ele>1896.7</ele>
        <time>2024-03-16T12:56:17Z</time>
      </trkpt>
      <trkpt lat="42.87968" lon="0.11129">
        <ele>1894.7</ele>
        <time>2024-03-16T12:56:21Z</time>
      </trkpt>
      <trkpt lat="42.87971" lon="0.11132">
        <ele>1893.7</ele>
        <time>2024-03-16T12:56:22Z</time>
      </trkpt>
      <trkpt lat="42.87973" lon="0.11134">
        <ele>1892.7</ele>
        <time>2024-03-16T12:56:23Z</time>
      </trkpt>
      <trkpt lat="42.87976" lon="0.11134">
        <ele>1891.3</ele>
        <time>2024-03-16T12:56:24Z</time>
      </trkpt>
      <trkpt lat="42.87978" lon="0.11133">
        <ele>1890</ele>
        <time>2024-03-16T12:56:25Z</time>
      </trkpt>
      <trkpt lat="42.8798" lon="0.1113">
        <ele>1889.2</ele>
        <time>2024-03-16T12:56:26Z</time>
      </trkpt>
      <trkpt lat="42.87982" lon="0.11129">
        <ele>1888.5</ele>
        <time>2024-03-16T12:56:27Z</time>
      </trkpt>
      <trkpt lat="42.87982" lon="0.11129">
        <ele>1888.1</ele>
        <time>2024-03-16T12:56:29Z</time>
      </trkpt>
      <trkpt lat="42.87986" lon="0.11127">
        <ele>1886.3</ele>
        <time>2024-03-16T12:56:37Z</time>
      </trkpt>
      <trkpt lat="42.87986" lon="0.11126">
        <ele>1886.2</ele>
        <time>2024-03-16T12:56:38Z</time>
      </trkpt>
      <trkpt lat="42.87988" lon="0.11124">
        <ele>1885.3</ele>
        <time>2024-03-16T12:56:39Z</time>
      </trkpt>
      <trkpt lat="42.87991" lon="0.11127">
        <ele>1883.7</ele>
        <time>2024-03-16T12:56:40Z</time>
      </trkpt>
      <trkpt lat="42.87993" lon="0.11128">
        <ele>1882.6</ele>
        <time>2024-03-16T12:56:41Z</time>
      </trkpt>
      <trkpt lat="42.87994" lon="0.1113">
        <ele>1882.3</ele>
        <time>2024-03-16T12:56:47Z</time>
      </trkpt>
      <trkpt lat="42.87992" lon="0.11132">
        <ele>1882.9</ele>
        <time>2024-03-16T12:56:55Z</time>
      </trkpt>
      <trkpt lat="42.87993" lon="0.1114">
        <ele>1882.4</ele>
        <time>2024-03-16T12:56:57Z</time>
      </trkpt>
      <trkpt lat="42.87993" lon="0.11153">
        <ele>1880.6</ele>
        <time>2024-03-16T12:57:00Z</time>
      </trkpt>
      <trkpt lat="42.87995" lon="0.11156">
        <ele>1879.3</ele>
        <time>2024-03-16T12:57:01Z</time>
      </trkpt>
      <trkpt lat="42.88002" lon="0.11152">
        <ele>1875.7</ele>
        <time>2024-03-16T12:57:03Z</time>
      </trkpt>
      <trkpt lat="42.88012" lon="0.11156">
        <ele>1869.3</ele>
        <time>2024-03-16T12:57:06Z</time>
      </trkpt>
      <trkpt lat="42.88015" lon="0.1116">
        <ele>1867.2</ele>
        <time>2024-03-16T12:57:07Z</time>
      </trkpt>
      <trkpt lat="42.88017" lon="0.11167">
        <ele>1864.8</ele>
        <time>2024-03-16T12:57:09Z</time>
      </trkpt>
      <trkpt lat="42.88025" lon="0.11168">
        <ele>1859.2</ele>
        <time>2024-03-16T12:57:12Z</time>
      </trkpt>
      <trkpt lat="42.88029" lon="0.11178">
        <ele>1854.3</ele>
        <time>2024-03-16T12:57:15Z</time>
      </trkpt>
      <trkpt lat="42.88029" lon="0.11188">
        <ele>1852.2</ele>
        <time>2024-03-16T12:57:19Z</time>
      </trkpt>
      <trkpt lat="42.88028" lon="0.11189">
        <ele>1851.9</ele>
        <time>2024-03-16T12:57:20Z</time>
      </trkpt>
      <trkpt lat="42.8803" lon="0.11189">
        <ele>1851</ele>
        <time>2024-03-16T12:57:23Z</time>
      </trkpt>
      <trkpt lat="42.88029" lon="0.11188">
        <ele>1851.5</ele>
        <time>2024-03-16T12:57:24Z</time>
      </trkpt>
      <trkpt lat="42.88029" lon="0.11189">
        <ele>1851.4</ele>
        <time>2024-03-16T12:57:30Z</time>
      </trkpt>
      <trkpt lat="42.88033" lon="0.11182">
        <ele>1850.6</ele>
        <time>2024-03-16T12:57:37Z</time>
      </trkpt>
      <trkpt lat="42.8804" lon="0.11175">
        <ele>1847.4</ele>
        <time>2024-03-16T12:57:41Z</time>
      </trkpt>
      <trkpt lat="42.88044" lon="0.11169">
        <ele>1846</ele>
        <time>2024-03-16T12:57:43Z</time>
      </trkpt>
      <trkpt lat="42.88056" lon="0.11153">
        <ele>1841.9</ele>
        <time>2024-03-16T12:57:46Z</time>
      </trkpt>
      <trkpt lat="42.88073" lon="0.11134">
        <ele>1839.8</ele>
        <time>2024-03-16T12:57:49Z</time>
      </trkpt>
      <trkpt lat="42.88079" lon="0.11131">
        <ele>1838.4</ele>
        <time>2024-03-16T12:57:51Z</time>
      </trkpt>
      <trkpt lat="42.88093" lon="0.11123">
        <ele>1835</ele>
        <time>2024-03-16T12:57:55Z</time>
      </trkpt>
      <trkpt lat="42.88111" lon="0.11109">
        <ele>1831.1</ele>
        <time>2024-03-16T12:58:00Z</time>
      </trkpt>
      <trkpt lat="42.88118" lon="0.11106">
        <ele>1828.4</ele>
        <time>2024-03-16T12:58:02Z</time>
      </trkpt>
      <trkpt lat="42.88123" lon="0.11113">
        <ele>1824.5</ele>
        <time>2024-03-16T12:58:04Z</time>
      </trkpt>
      <trkpt lat="42.88125" lon="0.11115">
        <ele>1822.7</ele>
        <time>2024-03-16T12:58:08Z</time>
      </trkpt>
      <trkpt lat="42.88126" lon="0.11116">
        <ele>1822.3</ele>
        <time>2024-03-16T12:58:16Z</time>
      </trkpt>
      <trkpt lat="42.88127" lon="0.11115">
        <ele>1822</ele>
        <time>2024-03-16T12:58:20Z</time>
      </trkpt>
      <trkpt lat="42.88136" lon="0.11102">
        <ele>1820</ele>
        <time>2024-03-16T12:58:26Z</time>
      </trkpt>
      <trkpt lat="42.88146" lon="0.11081">
        <ele>1817.7</ele>
        <time>2024-03-16T12:58:30Z</time>
      </trkpt>
      <trkpt lat="42.88155" lon="0.11074">
        <ele>1814.3</ele>
        <time>2024-03-16T12:58:34Z</time>
      </trkpt>
      <trkpt lat="42.88161" lon="0.11083">
        <ele>1809.8</ele>
        <time>2024-03-16T12:58:36Z</time>
      </trkpt>
      <trkpt lat="42.88172" lon="0.11092">
        <ele>1802.8</ele>
        <time>2024-03-16T12:58:40Z</time>
      </trkpt>
      <trkpt lat="42.88174" lon="0.11096">
        <ele>1800.7</ele>
        <time>2024-03-16T12:58:41Z</time>
      </trkpt>
      <trkpt lat="42.88176" lon="0.11099">
        <ele>1799.5</ele>
        <time>2024-03-16T12:58:42Z</time>
      </trkpt>
      <trkpt lat="42.88174" lon="0.11102">
        <ele>1799.8</ele>
        <time>2024-03-16T12:58:43Z</time>
      </trkpt>
      <trkpt lat="42.88169" lon="0.11101">
        <ele>1802.6</ele>
        <time>2024-03-16T12:58:48Z</time>
      </trkpt>
      <trkpt lat="42.88169" lon="0.11106">
        <ele>1801.4</ele>
        <time>2024-03-16T12:58:56Z</time>
      </trkpt>
      <trkpt lat="42.88169" lon="0.11109">
        <ele>1801.1</ele>
        <time>2024-03-16T12:58:57Z</time>
      </trkpt>
      <trkpt lat="42.88169" lon="0.11114">
        <ele>1799.9</ele>
        <time>2024-03-16T12:58:59Z</time>
      </trkpt>
      <trkpt lat="42.88171" lon="0.11116">
        <ele>1798.4</ele>
        <time>2024-03-16T12:59:00Z</time>
      </trkpt>
      <trkpt lat="42.88178" lon="0.11113">
        <ele>1795.7</ele>
        <time>2024-03-16T12:59:02Z</time>
      </trkpt>
      <trkpt lat="42.88187" lon="0.11111">
        <ele>1791.8</ele>
        <time>2024-03-16T12:59:06Z</time>
      </trkpt>
      <trkpt lat="42.88188" lon="0.11114">
        <ele>1790.4</ele>
        <time>2024-03-16T12:59:07Z</time>
      </trkpt>
      <trkpt lat="42.88188" lon="0.11118">
        <ele>1789.5</ele>
        <time>2024-03-16T12:59:08Z</time>
      </trkpt>
      <trkpt lat="42.88188" lon="0.11122">
        <ele>1788.8</ele>
        <time>2024-03-16T12:59:09Z</time>
      </trkpt>
      <trkpt lat="42.88188" lon="0.11125">
        <ele>1788.1</ele>
        <time>2024-03-16T12:59:10Z</time>
      </trkpt>
      <trkpt lat="42.88189" lon="0.11127">
        <ele>1787.2</ele>
        <time>2024-03-16T12:59:11Z</time>
      </trkpt>
      <trkpt lat="42.88194" lon="0.11127">
        <ele>1784.8</ele>
        <time>2024-03-16T12:59:13Z</time>
      </trkpt>
      <trkpt lat="42.88196" lon="0.1113">
        <ele>1783.1</ele>
        <time>2024-03-16T12:59:14Z</time>
      </trkpt>
      <trkpt lat="42.88198" lon="0.11135">
        <ele>1781.4</ele>
        <time>2024-03-16T12:59:15Z</time>
      </trkpt>
      <trkpt lat="42.88197" lon="0.11139">
        <ele>1780.5</ele>
        <time>2024-03-16T12:59:16Z</time>
      </trkpt>
      <trkpt lat="42.88196" lon="0.11144">
        <ele>1780.2</ele>
        <time>2024-03-16T12:59:17Z</time>
      </trkpt>
      <trkpt lat="42.88194" lon="0.11159">
        <ele>1777.9</ele>
        <time>2024-03-16T12:59:20Z</time>
      </trkpt>
      <trkpt lat="42.8819" lon="0.11169">
        <ele>1777.3</ele>
        <time>2024-03-16T12:59:22Z</time>
      </trkpt>
      <trkpt lat="42.88184" lon="0.11182">
        <ele>1777.9</ele>
        <time>2024-03-16T12:59:27Z</time>
      </trkpt>
      <trkpt lat="42.88182" lon="0.11184">
        <ele>1778.4</ele>
        <time>2024-03-16T12:59:33Z</time>
      </trkpt>
      <trkpt lat="42.88181" lon="0.11188">
        <ele>1778.3</ele>
        <time>2024-03-16T12:59:36Z</time>
      </trkpt>
      <trkpt lat="42.8818" lon="0.1119">
        <ele>1778.1</ele>
        <time>2024-03-16T12:59:38Z</time>
      </trkpt>
      <trkpt lat="42.88181" lon="0.11197">
        <ele>1777.2</ele>
        <time>2024-03-16T12:59:48Z</time>
      </trkpt>
      <trkpt lat="42.88181" lon="0.11201">
        <ele>1777.3</ele>
        <time>2024-03-16T12:59:55Z</time>
      </trkpt>
      <trkpt lat="42.88183" lon="0.11204">
        <ele>1776.5</ele>
        <time>2024-03-16T13:00:05Z</time>
      </trkpt>
      <trkpt lat="42.88184" lon="0.11202">
        <ele>1776.1</ele>
        <time>2024-03-16T13:00:13Z</time>
      </trkpt>
      <trkpt lat="42.88185" lon="0.11199">
        <ele>1775.7</ele>
        <time>2024-03-16T13:00:23Z</time>
      </trkpt>
      <trkpt lat="42.88188" lon="0.11205">
        <ele>1775</ele>
        <time>2024-03-16T13:00:31Z</time>
      </trkpt>
      <trkpt lat="42.88189" lon="0.11208">
        <ele>1774.7</ele>
        <time>2024-03-16T13:00:32Z</time>
      </trkpt>
      <trkpt lat="42.8819" lon="0.1121">
        <ele>1774.6</ele>
        <time>2024-03-16T13:00:33Z</time>
      </trkpt>
      <trkpt lat="42.88193" lon="0.11212">
        <ele>1773.8</ele>
        <time>2024-03-16T13:00:35Z</time>
      </trkpt>
      <trkpt lat="42.88199" lon="0.11214">
        <ele>1772</ele>
        <time>2024-03-16T13:00:39Z</time>
      </trkpt>
      <trkpt lat="42.88212" lon="0.1121">
        <ele>1768</ele>
        <time>2024-03-16T13:00:43Z</time>
      </trkpt>
      <trkpt lat="42.88216" lon="0.1121">
        <ele>1766.9</ele>
        <time>2024-03-16T13:00:44Z</time>
      </trkpt>
      <trkpt lat="42.8822" lon="0.11211">
        <ele>1765.8</ele>
        <time>2024-03-16T13:00:45Z</time>
      </trkpt>
      <trkpt lat="42.88228" lon="0.1121">
        <ele>1763.9</ele>
        <time>2024-03-16T13:00:47Z</time>
      </trkpt>
      <trkpt lat="42.88231" lon="0.1121">
        <ele>1763.2</ele>
        <time>2024-03-16T13:00:48Z</time>
      </trkpt>
      <trkpt lat="42.88236" lon="0.11209">
        <ele>1762.2</ele>
        <time>2024-03-16T13:00:49Z</time>
      </trkpt>
      <trkpt lat="42.88249" lon="0.11206">
        <ele>1759</ele>
        <time>2024-03-16T13:00:52Z</time>
      </trkpt>
      <trkpt lat="42.88262" lon="0.11209">
        <ele>1757</ele>
        <time>2024-03-16T13:00:54Z</time>
      </trkpt>
      <trkpt lat="42.88281" lon="0.11224">
        <ele>1754.7</ele>
        <time>2024-03-16T13:01:00Z</time>
      </trkpt>
      <trkpt lat="42.88282" lon="0.11227">
        <ele>1754.6</ele>
        <time>2024-03-16T13:01:01Z</time>
      </trkpt>
      <trkpt lat="42.88284" lon="0.1123">
        <ele>1754.4</ele>
        <time>2024-03-16T13:01:02Z</time>
      </trkpt>
      <trkpt lat="42.88288" lon="0.11232">
        <ele>1754</ele>
        <time>2024-03-16T13:01:04Z</time>
      </trkpt>
      <trkpt lat="42.88291" lon="0.11231">
        <ele>1753.6</ele>
        <time>2024-03-16T13:01:05Z</time>
      </trkpt>
      <trkpt lat="42.88292" lon="0.11229">
        <ele>1753.3</ele>
        <time>2024-03-16T13:01:06Z</time>
      </trkpt>
      <trkpt lat="42.88294" lon="0.11225">
        <ele>1752.8</ele>
        <time>2024-03-16T13:01:07Z</time>
      </trkpt>
      <trkpt lat="42.88302" lon="0.11213">
        <ele>1750.8</ele>
        <time>2024-03-16T13:01:12Z</time>
      </trkpt>
      <trkpt lat="42.88305" lon="0.1121">
        <ele>1750.2</ele>
        <time>2024-03-16T13:01:13Z</time>
      </trkpt>
      <trkpt lat="42.88318" lon="0.11194">
        <ele>1747.6</ele>
        <time>2024-03-16T13:01:19Z</time>
      </trkpt>
      <trkpt lat="42.88327" lon="0.11191">
        <ele>1746.6</ele>
        <time>2024-03-16T13:01:25Z</time>
      </trkpt>
      <trkpt lat="42.88327" lon="0.1119">
        <ele>1746.5</ele>
        <time>2024-03-16T13:01:27Z</time>
      </trkpt>
      <trkpt lat="42.88328" lon="0.11188">
        <ele>1746.2</ele>
        <time>2024-03-16T13:01:28Z</time>
      </trkpt>
      <trkpt lat="42.88331" lon="0.11186">
        <ele>1746</ele>
        <time>2024-03-16T13:01:29Z</time>
      </trkpt>
      <trkpt lat="42.88333" lon="0.11184">
        <ele>1745.6</ele>
        <time>2024-03-16T13:01:30Z</time>
      </trkpt>
      <trkpt lat="42.88337" lon="0.11182">
        <ele>1745.4</ele>
        <time>2024-03-16T13:01:31Z</time>
      </trkpt>
      <trkpt lat="42.88352" lon="0.11174">
        <ele>1744.1</ele>
        <time>2024-03-16T13:01:35Z</time>
      </trkpt>
      <trkpt lat="42.88367" lon="0.11166">
        <ele>1743.9</ele>
        <time>2024-03-16T13:01:42Z</time>
      </trkpt>
      <trkpt lat="42.88374" lon="0.11164">
        <ele>1744.4</ele>
        <time>2024-03-16T13:01:44Z</time>
      </trkpt>
      <trkpt lat="42.88378" lon="0.11163">
        <ele>1744.7</ele>
        <time>2024-03-16T13:01:45Z</time>
      </trkpt>
      <trkpt lat="42.88388" lon="0.1116">
        <ele>1745.2</ele>
        <time>2024-03-16T13:01:48Z</time>
      </trkpt>
      <trkpt lat="42.88389" lon="0.11158">
        <ele>1744.9</ele>
        <time>2024-03-16T13:01:49Z</time>
      </trkpt>
      <trkpt lat="42.88389" lon="0.11156">
        <ele>1744.4</ele>
        <time>2024-03-16T13:01:50Z</time>
      </trkpt>
      <trkpt lat="42.88387" lon="0.11154">
        <ele>1743.7</ele>
        <time>2024-03-16T13:01:52Z</time>
      </trkpt>
      <trkpt lat="42.88387" lon="0.11152">
        <ele>1743.2</ele>
        <time>2024-03-16T13:01:53Z</time>
      </trkpt>
      <trkpt lat="42.88389" lon="0.11148">
        <ele>1742.4</ele>
        <time>2024-03-16T13:01:54Z</time>
      </trkpt>
      <trkpt lat="42.8839" lon="0.11146">
        <ele>1742.1</ele>
        <time>2024-03-16T13:01:55Z</time>
      </trkpt>
      <trkpt lat="42.88392" lon="0.11144">
        <ele>1741.9</ele>
        <time>2024-03-16T13:01:56Z</time>
      </trkpt>
      <trkpt lat="42.884" lon="0.11131">
        <ele>1740.8</ele>
        <time>2024-03-16T13:02:02Z</time>
      </trkpt>
      <trkpt lat="42.88404" lon="0.11124">
        <ele>1740.3</ele>
        <time>2024-03-16T13:02:11Z</time>
      </trkpt>
      <trkpt lat="42.88413" lon="0.1111">
        <ele>1739.4</ele>
        <time>2024-03-16T13:02:17Z</time>
      </trkpt>
      <trkpt lat="42.88431" lon="0.11087">
        <ele>1738.1</ele>
        <time>2024-03-16T13:02:26Z</time>
      </trkpt>
      <trkpt lat="42.88438" lon="0.11071">
        <ele>1736.6</ele>
        <time>2024-03-16T13:02:33Z</time>
      </trkpt>
      <trkpt lat="42.8845" lon="0.1105">
        <ele>1735.1</ele>
        <time>2024-03-16T13:02:40Z</time>
      </trkpt>
      <trkpt lat="42.88456" lon="0.11035">
        <ele>1734.2</ele>
        <time>2024-03-16T13:02:46Z</time>
      </trkpt>
      <trkpt lat="42.88458" lon="0.11034">
        <ele>1734.1</ele>
        <time>2024-03-16T13:02:47Z</time>
      </trkpt>
      <trkpt lat="42.8846" lon="0.11032">
        <ele>1734</ele>
        <time>2024-03-16T13:02:48Z</time>
      </trkpt>
      <trkpt lat="42.88472" lon="0.11021">
        <ele>1733.3</ele>
        <time>2024-03-16T13:02:54Z</time>
      </trkpt>
      <trkpt lat="42.88484" lon="0.11014">
        <ele>1733.6</ele>
        <time>2024-03-16T13:02:58Z</time>
      </trkpt>
      <trkpt lat="42.88493" lon="0.11006">
        <ele>1732.5</ele>
        <time>2024-03-16T13:03:00Z</time>
      </trkpt>
      <trkpt lat="42.88509" lon="0.10991">
        <ele>1730.9</ele>
        <time>2024-03-16T13:03:03Z</time>
      </trkpt>
      <trkpt lat="42.88521" lon="0.10981">
        <ele>1730</ele>
        <time>2024-03-16T13:03:06Z</time>
      </trkpt>
      <trkpt lat="42.88525" lon="0.10978">
        <ele>1729.5</ele>
        <time>2024-03-16T13:03:07Z</time>
      </trkpt>
      <trkpt lat="42.88528" lon="0.10974">
        <ele>1728.6</ele>
        <time>2024-03-16T13:03:08Z</time>
      </trkpt>
      <trkpt lat="42.88532" lon="0.10969">
        <ele>1728.2</ele>
        <time>2024-03-16T13:03:09Z</time>
      </trkpt>
      <trkpt lat="42.8854" lon="0.1096">
        <ele>1727.7</ele>
        <time>2024-03-16T13:03:11Z</time>
      </trkpt>
      <trkpt lat="42.88556" lon="0.10949">
        <ele>1726.4</ele>
        <time>2024-03-16T13:03:15Z</time>
      </trkpt>
      <trkpt lat="42.8856" lon="0.10946">
        <ele>1725.7</ele>
        <time>2024-03-16T13:03:16Z</time>
      </trkpt>
      <trkpt lat="42.88564" lon="0.10941">
        <ele>1725</ele>
        <time>2024-03-16T13:03:17Z</time>
      </trkpt>
      <trkpt lat="42.88571" lon="0.10933">
        <ele>1723.8</ele>
        <time>2024-03-16T13:03:19Z</time>
      </trkpt>
      <trkpt lat="42.88575" lon="0.10931">
        <ele>1723.4</ele>
        <time>2024-03-16T13:03:20Z</time>
      </trkpt>
      <trkpt lat="42.88578" lon="0.10929">
        <ele>1723.1</ele>
        <time>2024-03-16T13:03:21Z</time>
      </trkpt>
      <trkpt lat="42.88593" lon="0.10924">
        <ele>1721.3</ele>
        <time>2024-03-16T13:03:27Z</time>
      </trkpt>
      <trkpt lat="42.886" lon="0.10919">
        <ele>1720</ele>
        <time>2024-03-16T13:03:29Z</time>
      </trkpt>
      <trkpt lat="42.88604" lon="0.10917">
        <ele>1719.3</ele>
        <time>2024-03-16T13:03:30Z</time>
      </trkpt>
      <trkpt lat="42.88608" lon="0.10916">
        <ele>1718.9</ele>
        <time>2024-03-16T13:03:31Z</time>
      </trkpt>
      <trkpt lat="42.88631" lon="0.10912">
        <ele>1715.8</ele>
        <time>2024-03-16T13:03:37Z</time>
      </trkpt>
      <trkpt lat="42.8865" lon="0.10909">
        <ele>1714</ele>
        <time>2024-03-16T13:03:42Z</time>
      </trkpt>
      <trkpt lat="42.88655" lon="0.10907">
        <ele>1713.4</ele>
        <time>2024-03-16T13:03:43Z</time>
      </trkpt>
      <trkpt lat="42.88659" lon="0.10906">
        <ele>1712.7</ele>
        <time>2024-03-16T13:03:44Z</time>
      </trkpt>
      <trkpt lat="42.88662" lon="0.10905">
        <ele>1712.3</ele>
        <time>2024-03-16T13:03:45Z</time>
      </trkpt>
      <trkpt lat="42.88665" lon="0.10904">
        <ele>1712</ele>
        <time>2024-03-16T13:03:46Z</time>
      </trkpt>
      <trkpt lat="42.88667" lon="0.10904">
        <ele>1711.8</ele>
        <time>2024-03-16T13:03:47Z</time>
      </trkpt>
      <trkpt lat="42.88664" lon="0.10901">
        <ele>1710.9</ele>
        <time>2024-03-16T13:03:51Z</time>
      </trkpt>
      <trkpt lat="42.88666" lon="0.10899">
        <ele>1710.3</ele>
        <time>2024-03-16T13:03:52Z</time>
      </trkpt>
      <trkpt lat="42.8867" lon="0.10897">
        <ele>1709.8</ele>
        <time>2024-03-16T13:03:53Z</time>
      </trkpt>
      <trkpt lat="42.88678" lon="0.10893">
        <ele>1709.1</ele>
        <time>2024-03-16T13:03:55Z</time>
      </trkpt>
      <trkpt lat="42.88686" lon="0.10891">
        <ele>1708.5</ele>
        <time>2024-03-16T13:03:57Z</time>
      </trkpt>
      <trkpt lat="42.887" lon="0.10885">
        <ele>1707.1</ele>
        <time>2024-03-16T13:04:02Z</time>
      </trkpt>
      <trkpt lat="42.88713" lon="0.10875">
        <ele>1704.4</ele>
        <time>2024-03-16T13:04:06Z</time>
      </trkpt>
      <trkpt lat="42.88717" lon="0.10873">
        <ele>1703.8</ele>
        <time>2024-03-16T13:04:07Z</time>
      </trkpt>
      <trkpt lat="42.88723" lon="0.1087">
        <ele>1702.7</ele>
        <time>2024-03-16T13:04:09Z</time>
      </trkpt>
      <trkpt lat="42.88735" lon="0.10865">
        <ele>1701</ele>
        <time>2024-03-16T13:04:14Z</time>
      </trkpt>
      <trkpt lat="42.88741" lon="0.1086">
        <ele>1698.7</ele>
        <time>2024-03-16T13:04:20Z</time>
      </trkpt>
      <trkpt lat="42.88742" lon="0.10859">
        <ele>1698.1</ele>
        <time>2024-03-16T13:04:21Z</time>
      </trkpt>
      <trkpt lat="42.88748" lon="0.10856">
        <ele>1696.6</ele>
        <time>2024-03-16T13:04:27Z</time>
      </trkpt>
      <trkpt lat="42.88743" lon="0.10856">
        <ele>1696.7</ele>
        <time>2024-03-16T13:04:41Z</time>
      </trkpt>
      <trkpt lat="42.88743" lon="0.10854">
        <ele>1695.4</ele>
        <time>2024-03-16T13:04:44Z</time>
      </trkpt>
      <trkpt lat="42.8874" lon="0.10852">
        <ele>1694.7</ele>
        <time>2024-03-16T13:04:47Z</time>
      </trkpt>
      <trkpt lat="42.88737" lon="0.1085">
        <ele>1693.9</ele>
        <time>2024-03-16T13:04:49Z</time>
      </trkpt>
      <trkpt lat="42.88744" lon="0.10844">
        <ele>1690.8</ele>
        <time>2024-03-16T13:04:55Z</time>
      </trkpt>
      <trkpt lat="42.88747" lon="0.10844">
        <ele>1690.7</ele>
        <time>2024-03-16T13:05:05Z</time>
      </trkpt>
      <trkpt lat="42.88747" lon="0.10846">
        <ele>1691.6</ele>
        <time>2024-03-16T13:05:17Z</time>
      </trkpt>
      <trkpt lat="42.88746" lon="0.10846">
        <ele>1691.5</ele>
        <time>2024-03-16T13:05:32Z</time>
      </trkpt>
      <trkpt lat="42.88746" lon="0.10849">
        <ele>1692.9</ele>
        <time>2024-03-16T13:05:42Z</time>
      </trkpt>
      <trkpt lat="42.88745" lon="0.10849">
        <ele>1693.2</ele>
        <time>2024-03-16T13:05:59Z</time>
      </trkpt>
      <trkpt lat="42.88748" lon="0.10844">
        <ele>1690.5</ele>
        <time>2024-03-16T13:06:09Z</time>
      </trkpt>
      <trkpt lat="42.88755" lon="0.10837">
        <ele>1687.1</ele>
        <time>2024-03-16T13:06:15Z</time>
      </trkpt>
      <trkpt lat="42.8876" lon="0.10835">
        <ele>1686</ele>
        <time>2024-03-16T13:06:16Z</time>
      </trkpt>
      <trkpt lat="42.88771" lon="0.10832">
        <ele>1684.6</ele>
        <time>2024-03-16T13:06:18Z</time>
      </trkpt>
      <trkpt lat="42.88783" lon="0.1083">
        <ele>1683.5</ele>
        <time>2024-03-16T13:06:21Z</time>
      </trkpt>
      <trkpt lat="42.88793" lon="0.10828">
        <ele>1683.3</ele>
        <time>2024-03-16T13:06:27Z</time>
      </trkpt>
      <trkpt lat="42.88797" lon="0.10826">
        <ele>1682.7</ele>
        <time>2024-03-16T13:06:34Z</time>
      </trkpt>
      <trkpt lat="42.88802" lon="0.10825">
        <ele>1682.5</ele>
        <time>2024-03-16T13:06:40Z</time>
      </trkpt>
      <trkpt lat="42.888" lon="0.10823">
        <ele>1680.9</ele>
        <time>2024-03-16T13:06:51Z</time>
      </trkpt>
      <trkpt lat="42.88797" lon="0.10821">
        <ele>1679.8</ele>
        <time>2024-03-16T13:06:59Z</time>
      </trkpt>
      <trkpt lat="42.88797" lon="0.10823">
        <ele>1681.2</ele>
        <time>2024-03-16T13:07:12Z</time>
      </trkpt>
      <trkpt lat="42.888" lon="0.10825">
        <ele>1682.1</ele>
        <time>2024-03-16T13:07:30Z</time>
      </trkpt>
      <trkpt lat="42.88798" lon="0.10826">
        <ele>1682.8</ele>
        <time>2024-03-16T13:07:38Z</time>
      </trkpt>
      <trkpt lat="42.88799" lon="0.1083">
        <ele>1684.8</ele>
        <time>2024-03-16T13:07:51Z</time>
      </trkpt>
      <trkpt lat="42.88801" lon="0.10826">
        <ele>1682.7</ele>
        <time>2024-03-16T13:08:02Z</time>
      </trkpt>
      <trkpt lat="42.888" lon="0.10822">
        <ele>1680.4</ele>
        <time>2024-03-16T13:08:15Z</time>
      </trkpt>
      <trkpt lat="42.8881" lon="0.10816">
        <ele>1677.7</ele>
        <time>2024-03-16T13:08:21Z</time>
      </trkpt>
      <trkpt lat="42.8882" lon="0.10813">
        <ele>1676.3</ele>
        <time>2024-03-16T13:08:24Z</time>
      </trkpt>
      <trkpt lat="42.88832" lon="0.10806">
        <ele>1672.3</ele>
        <time>2024-03-16T13:08:27Z</time>
      </trkpt>
      <trkpt lat="42.88857" lon="0.10795">
        <ele>1670.6</ele>
        <time>2024-03-16T13:08:32Z</time>
      </trkpt>
      <trkpt lat="42.88863" lon="0.10794">
        <ele>1670.4</ele>
        <time>2024-03-16T13:08:33Z</time>
      </trkpt>
      <trkpt lat="42.88875" lon="0.10794">
        <ele>1670.4</ele>
        <time>2024-03-16T13:08:35Z</time>
      </trkpt>
      <trkpt lat="42.88881" lon="0.10793">
        <ele>1670</ele>
        <time>2024-03-16T13:08:36Z</time>
      </trkpt>
      <trkpt lat="42.88898" lon="0.10788">
        <ele>1669.6</ele>
        <time>2024-03-16T13:08:39Z</time>
      </trkpt>
      <trkpt lat="42.88903" lon="0.10785">
        <ele>1669.4</ele>
        <time>2024-03-16T13:08:40Z</time>
      </trkpt>
      <trkpt lat="42.88928" lon="0.10764">
        <ele>1665</ele>
        <time>2024-03-16T13:08:46Z</time>
      </trkpt>
      <trkpt lat="42.88931" lon="0.1076">
        <ele>1664.1</ele>
        <time>2024-03-16T13:08:47Z</time>
      </trkpt>
      <trkpt lat="42.88935" lon="0.10756">
        <ele>1663.1</ele>
        <time>2024-03-16T13:08:48Z</time>
      </trkpt>
      <trkpt lat="42.88939" lon="0.10753">
        <ele>1662.5</ele>
        <time>2024-03-16T13:08:49Z</time>
      </trkpt>
      <trkpt lat="42.88944" lon="0.1075">
        <ele>1662</ele>
        <time>2024-03-16T13:08:50Z</time>
      </trkpt>
      <trkpt lat="42.88948" lon="0.10748">
        <ele>1661.1</ele>
        <time>2024-03-16T13:08:51Z</time>
      </trkpt>
      <trkpt lat="42.88952" lon="0.10747">
        <ele>1660.6</ele>
        <time>2024-03-16T13:08:52Z</time>
      </trkpt>
      <trkpt lat="42.88957" lon="0.10746">
        <ele>1660.3</ele>
        <time>2024-03-16T13:08:53Z</time>
      </trkpt>
      <trkpt lat="42.88988" lon="0.10747">
        <ele>1657.7</ele>
        <time>2024-03-16T13:09:00Z</time>
      </trkpt>
      <trkpt lat="42.88993" lon="0.10748">
        <ele>1657.3</ele>
        <time>2024-03-16T13:09:01Z</time>
      </trkpt>
      <trkpt lat="42.8901" lon="0.10753">
        <ele>1657.2</ele>
        <time>2024-03-16T13:09:05Z</time>
      </trkpt>
      <trkpt lat="42.89015" lon="0.10754">
        <ele>1656.9</ele>
        <time>2024-03-16T13:09:06Z</time>
      </trkpt>
      <trkpt lat="42.89048" lon="0.10751">
        <ele>1654.6</ele>
        <time>2024-03-16T13:09:12Z</time>
      </trkpt>
      <trkpt lat="42.8906" lon="0.10747">
        <ele>1653.1</ele>
        <time>2024-03-16T13:09:14Z</time>
      </trkpt>
      <trkpt lat="42.89065" lon="0.10744">
        <ele>1652.2</ele>
        <time>2024-03-16T13:09:15Z</time>
      </trkpt>
      <trkpt lat="42.8907" lon="0.10741">
        <ele>1651.1</ele>
        <time>2024-03-16T13:09:16Z</time>
      </trkpt>
      <trkpt lat="42.89073" lon="0.10737">
        <ele>1649.9</ele>
        <time>2024-03-16T13:09:17Z</time>
      </trkpt>
      <trkpt lat="42.89078" lon="0.10733">
        <ele>1648.2</ele>
        <time>2024-03-16T13:09:18Z</time>
      </trkpt>
      <trkpt lat="42.89082" lon="0.10728">
        <ele>1646.4</ele>
        <time>2024-03-16T13:09:19Z</time>
      </trkpt>
      <trkpt lat="42.89087" lon="0.10725">
        <ele>1645.1</ele>
        <time>2024-03-16T13:09:20Z</time>
      </trkpt>
      <trkpt lat="42.89091" lon="0.10724">
        <ele>1644.6</ele>
        <time>2024-03-16T13:09:21Z</time>
      </trkpt>
      <trkpt lat="42.89096" lon="0.10725">
        <ele>1644.8</ele>
        <time>2024-03-16T13:09:22Z</time>
      </trkpt>
      <trkpt lat="42.89101" lon="0.10727">
        <ele>1645.2</ele>
        <time>2024-03-16T13:09:23Z</time>
      </trkpt>
      <trkpt lat="42.8912" lon="0.10728">
        <ele>1645</ele>
        <time>2024-03-16T13:09:26Z</time>
      </trkpt>
      <trkpt lat="42.89127" lon="0.10727">
        <ele>1644.2</ele>
        <time>2024-03-16T13:09:27Z</time>
      </trkpt>
      <trkpt lat="42.89141" lon="0.10722">
        <ele>1641.6</ele>
        <time>2024-03-16T13:09:29Z</time>
      </trkpt>
      <trkpt lat="42.89167" lon="0.10712">
        <ele>1635.8</ele>
        <time>2024-03-16T13:09:33Z</time>
      </trkpt>
      <trkpt lat="42.89173" lon="0.10712">
        <ele>1634.2</ele>
        <time>2024-03-16T13:09:34Z</time>
      </trkpt>
      <trkpt lat="42.8918" lon="0.10713">
        <ele>1633.1</ele>
        <time>2024-03-16T13:09:35Z</time>
      </trkpt>
      <trkpt lat="42.89186" lon="0.10714">
        <ele>1632.1</ele>
        <time>2024-03-16T13:09:36Z</time>
      </trkpt>
      <trkpt lat="42.89193" lon="0.10716">
        <ele>1631.1</ele>
        <time>2024-03-16T13:09:37Z</time>
      </trkpt>
      <trkpt lat="42.89221" lon="0.10722">
        <ele>1629.1</ele>
        <time>2024-03-16T13:09:41Z</time>
      </trkpt>
      <trkpt lat="42.8925" lon="0.10725">
        <ele>1625.1</ele>
        <time>2024-03-16T13:09:45Z</time>
      </trkpt>
      <trkpt lat="42.89255" lon="0.10727">
        <ele>1624.4</ele>
        <time>2024-03-16T13:09:46Z</time>
      </trkpt>
      <trkpt lat="42.89259" lon="0.10728">
        <ele>1624.1</ele>
        <time>2024-03-16T13:09:47Z</time>
      </trkpt>
      <trkpt lat="42.89257" lon="0.10733">
        <ele>1626.2</ele>
        <time>2024-03-16T13:09:51Z</time>
      </trkpt>
      <trkpt lat="42.89259" lon="0.10731">
        <ele>1625.3</ele>
        <time>2024-03-16T13:10:04Z</time>
      </trkpt>
      <trkpt lat="42.89265" lon="0.10731">
        <ele>1623.8</ele>
        <time>2024-03-16T13:10:13Z</time>
      </trkpt>
      <trkpt lat="42.89285" lon="0.10733">
        <ele>1620.2</ele>
        <time>2024-03-16T13:10:18Z</time>
      </trkpt>
      <trkpt lat="42.89294" lon="0.10734">
        <ele>1618.6</ele>
        <time>2024-03-16T13:10:20Z</time>
      </trkpt>
      <trkpt lat="42.89312" lon="0.10742">
        <ele>1616.1</ele>
        <time>2024-03-16T13:10:25Z</time>
      </trkpt>
      <trkpt lat="42.89324" lon="0.10745">
        <ele>1612.7</ele>
        <time>2024-03-16T13:10:31Z</time>
      </trkpt>
      <trkpt lat="42.89334" lon="0.10743">
        <ele>1609.2</ele>
        <time>2024-03-16T13:10:34Z</time>
      </trkpt>
      <trkpt lat="42.89339" lon="0.10744">
        <ele>1608.4</ele>
        <time>2024-03-16T13:10:38Z</time>
      </trkpt>
      <trkpt lat="42.89332" lon="0.10745">
        <ele>1610.2</ele>
        <time>2024-03-16T13:10:49Z</time>
      </trkpt>
      <trkpt lat="42.89333" lon="0.10745">
        <ele>1610.2</ele>
        <time>2024-03-16T13:11:01Z</time>
      </trkpt>
      <trkpt lat="42.89335" lon="0.10749">
        <ele>1610.3</ele>
        <time>2024-03-16T13:11:05Z</time>
      </trkpt>
      <trkpt lat="42.89344" lon="0.10761">
        <ele>1611.5</ele>
        <time>2024-03-16T13:11:10Z</time>
      </trkpt>
      <trkpt lat="42.89348" lon="0.10765">
        <ele>1611.9</ele>
        <time>2024-03-16T13:11:12Z</time>
      </trkpt>
      <trkpt lat="42.89353" lon="0.10766">
        <ele>1611.3</ele>
        <time>2024-03-16T13:11:18Z</time>
      </trkpt>
      <trkpt lat="42.89353" lon="0.10769">
        <ele>1612.2</ele>
        <time>2024-03-16T13:11:27Z</time>
      </trkpt>
      <trkpt lat="42.89355" lon="0.10767">
        <ele>1611.6</ele>
        <time>2024-03-16T13:11:31Z</time>
      </trkpt>
      <trkpt lat="42.89357" lon="0.10766">
        <ele>1610.7</ele>
        <time>2024-03-16T13:11:32Z</time>
      </trkpt>
      <trkpt lat="42.89382" lon="0.10757">
        <ele>1604.7</ele>
        <time>2024-03-16T13:11:39Z</time>
      </trkpt>
      <trkpt lat="42.89385" lon="0.10758">
        <ele>1604.5</ele>
        <time>2024-03-16T13:11:40Z</time>
      </trkpt>
      <trkpt lat="42.8939" lon="0.10758">
        <ele>1604.2</ele>
        <time>2024-03-16T13:11:41Z</time>
      </trkpt>
      <trkpt lat="42.89417" lon="0.1076">
        <ele>1601.5</ele>
        <time>2024-03-16T13:11:46Z</time>
      </trkpt>
      <trkpt lat="42.89427" lon="0.10759">
        <ele>1600.2</ele>
        <time>2024-03-16T13:11:48Z</time>
      </trkpt>
      <trkpt lat="42.89432" lon="0.10757">
        <ele>1598.9</ele>
        <time>2024-03-16T13:11:49Z</time>
      </trkpt>
      <trkpt lat="42.89436" lon="0.10755">
        <ele>1597.5</ele>
        <time>2024-03-16T13:11:50Z</time>
      </trkpt>
      <trkpt lat="42.89451" lon="0.1075">
        <ele>1594</ele>
        <time>2024-03-16T13:11:53Z</time>
      </trkpt>
      <trkpt lat="42.89456" lon="0.10749">
        <ele>1593.2</ele>
        <time>2024-03-16T13:11:55Z</time>
      </trkpt>
      <trkpt lat="42.89466" lon="0.10749">
        <ele>1591.6</ele>
        <time>2024-03-16T13:12:01Z</time>
      </trkpt>
      <trkpt lat="42.89477" lon="0.10748">
        <ele>1589.2</ele>
        <time>2024-03-16T13:12:07Z</time>
      </trkpt>
      <trkpt lat="42.89477" lon="0.10744">
        <ele>1587.8</ele>
        <time>2024-03-16T13:12:08Z</time>
      </trkpt>
      <trkpt lat="42.89476" lon="0.1074">
        <ele>1586.4</ele>
        <time>2024-03-16T13:12:09Z</time>
      </trkpt>
      <trkpt lat="42.89473" lon="0.10736">
        <ele>1585.3</ele>
        <time>2024-03-16T13:12:10Z</time>
      </trkpt>
      <trkpt lat="42.89472" lon="0.10723">
        <ele>1580.4</ele>
        <time>2024-03-16T13:12:13Z</time>
      </trkpt>
      <trkpt lat="42.8948" lon="0.10719">
        <ele>1577.3</ele>
        <time>2024-03-16T13:12:15Z</time>
      </trkpt>
      <trkpt lat="42.89488" lon="0.10716">
        <ele>1575</ele>
        <time>2024-03-16T13:12:17Z</time>
      </trkpt>
      <trkpt lat="42.89495" lon="0.10704">
        <ele>1569.5</ele>
        <time>2024-03-16T13:12:20Z</time>
      </trkpt>
      <trkpt lat="42.89497" lon="0.10695">
        <ele>1565.5</ele>
        <time>2024-03-16T13:12:22Z</time>
      </trkpt>
      <trkpt lat="42.89501" lon="0.10691">
        <ele>1563.7</ele>
        <time>2024-03-16T13:12:23Z</time>
      </trkpt>
      <trkpt lat="42.89504" lon="0.10689">
        <ele>1561.9</ele>
        <time>2024-03-16T13:12:24Z</time>
      </trkpt>
      <trkpt lat="42.89508" lon="0.10686">
        <ele>1560.2</ele>
        <time>2024-03-16T13:12:25Z</time>
      </trkpt>
      <trkpt lat="42.89512" lon="0.10685">
        <ele>1558.9</ele>
        <time>2024-03-16T13:12:26Z</time>
      </trkpt>
      <trkpt lat="42.89515" lon="0.10685">
        <ele>1558.4</ele>
        <time>2024-03-16T13:12:27Z</time>
      </trkpt>
      <trkpt lat="42.89518" lon="0.10684">
        <ele>1557.5</ele>
        <time>2024-03-16T13:12:28Z</time>
      </trkpt>
      <trkpt lat="42.89521" lon="0.10682">
        <ele>1556.2</ele>
        <time>2024-03-16T13:12:29Z</time>
      </trkpt>
      <trkpt lat="42.89523" lon="0.10678">
        <ele>1554.8</ele>
        <time>2024-03-16T13:12:30Z</time>
      </trkpt>
      <trkpt lat="42.89522" lon="0.10675">
        <ele>1554.1</ele>
        <time>2024-03-16T13:12:31Z</time>
      </trkpt>
      <trkpt lat="42.89519" lon="0.10673">
        <ele>1553.9</ele>
        <time>2024-03-16T13:12:32Z</time>
      </trkpt>
      <trkpt lat="42.89517" lon="0.10669">
        <ele>1553.1</ele>
        <time>2024-03-16T13:12:33Z</time>
      </trkpt>
      <trkpt lat="42.89517" lon="0.10664">
        <ele>1552.1</ele>
        <time>2024-03-16T13:12:34Z</time>
      </trkpt>
      <trkpt lat="42.89518" lon="0.1066">
        <ele>1551.3</ele>
        <time>2024-03-16T13:12:35Z</time>
      </trkpt>
      <trkpt lat="42.89521" lon="0.10652">
        <ele>1549.4</ele>
        <time>2024-03-16T13:12:37Z</time>
      </trkpt>
      <trkpt lat="42.8952" lon="0.10647">
        <ele>1548.7</ele>
        <time>2024-03-16T13:12:38Z</time>
      </trkpt>
      <trkpt lat="42.89518" lon="0.10642">
        <ele>1548.4</ele>
        <time>2024-03-16T13:12:39Z</time>
      </trkpt>
      <trkpt lat="42.89515" lon="0.10638">
        <ele>1548.1</ele>
        <time>2024-03-16T13:12:40Z</time>
      </trkpt>
      <trkpt lat="42.89514" lon="0.10633">
        <ele>1548</ele>
        <time>2024-03-16T13:12:41Z</time>
      </trkpt>
      <trkpt lat="42.89511" lon="0.10607">
        <ele>1546.4</ele>
        <time>2024-03-16T13:12:47Z</time>
      </trkpt>
      <trkpt lat="42.89511" lon="0.1059">
        <ele>1545</ele>
        <time>2024-03-16T13:12:52Z</time>
      </trkpt>
      <trkpt lat="42.89507" lon="0.10581">
        <ele>1545.4</ele>
        <time>2024-03-16T13:12:58Z</time>
      </trkpt>
      <trkpt lat="42.89508" lon="0.10586">
        <ele>1545.4</ele>
        <time>2024-03-16T13:13:08Z</time>
      </trkpt>
      <trkpt lat="42.89507" lon="0.10589">
        <ele>1546</ele>
        <time>2024-03-16T13:13:18Z</time>
      </trkpt>
      <trkpt lat="42.89507" lon="0.10587">
        <ele>1545.7</ele>
        <time>2024-03-16T13:13:30Z</time>
      </trkpt>
      <trkpt lat="42.89508" lon="0.10588">
        <ele>1545.5</ele>
        <time>2024-03-16T13:13:38Z</time>
      </trkpt>
      <trkpt lat="42.89509" lon="0.10588">
        <ele>1545.4</ele>
        <time>2024-03-16T13:13:49Z</time>
      </trkpt>
      <trkpt lat="42.89509" lon="0.10587">
        <ele>1545.4</ele>
        <time>2024-03-16T13:14:01Z</time>
      </trkpt>
      <trkpt lat="42.89508" lon="0.10591">
        <ele>1545.9</ele>
        <time>2024-03-16T13:14:14Z</time>
      </trkpt>
      <trkpt lat="42.89509" lon="0.10587">
        <ele>1545.4</ele>
        <time>2024-03-16T13:14:23Z</time>
      </trkpt>
      <trkpt lat="42.89511" lon="0.10582">
        <ele>1544.5</ele>
        <time>2024-03-16T13:14:26Z</time>
      </trkpt>
      <trkpt lat="42.89516" lon="0.1057">
        <ele>1542.7</ele>
        <time>2024-03-16T13:14:32Z</time>
      </trkpt>
      <trkpt lat="42.89521" lon="0.10551">
        <ele>1540.7</ele>
        <time>2024-03-16T13:14:40Z</time>
      </trkpt>
      <trkpt lat="42.89529" lon="0.10526">
        <ele>1538.7</ele>
        <time>2024-03-16T13:14:49Z</time>
      </trkpt>
      <trkpt lat="42.89538" lon="0.10497">
        <ele>1535.3</ele>
        <time>2024-03-16T13:14:56Z</time>
      </trkpt>
      <trkpt lat="42.89548" lon="0.10464">
        <ele>1534.9</ele>
        <time>2024-03-16T13:15:04Z</time>
      </trkpt>
      <trkpt lat="42.89558" lon="0.10451">
        <ele>1538.1</ele>
        <time>2024-03-16T13:15:10Z</time>
      </trkpt>
      <trkpt lat="42.89571" lon="0.10453">
        <ele>1537.9</ele>
        <time>2024-03-16T13:15:16Z</time>
      </trkpt>
      <trkpt lat="42.89597" lon="0.10462">
        <ele>1536.5</ele>
        <time>2024-03-16T13:15:24Z</time>
      </trkpt>
      <trkpt lat="42.8961" lon="0.10467">
        <ele>1535.8</ele>
        <time>2024-03-16T13:15:27Z</time>
      </trkpt>
      <trkpt lat="42.89624" lon="0.10472">
        <ele>1534.4</ele>
        <time>2024-03-16T13:15:30Z</time>
      </trkpt>
      <trkpt lat="42.89661" lon="0.10475">
        <ele>1530.3</ele>
        <time>2024-03-16T13:15:37Z</time>
      </trkpt>
      <trkpt lat="42.89676" lon="0.10472">
        <ele>1528</ele>
        <time>2024-03-16T13:15:40Z</time>
      </trkpt>
      <trkpt lat="42.89688" lon="0.10479">
        <ele>1524.4</ele>
        <time>2024-03-16T13:15:45Z</time>
      </trkpt>
      <trkpt lat="42.89695" lon="0.10483">
        <ele>1522.3</ele>
        <time>2024-03-16T13:15:47Z</time>
      </trkpt>
      <trkpt lat="42.89715" lon="0.10491">
        <ele>1518</ele>
        <time>2024-03-16T13:15:51Z</time>
      </trkpt>
      <trkpt lat="42.89736" lon="0.10497">
        <ele>1514.8</ele>
        <time>2024-03-16T13:15:57Z</time>
      </trkpt>
      <trkpt lat="42.89752" lon="0.10497">
        <ele>1513</ele>
        <time>2024-03-16T13:16:03Z</time>
      </trkpt>
      <trkpt lat="42.89755" lon="0.10497">
        <ele>1512.6</ele>
        <time>2024-03-16T13:16:09Z</time>
      </trkpt>
      <trkpt lat="42.89756" lon="0.10498">
        <ele>1512.3</ele>
        <time>2024-03-16T13:16:15Z</time>
      </trkpt>
      <trkpt lat="42.89765" lon="0.10501">
        <ele>1510.8</ele>
        <time>2024-03-16T13:16:18Z</time>
      </trkpt>
      <trkpt lat="42.8977" lon="0.10501">
        <ele>1510.1</ele>
        <time>2024-03-16T13:16:19Z</time>
      </trkpt>
      <trkpt lat="42.89776" lon="0.105">
        <ele>1509.3</ele>
        <time>2024-03-16T13:16:20Z</time>
      </trkpt>
      <trkpt lat="42.89781" lon="0.10496">
        <ele>1508.7</ele>
        <time>2024-03-16T13:16:21Z</time>
      </trkpt>
      <trkpt lat="42.89786" lon="0.10493">
        <ele>1508.1</ele>
        <time>2024-03-16T13:16:22Z</time>
      </trkpt>
      <trkpt lat="42.89791" lon="0.1049">
        <ele>1507.6</ele>
        <time>2024-03-16T13:16:23Z</time>
      </trkpt>
      <trkpt lat="42.89796" lon="0.10486">
        <ele>1507.1</ele>
        <time>2024-03-16T13:16:24Z</time>
      </trkpt>
      <trkpt lat="42.898" lon="0.10482">
        <ele>1506.8</ele>
        <time>2024-03-16T13:16:25Z</time>
      </trkpt>
      <trkpt lat="42.89804" lon="0.10478">
        <ele>1506.6</ele>
        <time>2024-03-16T13:16:26Z</time>
      </trkpt>
      <trkpt lat="42.8984" lon="0.10455">
        <ele>1502.7</ele>
        <time>2024-03-16T13:16:34Z</time>
      </trkpt>
      <trkpt lat="42.89863" lon="0.10445">
        <ele>1499.7</ele>
        <time>2024-03-16T13:16:38Z</time>
      </trkpt>
      <trkpt lat="42.89877" lon="0.10441">
        <ele>1497.5</ele>
        <time>2024-03-16T13:16:40Z</time>
      </trkpt>
      <trkpt lat="42.89893" lon="0.10435">
        <ele>1495.5</ele>
        <time>2024-03-16T13:16:42Z</time>
      </trkpt>
      <trkpt lat="42.8991" lon="0.1043">
        <ele>1493.5</ele>
        <time>2024-03-16T13:16:44Z</time>
      </trkpt>
      <trkpt lat="42.89963" lon="0.10422">
        <ele>1490.4</ele>
        <time>2024-03-16T13:16:51Z</time>
      </trkpt>
      <trkpt lat="42.9" lon="0.10416">
        <ele>1487.9</ele>
        <time>2024-03-16T13:16:58Z</time>
      </trkpt>
      <trkpt lat="42.90008" lon="0.10415">
        <ele>1487.4</ele>
        <time>2024-03-16T13:17:00Z</time>
      </trkpt>
      <trkpt lat="42.90012" lon="0.10414">
        <ele>1487.1</ele>
        <time>2024-03-16T13:17:01Z</time>
      </trkpt>
      <trkpt lat="42.90015" lon="0.10413">
        <ele>1486.8</ele>
        <time>2024-03-16T13:17:02Z</time>
      </trkpt>
      <trkpt lat="42.90027" lon="0.10409">
        <ele>1485.6</ele>
        <time>2024-03-16T13:17:05Z</time>
      </trkpt>
      <trkpt lat="42.90043" lon="0.10405">
        <ele>1483.5</ele>
        <time>2024-03-16T13:17:08Z</time>
      </trkpt>
      <trkpt lat="42.90049" lon="0.10405">
        <ele>1482.9</ele>
        <time>2024-03-16T13:17:09Z</time>
      </trkpt>
      <trkpt lat="42.90056" lon="0.10404">
        <ele>1482.1</ele>
        <time>2024-03-16T13:17:10Z</time>
      </trkpt>
      <trkpt lat="42.90069" lon="0.10399">
        <ele>1480.1</ele>
        <time>2024-03-16T13:17:12Z</time>
      </trkpt>
      <trkpt lat="42.90082" lon="0.10397">
        <ele>1478.7</ele>
        <time>2024-03-16T13:17:14Z</time>
      </trkpt>
      <trkpt lat="42.90088" lon="0.10395">
        <ele>1478.1</ele>
        <time>2024-03-16T13:17:15Z</time>
      </trkpt>
      <trkpt lat="42.90094" lon="0.10393">
        <ele>1477.6</ele>
        <time>2024-03-16T13:17:16Z</time>
      </trkpt>
      <trkpt lat="42.90099" lon="0.10391">
        <ele>1477</ele>
        <time>2024-03-16T13:17:17Z</time>
      </trkpt>
      <trkpt lat="42.90105" lon="0.1039">
        <ele>1476.5</ele>
        <time>2024-03-16T13:17:18Z</time>
      </trkpt>
      <trkpt lat="42.90111" lon="0.10388">
        <ele>1475.9</ele>
        <time>2024-03-16T13:17:19Z</time>
      </trkpt>
      <trkpt lat="42.90116" lon="0.10386">
        <ele>1475.5</ele>
        <time>2024-03-16T13:17:20Z</time>
      </trkpt>
      <trkpt lat="42.90122" lon="0.10384">
        <ele>1475.1</ele>
        <time>2024-03-16T13:17:21Z</time>
      </trkpt>
      <trkpt lat="42.90128" lon="0.10382">
        <ele>1474.8</ele>
        <time>2024-03-16T13:17:22Z</time>
      </trkpt>
      <trkpt lat="42.90133" lon="0.10381">
        <ele>1474.6</ele>
        <time>2024-03-16T13:17:23Z</time>
      </trkpt>
      <trkpt lat="42.90139" lon="0.10379">
        <ele>1474.3</ele>
        <time>2024-03-16T13:17:24Z</time>
      </trkpt>
      <trkpt lat="42.90144" lon="0.10377">
        <ele>1473.9</ele>
        <time>2024-03-16T13:17:25Z</time>
      </trkpt>
      <trkpt lat="42.90147" lon="0.10374">
        <ele>1473.5</ele>
        <time>2024-03-16T13:17:26Z</time>
      </trkpt>
      <trkpt lat="42.90152" lon="0.10372">
        <ele>1473.1</ele>
        <time>2024-03-16T13:17:27Z</time>
      </trkpt>
      <trkpt lat="42.90193" lon="0.10357">
        <ele>1468.8</ele>
        <time>2024-03-16T13:17:35Z</time>
      </trkpt>
      <trkpt lat="42.90212" lon="0.10352">
        <ele>1467.1</ele>
        <time>2024-03-16T13:17:38Z</time>
      </trkpt>
      <trkpt lat="42.90232" lon="0.10343">
        <ele>1465.2</ele>
        <time>2024-03-16T13:17:41Z</time>
      </trkpt>
      <trkpt lat="42.90238" lon="0.10343">
        <ele>1464.9</ele>
        <time>2024-03-16T13:17:42Z</time>
      </trkpt>
      <trkpt lat="42.90262" lon="0.10339">
        <ele>1463.8</ele>
        <time>2024-03-16T13:17:47Z</time>
      </trkpt>
      <trkpt lat="42.90274" lon="0.10337">
        <ele>1463.2</ele>
        <time>2024-03-16T13:17:50Z</time>
      </trkpt>
      <trkpt lat="42.90279" lon="0.10335">
        <ele>1463</ele>
        <time>2024-03-16T13:17:51Z</time>
      </trkpt>
      <trkpt lat="42.90289" lon="0.1033">
        <ele>1462.1</ele>
        <time>2024-03-16T13:17:53Z</time>
      </trkpt>
      <trkpt lat="42.90329" lon="0.10315">
        <ele>1459.4</ele>
        <time>2024-03-16T13:18:01Z</time>
      </trkpt>
      <trkpt lat="42.90344" lon="0.1031">
        <ele>1458.5</ele>
        <time>2024-03-16T13:18:07Z</time>
      </trkpt>
      <trkpt lat="42.90352" lon="0.10309">
        <ele>1458</ele>
        <time>2024-03-16T13:18:11Z</time>
      </trkpt>
      <trkpt lat="42.90354" lon="0.1031">
        <ele>1457.9</ele>
        <time>2024-03-16T13:18:13Z</time>
      </trkpt>
      <trkpt lat="42.90353" lon="0.10312">
        <ele>1458.1</ele>
        <time>2024-03-16T13:18:22Z</time>
      </trkpt>
      <trkpt lat="42.90354" lon="0.10316">
        <ele>1458.4</ele>
        <time>2024-03-16T13:18:36Z</time>
      </trkpt>
      <trkpt lat="42.90353" lon="0.10314">
        <ele>1458.4</ele>
        <time>2024-03-16T13:18:46Z</time>
      </trkpt>
      <trkpt lat="42.90352" lon="0.10313">
        <ele>1458.3</ele>
        <time>2024-03-16T13:18:54Z</time>
      </trkpt>
      <trkpt lat="42.90353" lon="0.10316">
        <ele>1458.5</ele>
        <time>2024-03-16T13:19:00Z</time>
      </trkpt>
      <trkpt lat="42.90354" lon="0.10316">
        <ele>1458.4</ele>
        <time>2024-03-16T13:19:10Z</time>
      </trkpt>
      <trkpt lat="42.90355" lon="0.10315">
        <ele>1458.3</ele>
        <time>2024-03-16T13:19:20Z</time>
      </trkpt>
      <trkpt lat="42.90359" lon="0.10315">
        <ele>1458.1</ele>
        <time>2024-03-16T13:19:27Z</time>
      </trkpt>
      <trkpt lat="42.9036" lon="0.10316">
        <ele>1458.1</ele>
        <time>2024-03-16T13:19:28Z</time>
      </trkpt>
      <trkpt lat="42.90361" lon="0.10319">
        <ele>1458.5</ele>
        <time>2024-03-16T13:19:30Z</time>
      </trkpt>
      <trkpt lat="42.90363" lon="0.10322">
        <ele>1458.8</ele>
        <time>2024-03-16T13:19:34Z</time>
      </trkpt>
      <trkpt lat="42.90364" lon="0.10323">
        <ele>1458.9</ele>
        <time>2024-03-16T13:19:35Z</time>
      </trkpt>
      <trkpt lat="42.90372" lon="0.10322">
        <ele>1458.7</ele>
        <time>2024-03-16T13:19:42Z</time>
      </trkpt>
      <trkpt lat="42.90374" lon="0.1032">
        <ele>1458.6</ele>
        <time>2024-03-16T13:19:43Z</time>
      </trkpt>
      <trkpt lat="42.90375" lon="0.10319">
        <ele>1458.5</ele>
        <time>2024-03-16T13:19:44Z</time>
      </trkpt>
      <trkpt lat="42.9038" lon="0.10315">
        <ele>1458</ele>
        <time>2024-03-16T13:19:49Z</time>
      </trkpt>
      <trkpt lat="42.90383" lon="0.10315">
        <ele>1458.1</ele>
        <time>2024-03-16T13:19:52Z</time>
      </trkpt>
      <trkpt lat="42.90386" lon="0.10315">
        <ele>1458</ele>
        <time>2024-03-16T13:19:56Z</time>
      </trkpt>
      <trkpt lat="42.90395" lon="0.1031">
        <ele>1457.5</ele>
        <time>2024-03-16T13:20:05Z</time>
      </trkpt>
      <trkpt lat="42.90397" lon="0.10312">
        <ele>1457.7</ele>
        <time>2024-03-16T13:20:07Z</time>
      </trkpt>
      <trkpt lat="42.90401" lon="0.1032">
        <ele>1458.6</ele>
        <time>2024-03-16T13:20:13Z</time>
      </trkpt>
      <trkpt lat="42.90406" lon="0.10326">
        <ele>1459.2</ele>
        <time>2024-03-16T13:20:19Z</time>
      </trkpt>
      <trkpt lat="42.90408" lon="0.10325">
        <ele>1459.1</ele>
        <time>2024-03-16T13:20:20Z</time>
      </trkpt>
      <trkpt lat="42.90413" lon="0.10319">
        <ele>1458.4</ele>
        <time>2024-03-16T13:20:28Z</time>
      </trkpt>
      <trkpt lat="42.90414" lon="0.1032">
        <ele>1458.5</ele>
        <time>2024-03-16T13:20:29Z</time>
      </trkpt>
      <trkpt lat="42.9042" lon="0.10324">
        <ele>1459.4</ele>
        <time>2024-03-16T13:20:35Z</time>
      </trkpt>
      <trkpt lat="42.90425" lon="0.1032">
        <ele>1459.5</ele>
        <time>2024-03-16T13:20:44Z</time>
      </trkpt>
      <trkpt lat="42.90426" lon="0.10323">
        <ele>1459.9</ele>
        <time>2024-03-16T13:20:52Z</time>
      </trkpt>
      <trkpt lat="42.90426" lon="0.10322">
        <ele>1459.8</ele>
        <time>2024-03-16T13:20:59Z</time>
      </trkpt>
      <trkpt lat="42.90426" lon="0.10319">
        <ele>1459.5</ele>
        <time>2024-03-16T13:21:08Z</time>
      </trkpt>
      <trkpt lat="42.90428" lon="0.10325">
        <ele>1460.3</ele>
        <time>2024-03-16T13:21:15Z</time>
      </trkpt>
      <trkpt lat="42.90426" lon="0.1032">
        <ele>1459.6</ele>
        <time>2024-03-16T13:21:22Z</time>
      </trkpt>
      <trkpt lat="42.90425" lon="0.10322">
        <ele>1459.7</ele>
        <time>2024-03-16T13:21:29Z</time>
      </trkpt>
      <trkpt lat="42.90425" lon="0.10321">
        <ele>1459.5</ele>
        <time>2024-03-16T13:21:44Z</time>
      </trkpt>
      <trkpt lat="42.90425" lon="0.10323">
        <ele>1459.8</ele>
        <time>2024-03-16T13:22:04Z</time>
      </trkpt>
      <trkpt lat="42.90425" lon="0.10321">
        <ele>1459.6</ele>
        <time>2024-03-16T13:22:25Z</time>
      </trkpt>
      <trkpt lat="42.90425" lon="0.10322">
        <ele>1459.7</ele>
        <time>2024-03-16T13:22:46Z</time>
      </trkpt>
      <trkpt lat="42.90427" lon="0.10322">
        <ele>1459.9</ele>
        <time>2024-03-16T13:23:02Z</time>
      </trkpt>
      <trkpt lat="42.90428" lon="0.10322">
        <ele>1460</ele>
        <time>2024-03-16T13:23:21Z</time>
      </trkpt>
    </trkseg>
  </trk>
</gpx>